<?xml version="1.0" encoding="UTF-8"?>
<gpx version="1.1" creator="2bulu-scraper" xmlns="http://www.topografix.com/GPX/1/1">
  <metadata><name>宜宾马鞍山</name><desc>source: 2bulu.com trackId=77012991; exported 2026-08-31T01:40:29.364Z</desc>
    <bounds minlat="29.169357" minlon="104.634788" maxlat="29.196532" maxlon="104.642352"/>
    <link href="https://www.2bulu.com/track/t-HVn7GZ%252BmRyfp%252FR2KBg5Tzw%253D%253D.htm"><text>2bulu 源页面</text></link>
  </metadata>

  <trk><name>宜宾马鞍山</name>
      <trkseg>
        <trkpt lat="29.170733" lon="104.640488"><ele>408</ele><time>2025-12-30T20:01:02.000Z</time></trkpt>
        <trkpt lat="29.170733" lon="104.640488"><ele>408</ele><time>2025-12-30T20:01:03.000Z</time></trkpt>
        <trkpt lat="29.170732" lon="104.640489"><ele>408</ele><time>2025-12-30T20:01:05.000Z</time></trkpt>
        <trkpt lat="29.17081" lon="104.640541"><ele>411</ele><time>2025-12-30T20:07:23.000Z</time></trkpt>
        <trkpt lat="29.170862" lon="104.640545"><ele>412</ele><time>2025-12-30T20:07:25.000Z</time></trkpt>
        <trkpt lat="29.17088" lon="104.640529"><ele>412</ele><time>2025-12-30T20:07:26.000Z</time></trkpt>
        <trkpt lat="29.170878" lon="104.640527"><ele>412</ele><time>2025-12-30T20:07:27.000Z</time></trkpt>
        <trkpt lat="29.17089" lon="104.640526"><ele>412</ele><time>2025-12-30T20:07:28.000Z</time></trkpt>
        <trkpt lat="29.170923" lon="104.640516"><ele>413</ele><time>2025-12-30T20:07:35.000Z</time></trkpt>
        <trkpt lat="29.170948" lon="104.640507"><ele>413</ele><time>2025-12-30T20:07:38.000Z</time></trkpt>
        <trkpt lat="29.170981" lon="104.640501"><ele>414</ele><time>2025-12-30T20:07:41.000Z</time></trkpt>
        <trkpt lat="29.171023" lon="104.640504"><ele>414</ele><time>2025-12-30T20:07:45.000Z</time></trkpt>
        <trkpt lat="29.171052" lon="104.6405"><ele>415</ele><time>2025-12-30T20:07:48.000Z</time></trkpt>
        <trkpt lat="29.171069" lon="104.640496"><ele>415</ele><time>2025-12-30T20:07:50.000Z</time></trkpt>
        <trkpt lat="29.171127" lon="104.640467"><ele>416</ele><time>2025-12-30T20:07:58.000Z</time></trkpt>
        <trkpt lat="29.171159" lon="104.64045"><ele>416</ele><time>2025-12-30T20:08:06.000Z</time></trkpt>
        <trkpt lat="29.171186" lon="104.640432"><ele>415</ele><time>2025-12-30T20:08:12.000Z</time></trkpt>
        <trkpt lat="29.171212" lon="104.640412"><ele>415</ele><time>2025-12-30T20:08:16.000Z</time></trkpt>
        <trkpt lat="29.171223" lon="104.640381"><ele>414</ele><time>2025-12-30T20:08:20.000Z</time></trkpt>
        <trkpt lat="29.17123" lon="104.640367"><ele>414</ele><time>2025-12-30T20:08:21.000Z</time></trkpt>
        <trkpt lat="29.171241" lon="104.640303"><ele>414</ele><time>2025-12-30T20:08:26.000Z</time></trkpt>
        <trkpt lat="29.171253" lon="104.640286"><ele>413</ele><time>2025-12-30T20:08:28.000Z</time></trkpt>
        <trkpt lat="29.171289" lon="104.640215"><ele>413</ele><time>2025-12-30T20:08:35.000Z</time></trkpt>
        <trkpt lat="29.171293" lon="104.640203"><ele>414</ele><time>2025-12-30T20:08:36.000Z</time></trkpt>
        <trkpt lat="29.171303" lon="104.640193"><ele>414</ele><time>2025-12-30T20:08:37.000Z</time></trkpt>
        <trkpt lat="29.171338" lon="104.640151"><ele>414</ele><time>2025-12-30T20:08:40.000Z</time></trkpt>
        <trkpt lat="29.17139" lon="104.640092"><ele>414</ele><time>2025-12-30T20:08:46.000Z</time></trkpt>
        <trkpt lat="29.171436" lon="104.640073"><ele>414</ele><time>2025-12-30T20:08:50.000Z</time></trkpt>
        <trkpt lat="29.171491" lon="104.640063"><ele>413</ele><time>2025-12-30T20:08:54.000Z</time></trkpt>
        <trkpt lat="29.171523" lon="104.640062"><ele>414</ele><time>2025-12-30T20:08:58.000Z</time></trkpt>
        <trkpt lat="29.171542" lon="104.640087"><ele>414</ele><time>2025-12-30T20:09:01.000Z</time></trkpt>
        <trkpt lat="29.171618" lon="104.640145"><ele>414</ele><time>2025-12-30T20:09:07.000Z</time></trkpt>
        <trkpt lat="29.171686" lon="104.640192"><ele>414</ele><time>2025-12-30T20:09:14.000Z</time></trkpt>
        <trkpt lat="29.171759" lon="104.640236"><ele>414</ele><time>2025-12-30T20:09:20.000Z</time></trkpt>
        <trkpt lat="29.17183" lon="104.640258"><ele>414</ele><time>2025-12-30T20:09:25.000Z</time></trkpt>
        <trkpt lat="29.171886" lon="104.640254"><ele>414</ele><time>2025-12-30T20:09:31.000Z</time></trkpt>
        <trkpt lat="29.171964" lon="104.640253"><ele>414</ele><time>2025-12-30T20:09:37.000Z</time></trkpt>
        <trkpt lat="29.172038" lon="104.640246"><ele>413</ele><time>2025-12-30T20:09:44.000Z</time></trkpt>
        <trkpt lat="29.172061" lon="104.640236"><ele>413</ele><time>2025-12-30T20:09:47.000Z</time></trkpt>
        <trkpt lat="29.172103" lon="104.640225"><ele>412</ele><time>2025-12-30T20:09:51.000Z</time></trkpt>
        <trkpt lat="29.17213" lon="104.640219"><ele>412</ele><time>2025-12-30T20:09:54.000Z</time></trkpt>
        <trkpt lat="29.172176" lon="104.64021"><ele>411</ele><time>2025-12-30T20:10:00.000Z</time></trkpt>
        <trkpt lat="29.172215" lon="104.640193"><ele>411</ele><time>2025-12-30T20:10:05.000Z</time></trkpt>
        <trkpt lat="29.172227" lon="104.640181"><ele>411</ele><time>2025-12-30T20:10:07.000Z</time></trkpt>
        <trkpt lat="29.172233" lon="104.640179"><ele>411</ele><time>2025-12-30T20:10:13.000Z</time></trkpt>
        <trkpt lat="29.172233" lon="104.640183"><ele>410</ele><time>2025-12-30T20:10:22.000Z</time></trkpt>
        <trkpt lat="29.172233" lon="104.640183"><ele>410</ele><time>2025-12-30T20:10:27.000Z</time></trkpt>
        <trkpt lat="29.172233" lon="104.640183"><ele>410</ele><time>2025-12-30T20:10:30.000Z</time></trkpt>
        <trkpt lat="29.17223" lon="104.640182"><ele>410</ele><time>2025-12-30T20:10:38.000Z</time></trkpt>
        <trkpt lat="29.172242" lon="104.640167"><ele>410</ele><time>2025-12-30T20:10:42.000Z</time></trkpt>
        <trkpt lat="29.172255" lon="104.64016"><ele>410</ele><time>2025-12-30T20:10:51.000Z</time></trkpt>
        <trkpt lat="29.172248" lon="104.640173"><ele>410</ele><time>2025-12-30T20:10:56.000Z</time></trkpt>
        <trkpt lat="29.17225" lon="104.640166"><ele>409</ele><time>2025-12-30T20:11:02.000Z</time></trkpt>
        <trkpt lat="29.172227" lon="104.640174"><ele>409</ele><time>2025-12-30T20:11:08.000Z</time></trkpt>
        <trkpt lat="29.172228" lon="104.640157"><ele>410</ele><time>2025-12-30T20:11:12.000Z</time></trkpt>
        <trkpt lat="29.172242" lon="104.640114"><ele>411</ele><time>2025-12-30T20:11:16.000Z</time></trkpt>
        <trkpt lat="29.172239" lon="104.640113"><ele>411</ele><time>2025-12-30T20:11:17.000Z</time></trkpt>
        <trkpt lat="29.172235" lon="104.640104"><ele>412</ele><time>2025-12-30T20:11:21.000Z</time></trkpt>
        <trkpt lat="29.172235" lon="104.640108"><ele>412</ele><time>2025-12-30T20:11:23.000Z</time></trkpt>
        <trkpt lat="29.172235" lon="104.640108"><ele>412</ele><time>2025-12-30T20:11:24.000Z</time></trkpt>
        <trkpt lat="29.172222" lon="104.640085"><ele>413</ele><time>2025-12-30T20:11:30.000Z</time></trkpt>
        <trkpt lat="29.172222" lon="104.640085"><ele>413</ele><time>2025-12-30T20:11:31.000Z</time></trkpt>
        <trkpt lat="29.172231" lon="104.640077"><ele>413</ele><time>2025-12-30T20:11:33.000Z</time></trkpt>
        <trkpt lat="29.172244" lon="104.640057"><ele>413</ele><time>2025-12-30T20:11:37.000Z</time></trkpt>
        <trkpt lat="29.172244" lon="104.640057"><ele>413</ele><time>2025-12-30T20:11:38.000Z</time></trkpt>
        <trkpt lat="29.172243" lon="104.640057"><ele>413</ele><time>2025-12-30T20:11:39.000Z</time></trkpt>
        <trkpt lat="29.17224" lon="104.64005"><ele>413</ele><time>2025-12-30T20:11:41.000Z</time></trkpt>
        <trkpt lat="29.172239" lon="104.640042"><ele>413</ele><time>2025-12-30T20:11:42.000Z</time></trkpt>
        <trkpt lat="29.172238" lon="104.640035"><ele>414</ele><time>2025-12-30T20:11:43.000Z</time></trkpt>
        <trkpt lat="29.172252" lon="104.640019"><ele>414</ele><time>2025-12-30T20:11:46.000Z</time></trkpt>
        <trkpt lat="29.172268" lon="104.64001"><ele>415</ele><time>2025-12-30T20:11:48.000Z</time></trkpt>
        <trkpt lat="29.17228" lon="104.640006"><ele>413</ele><time>2025-12-30T20:11:54.000Z</time></trkpt>
        <trkpt lat="29.172279" lon="104.640004"><ele>413</ele><time>2025-12-30T20:11:55.000Z</time></trkpt>
        <trkpt lat="29.172291" lon="104.639997"><ele>413</ele><time>2025-12-30T20:12:05.000Z</time></trkpt>
        <trkpt lat="29.17233" lon="104.639947"><ele>413</ele><time>2025-12-30T20:12:11.000Z</time></trkpt>
        <trkpt lat="29.172342" lon="104.639846"><ele>412</ele><time>2025-12-30T20:12:20.000Z</time></trkpt>
        <trkpt lat="29.172369" lon="104.639792"><ele>412</ele><time>2025-12-30T20:12:25.000Z</time></trkpt>
        <trkpt lat="29.172382" lon="104.639772"><ele>412</ele><time>2025-12-30T20:12:27.000Z</time></trkpt>
        <trkpt lat="29.172393" lon="104.639754"><ele>412</ele><time>2025-12-30T20:12:29.000Z</time></trkpt>
        <trkpt lat="29.172412" lon="104.639712"><ele>412</ele><time>2025-12-30T20:12:34.000Z</time></trkpt>
        <trkpt lat="29.172417" lon="104.639697"><ele>412</ele><time>2025-12-30T20:12:37.000Z</time></trkpt>
        <trkpt lat="29.172432" lon="104.639652"><ele>412</ele><time>2025-12-30T20:12:44.000Z</time></trkpt>
        <trkpt lat="29.172432" lon="104.639625"><ele>412</ele><time>2025-12-30T20:12:48.000Z</time></trkpt>
        <trkpt lat="29.172428" lon="104.639622"><ele>412</ele><time>2025-12-30T20:12:50.000Z</time></trkpt>
        <trkpt lat="29.172449" lon="104.639588"><ele>412</ele><time>2025-12-30T20:13:00.000Z</time></trkpt>
        <trkpt lat="29.172459" lon="104.639568"><ele>412</ele><time>2025-12-30T20:13:02.000Z</time></trkpt>
        <trkpt lat="29.172474" lon="104.639551"><ele>412</ele><time>2025-12-30T20:13:07.000Z</time></trkpt>
        <trkpt lat="29.172473" lon="104.639551"><ele>412</ele><time>2025-12-30T20:13:08.000Z</time></trkpt>
        <trkpt lat="29.172479" lon="104.639548"><ele>412</ele><time>2025-12-30T20:13:11.000Z</time></trkpt>
        <trkpt lat="29.172485" lon="104.639549"><ele>412</ele><time>2025-12-30T20:13:18.000Z</time></trkpt>
        <trkpt lat="29.172485" lon="104.639549"><ele>412</ele><time>2025-12-30T20:13:19.000Z</time></trkpt>
        <trkpt lat="29.172492" lon="104.639534"><ele>412</ele><time>2025-12-30T20:13:21.000Z</time></trkpt>
        <trkpt lat="29.172507" lon="104.639493"><ele>412</ele><time>2025-12-30T20:13:26.000Z</time></trkpt>
        <trkpt lat="29.172549" lon="104.639391"><ele>412</ele><time>2025-12-30T20:13:35.000Z</time></trkpt>
        <trkpt lat="29.172552" lon="104.639379"><ele>412</ele><time>2025-12-30T20:13:36.000Z</time></trkpt>
        <trkpt lat="29.172554" lon="104.639367"><ele>412</ele><time>2025-12-30T20:13:37.000Z</time></trkpt>
        <trkpt lat="29.172554" lon="104.639358"><ele>412</ele><time>2025-12-30T20:13:38.000Z</time></trkpt>
        <trkpt lat="29.172536" lon="104.639308"><ele>413</ele><time>2025-12-30T20:13:43.000Z</time></trkpt>
        <trkpt lat="29.172527" lon="104.639277"><ele>413</ele><time>2025-12-30T20:13:45.000Z</time></trkpt>
        <trkpt lat="29.172506" lon="104.639234"><ele>414</ele><time>2025-12-30T20:13:50.000Z</time></trkpt>
        <trkpt lat="29.1725" lon="104.639201"><ele>414</ele><time>2025-12-30T20:13:55.000Z</time></trkpt>
        <trkpt lat="29.172492" lon="104.639173"><ele>414</ele><time>2025-12-30T20:13:58.000Z</time></trkpt>
        <trkpt lat="29.172484" lon="104.639119"><ele>414</ele><time>2025-12-30T20:14:02.000Z</time></trkpt>
        <trkpt lat="29.172494" lon="104.639059"><ele>414</ele><time>2025-12-30T20:14:08.000Z</time></trkpt>
        <trkpt lat="29.172497" lon="104.63905"><ele>414</ele><time>2025-12-30T20:14:09.000Z</time></trkpt>
        <trkpt lat="29.172516" lon="104.638956"><ele>414</ele><time>2025-12-30T20:14:16.000Z</time></trkpt>
        <trkpt lat="29.172518" lon="104.63893"><ele>414</ele><time>2025-12-30T20:14:19.000Z</time></trkpt>
        <trkpt lat="29.172518" lon="104.638889"><ele>413</ele><time>2025-12-30T20:14:22.000Z</time></trkpt>
        <trkpt lat="29.172516" lon="104.638853"><ele>413</ele><time>2025-12-30T20:14:24.000Z</time></trkpt>
        <trkpt lat="29.172506" lon="104.638772"><ele>414</ele><time>2025-12-30T20:14:30.000Z</time></trkpt>
        <trkpt lat="29.172514" lon="104.638679"><ele>414</ele><time>2025-12-30T20:14:38.000Z</time></trkpt>
        <trkpt lat="29.172505" lon="104.63861"><ele>415</ele><time>2025-12-30T20:14:45.000Z</time></trkpt>
        <trkpt lat="29.172526" lon="104.638579"><ele>415</ele><time>2025-12-30T20:14:49.000Z</time></trkpt>
        <trkpt lat="29.172542" lon="104.638573"><ele>415</ele><time>2025-12-30T20:14:50.000Z</time></trkpt>
        <trkpt lat="29.172595" lon="104.638555"><ele>415</ele><time>2025-12-30T20:14:54.000Z</time></trkpt>
        <trkpt lat="29.172695" lon="104.638528"><ele>415</ele><time>2025-12-30T20:15:01.000Z</time></trkpt>
        <trkpt lat="29.172752" lon="104.638516"><ele>415</ele><time>2025-12-30T20:15:06.000Z</time></trkpt>
        <trkpt lat="29.172794" lon="104.638509"><ele>416</ele><time>2025-12-30T20:15:13.000Z</time></trkpt>
        <trkpt lat="29.172883" lon="104.63849"><ele>415</ele><time>2025-12-30T20:15:22.000Z</time></trkpt>
        <trkpt lat="29.172968" lon="104.638458"><ele>415</ele><time>2025-12-30T20:15:30.000Z</time></trkpt>
        <trkpt lat="29.173071" lon="104.638434"><ele>415</ele><time>2025-12-30T20:15:37.000Z</time></trkpt>
        <trkpt lat="29.173146" lon="104.638406"><ele>415</ele><time>2025-12-30T20:15:44.000Z</time></trkpt>
        <trkpt lat="29.173173" lon="104.638414"><ele>415</ele><time>2025-12-30T20:15:46.000Z</time></trkpt>
        <trkpt lat="29.173208" lon="104.638449"><ele>416</ele><time>2025-12-30T20:15:50.000Z</time></trkpt>
        <trkpt lat="29.173253" lon="104.638504"><ele>416</ele><time>2025-12-30T20:15:55.000Z</time></trkpt>
        <trkpt lat="29.173292" lon="104.638538"><ele>417</ele><time>2025-12-30T20:16:01.000Z</time></trkpt>
        <trkpt lat="29.173304" lon="104.638555"><ele>418</ele><time>2025-12-30T20:16:02.000Z</time></trkpt>
        <trkpt lat="29.173351" lon="104.638605"><ele>418</ele><time>2025-12-30T20:16:06.000Z</time></trkpt>
        <trkpt lat="29.173368" lon="104.638629"><ele>418</ele><time>2025-12-30T20:16:09.000Z</time></trkpt>
        <trkpt lat="29.173385" lon="104.638651"><ele>419</ele><time>2025-12-30T20:16:11.000Z</time></trkpt>
        <trkpt lat="29.173406" lon="104.638672"><ele>419</ele><time>2025-12-30T20:16:13.000Z</time></trkpt>
        <trkpt lat="29.17346" lon="104.638716"><ele>418</ele><time>2025-12-30T20:16:19.000Z</time></trkpt>
        <trkpt lat="29.173532" lon="104.638755"><ele>418</ele><time>2025-12-30T20:16:26.000Z</time></trkpt>
        <trkpt lat="29.173609" lon="104.638798"><ele>418</ele><time>2025-12-30T20:16:32.000Z</time></trkpt>
        <trkpt lat="29.173692" lon="104.638843"><ele>418</ele><time>2025-12-30T20:16:40.000Z</time></trkpt>
        <trkpt lat="29.173778" lon="104.638871"><ele>418</ele><time>2025-12-30T20:16:49.000Z</time></trkpt>
        <trkpt lat="29.173819" lon="104.63888"><ele>418</ele><time>2025-12-30T20:16:52.000Z</time></trkpt>
        <trkpt lat="29.17388" lon="104.638881"><ele>418</ele><time>2025-12-30T20:16:56.000Z</time></trkpt>
        <trkpt lat="29.173926" lon="104.638883"><ele>418</ele><time>2025-12-30T20:17:02.000Z</time></trkpt>
        <trkpt lat="29.173989" lon="104.638892"><ele>418</ele><time>2025-12-30T20:17:06.000Z</time></trkpt>
        <trkpt lat="29.174015" lon="104.638893"><ele>417</ele><time>2025-12-30T20:17:08.000Z</time></trkpt>
        <trkpt lat="29.174093" lon="104.638885"><ele>417</ele><time>2025-12-30T20:17:16.000Z</time></trkpt>
        <trkpt lat="29.174161" lon="104.638879"><ele>418</ele><time>2025-12-30T20:17:22.000Z</time></trkpt>
        <trkpt lat="29.174159" lon="104.638884"><ele>418</ele><time>2025-12-30T20:17:30.000Z</time></trkpt>
        <trkpt lat="29.174208" lon="104.638882"><ele>418</ele><time>2025-12-30T20:17:36.000Z</time></trkpt>
        <trkpt lat="29.174215" lon="104.638883"><ele>418</ele><time>2025-12-30T20:17:37.000Z</time></trkpt>
        <trkpt lat="29.174296" lon="104.638877"><ele>417</ele><time>2025-12-30T20:17:45.000Z</time></trkpt>
        <trkpt lat="29.174318" lon="104.638875"><ele>417</ele><time>2025-12-30T20:17:49.000Z</time></trkpt>
        <trkpt lat="29.174328" lon="104.638875"><ele>417</ele><time>2025-12-30T20:17:50.000Z</time></trkpt>
        <trkpt lat="29.17434" lon="104.638871"><ele>417</ele><time>2025-12-30T20:17:52.000Z</time></trkpt>
        <trkpt lat="29.174366" lon="104.638865"><ele>417</ele><time>2025-12-30T20:17:55.000Z</time></trkpt>
        <trkpt lat="29.17438" lon="104.638861"><ele>416</ele><time>2025-12-30T20:17:56.000Z</time></trkpt>
        <trkpt lat="29.174415" lon="104.638851"><ele>416</ele><time>2025-12-30T20:17:59.000Z</time></trkpt>
        <trkpt lat="29.174433" lon="104.638843"><ele>416</ele><time>2025-12-30T20:18:01.000Z</time></trkpt>
        <trkpt lat="29.174462" lon="104.638828"><ele>415</ele><time>2025-12-30T20:18:04.000Z</time></trkpt>
        <trkpt lat="29.174467" lon="104.638825"><ele>415</ele><time>2025-12-30T20:18:05.000Z</time></trkpt>
        <trkpt lat="29.174468" lon="104.638817"><ele>415</ele><time>2025-12-30T20:18:11.000Z</time></trkpt>
        <trkpt lat="29.174536" lon="104.638744"><ele>416</ele><time>2025-12-30T20:18:19.000Z</time></trkpt>
        <trkpt lat="29.174564" lon="104.638715"><ele>416</ele><time>2025-12-30T20:18:23.000Z</time></trkpt>
        <trkpt lat="29.174593" lon="104.63869"><ele>416</ele><time>2025-12-30T20:18:26.000Z</time></trkpt>
        <trkpt lat="29.174622" lon="104.638668"><ele>416</ele><time>2025-12-30T20:18:29.000Z</time></trkpt>
        <trkpt lat="29.174693" lon="104.638613"><ele>416</ele><time>2025-12-30T20:18:36.000Z</time></trkpt>
        <trkpt lat="29.174704" lon="104.638607"><ele>416</ele><time>2025-12-30T20:18:37.000Z</time></trkpt>
        <trkpt lat="29.174836" lon="104.638529"><ele>416</ele><time>2025-12-30T20:18:47.000Z</time></trkpt>
        <trkpt lat="29.174892" lon="104.638499"><ele>416</ele><time>2025-12-30T20:18:51.000Z</time></trkpt>
        <trkpt lat="29.174934" lon="104.638484"><ele>416</ele><time>2025-12-30T20:18:55.000Z</time></trkpt>
        <trkpt lat="29.175002" lon="104.638482"><ele>417</ele><time>2025-12-30T20:19:00.000Z</time></trkpt>
        <trkpt lat="29.175102" lon="104.63847"><ele>417</ele><time>2025-12-30T20:19:07.000Z</time></trkpt>
        <trkpt lat="29.175156" lon="104.638454"><ele>417</ele><time>2025-12-30T20:19:13.000Z</time></trkpt>
        <trkpt lat="29.175222" lon="104.638424"><ele>417</ele><time>2025-12-30T20:19:19.000Z</time></trkpt>
        <trkpt lat="29.175283" lon="104.638405"><ele>416</ele><time>2025-12-30T20:19:24.000Z</time></trkpt>
        <trkpt lat="29.175339" lon="104.638391"><ele>415</ele><time>2025-12-30T20:19:28.000Z</time></trkpt>
        <trkpt lat="29.175377" lon="104.63836"><ele>415</ele><time>2025-12-30T20:19:31.000Z</time></trkpt>
        <trkpt lat="29.175424" lon="104.638302"><ele>415</ele><time>2025-12-30T20:19:36.000Z</time></trkpt>
        <trkpt lat="29.175438" lon="104.638283"><ele>415</ele><time>2025-12-30T20:19:39.000Z</time></trkpt>
        <trkpt lat="29.175476" lon="104.63827"><ele>415</ele><time>2025-12-30T20:19:43.000Z</time></trkpt>
        <trkpt lat="29.175556" lon="104.638307"><ele>415</ele><time>2025-12-30T20:19:48.000Z</time></trkpt>
        <trkpt lat="29.175624" lon="104.638388"><ele>415</ele><time>2025-12-30T20:19:55.000Z</time></trkpt>
        <trkpt lat="29.175629" lon="104.638466"><ele>415</ele><time>2025-12-30T20:20:01.000Z</time></trkpt>
        <trkpt lat="29.175633" lon="104.638461"><ele>415</ele><time>2025-12-30T20:20:14.000Z</time></trkpt>
        <trkpt lat="29.175633" lon="104.638461"><ele>415</ele><time>2025-12-30T20:20:15.000Z</time></trkpt>
        <trkpt lat="29.175633" lon="104.638461"><ele>415</ele><time>2025-12-30T20:20:31.000Z</time></trkpt>
        <trkpt lat="29.175633" lon="104.638461"><ele>415</ele><time>2025-12-30T20:20:47.000Z</time></trkpt>
        <trkpt lat="29.175639" lon="104.63848"><ele>415</ele><time>2025-12-30T20:20:51.000Z</time></trkpt>
        <trkpt lat="29.175655" lon="104.638505"><ele>415</ele><time>2025-12-30T20:20:53.000Z</time></trkpt>
        <trkpt lat="29.1757" lon="104.638563"><ele>416</ele><time>2025-12-30T20:21:00.000Z</time></trkpt>
        <trkpt lat="29.175707" lon="104.638569"><ele>416</ele><time>2025-12-30T20:21:01.000Z</time></trkpt>
        <trkpt lat="29.175726" lon="104.638573"><ele>417</ele><time>2025-12-30T20:21:07.000Z</time></trkpt>
        <trkpt lat="29.175729" lon="104.638572"><ele>417</ele><time>2025-12-30T20:21:10.000Z</time></trkpt>
        <trkpt lat="29.175733" lon="104.638599"><ele>417</ele><time>2025-12-30T20:21:18.000Z</time></trkpt>
        <trkpt lat="29.175734" lon="104.638619"><ele>417</ele><time>2025-12-30T20:21:26.000Z</time></trkpt>
        <trkpt lat="29.175755" lon="104.638632"><ele>417</ele><time>2025-12-30T20:21:29.000Z</time></trkpt>
        <trkpt lat="29.175793" lon="104.638645"><ele>417</ele><time>2025-12-30T20:21:33.000Z</time></trkpt>
        <trkpt lat="29.17584" lon="104.638661"><ele>417</ele><time>2025-12-30T20:21:37.000Z</time></trkpt>
        <trkpt lat="29.175876" lon="104.638696"><ele>418</ele><time>2025-12-30T20:21:40.000Z</time></trkpt>
        <trkpt lat="29.175947" lon="104.638748"><ele>418</ele><time>2025-12-30T20:21:47.000Z</time></trkpt>
        <trkpt lat="29.175993" lon="104.638762"><ele>417</ele><time>2025-12-30T20:21:51.000Z</time></trkpt>
        <trkpt lat="29.176012" lon="104.638766"><ele>417</ele><time>2025-12-30T20:21:52.000Z</time></trkpt>
        <trkpt lat="29.176102" lon="104.638784"><ele>417</ele><time>2025-12-30T20:21:58.000Z</time></trkpt>
        <trkpt lat="29.176147" lon="104.638773"><ele>417</ele><time>2025-12-30T20:22:04.000Z</time></trkpt>
        <trkpt lat="29.176233" lon="104.638777"><ele>417</ele><time>2025-12-30T20:22:09.000Z</time></trkpt>
        <trkpt lat="29.176268" lon="104.638824"><ele>417</ele><time>2025-12-30T20:22:13.000Z</time></trkpt>
        <trkpt lat="29.176314" lon="104.638896"><ele>417</ele><time>2025-12-30T20:22:19.000Z</time></trkpt>
        <trkpt lat="29.176332" lon="104.639018"><ele>417</ele><time>2025-12-30T20:22:25.000Z</time></trkpt>
        <trkpt lat="29.176294" lon="104.639106"><ele>417</ele><time>2025-12-30T20:22:31.000Z</time></trkpt>
        <trkpt lat="29.176228" lon="104.639174"><ele>417</ele><time>2025-12-30T20:22:37.000Z</time></trkpt>
        <trkpt lat="29.176158" lon="104.639229"><ele>418</ele><time>2025-12-30T20:22:43.000Z</time></trkpt>
        <trkpt lat="29.176147" lon="104.639262"><ele>418</ele><time>2025-12-30T20:22:46.000Z</time></trkpt>
        <trkpt lat="29.176144" lon="104.639303"><ele>418</ele><time>2025-12-30T20:22:49.000Z</time></trkpt>
        <trkpt lat="29.176148" lon="104.639321"><ele>418</ele><time>2025-12-30T20:22:51.000Z</time></trkpt>
        <trkpt lat="29.176157" lon="104.639344"><ele>419</ele><time>2025-12-30T20:22:54.000Z</time></trkpt>
        <trkpt lat="29.176159" lon="104.639356"><ele>420</ele><time>2025-12-30T20:22:55.000Z</time></trkpt>
        <trkpt lat="29.176167" lon="104.639406"><ele>421</ele><time>2025-12-30T20:23:00.000Z</time></trkpt>
        <trkpt lat="29.176169" lon="104.639413"><ele>421</ele><time>2025-12-30T20:23:01.000Z</time></trkpt>
        <trkpt lat="29.176168" lon="104.639439"><ele>422</ele><time>2025-12-30T20:23:05.000Z</time></trkpt>
        <trkpt lat="29.176157" lon="104.639482"><ele>423</ele><time>2025-12-30T20:23:10.000Z</time></trkpt>
        <trkpt lat="29.176157" lon="104.639509"><ele>423</ele><time>2025-12-30T20:23:12.000Z</time></trkpt>
        <trkpt lat="29.176141" lon="104.639566"><ele>423</ele><time>2025-12-30T20:23:17.000Z</time></trkpt>
        <trkpt lat="29.176141" lon="104.639632"><ele>422</ele><time>2025-12-30T20:23:22.000Z</time></trkpt>
        <trkpt lat="29.176137" lon="104.639688"><ele>422</ele><time>2025-12-30T20:23:28.000Z</time></trkpt>
        <trkpt lat="29.176167" lon="104.63972"><ele>423</ele><time>2025-12-30T20:23:33.000Z</time></trkpt>
        <trkpt lat="29.176178" lon="104.639728"><ele>424</ele><time>2025-12-30T20:23:35.000Z</time></trkpt>
        <trkpt lat="29.176182" lon="104.639735"><ele>424</ele><time>2025-12-30T20:23:36.000Z</time></trkpt>
        <trkpt lat="29.176225" lon="104.639755"><ele>425</ele><time>2025-12-30T20:23:42.000Z</time></trkpt>
        <trkpt lat="29.176231" lon="104.639758"><ele>425</ele><time>2025-12-30T20:23:43.000Z</time></trkpt>
        <trkpt lat="29.176275" lon="104.639821"><ele>426</ele><time>2025-12-30T20:23:49.000Z</time></trkpt>
        <trkpt lat="29.176313" lon="104.639852"><ele>426</ele><time>2025-12-30T20:23:55.000Z</time></trkpt>
        <trkpt lat="29.17636" lon="104.639901"><ele>426</ele><time>2025-12-30T20:24:03.000Z</time></trkpt>
        <trkpt lat="29.176392" lon="104.639931"><ele>426</ele><time>2025-12-30T20:24:06.000Z</time></trkpt>
        <trkpt lat="29.176409" lon="104.639933"><ele>426</ele><time>2025-12-30T20:24:09.000Z</time></trkpt>
        <trkpt lat="29.17646" lon="104.639935"><ele>426</ele><time>2025-12-30T20:24:15.000Z</time></trkpt>
        <trkpt lat="29.176478" lon="104.639938"><ele>426</ele><time>2025-12-30T20:24:17.000Z</time></trkpt>
        <trkpt lat="29.176537" lon="104.639934"><ele>426</ele><time>2025-12-30T20:24:22.000Z</time></trkpt>
        <trkpt lat="29.176598" lon="104.639933"><ele>426</ele><time>2025-12-30T20:24:26.000Z</time></trkpt>
        <trkpt lat="29.176629" lon="104.639925"><ele>426</ele><time>2025-12-30T20:24:29.000Z</time></trkpt>
        <trkpt lat="29.176673" lon="104.639927"><ele>426</ele><time>2025-12-30T20:24:33.000Z</time></trkpt>
        <trkpt lat="29.176702" lon="104.639918"><ele>426</ele><time>2025-12-30T20:24:35.000Z</time></trkpt>
        <trkpt lat="29.176765" lon="104.639886"><ele>426</ele><time>2025-12-30T20:24:41.000Z</time></trkpt>
        <trkpt lat="29.176797" lon="104.639877"><ele>425</ele><time>2025-12-30T20:24:45.000Z</time></trkpt>
        <trkpt lat="29.176846" lon="104.639857"><ele>425</ele><time>2025-12-30T20:24:48.000Z</time></trkpt>
        <trkpt lat="29.176895" lon="104.639828"><ele>424</ele><time>2025-12-30T20:24:53.000Z</time></trkpt>
        <trkpt lat="29.176934" lon="104.639789"><ele>425</ele><time>2025-12-30T20:25:00.000Z</time></trkpt>
        <trkpt lat="29.176971" lon="104.639763"><ele>426</ele><time>2025-12-30T20:25:04.000Z</time></trkpt>
        <trkpt lat="29.177004" lon="104.639725"><ele>427</ele><time>2025-12-30T20:25:08.000Z</time></trkpt>
        <trkpt lat="29.177058" lon="104.639714"><ele>426</ele><time>2025-12-30T20:25:16.000Z</time></trkpt>
        <trkpt lat="29.177092" lon="104.639687"><ele>425</ele><time>2025-12-30T20:25:20.000Z</time></trkpt>
        <trkpt lat="29.177109" lon="104.639661"><ele>425</ele><time>2025-12-30T20:25:23.000Z</time></trkpt>
        <trkpt lat="29.177146" lon="104.639636"><ele>425</ele><time>2025-12-30T20:25:27.000Z</time></trkpt>
        <trkpt lat="29.177183" lon="104.63962"><ele>424</ele><time>2025-12-30T20:25:30.000Z</time></trkpt>
        <trkpt lat="29.177203" lon="104.639611"><ele>424</ele><time>2025-12-30T20:25:32.000Z</time></trkpt>
        <trkpt lat="29.177248" lon="104.639599"><ele>423</ele><time>2025-12-30T20:25:39.000Z</time></trkpt>
        <trkpt lat="29.17726" lon="104.639594"><ele>423</ele><time>2025-12-30T20:25:40.000Z</time></trkpt>
        <trkpt lat="29.17728" lon="104.63959"><ele>423</ele><time>2025-12-30T20:25:42.000Z</time></trkpt>
        <trkpt lat="29.177289" lon="104.639587"><ele>423</ele><time>2025-12-30T20:25:43.000Z</time></trkpt>
        <trkpt lat="29.177324" lon="104.639578"><ele>422</ele><time>2025-12-30T20:25:47.000Z</time></trkpt>
        <trkpt lat="29.177334" lon="104.639575"><ele>422</ele><time>2025-12-30T20:25:48.000Z</time></trkpt>
        <trkpt lat="29.177393" lon="104.639546"><ele>422</ele><time>2025-12-30T20:25:55.000Z</time></trkpt>
        <trkpt lat="29.177461" lon="104.63953"><ele>422</ele><time>2025-12-30T20:26:05.000Z</time></trkpt>
        <trkpt lat="29.177502" lon="104.639533"><ele>421</ele><time>2025-12-30T20:26:11.000Z</time></trkpt>
        <trkpt lat="29.17752" lon="104.639533"><ele>421</ele><time>2025-12-30T20:26:14.000Z</time></trkpt>
        <trkpt lat="29.177552" lon="104.639527"><ele>421</ele><time>2025-12-30T20:26:18.000Z</time></trkpt>
        <trkpt lat="29.177578" lon="104.639518"><ele>421</ele><time>2025-12-30T20:26:21.000Z</time></trkpt>
        <trkpt lat="29.177655" lon="104.639517"><ele>421</ele><time>2025-12-30T20:26:28.000Z</time></trkpt>
        <trkpt lat="29.177704" lon="104.639576"><ele>421</ele><time>2025-12-30T20:26:33.000Z</time></trkpt>
        <trkpt lat="29.177724" lon="104.639609"><ele>421</ele><time>2025-12-30T20:26:37.000Z</time></trkpt>
        <trkpt lat="29.177727" lon="104.639616"><ele>421</ele><time>2025-12-30T20:26:38.000Z</time></trkpt>
        <trkpt lat="29.177751" lon="104.6397"><ele>421</ele><time>2025-12-30T20:26:44.000Z</time></trkpt>
        <trkpt lat="29.177765" lon="104.639715"><ele>421</ele><time>2025-12-30T20:26:46.000Z</time></trkpt>
        <trkpt lat="29.177815" lon="104.63974"><ele>421</ele><time>2025-12-30T20:26:50.000Z</time></trkpt>
        <trkpt lat="29.177867" lon="104.639766"><ele>421</ele><time>2025-12-30T20:26:56.000Z</time></trkpt>
        <trkpt lat="29.177928" lon="104.639793"><ele>421</ele><time>2025-12-30T20:27:02.000Z</time></trkpt>
        <trkpt lat="29.178007" lon="104.639803"><ele>422</ele><time>2025-12-30T20:27:09.000Z</time></trkpt>
        <trkpt lat="29.178053" lon="104.639822"><ele>422</ele><time>2025-12-30T20:27:13.000Z</time></trkpt>
        <trkpt lat="29.178092" lon="104.639835"><ele>422</ele><time>2025-12-30T20:27:16.000Z</time></trkpt>
        <trkpt lat="29.178158" lon="104.639847"><ele>422</ele><time>2025-12-30T20:27:23.000Z</time></trkpt>
        <trkpt lat="29.17826" lon="104.639859"><ele>421</ele><time>2025-12-30T20:27:32.000Z</time></trkpt>
        <trkpt lat="29.1783" lon="104.639835"><ele>421</ele><time>2025-12-30T20:27:40.000Z</time></trkpt>
        <trkpt lat="29.1783" lon="104.639829"><ele>421</ele><time>2025-12-30T20:27:42.000Z</time></trkpt>
        <trkpt lat="29.178312" lon="104.639813"><ele>421</ele><time>2025-12-30T20:27:47.000Z</time></trkpt>
        <trkpt lat="29.178312" lon="104.639814"><ele>421</ele><time>2025-12-30T20:27:48.000Z</time></trkpt>
        <trkpt lat="29.178314" lon="104.639814"><ele>421</ele><time>2025-12-30T20:27:49.000Z</time></trkpt>
        <trkpt lat="29.178315" lon="104.639824"><ele>420</ele><time>2025-12-30T20:27:58.000Z</time></trkpt>
        <trkpt lat="29.178317" lon="104.639819"><ele>420</ele><time>2025-12-30T20:28:07.000Z</time></trkpt>
        <trkpt lat="29.178341" lon="104.639826"><ele>421</ele><time>2025-12-30T20:28:14.000Z</time></trkpt>
        <trkpt lat="29.178359" lon="104.63982"><ele>420</ele><time>2025-12-30T20:28:17.000Z</time></trkpt>
        <trkpt lat="29.178397" lon="104.639814"><ele>421</ele><time>2025-12-30T20:28:22.000Z</time></trkpt>
        <trkpt lat="29.178415" lon="104.639822"><ele>421</ele><time>2025-12-30T20:28:31.000Z</time></trkpt>
        <trkpt lat="29.178416" lon="104.639824"><ele>421</ele><time>2025-12-30T20:28:32.000Z</time></trkpt>
        <trkpt lat="29.178416" lon="104.639823"><ele>421</ele><time>2025-12-30T20:28:34.000Z</time></trkpt>
        <trkpt lat="29.178418" lon="104.639813"><ele>420</ele><time>2025-12-30T20:28:47.000Z</time></trkpt>
        <trkpt lat="29.178419" lon="104.639799"><ele>420</ele><time>2025-12-30T20:28:55.000Z</time></trkpt>
        <trkpt lat="29.178415" lon="104.639801"><ele>420</ele><time>2025-12-30T20:28:57.000Z</time></trkpt>
        <trkpt lat="29.178402" lon="104.639798"><ele>420</ele><time>2025-12-30T20:29:03.000Z</time></trkpt>
        <trkpt lat="29.178403" lon="104.639793"><ele>420</ele><time>2025-12-30T20:29:05.000Z</time></trkpt>
        <trkpt lat="29.178425" lon="104.639778"><ele>419</ele><time>2025-12-30T20:29:08.000Z</time></trkpt>
        <trkpt lat="29.178503" lon="104.639729"><ele>419</ele><time>2025-12-30T20:29:16.000Z</time></trkpt>
        <trkpt lat="29.178578" lon="104.639746"><ele>419</ele><time>2025-12-30T20:29:23.000Z</time></trkpt>
        <trkpt lat="29.178588" lon="104.639754"><ele>419</ele><time>2025-12-30T20:29:25.000Z</time></trkpt>
        <trkpt lat="29.17863" lon="104.639793"><ele>419</ele><time>2025-12-30T20:29:30.000Z</time></trkpt>
        <trkpt lat="29.178661" lon="104.639897"><ele>419</ele><time>2025-12-30T20:29:38.000Z</time></trkpt>
        <trkpt lat="29.178652" lon="104.639986"><ele>419</ele><time>2025-12-30T20:29:44.000Z</time></trkpt>
        <trkpt lat="29.178666" lon="104.640023"><ele>420</ele><time>2025-12-30T20:29:50.000Z</time></trkpt>
        <trkpt lat="29.178689" lon="104.640038"><ele>421</ele><time>2025-12-30T20:29:53.000Z</time></trkpt>
        <trkpt lat="29.178715" lon="104.64005"><ele>422</ele><time>2025-12-30T20:29:56.000Z</time></trkpt>
        <trkpt lat="29.178721" lon="104.640054"><ele>422</ele><time>2025-12-30T20:29:57.000Z</time></trkpt>
        <trkpt lat="29.178728" lon="104.640059"><ele>422</ele><time>2025-12-30T20:29:58.000Z</time></trkpt>
        <trkpt lat="29.178738" lon="104.64007"><ele>423</ele><time>2025-12-30T20:30:00.000Z</time></trkpt>
        <trkpt lat="29.17874" lon="104.640084"><ele>423</ele><time>2025-12-30T20:30:02.000Z</time></trkpt>
        <trkpt lat="29.178746" lon="104.6401"><ele>423</ele><time>2025-12-30T20:30:03.000Z</time></trkpt>
        <trkpt lat="29.17875" lon="104.640153"><ele>423</ele><time>2025-12-30T20:30:07.000Z</time></trkpt>
        <trkpt lat="29.178748" lon="104.640164"><ele>423</ele><time>2025-12-30T20:30:08.000Z</time></trkpt>
        <trkpt lat="29.17874" lon="104.640191"><ele>423</ele><time>2025-12-30T20:30:10.000Z</time></trkpt>
        <trkpt lat="29.178732" lon="104.640212"><ele>422</ele><time>2025-12-30T20:30:12.000Z</time></trkpt>
        <trkpt lat="29.178721" lon="104.640238"><ele>422</ele><time>2025-12-30T20:30:14.000Z</time></trkpt>
        <trkpt lat="29.178705" lon="104.640267"><ele>422</ele><time>2025-12-30T20:30:17.000Z</time></trkpt>
        <trkpt lat="29.178691" lon="104.640285"><ele>421</ele><time>2025-12-30T20:30:20.000Z</time></trkpt>
        <trkpt lat="29.178691" lon="104.640292"><ele>421</ele><time>2025-12-30T20:30:21.000Z</time></trkpt>
        <trkpt lat="29.178694" lon="104.640305"><ele>420</ele><time>2025-12-30T20:30:22.000Z</time></trkpt>
        <trkpt lat="29.1787" lon="104.640336"><ele>420</ele><time>2025-12-30T20:30:24.000Z</time></trkpt>
        <trkpt lat="29.178713" lon="104.640351"><ele>419</ele><time>2025-12-30T20:30:26.000Z</time></trkpt>
        <trkpt lat="29.178777" lon="104.640405"><ele>419</ele><time>2025-12-30T20:30:32.000Z</time></trkpt>
        <trkpt lat="29.178805" lon="104.640425"><ele>419</ele><time>2025-12-30T20:30:36.000Z</time></trkpt>
        <trkpt lat="29.178818" lon="104.640424"><ele>419</ele><time>2025-12-30T20:30:38.000Z</time></trkpt>
        <trkpt lat="29.178843" lon="104.640441"><ele>419</ele><time>2025-12-30T20:30:41.000Z</time></trkpt>
        <trkpt lat="29.178894" lon="104.640442"><ele>419</ele><time>2025-12-30T20:30:45.000Z</time></trkpt>
        <trkpt lat="29.178898" lon="104.640438"><ele>419</ele><time>2025-12-30T20:30:46.000Z</time></trkpt>
        <trkpt lat="29.178904" lon="104.640434"><ele>419</ele><time>2025-12-30T20:30:47.000Z</time></trkpt>
        <trkpt lat="29.17892" lon="104.640436"><ele>419</ele><time>2025-12-30T20:30:48.000Z</time></trkpt>
        <trkpt lat="29.178968" lon="104.640416"><ele>419</ele><time>2025-12-30T20:30:52.000Z</time></trkpt>
        <trkpt lat="29.179053" lon="104.640396"><ele>419</ele><time>2025-12-30T20:31:00.000Z</time></trkpt>
        <trkpt lat="29.179063" lon="104.640392"><ele>419</ele><time>2025-12-30T20:31:01.000Z</time></trkpt>
        <trkpt lat="29.17908" lon="104.640388"><ele>420</ele><time>2025-12-30T20:31:08.000Z</time></trkpt>
        <trkpt lat="29.179087" lon="104.640387"><ele>419</ele><time>2025-12-30T20:31:15.000Z</time></trkpt>
        <trkpt lat="29.179084" lon="104.640389"><ele>419</ele><time>2025-12-30T20:31:18.000Z</time></trkpt>
        <trkpt lat="29.179089" lon="104.640407"><ele>419</ele><time>2025-12-30T20:31:23.000Z</time></trkpt>
        <trkpt lat="29.17912" lon="104.640415"><ele>419</ele><time>2025-12-30T20:31:28.000Z</time></trkpt>
        <trkpt lat="29.179154" lon="104.64042"><ele>418</ele><time>2025-12-30T20:31:31.000Z</time></trkpt>
        <trkpt lat="29.179226" lon="104.640462"><ele>418</ele><time>2025-12-30T20:31:41.000Z</time></trkpt>
        <trkpt lat="29.179283" lon="104.640485"><ele>420</ele><time>2025-12-30T20:31:47.000Z</time></trkpt>
        <trkpt lat="29.179293" lon="104.640497"><ele>420</ele><time>2025-12-30T20:31:50.000Z</time></trkpt>
        <trkpt lat="29.179297" lon="104.640499"><ele>420</ele><time>2025-12-30T20:31:53.000Z</time></trkpt>
        <trkpt lat="29.179301" lon="104.640492"><ele>421</ele><time>2025-12-30T20:31:56.000Z</time></trkpt>
        <trkpt lat="29.179307" lon="104.640494"><ele>421</ele><time>2025-12-30T20:31:57.000Z</time></trkpt>
        <trkpt lat="29.17935" lon="104.640511"><ele>422</ele><time>2025-12-30T20:32:02.000Z</time></trkpt>
        <trkpt lat="29.179353" lon="104.640512"><ele>422</ele><time>2025-12-30T20:32:03.000Z</time></trkpt>
        <trkpt lat="29.179371" lon="104.640506"><ele>423</ele><time>2025-12-30T20:32:06.000Z</time></trkpt>
        <trkpt lat="29.179383" lon="104.640506"><ele>423</ele><time>2025-12-30T20:32:07.000Z</time></trkpt>
        <trkpt lat="29.179391" lon="104.640501"><ele>423</ele><time>2025-12-30T20:32:08.000Z</time></trkpt>
        <trkpt lat="29.179395" lon="104.640499"><ele>423</ele><time>2025-12-30T20:32:09.000Z</time></trkpt>
        <trkpt lat="29.179398" lon="104.640496"><ele>424</ele><time>2025-12-30T20:32:10.000Z</time></trkpt>
        <trkpt lat="29.1794" lon="104.640496"><ele>424</ele><time>2025-12-30T20:32:12.000Z</time></trkpt>
        <trkpt lat="29.179404" lon="104.640508"><ele>424</ele><time>2025-12-30T20:32:15.000Z</time></trkpt>
        <trkpt lat="29.179412" lon="104.640526"><ele>424</ele><time>2025-12-30T20:32:18.000Z</time></trkpt>
        <trkpt lat="29.179419" lon="104.640579"><ele>424</ele><time>2025-12-30T20:32:23.000Z</time></trkpt>
        <trkpt lat="29.179428" lon="104.640611"><ele>424</ele><time>2025-12-30T20:32:28.000Z</time></trkpt>
        <trkpt lat="29.179446" lon="104.640642"><ele>424</ele><time>2025-12-30T20:32:31.000Z</time></trkpt>
        <trkpt lat="29.179509" lon="104.640718"><ele>424</ele><time>2025-12-30T20:32:39.000Z</time></trkpt>
        <trkpt lat="29.179603" lon="104.640761"><ele>424</ele><time>2025-12-30T20:32:48.000Z</time></trkpt>
        <trkpt lat="29.179614" lon="104.640764"><ele>424</ele><time>2025-12-30T20:32:49.000Z</time></trkpt>
        <trkpt lat="29.179674" lon="104.640784"><ele>424</ele><time>2025-12-30T20:32:55.000Z</time></trkpt>
        <trkpt lat="29.179734" lon="104.640823"><ele>424</ele><time>2025-12-30T20:33:00.000Z</time></trkpt>
        <trkpt lat="29.179785" lon="104.64082"><ele>424</ele><time>2025-12-30T20:33:06.000Z</time></trkpt>
        <trkpt lat="29.179838" lon="104.640822"><ele>424</ele><time>2025-12-30T20:33:11.000Z</time></trkpt>
        <trkpt lat="29.179915" lon="104.640808"><ele>424</ele><time>2025-12-30T20:33:17.000Z</time></trkpt>
        <trkpt lat="29.179957" lon="104.640809"><ele>424</ele><time>2025-12-30T20:33:22.000Z</time></trkpt>
        <trkpt lat="29.179995" lon="104.640779"><ele>425</ele><time>2025-12-30T20:33:28.000Z</time></trkpt>
        <trkpt lat="29.180002" lon="104.640772"><ele>425</ele><time>2025-12-30T20:33:30.000Z</time></trkpt>
        <trkpt lat="29.18002" lon="104.640757"><ele>425</ele><time>2025-12-30T20:33:33.000Z</time></trkpt>
        <trkpt lat="29.18003" lon="104.640752"><ele>426</ele><time>2025-12-30T20:33:34.000Z</time></trkpt>
        <trkpt lat="29.180049" lon="104.640742"><ele>426</ele><time>2025-12-30T20:33:37.000Z</time></trkpt>
        <trkpt lat="29.180032" lon="104.640716"><ele>427</ele><time>2025-12-30T20:33:42.000Z</time></trkpt>
        <trkpt lat="29.180034" lon="104.640707"><ele>427</ele><time>2025-12-30T20:33:43.000Z</time></trkpt>
        <trkpt lat="29.180036" lon="104.640672"><ele>428</ele><time>2025-12-30T20:33:47.000Z</time></trkpt>
        <trkpt lat="29.180025" lon="104.640684"><ele>429</ele><time>2025-12-30T20:33:50.000Z</time></trkpt>
        <trkpt lat="29.180019" lon="104.640678"><ele>430</ele><time>2025-12-30T20:33:52.000Z</time></trkpt>
        <trkpt lat="29.18002" lon="104.640666"><ele>430</ele><time>2025-12-30T20:33:55.000Z</time></trkpt>
        <trkpt lat="29.180025" lon="104.640666"><ele>431</ele><time>2025-12-30T20:33:56.000Z</time></trkpt>
        <trkpt lat="29.180028" lon="104.640671"><ele>431</ele><time>2025-12-30T20:33:58.000Z</time></trkpt>
        <trkpt lat="29.180028" lon="104.640672"><ele>431</ele><time>2025-12-30T20:34:02.000Z</time></trkpt>
        <trkpt lat="29.180022" lon="104.640644"><ele>431</ele><time>2025-12-30T20:34:07.000Z</time></trkpt>
        <trkpt lat="29.180002" lon="104.640627"><ele>432</ele><time>2025-12-30T20:34:10.000Z</time></trkpt>
        <trkpt lat="29.17998" lon="104.64061"><ele>433</ele><time>2025-12-30T20:34:13.000Z</time></trkpt>
        <trkpt lat="29.179967" lon="104.640602"><ele>433</ele><time>2025-12-30T20:34:14.000Z</time></trkpt>
        <trkpt lat="29.179951" lon="104.640585"><ele>434</ele><time>2025-12-30T20:34:17.000Z</time></trkpt>
        <trkpt lat="29.179954" lon="104.640578"><ele>434</ele><time>2025-12-30T20:34:18.000Z</time></trkpt>
        <trkpt lat="29.179954" lon="104.640569"><ele>435</ele><time>2025-12-30T20:34:20.000Z</time></trkpt>
        <trkpt lat="29.179957" lon="104.640567"><ele>435</ele><time>2025-12-30T20:34:21.000Z</time></trkpt>
        <trkpt lat="29.179947" lon="104.640568"><ele>435</ele><time>2025-12-30T20:34:26.000Z</time></trkpt>
        <trkpt lat="29.17994" lon="104.640567"><ele>435</ele><time>2025-12-30T20:34:27.000Z</time></trkpt>
        <trkpt lat="29.179926" lon="104.64057"><ele>436</ele><time>2025-12-30T20:34:30.000Z</time></trkpt>
        <trkpt lat="29.179918" lon="104.640571"><ele>436</ele><time>2025-12-30T20:34:32.000Z</time></trkpt>
        <trkpt lat="29.179911" lon="104.640561"><ele>437</ele><time>2025-12-30T20:34:35.000Z</time></trkpt>
        <trkpt lat="29.179928" lon="104.640551"><ele>437</ele><time>2025-12-30T20:34:39.000Z</time></trkpt>
        <trkpt lat="29.179935" lon="104.640525"><ele>438</ele><time>2025-12-30T20:34:42.000Z</time></trkpt>
        <trkpt lat="29.179956" lon="104.640494"><ele>438</ele><time>2025-12-30T20:34:46.000Z</time></trkpt>
        <trkpt lat="29.179979" lon="104.640467"><ele>439</ele><time>2025-12-30T20:34:49.000Z</time></trkpt>
        <trkpt lat="29.179987" lon="104.640456"><ele>440</ele><time>2025-12-30T20:34:50.000Z</time></trkpt>
        <trkpt lat="29.179989" lon="104.640404"><ele>440</ele><time>2025-12-30T20:34:55.000Z</time></trkpt>
        <trkpt lat="29.180017" lon="104.640379"><ele>441</ele><time>2025-12-30T20:34:58.000Z</time></trkpt>
        <trkpt lat="29.180052" lon="104.640369"><ele>442</ele><time>2025-12-30T20:35:02.000Z</time></trkpt>
        <trkpt lat="29.180065" lon="104.640366"><ele>442</ele><time>2025-12-30T20:35:03.000Z</time></trkpt>
        <trkpt lat="29.180108" lon="104.640347"><ele>443</ele><time>2025-12-30T20:35:07.000Z</time></trkpt>
        <trkpt lat="29.180153" lon="104.640328"><ele>443</ele><time>2025-12-30T20:35:11.000Z</time></trkpt>
        <trkpt lat="29.1802" lon="104.640315"><ele>443</ele><time>2025-12-30T20:35:15.000Z</time></trkpt>
        <trkpt lat="29.180246" lon="104.640282"><ele>443</ele><time>2025-12-30T20:35:21.000Z</time></trkpt>
        <trkpt lat="29.180301" lon="104.640251"><ele>444</ele><time>2025-12-30T20:35:27.000Z</time></trkpt>
        <trkpt lat="29.180316" lon="104.640245"><ele>444</ele><time>2025-12-30T20:35:28.000Z</time></trkpt>
        <trkpt lat="29.180367" lon="104.640206"><ele>445</ele><time>2025-12-30T20:35:33.000Z</time></trkpt>
        <trkpt lat="29.180395" lon="104.640187"><ele>445</ele><time>2025-12-30T20:35:36.000Z</time></trkpt>
        <trkpt lat="29.180421" lon="104.640166"><ele>445</ele><time>2025-12-30T20:35:39.000Z</time></trkpt>
        <trkpt lat="29.180465" lon="104.640148"><ele>446</ele><time>2025-12-30T20:35:44.000Z</time></trkpt>
        <trkpt lat="29.180504" lon="104.640131"><ele>446</ele><time>2025-12-30T20:35:48.000Z</time></trkpt>
        <trkpt lat="29.180535" lon="104.640099"><ele>447</ele><time>2025-12-30T20:35:52.000Z</time></trkpt>
        <trkpt lat="29.180543" lon="104.640097"><ele>447</ele><time>2025-12-30T20:35:53.000Z</time></trkpt>
        <trkpt lat="29.180573" lon="104.640102"><ele>447</ele><time>2025-12-30T20:35:57.000Z</time></trkpt>
        <trkpt lat="29.180589" lon="104.640116"><ele>448</ele><time>2025-12-30T20:35:59.000Z</time></trkpt>
        <trkpt lat="29.180624" lon="104.640161"><ele>448</ele><time>2025-12-30T20:36:02.000Z</time></trkpt>
        <trkpt lat="29.180667" lon="104.640224"><ele>448</ele><time>2025-12-30T20:36:08.000Z</time></trkpt>
        <trkpt lat="29.180685" lon="104.640253"><ele>448</ele><time>2025-12-30T20:36:11.000Z</time></trkpt>
        <trkpt lat="29.180743" lon="104.640337"><ele>448</ele><time>2025-12-30T20:36:22.000Z</time></trkpt>
        <trkpt lat="29.180765" lon="104.640369"><ele>449</ele><time>2025-12-30T20:36:25.000Z</time></trkpt>
        <trkpt lat="29.180778" lon="104.640389"><ele>449</ele><time>2025-12-30T20:36:30.000Z</time></trkpt>
        <trkpt lat="29.180804" lon="104.640431"><ele>449</ele><time>2025-12-30T20:36:37.000Z</time></trkpt>
        <trkpt lat="29.180852" lon="104.640536"><ele>449</ele><time>2025-12-30T20:36:47.000Z</time></trkpt>
        <trkpt lat="29.180867" lon="104.640572"><ele>449</ele><time>2025-12-30T20:36:50.000Z</time></trkpt>
        <trkpt lat="29.180878" lon="104.6406"><ele>449</ele><time>2025-12-30T20:36:52.000Z</time></trkpt>
        <trkpt lat="29.180885" lon="104.640614"><ele>449</ele><time>2025-12-30T20:36:53.000Z</time></trkpt>
        <trkpt lat="29.180899" lon="104.640642"><ele>449</ele><time>2025-12-30T20:36:55.000Z</time></trkpt>
        <trkpt lat="29.180927" lon="104.640733"><ele>450</ele><time>2025-12-30T20:37:02.000Z</time></trkpt>
        <trkpt lat="29.180947" lon="104.640816"><ele>450</ele><time>2025-12-30T20:37:08.000Z</time></trkpt>
        <trkpt lat="29.180942" lon="104.640841"><ele>450</ele><time>2025-12-30T20:37:10.000Z</time></trkpt>
        <trkpt lat="29.180921" lon="104.640935"><ele>451</ele><time>2025-12-30T20:37:16.000Z</time></trkpt>
        <trkpt lat="29.180914" lon="104.640949"><ele>451</ele><time>2025-12-30T20:37:17.000Z</time></trkpt>
        <trkpt lat="29.18089" lon="104.641017"><ele>452</ele><time>2025-12-30T20:37:23.000Z</time></trkpt>
        <trkpt lat="29.180859" lon="104.641088"><ele>452</ele><time>2025-12-30T20:37:29.000Z</time></trkpt>
        <trkpt lat="29.180842" lon="104.641133"><ele>452</ele><time>2025-12-30T20:37:33.000Z</time></trkpt>
        <trkpt lat="29.180832" lon="104.641172"><ele>452</ele><time>2025-12-30T20:37:36.000Z</time></trkpt>
        <trkpt lat="29.180832" lon="104.641183"><ele>452</ele><time>2025-12-30T20:37:37.000Z</time></trkpt>
        <trkpt lat="29.18083" lon="104.641216"><ele>452</ele><time>2025-12-30T20:37:39.000Z</time></trkpt>
        <trkpt lat="29.180855" lon="104.641297"><ele>452</ele><time>2025-12-30T20:37:45.000Z</time></trkpt>
        <trkpt lat="29.180868" lon="104.641336"><ele>452</ele><time>2025-12-30T20:37:48.000Z</time></trkpt>
        <trkpt lat="29.1809" lon="104.64141"><ele>452</ele><time>2025-12-30T20:37:53.000Z</time></trkpt>
        <trkpt lat="29.180972" lon="104.64146"><ele>453</ele><time>2025-12-30T20:38:00.000Z</time></trkpt>
        <trkpt lat="29.180986" lon="104.641484"><ele>453</ele><time>2025-12-30T20:38:02.000Z</time></trkpt>
        <trkpt lat="29.181018" lon="104.641536"><ele>453</ele><time>2025-12-30T20:38:06.000Z</time></trkpt>
        <trkpt lat="29.181026" lon="104.641545"><ele>454</ele><time>2025-12-30T20:38:07.000Z</time></trkpt>
        <trkpt lat="29.181068" lon="104.64158"><ele>454</ele><time>2025-12-30T20:38:12.000Z</time></trkpt>
        <trkpt lat="29.181127" lon="104.64161"><ele>454</ele><time>2025-12-30T20:38:19.000Z</time></trkpt>
        <trkpt lat="29.181187" lon="104.641625"><ele>453</ele><time>2025-12-30T20:38:28.000Z</time></trkpt>
        <trkpt lat="29.181197" lon="104.641639"><ele>453</ele><time>2025-12-30T20:38:35.000Z</time></trkpt>
        <trkpt lat="29.181264" lon="104.641666"><ele>453</ele><time>2025-12-30T20:38:42.000Z</time></trkpt>
        <trkpt lat="29.181335" lon="104.641696"><ele>453</ele><time>2025-12-30T20:38:49.000Z</time></trkpt>
        <trkpt lat="29.181383" lon="104.641711"><ele>453</ele><time>2025-12-30T20:38:55.000Z</time></trkpt>
        <trkpt lat="29.181394" lon="104.641714"><ele>453</ele><time>2025-12-30T20:38:56.000Z</time></trkpt>
        <trkpt lat="29.181459" lon="104.641739"><ele>454</ele><time>2025-12-30T20:39:02.000Z</time></trkpt>
        <trkpt lat="29.181491" lon="104.641744"><ele>454</ele><time>2025-12-30T20:39:06.000Z</time></trkpt>
        <trkpt lat="29.181516" lon="104.641749"><ele>454</ele><time>2025-12-30T20:39:08.000Z</time></trkpt>
        <trkpt lat="29.181622" lon="104.641759"><ele>455</ele><time>2025-12-30T20:39:17.000Z</time></trkpt>
        <trkpt lat="29.181704" lon="104.641794"><ele>456</ele><time>2025-12-30T20:39:25.000Z</time></trkpt>
        <trkpt lat="29.181713" lon="104.641796"><ele>456</ele><time>2025-12-30T20:39:26.000Z</time></trkpt>
        <trkpt lat="29.181779" lon="104.641809"><ele>457</ele><time>2025-12-30T20:39:32.000Z</time></trkpt>
        <trkpt lat="29.181788" lon="104.641812"><ele>457</ele><time>2025-12-30T20:39:33.000Z</time></trkpt>
        <trkpt lat="29.181862" lon="104.641834"><ele>458</ele><time>2025-12-30T20:39:40.000Z</time></trkpt>
        <trkpt lat="29.181932" lon="104.641869"><ele>459</ele><time>2025-12-30T20:39:46.000Z</time></trkpt>
        <trkpt lat="29.181933" lon="104.64187"><ele>459</ele><time>2025-12-30T20:39:47.000Z</time></trkpt>
        <trkpt lat="29.181994" lon="104.641892"><ele>459</ele><time>2025-12-30T20:39:52.000Z</time></trkpt>
        <trkpt lat="29.18202" lon="104.6419"><ele>460</ele><time>2025-12-30T20:39:54.000Z</time></trkpt>
        <trkpt lat="29.18205" lon="104.641908"><ele>460</ele><time>2025-12-30T20:39:57.000Z</time></trkpt>
        <trkpt lat="29.182125" lon="104.641929"><ele>461</ele><time>2025-12-30T20:40:04.000Z</time></trkpt>
        <trkpt lat="29.182191" lon="104.641953"><ele>462</ele><time>2025-12-30T20:40:10.000Z</time></trkpt>
        <trkpt lat="29.182256" lon="104.64197"><ele>462</ele><time>2025-12-30T20:40:16.000Z</time></trkpt>
        <trkpt lat="29.182267" lon="104.64197"><ele>462</ele><time>2025-12-30T20:40:17.000Z</time></trkpt>
        <trkpt lat="29.18237" lon="104.641961"><ele>462</ele><time>2025-12-30T20:40:25.000Z</time></trkpt>
        <trkpt lat="29.182501" lon="104.641937"><ele>462</ele><time>2025-12-30T20:40:36.000Z</time></trkpt>
        <trkpt lat="29.18253" lon="104.641931"><ele>462</ele><time>2025-12-30T20:40:39.000Z</time></trkpt>
        <trkpt lat="29.182572" lon="104.641918"><ele>462</ele><time>2025-12-30T20:40:43.000Z</time></trkpt>
        <trkpt lat="29.182597" lon="104.641924"><ele>462</ele><time>2025-12-30T20:40:45.000Z</time></trkpt>
        <trkpt lat="29.182708" lon="104.641961"><ele>462</ele><time>2025-12-30T20:40:56.000Z</time></trkpt>
        <trkpt lat="29.182783" lon="104.641961"><ele>461</ele><time>2025-12-30T20:41:03.000Z</time></trkpt>
        <trkpt lat="29.182794" lon="104.641964"><ele>461</ele><time>2025-12-30T20:41:04.000Z</time></trkpt>
        <trkpt lat="29.182805" lon="104.641968"><ele>461</ele><time>2025-12-30T20:41:05.000Z</time></trkpt>
        <trkpt lat="29.182855" lon="104.641987"><ele>461</ele><time>2025-12-30T20:41:10.000Z</time></trkpt>
        <trkpt lat="29.182885" lon="104.641988"><ele>460</ele><time>2025-12-30T20:41:13.000Z</time></trkpt>
        <trkpt lat="29.182949" lon="104.641988"><ele>460</ele><time>2025-12-30T20:41:19.000Z</time></trkpt>
        <trkpt lat="29.182982" lon="104.641989"><ele>460</ele><time>2025-12-30T20:41:23.000Z</time></trkpt>
        <trkpt lat="29.183028" lon="104.64199"><ele>459</ele><time>2025-12-30T20:41:28.000Z</time></trkpt>
        <trkpt lat="29.183068" lon="104.641966"><ele>458</ele><time>2025-12-30T20:41:33.000Z</time></trkpt>
        <trkpt lat="29.183108" lon="104.641952"><ele>458</ele><time>2025-12-30T20:41:37.000Z</time></trkpt>
        <trkpt lat="29.183162" lon="104.641927"><ele>457</ele><time>2025-12-30T20:41:42.000Z</time></trkpt>
        <trkpt lat="29.183185" lon="104.641916"><ele>457</ele><time>2025-12-30T20:41:44.000Z</time></trkpt>
        <trkpt lat="29.183195" lon="104.641911"><ele>457</ele><time>2025-12-30T20:41:45.000Z</time></trkpt>
        <trkpt lat="29.183268" lon="104.641872"><ele>456</ele><time>2025-12-30T20:41:52.000Z</time></trkpt>
        <trkpt lat="29.183297" lon="104.641864"><ele>455</ele><time>2025-12-30T20:41:55.000Z</time></trkpt>
        <trkpt lat="29.18338" lon="104.641831"><ele>455</ele><time>2025-12-30T20:42:05.000Z</time></trkpt>
        <trkpt lat="29.183496" lon="104.641806"><ele>455</ele><time>2025-12-30T20:42:16.000Z</time></trkpt>
        <trkpt lat="29.183572" lon="104.641858"><ele>455</ele><time>2025-12-30T20:42:24.000Z</time></trkpt>
        <trkpt lat="29.183592" lon="104.641875"><ele>455</ele><time>2025-12-30T20:42:26.000Z</time></trkpt>
        <trkpt lat="29.1836" lon="104.641884"><ele>456</ele><time>2025-12-30T20:42:27.000Z</time></trkpt>
        <trkpt lat="29.183658" lon="104.641939"><ele>456</ele><time>2025-12-30T20:42:34.000Z</time></trkpt>
        <trkpt lat="29.183675" lon="104.641954"><ele>456</ele><time>2025-12-30T20:42:36.000Z</time></trkpt>
        <trkpt lat="29.18373" lon="104.641997"><ele>456</ele><time>2025-12-30T20:42:45.000Z</time></trkpt>
        <trkpt lat="29.183791" lon="104.642029"><ele>456</ele><time>2025-12-30T20:42:53.000Z</time></trkpt>
        <trkpt lat="29.183806" lon="104.642035"><ele>457</ele><time>2025-12-30T20:42:55.000Z</time></trkpt>
        <trkpt lat="29.183907" lon="104.642069"><ele>457</ele><time>2025-12-30T20:43:05.000Z</time></trkpt>
        <trkpt lat="29.183961" lon="104.642121"><ele>457</ele><time>2025-12-30T20:43:12.000Z</time></trkpt>
        <trkpt lat="29.183986" lon="104.642141"><ele>457</ele><time>2025-12-30T20:43:15.000Z</time></trkpt>
        <trkpt lat="29.184051" lon="104.642207"><ele>458</ele><time>2025-12-30T20:43:24.000Z</time></trkpt>
        <trkpt lat="29.184112" lon="104.642244"><ele>458</ele><time>2025-12-30T20:43:30.000Z</time></trkpt>
        <trkpt lat="29.184162" lon="104.642269"><ele>458</ele><time>2025-12-30T20:43:34.000Z</time></trkpt>
        <trkpt lat="29.184177" lon="104.642277"><ele>458</ele><time>2025-12-30T20:43:36.000Z</time></trkpt>
        <trkpt lat="29.184231" lon="104.642306"><ele>458</ele><time>2025-12-30T20:43:43.000Z</time></trkpt>
        <trkpt lat="29.18433" lon="104.642334"><ele>458</ele><time>2025-12-30T20:43:53.000Z</time></trkpt>
        <trkpt lat="29.184347" lon="104.642336"><ele>459</ele><time>2025-12-30T20:43:55.000Z</time></trkpt>
        <trkpt lat="29.184422" lon="104.642352"><ele>459</ele><time>2025-12-30T20:44:02.000Z</time></trkpt>
        <trkpt lat="29.184487" lon="104.642336"><ele>458</ele><time>2025-12-30T20:44:09.000Z</time></trkpt>
        <trkpt lat="29.184514" lon="104.642323"><ele>458</ele><time>2025-12-30T20:44:12.000Z</time></trkpt>
        <trkpt lat="29.184602" lon="104.64227"><ele>458</ele><time>2025-12-30T20:44:23.000Z</time></trkpt>
        <trkpt lat="29.18464" lon="104.642256"><ele>458</ele><time>2025-12-30T20:44:27.000Z</time></trkpt>
        <trkpt lat="29.184699" lon="104.64222"><ele>457</ele><time>2025-12-30T20:44:34.000Z</time></trkpt>
        <trkpt lat="29.184768" lon="104.642182"><ele>457</ele><time>2025-12-30T20:44:43.000Z</time></trkpt>
        <trkpt lat="29.184835" lon="104.642142"><ele>457</ele><time>2025-12-30T20:44:51.000Z</time></trkpt>
        <trkpt lat="29.184875" lon="104.642119"><ele>457</ele><time>2025-12-30T20:44:56.000Z</time></trkpt>
        <trkpt lat="29.1849" lon="104.642108"><ele>457</ele><time>2025-12-30T20:45:00.000Z</time></trkpt>
        <trkpt lat="29.184936" lon="104.642085"><ele>456</ele><time>2025-12-30T20:45:04.000Z</time></trkpt>
        <trkpt lat="29.184949" lon="104.642078"><ele>456</ele><time>2025-12-30T20:45:05.000Z</time></trkpt>
        <trkpt lat="29.184998" lon="104.642052"><ele>456</ele><time>2025-12-30T20:45:10.000Z</time></trkpt>
        <trkpt lat="29.185051" lon="104.64202"><ele>456</ele><time>2025-12-30T20:45:16.000Z</time></trkpt>
        <trkpt lat="29.185105" lon="104.641997"><ele>455</ele><time>2025-12-30T20:45:19.000Z</time></trkpt>
        <trkpt lat="29.185126" lon="104.641978"><ele>455</ele><time>2025-12-30T20:45:22.000Z</time></trkpt>
        <trkpt lat="29.185179" lon="104.641934"><ele>455</ele><time>2025-12-30T20:45:28.000Z</time></trkpt>
        <trkpt lat="29.185232" lon="104.641902"><ele>455</ele><time>2025-12-30T20:45:33.000Z</time></trkpt>
        <trkpt lat="29.18529" lon="104.641868"><ele>455</ele><time>2025-12-30T20:45:38.000Z</time></trkpt>
        <trkpt lat="29.185298" lon="104.641862"><ele>455</ele><time>2025-12-30T20:45:39.000Z</time></trkpt>
        <trkpt lat="29.185345" lon="104.641832"><ele>455</ele><time>2025-12-30T20:45:43.000Z</time></trkpt>
        <trkpt lat="29.185367" lon="104.641816"><ele>455</ele><time>2025-12-30T20:45:46.000Z</time></trkpt>
        <trkpt lat="29.185414" lon="104.641776"><ele>455</ele><time>2025-12-30T20:45:52.000Z</time></trkpt>
        <trkpt lat="29.185426" lon="104.641744"><ele>455</ele><time>2025-12-30T20:45:59.000Z</time></trkpt>
        <trkpt lat="29.185501" lon="104.641709"><ele>455</ele><time>2025-12-30T20:46:06.000Z</time></trkpt>
        <trkpt lat="29.185553" lon="104.641673"><ele>455</ele><time>2025-12-30T20:46:12.000Z</time></trkpt>
        <trkpt lat="29.185564" lon="104.64167"><ele>455</ele><time>2025-12-30T20:46:20.000Z</time></trkpt>
        <trkpt lat="29.185572" lon="104.641664"><ele>455</ele><time>2025-12-30T20:46:22.000Z</time></trkpt>
        <trkpt lat="29.18558" lon="104.64166"><ele>455</ele><time>2025-12-30T20:46:23.000Z</time></trkpt>
        <trkpt lat="29.185606" lon="104.641638"><ele>455</ele><time>2025-12-30T20:46:26.000Z</time></trkpt>
        <trkpt lat="29.185613" lon="104.641632"><ele>455</ele><time>2025-12-30T20:46:30.000Z</time></trkpt>
        <trkpt lat="29.185631" lon="104.641619"><ele>455</ele><time>2025-12-30T20:46:32.000Z</time></trkpt>
        <trkpt lat="29.18564" lon="104.641578"><ele>455</ele><time>2025-12-30T20:46:38.000Z</time></trkpt>
        <trkpt lat="29.185672" lon="104.641538"><ele>455</ele><time>2025-12-30T20:46:45.000Z</time></trkpt>
        <trkpt lat="29.18569" lon="104.64151"><ele>454</ele><time>2025-12-30T20:46:49.000Z</time></trkpt>
        <trkpt lat="29.185709" lon="104.641457"><ele>454</ele><time>2025-12-30T20:46:56.000Z</time></trkpt>
        <trkpt lat="29.185709" lon="104.641419"><ele>453</ele><time>2025-12-30T20:47:01.000Z</time></trkpt>
        <trkpt lat="29.185715" lon="104.641373"><ele>452</ele><time>2025-12-30T20:47:06.000Z</time></trkpt>
        <trkpt lat="29.185718" lon="104.64134"><ele>452</ele><time>2025-12-30T20:47:09.000Z</time></trkpt>
        <trkpt lat="29.185719" lon="104.641315"><ele>452</ele><time>2025-12-30T20:47:11.000Z</time></trkpt>
        <trkpt lat="29.185712" lon="104.641227"><ele>451</ele><time>2025-12-30T20:47:17.000Z</time></trkpt>
        <trkpt lat="29.185708" lon="104.6412"><ele>451</ele><time>2025-12-30T20:47:19.000Z</time></trkpt>
        <trkpt lat="29.185694" lon="104.641117"><ele>451</ele><time>2025-12-30T20:47:26.000Z</time></trkpt>
        <trkpt lat="29.18568" lon="104.640978"><ele>450</ele><time>2025-12-30T20:47:38.000Z</time></trkpt>
        <trkpt lat="29.185667" lon="104.640907"><ele>450</ele><time>2025-12-30T20:47:44.000Z</time></trkpt>
        <trkpt lat="29.185675" lon="104.640831"><ele>450</ele><time>2025-12-30T20:47:50.000Z</time></trkpt>
        <trkpt lat="29.185676" lon="104.640729"><ele>449</ele><time>2025-12-30T20:47:58.000Z</time></trkpt>
        <trkpt lat="29.185677" lon="104.64068"><ele>449</ele><time>2025-12-30T20:48:02.000Z</time></trkpt>
        <trkpt lat="29.185691" lon="104.640615"><ele>449</ele><time>2025-12-30T20:48:06.000Z</time></trkpt>
        <trkpt lat="29.185685" lon="104.640538"><ele>449</ele><time>2025-12-30T20:48:13.000Z</time></trkpt>
        <trkpt lat="29.185705" lon="104.640442"><ele>448</ele><time>2025-12-30T20:48:19.000Z</time></trkpt>
        <trkpt lat="29.185724" lon="104.640371"><ele>448</ele><time>2025-12-30T20:48:25.000Z</time></trkpt>
        <trkpt lat="29.185726" lon="104.640338"><ele>448</ele><time>2025-12-30T20:48:28.000Z</time></trkpt>
        <trkpt lat="29.185729" lon="104.640304"><ele>447</ele><time>2025-12-30T20:48:32.000Z</time></trkpt>
        <trkpt lat="29.185749" lon="104.640231"><ele>447</ele><time>2025-12-30T20:48:37.000Z</time></trkpt>
        <trkpt lat="29.185762" lon="104.640191"><ele>447</ele><time>2025-12-30T20:48:39.000Z</time></trkpt>
        <trkpt lat="29.185788" lon="104.64011"><ele>447</ele><time>2025-12-30T20:48:45.000Z</time></trkpt>
        <trkpt lat="29.185816" lon="104.640011"><ele>447</ele><time>2025-12-30T20:48:52.000Z</time></trkpt>
        <trkpt lat="29.185837" lon="104.639927"><ele>446</ele><time>2025-12-30T20:49:00.000Z</time></trkpt>
        <trkpt lat="29.185839" lon="104.639913"><ele>446</ele><time>2025-12-30T20:49:01.000Z</time></trkpt>
        <trkpt lat="29.185841" lon="104.639899"><ele>446</ele><time>2025-12-30T20:49:02.000Z</time></trkpt>
        <trkpt lat="29.185855" lon="104.639795"><ele>445</ele><time>2025-12-30T20:49:12.000Z</time></trkpt>
        <trkpt lat="29.185902" lon="104.639701"><ele>444</ele><time>2025-12-30T20:49:22.000Z</time></trkpt>
        <trkpt lat="29.185922" lon="104.63968"><ele>444</ele><time>2025-12-30T20:49:25.000Z</time></trkpt>
        <trkpt lat="29.185955" lon="104.639621"><ele>443</ele><time>2025-12-30T20:49:31.000Z</time></trkpt>
        <trkpt lat="29.185992" lon="104.639576"><ele>442</ele><time>2025-12-30T20:49:36.000Z</time></trkpt>
        <trkpt lat="29.186" lon="104.63954"><ele>442</ele><time>2025-12-30T20:49:39.000Z</time></trkpt>
        <trkpt lat="29.186016" lon="104.639519"><ele>441</ele><time>2025-12-30T20:49:41.000Z</time></trkpt>
        <trkpt lat="29.186049" lon="104.639486"><ele>441</ele><time>2025-12-30T20:49:44.000Z</time></trkpt>
        <trkpt lat="29.186092" lon="104.639438"><ele>440</ele><time>2025-12-30T20:49:49.000Z</time></trkpt>
        <trkpt lat="29.186098" lon="104.639436"><ele>440</ele><time>2025-12-30T20:49:50.000Z</time></trkpt>
        <trkpt lat="29.186125" lon="104.639408"><ele>439</ele><time>2025-12-30T20:49:55.000Z</time></trkpt>
        <trkpt lat="29.186126" lon="104.639388"><ele>439</ele><time>2025-12-30T20:49:57.000Z</time></trkpt>
        <trkpt lat="29.186139" lon="104.639376"><ele>438</ele><time>2025-12-30T20:50:00.000Z</time></trkpt>
        <trkpt lat="29.186149" lon="104.639373"><ele>438</ele><time>2025-12-30T20:50:01.000Z</time></trkpt>
        <trkpt lat="29.186196" lon="104.639365"><ele>437</ele><time>2025-12-30T20:50:05.000Z</time></trkpt>
        <trkpt lat="29.186242" lon="104.639358"><ele>437</ele><time>2025-12-30T20:50:09.000Z</time></trkpt>
        <trkpt lat="29.186355" lon="104.639319"><ele>437</ele><time>2025-12-30T20:50:20.000Z</time></trkpt>
        <trkpt lat="29.186377" lon="104.63931"><ele>436</ele><time>2025-12-30T20:50:25.000Z</time></trkpt>
        <trkpt lat="29.186402" lon="104.639306"><ele>436</ele><time>2025-12-30T20:50:28.000Z</time></trkpt>
        <trkpt lat="29.186486" lon="104.639349"><ele>436</ele><time>2025-12-30T20:50:35.000Z</time></trkpt>
        <trkpt lat="29.186546" lon="104.639413"><ele>435</ele><time>2025-12-30T20:50:41.000Z</time></trkpt>
        <trkpt lat="29.186566" lon="104.639428"><ele>435</ele><time>2025-12-30T20:50:43.000Z</time></trkpt>
        <trkpt lat="29.186599" lon="104.639449"><ele>435</ele><time>2025-12-30T20:50:49.000Z</time></trkpt>
        <trkpt lat="29.186671" lon="104.639477"><ele>435</ele><time>2025-12-30T20:50:57.000Z</time></trkpt>
        <trkpt lat="29.186766" lon="104.639548"><ele>436</ele><time>2025-12-30T20:51:07.000Z</time></trkpt>
        <trkpt lat="29.186813" lon="104.639596"><ele>436</ele><time>2025-12-30T20:51:13.000Z</time></trkpt>
        <trkpt lat="29.186896" lon="104.639662"><ele>436</ele><time>2025-12-30T20:51:22.000Z</time></trkpt>
        <trkpt lat="29.186943" lon="104.639687"><ele>435</ele><time>2025-12-30T20:51:27.000Z</time></trkpt>
        <trkpt lat="29.186972" lon="104.639701"><ele>435</ele><time>2025-12-30T20:51:35.000Z</time></trkpt>
        <trkpt lat="29.187059" lon="104.63975"><ele>435</ele><time>2025-12-30T20:51:44.000Z</time></trkpt>
        <trkpt lat="29.187154" lon="104.639821"><ele>434</ele><time>2025-12-30T20:51:55.000Z</time></trkpt>
        <trkpt lat="29.18717" lon="104.639834"><ele>434</ele><time>2025-12-30T20:51:57.000Z</time></trkpt>
        <trkpt lat="29.187255" lon="104.639896"><ele>434</ele><time>2025-12-30T20:52:08.000Z</time></trkpt>
        <trkpt lat="29.187279" lon="104.639914"><ele>434</ele><time>2025-12-30T20:52:11.000Z</time></trkpt>
        <trkpt lat="29.187351" lon="104.639968"><ele>434</ele><time>2025-12-30T20:52:19.000Z</time></trkpt>
        <trkpt lat="29.187435" lon="104.63997"><ele>434</ele><time>2025-12-30T20:52:27.000Z</time></trkpt>
        <trkpt lat="29.187478" lon="104.640015"><ele>434</ele><time>2025-12-30T20:52:33.000Z</time></trkpt>
        <trkpt lat="29.187484" lon="104.640024"><ele>434</ele><time>2025-12-30T20:52:34.000Z</time></trkpt>
        <trkpt lat="29.187528" lon="104.640102"><ele>434</ele><time>2025-12-30T20:52:42.000Z</time></trkpt>
        <trkpt lat="29.187558" lon="104.640154"><ele>433</ele><time>2025-12-30T20:52:47.000Z</time></trkpt>
        <trkpt lat="29.187596" lon="104.640231"><ele>433</ele><time>2025-12-30T20:52:53.000Z</time></trkpt>
        <trkpt lat="29.187621" lon="104.640291"><ele>432</ele><time>2025-12-30T20:52:58.000Z</time></trkpt>
        <trkpt lat="29.187635" lon="104.640326"><ele>432</ele><time>2025-12-30T20:53:06.000Z</time></trkpt>
        <trkpt lat="29.18762" lon="104.640339"><ele>432</ele><time>2025-12-30T20:53:11.000Z</time></trkpt>
        <trkpt lat="29.187626" lon="104.640362"><ele>432</ele><time>2025-12-30T20:53:13.000Z</time></trkpt>
        <trkpt lat="29.187628" lon="104.640394"><ele>432</ele><time>2025-12-30T20:53:18.000Z</time></trkpt>
        <trkpt lat="29.187625" lon="104.64038"><ele>432</ele><time>2025-12-30T20:53:21.000Z</time></trkpt>
        <trkpt lat="29.187623" lon="104.640368"><ele>432</ele><time>2025-12-30T20:53:25.000Z</time></trkpt>
        <trkpt lat="29.187621" lon="104.640365"><ele>432</ele><time>2025-12-30T20:53:26.000Z</time></trkpt>
        <trkpt lat="29.187618" lon="104.640362"><ele>431</ele><time>2025-12-30T20:53:30.000Z</time></trkpt>
        <trkpt lat="29.18765" lon="104.640378"><ele>431</ele><time>2025-12-30T20:53:54.000Z</time></trkpt>
        <trkpt lat="29.187652" lon="104.640378"><ele>430</ele><time>2025-12-30T20:54:04.000Z</time></trkpt>
        <trkpt lat="29.187653" lon="104.640376"><ele>430</ele><time>2025-12-30T20:54:06.000Z</time></trkpt>
        <trkpt lat="29.187653" lon="104.640376"><ele>430</ele><time>2025-12-30T20:54:20.000Z</time></trkpt>
        <trkpt lat="29.187653" lon="104.640376"><ele>430</ele><time>2025-12-30T20:54:23.000Z</time></trkpt>
        <trkpt lat="29.187653" lon="104.640376"><ele>430</ele><time>2025-12-30T20:54:27.000Z</time></trkpt>
        <trkpt lat="29.187653" lon="104.640376"><ele>430</ele><time>2025-12-30T20:54:29.000Z</time></trkpt>
        <trkpt lat="29.187653" lon="104.640376"><ele>430</ele><time>2025-12-30T20:54:31.000Z</time></trkpt>
        <trkpt lat="29.18763" lon="104.640328"><ele>430</ele><time>2025-12-30T20:54:40.000Z</time></trkpt>
        <trkpt lat="29.187619" lon="104.640305"><ele>430</ele><time>2025-12-30T20:54:42.000Z</time></trkpt>
        <trkpt lat="29.187593" lon="104.640222"><ele>431</ele><time>2025-12-30T20:54:48.000Z</time></trkpt>
        <trkpt lat="29.187535" lon="104.640135"><ele>432</ele><time>2025-12-30T20:54:56.000Z</time></trkpt>
        <trkpt lat="29.187527" lon="104.640125"><ele>432</ele><time>2025-12-30T20:54:57.000Z</time></trkpt>
        <trkpt lat="29.187509" lon="104.640094"><ele>432</ele><time>2025-12-30T20:55:00.000Z</time></trkpt>
        <trkpt lat="29.187487" lon="104.640054"><ele>433</ele><time>2025-12-30T20:55:04.000Z</time></trkpt>
        <trkpt lat="29.187465" lon="104.640003"><ele>433</ele><time>2025-12-30T20:55:08.000Z</time></trkpt>
        <trkpt lat="29.187474" lon="104.639964"><ele>433</ele><time>2025-12-30T20:55:11.000Z</time></trkpt>
        <trkpt lat="29.187496" lon="104.639947"><ele>434</ele><time>2025-12-30T20:55:13.000Z</time></trkpt>
        <trkpt lat="29.187519" lon="104.639933"><ele>434</ele><time>2025-12-30T20:55:15.000Z</time></trkpt>
        <trkpt lat="29.187562" lon="104.639906"><ele>435</ele><time>2025-12-30T20:55:20.000Z</time></trkpt>
        <trkpt lat="29.18758" lon="104.639891"><ele>436</ele><time>2025-12-30T20:55:23.000Z</time></trkpt>
        <trkpt lat="29.1876" lon="104.639877"><ele>436</ele><time>2025-12-30T20:55:25.000Z</time></trkpt>
        <trkpt lat="29.187619" lon="104.639867"><ele>436</ele><time>2025-12-30T20:55:27.000Z</time></trkpt>
        <trkpt lat="29.187661" lon="104.639866"><ele>437</ele><time>2025-12-30T20:55:31.000Z</time></trkpt>
        <trkpt lat="29.187676" lon="104.639874"><ele>438</ele><time>2025-12-30T20:55:33.000Z</time></trkpt>
        <trkpt lat="29.187712" lon="104.639899"><ele>438</ele><time>2025-12-30T20:55:40.000Z</time></trkpt>
        <trkpt lat="29.187712" lon="104.639908"><ele>438</ele><time>2025-12-30T20:55:44.000Z</time></trkpt>
        <trkpt lat="29.187712" lon="104.639908"><ele>438</ele><time>2025-12-30T20:55:52.000Z</time></trkpt>
        <trkpt lat="29.18773" lon="104.639943"><ele>438</ele><time>2025-12-30T20:55:57.000Z</time></trkpt>
        <trkpt lat="29.187784" lon="104.640027"><ele>439</ele><time>2025-12-30T20:56:07.000Z</time></trkpt>
        <trkpt lat="29.187788" lon="104.640037"><ele>439</ele><time>2025-12-30T20:56:08.000Z</time></trkpt>
        <trkpt lat="29.187805" lon="104.640075"><ele>439</ele><time>2025-12-30T20:56:12.000Z</time></trkpt>
        <trkpt lat="29.187837" lon="104.640112"><ele>439</ele><time>2025-12-30T20:56:16.000Z</time></trkpt>
        <trkpt lat="29.187847" lon="104.640123"><ele>439</ele><time>2025-12-30T20:56:17.000Z</time></trkpt>
        <trkpt lat="29.187869" lon="104.640149"><ele>440</ele><time>2025-12-30T20:56:20.000Z</time></trkpt>
        <trkpt lat="29.187899" lon="104.640177"><ele>440</ele><time>2025-12-30T20:56:24.000Z</time></trkpt>
        <trkpt lat="29.187931" lon="104.640255"><ele>440</ele><time>2025-12-30T20:56:33.000Z</time></trkpt>
        <trkpt lat="29.187954" lon="104.640314"><ele>439</ele><time>2025-12-30T20:56:39.000Z</time></trkpt>
        <trkpt lat="29.188008" lon="104.640405"><ele>439</ele><time>2025-12-30T20:56:48.000Z</time></trkpt>
        <trkpt lat="29.188066" lon="104.640473"><ele>440</ele><time>2025-12-30T20:56:55.000Z</time></trkpt>
        <trkpt lat="29.18811" lon="104.640532"><ele>440</ele><time>2025-12-30T20:57:01.000Z</time></trkpt>
        <trkpt lat="29.18814" lon="104.640621"><ele>441</ele><time>2025-12-30T20:57:08.000Z</time></trkpt>
        <trkpt lat="29.188158" lon="104.640656"><ele>441</ele><time>2025-12-30T20:57:11.000Z</time></trkpt>
        <trkpt lat="29.188163" lon="104.64067"><ele>441</ele><time>2025-12-30T20:57:12.000Z</time></trkpt>
        <trkpt lat="29.188183" lon="104.640736"><ele>441</ele><time>2025-12-30T20:57:17.000Z</time></trkpt>
        <trkpt lat="29.188212" lon="104.640854"><ele>442</ele><time>2025-12-30T20:57:25.000Z</time></trkpt>
        <trkpt lat="29.188232" lon="104.640913"><ele>443</ele><time>2025-12-30T20:57:31.000Z</time></trkpt>
        <trkpt lat="29.18826" lon="104.640968"><ele>444</ele><time>2025-12-30T20:57:36.000Z</time></trkpt>
        <trkpt lat="29.188288" lon="104.640994"><ele>444</ele><time>2025-12-30T20:57:39.000Z</time></trkpt>
        <trkpt lat="29.188298" lon="104.641008"><ele>445</ele><time>2025-12-30T20:57:41.000Z</time></trkpt>
        <trkpt lat="29.188346" lon="104.641066"><ele>445</ele><time>2025-12-30T20:57:47.000Z</time></trkpt>
        <trkpt lat="29.188363" lon="104.641084"><ele>445</ele><time>2025-12-30T20:57:49.000Z</time></trkpt>
        <trkpt lat="29.188418" lon="104.64113"><ele>446</ele><time>2025-12-30T20:57:56.000Z</time></trkpt>
        <trkpt lat="29.188469" lon="104.641192"><ele>446</ele><time>2025-12-30T20:58:03.000Z</time></trkpt>
        <trkpt lat="29.188538" lon="104.641278"><ele>445</ele><time>2025-12-30T20:58:12.000Z</time></trkpt>
        <trkpt lat="29.188607" lon="104.64133"><ele>444</ele><time>2025-12-30T20:58:18.000Z</time></trkpt>
        <trkpt lat="29.188669" lon="104.641347"><ele>444</ele><time>2025-12-30T20:58:24.000Z</time></trkpt>
        <trkpt lat="29.188738" lon="104.641347"><ele>444</ele><time>2025-12-30T20:58:29.000Z</time></trkpt>
        <trkpt lat="29.188762" lon="104.641342"><ele>444</ele><time>2025-12-30T20:58:31.000Z</time></trkpt>
        <trkpt lat="29.188792" lon="104.641334"><ele>444</ele><time>2025-12-30T20:58:34.000Z</time></trkpt>
        <trkpt lat="29.188852" lon="104.641321"><ele>443</ele><time>2025-12-30T20:58:39.000Z</time></trkpt>
        <trkpt lat="29.18888" lon="104.641322"><ele>443</ele><time>2025-12-30T20:58:41.000Z</time></trkpt>
        <trkpt lat="29.188918" lon="104.641302"><ele>443</ele><time>2025-12-30T20:58:45.000Z</time></trkpt>
        <trkpt lat="29.188991" lon="104.641255"><ele>442</ele><time>2025-12-30T20:58:52.000Z</time></trkpt>
        <trkpt lat="29.189015" lon="104.64124"><ele>442</ele><time>2025-12-30T20:58:54.000Z</time></trkpt>
        <trkpt lat="29.189047" lon="104.641215"><ele>442</ele><time>2025-12-30T20:58:58.000Z</time></trkpt>
        <trkpt lat="29.189065" lon="104.641194"><ele>441</ele><time>2025-12-30T20:59:01.000Z</time></trkpt>
        <trkpt lat="29.189104" lon="104.641165"><ele>440</ele><time>2025-12-30T20:59:05.000Z</time></trkpt>
        <trkpt lat="29.189118" lon="104.641152"><ele>440</ele><time>2025-12-30T20:59:06.000Z</time></trkpt>
        <trkpt lat="29.189157" lon="104.641095"><ele>439</ele><time>2025-12-30T20:59:12.000Z</time></trkpt>
        <trkpt lat="29.189176" lon="104.641042"><ele>438</ele><time>2025-12-30T20:59:17.000Z</time></trkpt>
        <trkpt lat="29.189195" lon="104.640998"><ele>437</ele><time>2025-12-30T20:59:21.000Z</time></trkpt>
        <trkpt lat="29.189207" lon="104.640971"><ele>437</ele><time>2025-12-30T20:59:23.000Z</time></trkpt>
        <trkpt lat="29.189227" lon="104.640916"><ele>436</ele><time>2025-12-30T20:59:28.000Z</time></trkpt>
        <trkpt lat="29.189232" lon="104.640901"><ele>435</ele><time>2025-12-30T20:59:30.000Z</time></trkpt>
        <trkpt lat="29.189251" lon="104.640866"><ele>435</ele><time>2025-12-30T20:59:33.000Z</time></trkpt>
        <trkpt lat="29.189272" lon="104.640806"><ele>434</ele><time>2025-12-30T20:59:37.000Z</time></trkpt>
        <trkpt lat="29.189292" lon="104.640762"><ele>433</ele><time>2025-12-30T20:59:40.000Z</time></trkpt>
        <trkpt lat="29.189324" lon="104.64072"><ele>433</ele><time>2025-12-30T20:59:43.000Z</time></trkpt>
        <trkpt lat="29.189359" lon="104.640681"><ele>432</ele><time>2025-12-30T20:59:47.000Z</time></trkpt>
        <trkpt lat="29.189383" lon="104.640674"><ele>432</ele><time>2025-12-30T20:59:49.000Z</time></trkpt>
        <trkpt lat="29.189495" lon="104.640687"><ele>432</ele><time>2025-12-30T20:59:57.000Z</time></trkpt>
        <trkpt lat="29.189582" lon="104.640656"><ele>432</ele><time>2025-12-30T21:00:05.000Z</time></trkpt>
        <trkpt lat="29.189626" lon="104.640587"><ele>432</ele><time>2025-12-30T21:00:12.000Z</time></trkpt>
        <trkpt lat="29.189621" lon="104.640588"><ele>432</ele><time>2025-12-30T21:00:17.000Z</time></trkpt>
        <trkpt lat="29.189623" lon="104.640598"><ele>432</ele><time>2025-12-30T21:00:18.000Z</time></trkpt>
        <trkpt lat="29.189674" lon="104.640646"><ele>432</ele><time>2025-12-30T21:00:23.000Z</time></trkpt>
        <trkpt lat="29.189732" lon="104.640681"><ele>433</ele><time>2025-12-30T21:00:30.000Z</time></trkpt>
        <trkpt lat="29.189835" lon="104.640728"><ele>432</ele><time>2025-12-30T21:00:39.000Z</time></trkpt>
        <trkpt lat="29.189922" lon="104.640772"><ele>432</ele><time>2025-12-30T21:00:46.000Z</time></trkpt>
        <trkpt lat="29.189967" lon="104.640795"><ele>432</ele><time>2025-12-30T21:00:52.000Z</time></trkpt>
        <trkpt lat="29.190034" lon="104.640829"><ele>432</ele><time>2025-12-30T21:00:57.000Z</time></trkpt>
        <trkpt lat="29.190039" lon="104.640832"><ele>432</ele><time>2025-12-30T21:00:58.000Z</time></trkpt>
        <trkpt lat="29.190113" lon="104.640847"><ele>432</ele><time>2025-12-30T21:01:05.000Z</time></trkpt>
        <trkpt lat="29.19017" lon="104.640825"><ele>431</ele><time>2025-12-30T21:01:10.000Z</time></trkpt>
        <trkpt lat="29.19018" lon="104.640823"><ele>431</ele><time>2025-12-30T21:01:11.000Z</time></trkpt>
        <trkpt lat="29.190242" lon="104.64082"><ele>431</ele><time>2025-12-30T21:01:18.000Z</time></trkpt>
        <trkpt lat="29.190244" lon="104.640819"><ele>430</ele><time>2025-12-30T21:01:19.000Z</time></trkpt>
        <trkpt lat="29.190246" lon="104.640811"><ele>431</ele><time>2025-12-30T21:01:28.000Z</time></trkpt>
        <trkpt lat="29.190247" lon="104.640813"><ele>430</ele><time>2025-12-30T21:01:31.000Z</time></trkpt>
        <trkpt lat="29.190247" lon="104.640813"><ele>430</ele><time>2025-12-30T21:01:34.000Z</time></trkpt>
        <trkpt lat="29.190278" lon="104.640809"><ele>430</ele><time>2025-12-30T21:01:42.000Z</time></trkpt>
        <trkpt lat="29.190283" lon="104.640812"><ele>430</ele><time>2025-12-30T21:01:43.000Z</time></trkpt>
        <trkpt lat="29.190327" lon="104.64081"><ele>429</ele><time>2025-12-30T21:01:50.000Z</time></trkpt>
        <trkpt lat="29.190307" lon="104.640816"><ele>429</ele><time>2025-12-30T21:01:54.000Z</time></trkpt>
        <trkpt lat="29.190299" lon="104.64083"><ele>429</ele><time>2025-12-30T21:01:56.000Z</time></trkpt>
        <trkpt lat="29.190321" lon="104.640829"><ele>429</ele><time>2025-12-30T21:02:02.000Z</time></trkpt>
        <trkpt lat="29.190382" lon="104.640812"><ele>429</ele><time>2025-12-30T21:02:07.000Z</time></trkpt>
        <trkpt lat="29.190429" lon="104.640778"><ele>429</ele><time>2025-12-30T21:02:12.000Z</time></trkpt>
        <trkpt lat="29.190468" lon="104.640755"><ele>428</ele><time>2025-12-30T21:02:17.000Z</time></trkpt>
        <trkpt lat="29.190475" lon="104.64075"><ele>428</ele><time>2025-12-30T21:02:18.000Z</time></trkpt>
        <trkpt lat="29.190489" lon="104.640745"><ele>428</ele><time>2025-12-30T21:02:19.000Z</time></trkpt>
        <trkpt lat="29.190552" lon="104.64073"><ele>427</ele><time>2025-12-30T21:02:23.000Z</time></trkpt>
        <trkpt lat="29.190564" lon="104.640719"><ele>427</ele><time>2025-12-30T21:02:24.000Z</time></trkpt>
        <trkpt lat="29.190593" lon="104.640689"><ele>426</ele><time>2025-12-30T21:02:27.000Z</time></trkpt>
        <trkpt lat="29.190604" lon="104.640658"><ele>426</ele><time>2025-12-30T21:02:31.000Z</time></trkpt>
        <trkpt lat="29.190603" lon="104.640652"><ele>426</ele><time>2025-12-30T21:02:32.000Z</time></trkpt>
        <trkpt lat="29.190608" lon="104.640641"><ele>425</ele><time>2025-12-30T21:02:33.000Z</time></trkpt>
        <trkpt lat="29.190625" lon="104.640612"><ele>425</ele><time>2025-12-30T21:02:36.000Z</time></trkpt>
        <trkpt lat="29.190634" lon="104.64059"><ele>425</ele><time>2025-12-30T21:02:38.000Z</time></trkpt>
        <trkpt lat="29.190668" lon="104.640516"><ele>424</ele><time>2025-12-30T21:02:45.000Z</time></trkpt>
        <trkpt lat="29.190679" lon="104.640495"><ele>424</ele><time>2025-12-30T21:02:47.000Z</time></trkpt>
        <trkpt lat="29.190681" lon="104.640471"><ele>423</ele><time>2025-12-30T21:02:55.000Z</time></trkpt>
        <trkpt lat="29.190655" lon="104.640472"><ele>423</ele><time>2025-12-30T21:03:03.000Z</time></trkpt>
        <trkpt lat="29.190657" lon="104.640467"><ele>423</ele><time>2025-12-30T21:03:04.000Z</time></trkpt>
        <trkpt lat="29.190661" lon="104.640459"><ele>423</ele><time>2025-12-30T21:03:05.000Z</time></trkpt>
        <trkpt lat="29.190665" lon="104.640452"><ele>423</ele><time>2025-12-30T21:03:06.000Z</time></trkpt>
        <trkpt lat="29.190672" lon="104.640439"><ele>423</ele><time>2025-12-30T21:03:07.000Z</time></trkpt>
        <trkpt lat="29.190704" lon="104.640374"><ele>422</ele><time>2025-12-30T21:03:11.000Z</time></trkpt>
        <trkpt lat="29.190747" lon="104.640297"><ele>422</ele><time>2025-12-30T21:03:17.000Z</time></trkpt>
        <trkpt lat="29.19077" lon="104.640282"><ele>422</ele><time>2025-12-30T21:03:19.000Z</time></trkpt>
        <trkpt lat="29.190825" lon="104.640245"><ele>422</ele><time>2025-12-30T21:03:24.000Z</time></trkpt>
        <trkpt lat="29.190937" lon="104.640206"><ele>422</ele><time>2025-12-30T21:03:35.000Z</time></trkpt>
        <trkpt lat="29.191029" lon="104.640161"><ele>422</ele><time>2025-12-30T21:03:42.000Z</time></trkpt>
        <trkpt lat="29.191066" lon="104.640136"><ele>423</ele><time>2025-12-30T21:03:46.000Z</time></trkpt>
        <trkpt lat="29.19109" lon="104.640108"><ele>424</ele><time>2025-12-30T21:03:49.000Z</time></trkpt>
        <trkpt lat="29.191111" lon="104.640087"><ele>424</ele><time>2025-12-30T21:03:52.000Z</time></trkpt>
        <trkpt lat="29.191122" lon="104.64007"><ele>424</ele><time>2025-12-30T21:03:55.000Z</time></trkpt>
        <trkpt lat="29.191126" lon="104.640059"><ele>424</ele><time>2025-12-30T21:03:56.000Z</time></trkpt>
        <trkpt lat="29.191158" lon="104.640032"><ele>424</ele><time>2025-12-30T21:03:59.000Z</time></trkpt>
        <trkpt lat="29.191189" lon="104.639999"><ele>424</ele><time>2025-12-30T21:04:02.000Z</time></trkpt>
        <trkpt lat="29.191233" lon="104.639934"><ele>423</ele><time>2025-12-30T21:04:08.000Z</time></trkpt>
        <trkpt lat="29.191241" lon="104.639921"><ele>423</ele><time>2025-12-30T21:04:09.000Z</time></trkpt>
        <trkpt lat="29.191304" lon="104.639867"><ele>423</ele><time>2025-12-30T21:04:15.000Z</time></trkpt>
        <trkpt lat="29.191359" lon="104.63981"><ele>422</ele><time>2025-12-30T21:04:21.000Z</time></trkpt>
        <trkpt lat="29.191383" lon="104.63978"><ele>422</ele><time>2025-12-30T21:04:23.000Z</time></trkpt>
        <trkpt lat="29.191431" lon="104.639718"><ele>421</ele><time>2025-12-30T21:04:29.000Z</time></trkpt>
        <trkpt lat="29.191483" lon="104.639636"><ele>420</ele><time>2025-12-30T21:04:36.000Z</time></trkpt>
        <trkpt lat="29.191586" lon="104.639591"><ele>419</ele><time>2025-12-30T21:04:44.000Z</time></trkpt>
        <trkpt lat="29.191677" lon="104.639569"><ele>419</ele><time>2025-12-30T21:04:51.000Z</time></trkpt>
        <trkpt lat="29.191758" lon="104.639554"><ele>419</ele><time>2025-12-30T21:04:57.000Z</time></trkpt>
        <trkpt lat="29.191803" lon="104.639538"><ele>419</ele><time>2025-12-30T21:05:02.000Z</time></trkpt>
        <trkpt lat="29.19185" lon="104.63954"><ele>420</ele><time>2025-12-30T21:05:05.000Z</time></trkpt>
        <trkpt lat="29.191881" lon="104.639567"><ele>420</ele><time>2025-12-30T21:05:08.000Z</time></trkpt>
        <trkpt lat="29.191981" lon="104.639644"><ele>420</ele><time>2025-12-30T21:05:17.000Z</time></trkpt>
        <trkpt lat="29.192041" lon="104.639675"><ele>419</ele><time>2025-12-30T21:05:24.000Z</time></trkpt>
        <trkpt lat="29.19214" lon="104.639649"><ele>418</ele><time>2025-12-30T21:05:32.000Z</time></trkpt>
        <trkpt lat="29.192152" lon="104.639645"><ele>418</ele><time>2025-12-30T21:05:33.000Z</time></trkpt>
        <trkpt lat="29.192234" lon="104.639604"><ele>417</ele><time>2025-12-30T21:05:39.000Z</time></trkpt>
        <trkpt lat="29.192251" lon="104.639591"><ele>416</ele><time>2025-12-30T21:05:41.000Z</time></trkpt>
        <trkpt lat="29.192278" lon="104.639551"><ele>416</ele><time>2025-12-30T21:05:45.000Z</time></trkpt>
        <trkpt lat="29.192334" lon="104.639508"><ele>415</ele><time>2025-12-30T21:05:51.000Z</time></trkpt>
        <trkpt lat="29.192343" lon="104.6395"><ele>415</ele><time>2025-12-30T21:05:52.000Z</time></trkpt>
        <trkpt lat="29.192411" lon="104.639412"><ele>414</ele><time>2025-12-30T21:06:01.000Z</time></trkpt>
        <trkpt lat="29.192489" lon="104.639367"><ele>413</ele><time>2025-12-30T21:06:09.000Z</time></trkpt>
        <trkpt lat="29.192507" lon="104.63936"><ele>413</ele><time>2025-12-30T21:06:11.000Z</time></trkpt>
        <trkpt lat="29.192575" lon="104.639358"><ele>412</ele><time>2025-12-30T21:06:16.000Z</time></trkpt>
        <trkpt lat="29.192589" lon="104.639355"><ele>412</ele><time>2025-12-30T21:06:17.000Z</time></trkpt>
        <trkpt lat="29.192663" lon="104.639383"><ele>412</ele><time>2025-12-30T21:06:23.000Z</time></trkpt>
        <trkpt lat="29.192745" lon="104.639469"><ele>412</ele><time>2025-12-30T21:06:31.000Z</time></trkpt>
        <trkpt lat="29.192755" lon="104.639478"><ele>412</ele><time>2025-12-30T21:06:32.000Z</time></trkpt>
        <trkpt lat="29.192762" lon="104.639486"><ele>412</ele><time>2025-12-30T21:06:33.000Z</time></trkpt>
        <trkpt lat="29.192794" lon="104.639518"><ele>412</ele><time>2025-12-30T21:06:36.000Z</time></trkpt>
        <trkpt lat="29.192847" lon="104.639587"><ele>412</ele><time>2025-12-30T21:06:43.000Z</time></trkpt>
        <trkpt lat="29.192921" lon="104.639681"><ele>413</ele><time>2025-12-30T21:06:52.000Z</time></trkpt>
        <trkpt lat="29.192973" lon="104.639736"><ele>414</ele><time>2025-12-30T21:06:59.000Z</time></trkpt>
        <trkpt lat="29.193007" lon="104.639758"><ele>414</ele><time>2025-12-30T21:07:02.000Z</time></trkpt>
        <trkpt lat="29.193026" lon="104.639762"><ele>414</ele><time>2025-12-30T21:07:04.000Z</time></trkpt>
        <trkpt lat="29.1931" lon="104.639789"><ele>414</ele><time>2025-12-30T21:07:12.000Z</time></trkpt>
        <trkpt lat="29.193143" lon="104.639782"><ele>414</ele><time>2025-12-30T21:07:17.000Z</time></trkpt>
        <trkpt lat="29.193198" lon="104.639773"><ele>413</ele><time>2025-12-30T21:07:21.000Z</time></trkpt>
        <trkpt lat="29.19322" lon="104.639766"><ele>413</ele><time>2025-12-30T21:07:23.000Z</time></trkpt>
        <trkpt lat="29.193278" lon="104.639715"><ele>412</ele><time>2025-12-30T21:07:29.000Z</time></trkpt>
        <trkpt lat="29.193302" lon="104.63969"><ele>412</ele><time>2025-12-30T21:07:32.000Z</time></trkpt>
        <trkpt lat="29.193325" lon="104.639664"><ele>411</ele><time>2025-12-30T21:07:35.000Z</time></trkpt>
        <trkpt lat="29.193355" lon="104.639636"><ele>411</ele><time>2025-12-30T21:07:39.000Z</time></trkpt>
        <trkpt lat="29.1934" lon="104.639594"><ele>410</ele><time>2025-12-30T21:07:43.000Z</time></trkpt>
        <trkpt lat="29.193441" lon="104.639535"><ele>410</ele><time>2025-12-30T21:07:49.000Z</time></trkpt>
        <trkpt lat="29.193445" lon="104.639497"><ele>410</ele><time>2025-12-30T21:07:52.000Z</time></trkpt>
        <trkpt lat="29.193405" lon="104.639397"><ele>410</ele><time>2025-12-30T21:08:01.000Z</time></trkpt>
        <trkpt lat="29.193421" lon="104.639308"><ele>409</ele><time>2025-12-30T21:08:09.000Z</time></trkpt>
        <trkpt lat="29.193437" lon="104.639244"><ele>408</ele><time>2025-12-30T21:08:16.000Z</time></trkpt>
        <trkpt lat="29.193459" lon="104.639189"><ele>408</ele><time>2025-12-30T21:08:22.000Z</time></trkpt>
        <trkpt lat="29.193462" lon="104.639167"><ele>408</ele><time>2025-12-30T21:08:24.000Z</time></trkpt>
        <trkpt lat="29.19349" lon="104.63912"><ele>407</ele><time>2025-12-30T21:08:29.000Z</time></trkpt>
        <trkpt lat="29.193501" lon="104.639105"><ele>407</ele><time>2025-12-30T21:08:32.000Z</time></trkpt>
        <trkpt lat="29.193505" lon="104.639093"><ele>407</ele><time>2025-12-30T21:08:34.000Z</time></trkpt>
        <trkpt lat="29.193509" lon="104.639086"><ele>407</ele><time>2025-12-30T21:08:35.000Z</time></trkpt>
        <trkpt lat="29.193526" lon="104.639033"><ele>405</ele><time>2025-12-30T21:08:39.000Z</time></trkpt>
        <trkpt lat="29.193527" lon="104.639024"><ele>405</ele><time>2025-12-30T21:08:40.000Z</time></trkpt>
        <trkpt lat="29.193529" lon="104.638971"><ele>405</ele><time>2025-12-30T21:08:46.000Z</time></trkpt>
        <trkpt lat="29.19353" lon="104.638957"><ele>404</ele><time>2025-12-30T21:08:47.000Z</time></trkpt>
        <trkpt lat="29.193518" lon="104.638904"><ele>404</ele><time>2025-12-30T21:08:54.000Z</time></trkpt>
        <trkpt lat="29.193501" lon="104.638856"><ele>403</ele><time>2025-12-30T21:08:59.000Z</time></trkpt>
        <trkpt lat="29.193488" lon="104.638813"><ele>403</ele><time>2025-12-30T21:09:02.000Z</time></trkpt>
        <trkpt lat="29.193471" lon="104.638738"><ele>403</ele><time>2025-12-30T21:09:08.000Z</time></trkpt>
        <trkpt lat="29.193434" lon="104.638682"><ele>403</ele><time>2025-12-30T21:09:14.000Z</time></trkpt>
        <trkpt lat="29.193388" lon="104.638633"><ele>402</ele><time>2025-12-30T21:09:19.000Z</time></trkpt>
        <trkpt lat="29.193376" lon="104.638631"><ele>402</ele><time>2025-12-30T21:09:21.000Z</time></trkpt>
        <trkpt lat="29.193292" lon="104.638616"><ele>401</ele><time>2025-12-30T21:09:29.000Z</time></trkpt>
        <trkpt lat="29.193235" lon="104.63859"><ele>401</ele><time>2025-12-30T21:09:34.000Z</time></trkpt>
        <trkpt lat="29.193207" lon="104.638572"><ele>401</ele><time>2025-12-30T21:09:37.000Z</time></trkpt>
        <trkpt lat="29.193183" lon="104.638536"><ele>400</ele><time>2025-12-30T21:09:41.000Z</time></trkpt>
        <trkpt lat="29.193178" lon="104.638508"><ele>400</ele><time>2025-12-30T21:09:43.000Z</time></trkpt>
        <trkpt lat="29.193172" lon="104.638477"><ele>400</ele><time>2025-12-30T21:09:45.000Z</time></trkpt>
        <trkpt lat="29.193159" lon="104.63844"><ele>400</ele><time>2025-12-30T21:09:51.000Z</time></trkpt>
        <trkpt lat="29.193149" lon="104.638427"><ele>399</ele><time>2025-12-30T21:09:53.000Z</time></trkpt>
        <trkpt lat="29.193118" lon="104.638394"><ele>398</ele><time>2025-12-30T21:09:57.000Z</time></trkpt>
        <trkpt lat="29.193115" lon="104.638383"><ele>398</ele><time>2025-12-30T21:09:58.000Z</time></trkpt>
        <trkpt lat="29.19313" lon="104.638326"><ele>397</ele><time>2025-12-30T21:10:03.000Z</time></trkpt>
        <trkpt lat="29.19314" lon="104.638307"><ele>397</ele><time>2025-12-30T21:10:05.000Z</time></trkpt>
        <trkpt lat="29.193162" lon="104.638278"><ele>397</ele><time>2025-12-30T21:10:08.000Z</time></trkpt>
        <trkpt lat="29.193226" lon="104.638207"><ele>398</ele><time>2025-12-30T21:10:16.000Z</time></trkpt>
        <trkpt lat="29.193305" lon="104.638166"><ele>398</ele><time>2025-12-30T21:10:25.000Z</time></trkpt>
        <trkpt lat="29.193333" lon="104.638166"><ele>398</ele><time>2025-12-30T21:10:27.000Z</time></trkpt>
        <trkpt lat="29.193377" lon="104.638182"><ele>398</ele><time>2025-12-30T21:10:32.000Z</time></trkpt>
        <trkpt lat="29.193394" lon="104.638206"><ele>398</ele><time>2025-12-30T21:10:39.000Z</time></trkpt>
        <trkpt lat="29.193356" lon="104.638201"><ele>397</ele><time>2025-12-30T21:10:45.000Z</time></trkpt>
        <trkpt lat="29.19329" lon="104.638197"><ele>398</ele><time>2025-12-30T21:10:51.000Z</time></trkpt>
        <trkpt lat="29.193259" lon="104.638172"><ele>397</ele><time>2025-12-30T21:10:59.000Z</time></trkpt>
        <trkpt lat="29.193262" lon="104.638101"><ele>397</ele><time>2025-12-30T21:11:03.000Z</time></trkpt>
        <trkpt lat="29.193264" lon="104.638084"><ele>397</ele><time>2025-12-30T21:11:04.000Z</time></trkpt>
        <trkpt lat="29.193303" lon="104.638006"><ele>396</ele><time>2025-12-30T21:11:10.000Z</time></trkpt>
        <trkpt lat="29.193334" lon="104.637976"><ele>396</ele><time>2025-12-30T21:11:13.000Z</time></trkpt>
        <trkpt lat="29.193347" lon="104.637955"><ele>396</ele><time>2025-12-30T21:11:16.000Z</time></trkpt>
        <trkpt lat="29.193388" lon="104.637919"><ele>395</ele><time>2025-12-30T21:11:22.000Z</time></trkpt>
        <trkpt lat="29.193412" lon="104.637915"><ele>395</ele><time>2025-12-30T21:11:24.000Z</time></trkpt>
        <trkpt lat="29.193427" lon="104.637915"><ele>395</ele><time>2025-12-30T21:11:30.000Z</time></trkpt>
        <trkpt lat="29.193463" lon="104.637944"><ele>394</ele><time>2025-12-30T21:11:38.000Z</time></trkpt>
        <trkpt lat="29.193504" lon="104.637972"><ele>395</ele><time>2025-12-30T21:11:42.000Z</time></trkpt>
        <trkpt lat="29.193518" lon="104.637997"><ele>396</ele><time>2025-12-30T21:11:49.000Z</time></trkpt>
        <trkpt lat="29.193546" lon="104.637996"><ele>395</ele><time>2025-12-30T21:11:56.000Z</time></trkpt>
        <trkpt lat="29.193558" lon="104.637983"><ele>395</ele><time>2025-12-30T21:12:02.000Z</time></trkpt>
        <trkpt lat="29.193561" lon="104.637977"><ele>395</ele><time>2025-12-30T21:12:05.000Z</time></trkpt>
        <trkpt lat="29.193555" lon="104.637975"><ele>395</ele><time>2025-12-30T21:12:15.000Z</time></trkpt>
        <trkpt lat="29.19356" lon="104.637954"><ele>394</ele><time>2025-12-30T21:12:20.000Z</time></trkpt>
        <trkpt lat="29.193581" lon="104.637936"><ele>393</ele><time>2025-12-30T21:12:24.000Z</time></trkpt>
        <trkpt lat="29.1936" lon="104.637935"><ele>393</ele><time>2025-12-30T21:12:27.000Z</time></trkpt>
        <trkpt lat="29.193606" lon="104.637935"><ele>392</ele><time>2025-12-30T21:12:30.000Z</time></trkpt>
        <trkpt lat="29.193601" lon="104.637932"><ele>392</ele><time>2025-12-30T21:12:33.000Z</time></trkpt>
        <trkpt lat="29.193608" lon="104.637922"><ele>391</ele><time>2025-12-30T21:12:35.000Z</time></trkpt>
        <trkpt lat="29.19363" lon="104.637882"><ele>391</ele><time>2025-12-30T21:12:38.000Z</time></trkpt>
        <trkpt lat="29.193636" lon="104.637848"><ele>390</ele><time>2025-12-30T21:12:42.000Z</time></trkpt>
        <trkpt lat="29.193638" lon="104.637832"><ele>390</ele><time>2025-12-30T21:12:44.000Z</time></trkpt>
        <trkpt lat="29.193625" lon="104.637799"><ele>389</ele><time>2025-12-30T21:12:47.000Z</time></trkpt>
        <trkpt lat="29.193621" lon="104.63778"><ele>389</ele><time>2025-12-30T21:12:49.000Z</time></trkpt>
        <trkpt lat="29.193626" lon="104.637731"><ele>389</ele><time>2025-12-30T21:12:54.000Z</time></trkpt>
        <trkpt lat="29.193662" lon="104.637715"><ele>388</ele><time>2025-12-30T21:13:01.000Z</time></trkpt>
        <trkpt lat="29.19367" lon="104.637715"><ele>388</ele><time>2025-12-30T21:13:15.000Z</time></trkpt>
        <trkpt lat="29.193671" lon="104.637707"><ele>388</ele><time>2025-12-30T21:13:23.000Z</time></trkpt>
        <trkpt lat="29.193647" lon="104.637677"><ele>388</ele><time>2025-12-30T21:13:29.000Z</time></trkpt>
        <trkpt lat="29.193589" lon="104.637629"><ele>388</ele><time>2025-12-30T21:13:36.000Z</time></trkpt>
        <trkpt lat="29.193579" lon="104.637617"><ele>388</ele><time>2025-12-30T21:13:47.000Z</time></trkpt>
        <trkpt lat="29.193592" lon="104.637644"><ele>388</ele><time>2025-12-30T21:13:58.000Z</time></trkpt>
        <trkpt lat="29.193598" lon="104.637633"><ele>388</ele><time>2025-12-30T21:14:02.000Z</time></trkpt>
        <trkpt lat="29.193593" lon="104.63763"><ele>388</ele><time>2025-12-30T21:14:05.000Z</time></trkpt>
        <trkpt lat="29.193577" lon="104.637591"><ele>387</ele><time>2025-12-30T21:14:12.000Z</time></trkpt>
        <trkpt lat="29.193577" lon="104.637584"><ele>387</ele><time>2025-12-30T21:14:13.000Z</time></trkpt>
        <trkpt lat="29.193583" lon="104.637553"><ele>386</ele><time>2025-12-30T21:14:17.000Z</time></trkpt>
        <trkpt lat="29.193588" lon="104.637551"><ele>386</ele><time>2025-12-30T21:14:18.000Z</time></trkpt>
        <trkpt lat="29.193598" lon="104.63755"><ele>386</ele><time>2025-12-30T21:14:26.000Z</time></trkpt>
        <trkpt lat="29.193568" lon="104.637579"><ele>386</ele><time>2025-12-30T21:14:34.000Z</time></trkpt>
        <trkpt lat="29.193557" lon="104.637583"><ele>386</ele><time>2025-12-30T21:14:35.000Z</time></trkpt>
        <trkpt lat="29.19353" lon="104.637577"><ele>387</ele><time>2025-12-30T21:14:39.000Z</time></trkpt>
        <trkpt lat="29.193521" lon="104.637576"><ele>387</ele><time>2025-12-30T21:14:40.000Z</time></trkpt>
        <trkpt lat="29.193433" lon="104.637547"><ele>387</ele><time>2025-12-30T21:14:50.000Z</time></trkpt>
        <trkpt lat="29.193406" lon="104.637568"><ele>388</ele><time>2025-12-30T21:14:56.000Z</time></trkpt>
        <trkpt lat="29.19339" lon="104.637573"><ele>388</ele><time>2025-12-30T21:14:58.000Z</time></trkpt>
        <trkpt lat="29.193341" lon="104.637577"><ele>386</ele><time>2025-12-30T21:15:06.000Z</time></trkpt>
        <trkpt lat="29.193344" lon="104.637555"><ele>387</ele><time>2025-12-30T21:15:12.000Z</time></trkpt>
        <trkpt lat="29.193348" lon="104.63755"><ele>387</ele><time>2025-12-30T21:15:14.000Z</time></trkpt>
        <trkpt lat="29.193344" lon="104.637548"><ele>387</ele><time>2025-12-30T21:15:15.000Z</time></trkpt>
        <trkpt lat="29.193342" lon="104.637546"><ele>386</ele><time>2025-12-30T21:15:16.000Z</time></trkpt>
        <trkpt lat="29.193328" lon="104.637542"><ele>386</ele><time>2025-12-30T21:15:21.000Z</time></trkpt>
        <trkpt lat="29.193325" lon="104.637539"><ele>386</ele><time>2025-12-30T21:15:22.000Z</time></trkpt>
        <trkpt lat="29.193324" lon="104.637545"><ele>385</ele><time>2025-12-30T21:15:30.000Z</time></trkpt>
        <trkpt lat="29.193324" lon="104.637547"><ele>385</ele><time>2025-12-30T21:15:33.000Z</time></trkpt>
        <trkpt lat="29.193315" lon="104.637525"><ele>385</ele><time>2025-12-30T21:15:39.000Z</time></trkpt>
        <trkpt lat="29.193309" lon="104.63751"><ele>384</ele><time>2025-12-30T21:15:43.000Z</time></trkpt>
        <trkpt lat="29.193314" lon="104.6375"><ele>384</ele><time>2025-12-30T21:15:48.000Z</time></trkpt>
        <trkpt lat="29.193342" lon="104.637532"><ele>384</ele><time>2025-12-30T21:15:58.000Z</time></trkpt>
        <trkpt lat="29.193342" lon="104.637532"><ele>384</ele><time>2025-12-30T21:16:04.000Z</time></trkpt>
        <trkpt lat="29.193345" lon="104.637519"><ele>384</ele><time>2025-12-30T21:16:09.000Z</time></trkpt>
        <trkpt lat="29.193343" lon="104.63752"><ele>384</ele><time>2025-12-30T21:16:11.000Z</time></trkpt>
        <trkpt lat="29.193351" lon="104.637498"><ele>384</ele><time>2025-12-30T21:16:18.000Z</time></trkpt>
        <trkpt lat="29.193351" lon="104.637499"><ele>384</ele><time>2025-12-30T21:16:25.000Z</time></trkpt>
        <trkpt lat="29.193351" lon="104.637499"><ele>384</ele><time>2025-12-30T21:16:35.000Z</time></trkpt>
        <trkpt lat="29.193351" lon="104.637499"><ele>384</ele><time>2025-12-30T21:16:39.000Z</time></trkpt>
        <trkpt lat="29.193354" lon="104.637474"><ele>384</ele><time>2025-12-30T21:16:50.000Z</time></trkpt>
        <trkpt lat="29.193346" lon="104.637477"><ele>384</ele><time>2025-12-30T21:16:57.000Z</time></trkpt>
        <trkpt lat="29.193357" lon="104.637452"><ele>384</ele><time>2025-12-30T21:17:03.000Z</time></trkpt>
        <trkpt lat="29.193352" lon="104.637452"><ele>384</ele><time>2025-12-30T21:17:13.000Z</time></trkpt>
        <trkpt lat="29.193352" lon="104.637505"><ele>384</ele><time>2025-12-30T21:17:22.000Z</time></trkpt>
        <trkpt lat="29.193357" lon="104.637505"><ele>384</ele><time>2025-12-30T21:17:23.000Z</time></trkpt>
        <trkpt lat="29.193378" lon="104.63754"><ele>385</ele><time>2025-12-30T21:17:31.000Z</time></trkpt>
        <trkpt lat="29.193378" lon="104.637544"><ele>385</ele><time>2025-12-30T21:17:32.000Z</time></trkpt>
        <trkpt lat="29.193375" lon="104.63756"><ele>385</ele><time>2025-12-30T21:17:39.000Z</time></trkpt>
        <trkpt lat="29.193356" lon="104.637589"><ele>386</ele><time>2025-12-30T21:17:45.000Z</time></trkpt>
        <trkpt lat="29.193338" lon="104.637596"><ele>386</ele><time>2025-12-30T21:17:52.000Z</time></trkpt>
        <trkpt lat="29.19334" lon="104.637596"><ele>385</ele><time>2025-12-30T21:17:59.000Z</time></trkpt>
        <trkpt lat="29.19334" lon="104.637596"><ele>385</ele><time>2025-12-30T21:18:04.000Z</time></trkpt>
        <trkpt lat="29.19334" lon="104.637596"><ele>385</ele><time>2025-12-30T21:18:05.000Z</time></trkpt>
        <trkpt lat="29.19334" lon="104.637596"><ele>385</ele><time>2025-12-30T21:18:06.000Z</time></trkpt>
        <trkpt lat="29.19334" lon="104.637596"><ele>385</ele><time>2025-12-30T21:18:08.000Z</time></trkpt>
        <trkpt lat="29.193344" lon="104.637593"><ele>385</ele><time>2025-12-30T21:18:10.000Z</time></trkpt>
        <trkpt lat="29.193374" lon="104.637576"><ele>385</ele><time>2025-12-30T21:18:13.000Z</time></trkpt>
        <trkpt lat="29.193405" lon="104.637556"><ele>385</ele><time>2025-12-30T21:18:16.000Z</time></trkpt>
        <trkpt lat="29.193412" lon="104.637554"><ele>385</ele><time>2025-12-30T21:18:17.000Z</time></trkpt>
        <trkpt lat="29.193422" lon="104.63755"><ele>385</ele><time>2025-12-30T21:18:18.000Z</time></trkpt>
        <trkpt lat="29.193449" lon="104.637541"><ele>386</ele><time>2025-12-30T21:18:22.000Z</time></trkpt>
        <trkpt lat="29.193448" lon="104.637538"><ele>386</ele><time>2025-12-30T21:18:26.000Z</time></trkpt>
        <trkpt lat="29.193444" lon="104.637537"><ele>386</ele><time>2025-12-30T21:18:27.000Z</time></trkpt>
        <trkpt lat="29.193437" lon="104.637535"><ele>386</ele><time>2025-12-30T21:18:35.000Z</time></trkpt>
        <trkpt lat="29.19349" lon="104.637544"><ele>385</ele><time>2025-12-30T21:18:41.000Z</time></trkpt>
        <trkpt lat="29.193577" lon="104.637567"><ele>385</ele><time>2025-12-30T21:18:51.000Z</time></trkpt>
        <trkpt lat="29.193602" lon="104.637553"><ele>385</ele><time>2025-12-30T21:18:53.000Z</time></trkpt>
        <trkpt lat="29.193611" lon="104.637545"><ele>384</ele><time>2025-12-30T21:18:55.000Z</time></trkpt>
        <trkpt lat="29.193611" lon="104.637541"><ele>384</ele><time>2025-12-30T21:18:57.000Z</time></trkpt>
        <trkpt lat="29.193625" lon="104.637558"><ele>384</ele><time>2025-12-30T21:19:03.000Z</time></trkpt>
        <trkpt lat="29.19364" lon="104.637569"><ele>384</ele><time>2025-12-30T21:19:05.000Z</time></trkpt>
        <trkpt lat="29.193683" lon="104.637577"><ele>384</ele><time>2025-12-30T21:19:13.000Z</time></trkpt>
        <trkpt lat="29.193691" lon="104.637578"><ele>384</ele><time>2025-12-30T21:19:20.000Z</time></trkpt>
        <trkpt lat="29.193651" lon="104.637609"><ele>385</ele><time>2025-12-30T21:19:29.000Z</time></trkpt>
        <trkpt lat="29.193666" lon="104.637623"><ele>384</ele><time>2025-12-30T21:19:34.000Z</time></trkpt>
        <trkpt lat="29.193662" lon="104.637639"><ele>384</ele><time>2025-12-30T21:19:37.000Z</time></trkpt>
        <trkpt lat="29.193664" lon="104.63765"><ele>384</ele><time>2025-12-30T21:19:44.000Z</time></trkpt>
        <trkpt lat="29.193661" lon="104.637661"><ele>385</ele><time>2025-12-30T21:19:46.000Z</time></trkpt>
        <trkpt lat="29.19366" lon="104.637679"><ele>386</ele><time>2025-12-30T21:19:50.000Z</time></trkpt>
        <trkpt lat="29.193657" lon="104.637684"><ele>386</ele><time>2025-12-30T21:19:51.000Z</time></trkpt>
        <trkpt lat="29.193619" lon="104.637676"><ele>387</ele><time>2025-12-30T21:19:59.000Z</time></trkpt>
        <trkpt lat="29.193576" lon="104.637662"><ele>387</ele><time>2025-12-30T21:20:05.000Z</time></trkpt>
        <trkpt lat="29.193556" lon="104.637658"><ele>387</ele><time>2025-12-30T21:20:07.000Z</time></trkpt>
        <trkpt lat="29.193534" lon="104.637663"><ele>387</ele><time>2025-12-30T21:20:11.000Z</time></trkpt>
        <trkpt lat="29.193525" lon="104.637667"><ele>388</ele><time>2025-12-30T21:20:14.000Z</time></trkpt>
        <trkpt lat="29.193509" lon="104.63767"><ele>388</ele><time>2025-12-30T21:20:23.000Z</time></trkpt>
        <trkpt lat="29.193505" lon="104.637668"><ele>388</ele><time>2025-12-30T21:20:24.000Z</time></trkpt>
        <trkpt lat="29.193461" lon="104.637684"><ele>388</ele><time>2025-12-30T21:20:30.000Z</time></trkpt>
        <trkpt lat="29.19345" lon="104.637692"><ele>389</ele><time>2025-12-30T21:20:37.000Z</time></trkpt>
        <trkpt lat="29.193449" lon="104.637698"><ele>389</ele><time>2025-12-30T21:20:38.000Z</time></trkpt>
        <trkpt lat="29.193442" lon="104.637729"><ele>390</ele><time>2025-12-30T21:20:44.000Z</time></trkpt>
        <trkpt lat="29.193436" lon="104.637733"><ele>391</ele><time>2025-12-30T21:20:45.000Z</time></trkpt>
        <trkpt lat="29.193382" lon="104.637754"><ele>391</ele><time>2025-12-30T21:20:52.000Z</time></trkpt>
        <trkpt lat="29.193385" lon="104.637788"><ele>391</ele><time>2025-12-30T21:20:56.000Z</time></trkpt>
        <trkpt lat="29.193379" lon="104.637789"><ele>391</ele><time>2025-12-30T21:20:58.000Z</time></trkpt>
        <trkpt lat="29.193383" lon="104.637803"><ele>392</ele><time>2025-12-30T21:21:01.000Z</time></trkpt>
        <trkpt lat="29.193384" lon="104.637812"><ele>392</ele><time>2025-12-30T21:21:03.000Z</time></trkpt>
        <trkpt lat="29.193369" lon="104.63786"><ele>392</ele><time>2025-12-30T21:21:09.000Z</time></trkpt>
        <trkpt lat="29.19334" lon="104.637882"><ele>393</ele><time>2025-12-30T21:21:13.000Z</time></trkpt>
        <trkpt lat="29.193305" lon="104.637903"><ele>393</ele><time>2025-12-30T21:21:17.000Z</time></trkpt>
        <trkpt lat="29.193318" lon="104.637888"><ele>393</ele><time>2025-12-30T21:21:24.000Z</time></trkpt>
        <trkpt lat="29.19334" lon="104.637877"><ele>393</ele><time>2025-12-30T21:21:32.000Z</time></trkpt>
        <trkpt lat="29.193344" lon="104.637877"><ele>393</ele><time>2025-12-30T21:21:34.000Z</time></trkpt>
        <trkpt lat="29.193338" lon="104.637886"><ele>393</ele><time>2025-12-30T21:21:47.000Z</time></trkpt>
        <trkpt lat="29.193336" lon="104.637884"><ele>393</ele><time>2025-12-30T21:21:48.000Z</time></trkpt>
        <trkpt lat="29.19333" lon="104.637872"><ele>393</ele><time>2025-12-30T21:21:53.000Z</time></trkpt>
        <trkpt lat="29.193326" lon="104.637869"><ele>393</ele><time>2025-12-30T21:21:57.000Z</time></trkpt>
        <trkpt lat="29.193325" lon="104.637868"><ele>393</ele><time>2025-12-30T21:21:58.000Z</time></trkpt>
        <trkpt lat="29.193325" lon="104.637864"><ele>392</ele><time>2025-12-30T21:22:07.000Z</time></trkpt>
        <trkpt lat="29.193327" lon="104.637863"><ele>392</ele><time>2025-12-30T21:22:09.000Z</time></trkpt>
        <trkpt lat="29.193356" lon="104.637868"><ele>393</ele><time>2025-12-30T21:22:16.000Z</time></trkpt>
        <trkpt lat="29.193361" lon="104.637931"><ele>393</ele><time>2025-12-30T21:22:22.000Z</time></trkpt>
        <trkpt lat="29.193357" lon="104.637945"><ele>394</ele><time>2025-12-30T21:22:23.000Z</time></trkpt>
        <trkpt lat="29.193338" lon="104.637979"><ele>394</ele><time>2025-12-30T21:22:26.000Z</time></trkpt>
        <trkpt lat="29.193322" lon="104.637998"><ele>395</ele><time>2025-12-30T21:22:28.000Z</time></trkpt>
        <trkpt lat="29.193303" lon="104.638021"><ele>395</ele><time>2025-12-30T21:22:30.000Z</time></trkpt>
        <trkpt lat="29.193271" lon="104.638092"><ele>396</ele><time>2025-12-30T21:22:36.000Z</time></trkpt>
        <trkpt lat="29.193271" lon="104.638109"><ele>396</ele><time>2025-12-30T21:22:38.000Z</time></trkpt>
        <trkpt lat="29.19327" lon="104.638172"><ele>397</ele><time>2025-12-30T21:22:44.000Z</time></trkpt>
        <trkpt lat="29.193262" lon="104.638186"><ele>397</ele><time>2025-12-30T21:22:45.000Z</time></trkpt>
        <trkpt lat="29.19323" lon="104.638215"><ele>398</ele><time>2025-12-30T21:22:50.000Z</time></trkpt>
        <trkpt lat="29.19323" lon="104.638212"><ele>398</ele><time>2025-12-30T21:22:51.000Z</time></trkpt>
        <trkpt lat="29.193212" lon="104.63821"><ele>399</ele><time>2025-12-30T21:23:00.000Z</time></trkpt>
        <trkpt lat="29.193214" lon="104.638214"><ele>398</ele><time>2025-12-30T21:23:03.000Z</time></trkpt>
        <trkpt lat="29.193193" lon="104.638235"><ele>398</ele><time>2025-12-30T21:23:07.000Z</time></trkpt>
        <trkpt lat="29.193181" lon="104.638254"><ele>398</ele><time>2025-12-30T21:23:09.000Z</time></trkpt>
        <trkpt lat="29.19314" lon="104.638331"><ele>398</ele><time>2025-12-30T21:23:18.000Z</time></trkpt>
        <trkpt lat="29.193114" lon="104.638377"><ele>398</ele><time>2025-12-30T21:23:24.000Z</time></trkpt>
        <trkpt lat="29.193105" lon="104.638385"><ele>398</ele><time>2025-12-30T21:23:26.000Z</time></trkpt>
        <trkpt lat="29.193166" lon="104.638405"><ele>399</ele><time>2025-12-30T21:23:32.000Z</time></trkpt>
        <trkpt lat="29.193183" lon="104.63844"><ele>400</ele><time>2025-12-30T21:23:35.000Z</time></trkpt>
        <trkpt lat="29.193179" lon="104.638445"><ele>401</ele><time>2025-12-30T21:23:36.000Z</time></trkpt>
        <trkpt lat="29.193173" lon="104.638445"><ele>401</ele><time>2025-12-30T21:23:37.000Z</time></trkpt>
        <trkpt lat="29.193169" lon="104.638441"><ele>401</ele><time>2025-12-30T21:23:38.000Z</time></trkpt>
        <trkpt lat="29.193163" lon="104.638434"><ele>402</ele><time>2025-12-30T21:23:46.000Z</time></trkpt>
        <trkpt lat="29.193162" lon="104.638445"><ele>402</ele><time>2025-12-30T21:23:49.000Z</time></trkpt>
        <trkpt lat="29.19316" lon="104.638442"><ele>402</ele><time>2025-12-30T21:23:55.000Z</time></trkpt>
        <trkpt lat="29.19316" lon="104.638442"><ele>401</ele><time>2025-12-30T21:24:10.000Z</time></trkpt>
        <trkpt lat="29.19316" lon="104.638442"><ele>401</ele><time>2025-12-30T21:24:17.000Z</time></trkpt>
        <trkpt lat="29.193167" lon="104.638445"><ele>401</ele><time>2025-12-30T21:24:21.000Z</time></trkpt>
        <trkpt lat="29.193178" lon="104.638443"><ele>401</ele><time>2025-12-30T21:24:23.000Z</time></trkpt>
        <trkpt lat="29.193206" lon="104.638455"><ele>401</ele><time>2025-12-30T21:24:28.000Z</time></trkpt>
        <trkpt lat="29.193205" lon="104.638489"><ele>401</ele><time>2025-12-30T21:24:30.000Z</time></trkpt>
        <trkpt lat="29.19321" lon="104.638509"><ele>401</ele><time>2025-12-30T21:24:32.000Z</time></trkpt>
        <trkpt lat="29.193217" lon="104.638531"><ele>401</ele><time>2025-12-30T21:24:34.000Z</time></trkpt>
        <trkpt lat="29.193232" lon="104.638539"><ele>402</ele><time>2025-12-30T21:24:38.000Z</time></trkpt>
        <trkpt lat="29.193242" lon="104.638545"><ele>402</ele><time>2025-12-30T21:24:39.000Z</time></trkpt>
        <trkpt lat="29.193329" lon="104.638576"><ele>402</ele><time>2025-12-30T21:24:47.000Z</time></trkpt>
        <trkpt lat="29.193347" lon="104.638579"><ele>402</ele><time>2025-12-30T21:24:49.000Z</time></trkpt>
        <trkpt lat="29.193359" lon="104.638579"><ele>402</ele><time>2025-12-30T21:24:51.000Z</time></trkpt>
        <trkpt lat="29.193395" lon="104.638595"><ele>403</ele><time>2025-12-30T21:24:54.000Z</time></trkpt>
        <trkpt lat="29.193429" lon="104.638621"><ele>404</ele><time>2025-12-30T21:24:59.000Z</time></trkpt>
        <trkpt lat="29.193433" lon="104.638629"><ele>404</ele><time>2025-12-30T21:25:00.000Z</time></trkpt>
        <trkpt lat="29.193474" lon="104.6387"><ele>404</ele><time>2025-12-30T21:25:08.000Z</time></trkpt>
        <trkpt lat="29.19347" lon="104.638707"><ele>405</ele><time>2025-12-30T21:25:11.000Z</time></trkpt>
        <trkpt lat="29.193461" lon="104.638713"><ele>405</ele><time>2025-12-30T21:25:14.000Z</time></trkpt>
        <trkpt lat="29.193463" lon="104.638729"><ele>405</ele><time>2025-12-30T21:25:19.000Z</time></trkpt>
        <trkpt lat="29.193463" lon="104.638727"><ele>405</ele><time>2025-12-30T21:25:30.000Z</time></trkpt>
        <trkpt lat="29.19347" lon="104.638724"><ele>405</ele><time>2025-12-30T21:25:37.000Z</time></trkpt>
        <trkpt lat="29.193426" lon="104.638682"><ele>404</ele><time>2025-12-30T21:25:45.000Z</time></trkpt>
        <trkpt lat="29.193412" lon="104.638662"><ele>404</ele><time>2025-12-30T21:25:49.000Z</time></trkpt>
        <trkpt lat="29.193391" lon="104.638649"><ele>403</ele><time>2025-12-30T21:25:51.000Z</time></trkpt>
        <trkpt lat="29.193346" lon="104.63863"><ele>403</ele><time>2025-12-30T21:25:54.000Z</time></trkpt>
        <trkpt lat="29.193264" lon="104.638592"><ele>403</ele><time>2025-12-30T21:25:59.000Z</time></trkpt>
        <trkpt lat="29.193253" lon="104.638585"><ele>402</ele><time>2025-12-30T21:26:00.000Z</time></trkpt>
        <trkpt lat="29.193219" lon="104.63857"><ele>402</ele><time>2025-12-30T21:26:04.000Z</time></trkpt>
        <trkpt lat="29.193214" lon="104.638583"><ele>402</ele><time>2025-12-30T21:26:10.000Z</time></trkpt>
        <trkpt lat="29.193213" lon="104.638595"><ele>402</ele><time>2025-12-30T21:26:11.000Z</time></trkpt>
        <trkpt lat="29.193174" lon="104.6386"><ele>403</ele><time>2025-12-30T21:26:16.000Z</time></trkpt>
        <trkpt lat="29.193174" lon="104.638592"><ele>403</ele><time>2025-12-30T21:26:18.000Z</time></trkpt>
        <trkpt lat="29.193137" lon="104.638581"><ele>403</ele><time>2025-12-30T21:26:23.000Z</time></trkpt>
        <trkpt lat="29.193128" lon="104.638579"><ele>403</ele><time>2025-12-30T21:26:24.000Z</time></trkpt>
        <trkpt lat="29.19312" lon="104.638578"><ele>403</ele><time>2025-12-30T21:26:25.000Z</time></trkpt>
        <trkpt lat="29.193065" lon="104.638569"><ele>402</ele><time>2025-12-30T21:26:32.000Z</time></trkpt>
        <trkpt lat="29.193022" lon="104.638543"><ele>402</ele><time>2025-12-30T21:26:38.000Z</time></trkpt>
        <trkpt lat="29.193001" lon="104.638502"><ele>402</ele><time>2025-12-30T21:26:45.000Z</time></trkpt>
        <trkpt lat="29.192967" lon="104.638488"><ele>402</ele><time>2025-12-30T21:26:51.000Z</time></trkpt>
        <trkpt lat="29.192917" lon="104.638476"><ele>402</ele><time>2025-12-30T21:26:59.000Z</time></trkpt>
        <trkpt lat="29.192883" lon="104.638464"><ele>402</ele><time>2025-12-30T21:27:05.000Z</time></trkpt>
        <trkpt lat="29.192883" lon="104.638457"><ele>402</ele><time>2025-12-30T21:27:12.000Z</time></trkpt>
        <trkpt lat="29.192884" lon="104.638456"><ele>402</ele><time>2025-12-30T21:27:14.000Z</time></trkpt>
        <trkpt lat="29.192882" lon="104.638456"><ele>401</ele><time>2025-12-30T21:27:16.000Z</time></trkpt>
        <trkpt lat="29.192884" lon="104.63845"><ele>401</ele><time>2025-12-30T21:27:18.000Z</time></trkpt>
        <trkpt lat="29.192894" lon="104.638446"><ele>401</ele><time>2025-12-30T21:27:21.000Z</time></trkpt>
        <trkpt lat="29.192911" lon="104.638427"><ele>401</ele><time>2025-12-30T21:27:31.000Z</time></trkpt>
        <trkpt lat="29.192924" lon="104.638422"><ele>401</ele><time>2025-12-30T21:27:38.000Z</time></trkpt>
        <trkpt lat="29.192987" lon="104.638439"><ele>401</ele><time>2025-12-30T21:27:45.000Z</time></trkpt>
        <trkpt lat="29.193027" lon="104.638503"><ele>401</ele><time>2025-12-30T21:27:51.000Z</time></trkpt>
        <trkpt lat="29.193033" lon="104.638517"><ele>402</ele><time>2025-12-30T21:27:55.000Z</time></trkpt>
        <trkpt lat="29.19304" lon="104.638536"><ele>402</ele><time>2025-12-30T21:28:00.000Z</time></trkpt>
        <trkpt lat="29.193027" lon="104.63856"><ele>402</ele><time>2025-12-30T21:28:08.000Z</time></trkpt>
        <trkpt lat="29.193032" lon="104.638549"><ele>402</ele><time>2025-12-30T21:28:13.000Z</time></trkpt>
        <trkpt lat="29.19303" lon="104.638545"><ele>402</ele><time>2025-12-30T21:28:15.000Z</time></trkpt>
        <trkpt lat="29.193018" lon="104.638541"><ele>402</ele><time>2025-12-30T21:28:17.000Z</time></trkpt>
        <trkpt lat="29.193027" lon="104.638526"><ele>401</ele><time>2025-12-30T21:28:24.000Z</time></trkpt>
        <trkpt lat="29.193065" lon="104.638538"><ele>401</ele><time>2025-12-30T21:28:29.000Z</time></trkpt>
        <trkpt lat="29.193107" lon="104.638567"><ele>402</ele><time>2025-12-30T21:28:35.000Z</time></trkpt>
        <trkpt lat="29.193114" lon="104.638568"><ele>402</ele><time>2025-12-30T21:28:36.000Z</time></trkpt>
        <trkpt lat="29.193185" lon="104.638577"><ele>402</ele><time>2025-12-30T21:28:44.000Z</time></trkpt>
        <trkpt lat="29.193265" lon="104.638562"><ele>402</ele><time>2025-12-30T21:28:50.000Z</time></trkpt>
        <trkpt lat="29.19332" lon="104.638588"><ele>403</ele><time>2025-12-30T21:28:56.000Z</time></trkpt>
        <trkpt lat="29.193371" lon="104.638603"><ele>403</ele><time>2025-12-30T21:29:01.000Z</time></trkpt>
        <trkpt lat="29.193392" lon="104.638614"><ele>404</ele><time>2025-12-30T21:29:03.000Z</time></trkpt>
        <trkpt lat="29.193432" lon="104.638656"><ele>404</ele><time>2025-12-30T21:29:07.000Z</time></trkpt>
        <trkpt lat="29.19344" lon="104.638668"><ele>405</ele><time>2025-12-30T21:29:08.000Z</time></trkpt>
        <trkpt lat="29.193451" lon="104.638705"><ele>405</ele><time>2025-12-30T21:29:11.000Z</time></trkpt>
        <trkpt lat="29.193474" lon="104.638814"><ele>405</ele><time>2025-12-30T21:29:21.000Z</time></trkpt>
        <trkpt lat="29.193506" lon="104.638892"><ele>405</ele><time>2025-12-30T21:29:28.000Z</time></trkpt>
        <trkpt lat="29.193508" lon="104.638898"><ele>406</ele><time>2025-12-30T21:29:29.000Z</time></trkpt>
        <trkpt lat="29.193528" lon="104.638948"><ele>406</ele><time>2025-12-30T21:29:34.000Z</time></trkpt>
        <trkpt lat="29.19354" lon="104.638953"><ele>406</ele><time>2025-12-30T21:29:40.000Z</time></trkpt>
        <trkpt lat="29.193567" lon="104.638959"><ele>406</ele><time>2025-12-30T21:29:42.000Z</time></trkpt>
        <trkpt lat="29.193621" lon="104.638961"><ele>406</ele><time>2025-12-30T21:29:48.000Z</time></trkpt>
        <trkpt lat="29.193621" lon="104.638942"><ele>406</ele><time>2025-12-30T21:29:56.000Z</time></trkpt>
        <trkpt lat="29.193627" lon="104.638956"><ele>406</ele><time>2025-12-30T21:30:06.000Z</time></trkpt>
        <trkpt lat="29.19366" lon="104.638949"><ele>405</ele><time>2025-12-30T21:30:14.000Z</time></trkpt>
        <trkpt lat="29.193679" lon="104.638944"><ele>404</ele><time>2025-12-30T21:30:15.000Z</time></trkpt>
        <trkpt lat="29.193723" lon="104.638929"><ele>403</ele><time>2025-12-30T21:30:19.000Z</time></trkpt>
        <trkpt lat="29.193734" lon="104.638932"><ele>403</ele><time>2025-12-30T21:30:23.000Z</time></trkpt>
        <trkpt lat="29.19374" lon="104.63893"><ele>402</ele><time>2025-12-30T21:30:27.000Z</time></trkpt>
        <trkpt lat="29.193768" lon="104.638917"><ele>402</ele><time>2025-12-30T21:30:33.000Z</time></trkpt>
        <trkpt lat="29.193777" lon="104.638913"><ele>402</ele><time>2025-12-30T21:30:34.000Z</time></trkpt>
        <trkpt lat="29.193795" lon="104.638892"><ele>402</ele><time>2025-12-30T21:30:40.000Z</time></trkpt>
        <trkpt lat="29.193808" lon="104.638883"><ele>402</ele><time>2025-12-30T21:30:45.000Z</time></trkpt>
        <trkpt lat="29.193809" lon="104.638881"><ele>402</ele><time>2025-12-30T21:30:46.000Z</time></trkpt>
        <trkpt lat="29.19381" lon="104.63888"><ele>402</ele><time>2025-12-30T21:30:47.000Z</time></trkpt>
        <trkpt lat="29.19381" lon="104.638876"><ele>402</ele><time>2025-12-30T21:30:50.000Z</time></trkpt>
        <trkpt lat="29.193808" lon="104.638931"><ele>402</ele><time>2025-12-30T21:30:59.000Z</time></trkpt>
        <trkpt lat="29.193821" lon="104.638931"><ele>402</ele><time>2025-12-30T21:31:05.000Z</time></trkpt>
        <trkpt lat="29.19385" lon="104.638995"><ele>402</ele><time>2025-12-30T21:31:11.000Z</time></trkpt>
        <trkpt lat="29.193875" lon="104.639041"><ele>402</ele><time>2025-12-30T21:31:17.000Z</time></trkpt>
        <trkpt lat="29.193874" lon="104.639051"><ele>403</ele><time>2025-12-30T21:31:23.000Z</time></trkpt>
        <trkpt lat="29.193869" lon="104.639045"><ele>402</ele><time>2025-12-30T21:31:27.000Z</time></trkpt>
        <trkpt lat="29.19387" lon="104.63906"><ele>402</ele><time>2025-12-30T21:31:31.000Z</time></trkpt>
        <trkpt lat="29.193888" lon="104.639127"><ele>403</ele><time>2025-12-30T21:31:37.000Z</time></trkpt>
        <trkpt lat="29.193892" lon="104.63913"><ele>403</ele><time>2025-12-30T21:31:38.000Z</time></trkpt>
        <trkpt lat="29.193893" lon="104.63916"><ele>403</ele><time>2025-12-30T21:31:42.000Z</time></trkpt>
        <trkpt lat="29.19389" lon="104.639174"><ele>404</ele><time>2025-12-30T21:31:45.000Z</time></trkpt>
        <trkpt lat="29.193888" lon="104.639179"><ele>404</ele><time>2025-12-30T21:31:48.000Z</time></trkpt>
        <trkpt lat="29.193887" lon="104.639179"><ele>404</ele><time>2025-12-30T21:31:52.000Z</time></trkpt>
        <trkpt lat="29.193886" lon="104.63918"><ele>404</ele><time>2025-12-30T21:31:58.000Z</time></trkpt>
        <trkpt lat="29.193903" lon="104.639186"><ele>403</ele><time>2025-12-30T21:32:05.000Z</time></trkpt>
        <trkpt lat="29.193903" lon="104.639184"><ele>403</ele><time>2025-12-30T21:32:12.000Z</time></trkpt>
        <trkpt lat="29.193902" lon="104.639178"><ele>403</ele><time>2025-12-30T21:32:25.000Z</time></trkpt>
        <trkpt lat="29.193896" lon="104.639177"><ele>403</ele><time>2025-12-30T21:32:34.000Z</time></trkpt>
        <trkpt lat="29.193895" lon="104.639183"><ele>403</ele><time>2025-12-30T21:32:38.000Z</time></trkpt>
        <trkpt lat="29.193902" lon="104.639178"><ele>403</ele><time>2025-12-30T21:32:41.000Z</time></trkpt>
        <trkpt lat="29.193902" lon="104.639178"><ele>403</ele><time>2025-12-30T21:32:44.000Z</time></trkpt>
        <trkpt lat="29.193893" lon="104.639183"><ele>403</ele><time>2025-12-30T21:32:46.000Z</time></trkpt>
        <trkpt lat="29.193873" lon="104.639188"><ele>403</ele><time>2025-12-30T21:32:55.000Z</time></trkpt>
        <trkpt lat="29.193869" lon="104.639185"><ele>403</ele><time>2025-12-30T21:33:01.000Z</time></trkpt>
        <trkpt lat="29.193874" lon="104.639182"><ele>403</ele><time>2025-12-30T21:33:02.000Z</time></trkpt>
        <trkpt lat="29.193879" lon="104.639181"><ele>403</ele><time>2025-12-30T21:33:03.000Z</time></trkpt>
        <trkpt lat="29.193885" lon="104.639182"><ele>403</ele><time>2025-12-30T21:33:04.000Z</time></trkpt>
        <trkpt lat="29.193894" lon="104.639184"><ele>403</ele><time>2025-12-30T21:33:06.000Z</time></trkpt>
        <trkpt lat="29.193907" lon="104.639192"><ele>402</ele><time>2025-12-30T21:33:08.000Z</time></trkpt>
        <trkpt lat="29.193914" lon="104.639207"><ele>402</ele><time>2025-12-30T21:33:10.000Z</time></trkpt>
        <trkpt lat="29.193912" lon="104.63922"><ele>401</ele><time>2025-12-30T21:33:14.000Z</time></trkpt>
        <trkpt lat="29.193891" lon="104.639201"><ele>402</ele><time>2025-12-30T21:33:21.000Z</time></trkpt>
        <trkpt lat="29.193882" lon="104.639192"><ele>402</ele><time>2025-12-30T21:33:22.000Z</time></trkpt>
        <trkpt lat="29.193868" lon="104.639189"><ele>403</ele><time>2025-12-30T21:33:26.000Z</time></trkpt>
        <trkpt lat="29.193859" lon="104.639182"><ele>404</ele><time>2025-12-30T21:33:28.000Z</time></trkpt>
        <trkpt lat="29.193864" lon="104.639168"><ele>404</ele><time>2025-12-30T21:33:34.000Z</time></trkpt>
        <trkpt lat="29.193867" lon="104.639168"><ele>404</ele><time>2025-12-30T21:33:35.000Z</time></trkpt>
        <trkpt lat="29.193868" lon="104.639166"><ele>403</ele><time>2025-12-30T21:33:36.000Z</time></trkpt>
        <trkpt lat="29.193865" lon="104.639165"><ele>403</ele><time>2025-12-30T21:33:38.000Z</time></trkpt>
        <trkpt lat="29.193862" lon="104.639166"><ele>403</ele><time>2025-12-30T21:33:39.000Z</time></trkpt>
        <trkpt lat="29.193863" lon="104.639167"><ele>404</ele><time>2025-12-30T21:33:42.000Z</time></trkpt>
        <trkpt lat="29.193864" lon="104.639172"><ele>403</ele><time>2025-12-30T21:33:46.000Z</time></trkpt>
        <trkpt lat="29.19386" lon="104.639142"><ele>404</ele><time>2025-12-30T21:33:54.000Z</time></trkpt>
        <trkpt lat="29.193861" lon="104.639143"><ele>403</ele><time>2025-12-30T21:34:14.000Z</time></trkpt>
        <trkpt lat="29.19386" lon="104.639141"><ele>403</ele><time>2025-12-30T21:34:15.000Z</time></trkpt>
        <trkpt lat="29.193856" lon="104.639148"><ele>404</ele><time>2025-12-30T21:34:22.000Z</time></trkpt>
        <trkpt lat="29.193851" lon="104.639143"><ele>403</ele><time>2025-12-30T21:34:24.000Z</time></trkpt>
        <trkpt lat="29.193854" lon="104.639159"><ele>404</ele><time>2025-12-30T21:34:34.000Z</time></trkpt>
        <trkpt lat="29.193857" lon="104.639162"><ele>403</ele><time>2025-12-30T21:34:41.000Z</time></trkpt>
        <trkpt lat="29.193888" lon="104.639168"><ele>403</ele><time>2025-12-30T21:34:49.000Z</time></trkpt>
        <trkpt lat="29.193908" lon="104.639188"><ele>402</ele><time>2025-12-30T21:34:56.000Z</time></trkpt>
        <trkpt lat="29.193912" lon="104.639213"><ele>401</ele><time>2025-12-30T21:35:00.000Z</time></trkpt>
        <trkpt lat="29.193915" lon="104.639218"><ele>400</ele><time>2025-12-30T21:35:05.000Z</time></trkpt>
        <trkpt lat="29.193928" lon="104.639236"><ele>400</ele><time>2025-12-30T21:35:08.000Z</time></trkpt>
        <trkpt lat="29.193947" lon="104.639265"><ele>399</ele><time>2025-12-30T21:35:12.000Z</time></trkpt>
        <trkpt lat="29.193951" lon="104.639278"><ele>399</ele><time>2025-12-30T21:35:14.000Z</time></trkpt>
        <trkpt lat="29.19395" lon="104.639288"><ele>397</ele><time>2025-12-30T21:35:21.000Z</time></trkpt>
        <trkpt lat="29.193961" lon="104.639301"><ele>396</ele><time>2025-12-30T21:35:25.000Z</time></trkpt>
        <trkpt lat="29.193969" lon="104.639326"><ele>396</ele><time>2025-12-30T21:35:28.000Z</time></trkpt>
        <trkpt lat="29.193969" lon="104.639356"><ele>395</ele><time>2025-12-30T21:35:31.000Z</time></trkpt>
        <trkpt lat="29.193968" lon="104.639342"><ele>395</ele><time>2025-12-30T21:35:35.000Z</time></trkpt>
        <trkpt lat="29.193948" lon="104.639349"><ele>395</ele><time>2025-12-30T21:35:43.000Z</time></trkpt>
        <trkpt lat="29.19396" lon="104.639351"><ele>394</ele><time>2025-12-30T21:35:51.000Z</time></trkpt>
        <trkpt lat="29.193949" lon="104.639344"><ele>394</ele><time>2025-12-30T21:36:01.000Z</time></trkpt>
        <trkpt lat="29.193945" lon="104.63934"><ele>394</ele><time>2025-12-30T21:36:03.000Z</time></trkpt>
        <trkpt lat="29.193943" lon="104.639344"><ele>394</ele><time>2025-12-30T21:36:09.000Z</time></trkpt>
        <trkpt lat="29.193925" lon="104.639381"><ele>394</ele><time>2025-12-30T21:36:15.000Z</time></trkpt>
        <trkpt lat="29.19392" lon="104.639397"><ele>393</ele><time>2025-12-30T21:36:18.000Z</time></trkpt>
        <trkpt lat="29.193917" lon="104.639418"><ele>392</ele><time>2025-12-30T21:36:23.000Z</time></trkpt>
        <trkpt lat="29.193921" lon="104.639439"><ele>391</ele><time>2025-12-30T21:36:30.000Z</time></trkpt>
        <trkpt lat="29.193929" lon="104.639434"><ele>391</ele><time>2025-12-30T21:36:36.000Z</time></trkpt>
        <trkpt lat="29.193938" lon="104.63943"><ele>391</ele><time>2025-12-30T21:36:40.000Z</time></trkpt>
        <trkpt lat="29.193941" lon="104.639429"><ele>391</ele><time>2025-12-30T21:36:42.000Z</time></trkpt>
        <trkpt lat="29.193941" lon="104.639432"><ele>391</ele><time>2025-12-30T21:36:43.000Z</time></trkpt>
        <trkpt lat="29.193941" lon="104.639438"><ele>391</ele><time>2025-12-30T21:36:49.000Z</time></trkpt>
        <trkpt lat="29.193943" lon="104.639426"><ele>391</ele><time>2025-12-30T21:36:52.000Z</time></trkpt>
        <trkpt lat="29.19397" lon="104.639391"><ele>391</ele><time>2025-12-30T21:36:57.000Z</time></trkpt>
        <trkpt lat="29.194002" lon="104.639363"><ele>391</ele><time>2025-12-30T21:37:03.000Z</time></trkpt>
        <trkpt lat="29.194003" lon="104.639364"><ele>391</ele><time>2025-12-30T21:37:05.000Z</time></trkpt>
        <trkpt lat="29.194002" lon="104.639368"><ele>390</ele><time>2025-12-30T21:37:14.000Z</time></trkpt>
        <trkpt lat="29.194003" lon="104.639369"><ele>390</ele><time>2025-12-30T21:37:18.000Z</time></trkpt>
        <trkpt lat="29.194012" lon="104.639356"><ele>390</ele><time>2025-12-30T21:37:29.000Z</time></trkpt>
        <trkpt lat="29.194022" lon="104.63936"><ele>389</ele><time>2025-12-30T21:37:39.000Z</time></trkpt>
        <trkpt lat="29.194054" lon="104.639365"><ele>389</ele><time>2025-12-30T21:37:46.000Z</time></trkpt>
        <trkpt lat="29.194061" lon="104.63936"><ele>389</ele><time>2025-12-30T21:37:48.000Z</time></trkpt>
        <trkpt lat="29.194049" lon="104.639361"><ele>389</ele><time>2025-12-30T21:37:54.000Z</time></trkpt>
        <trkpt lat="29.194051" lon="104.639357"><ele>388</ele><time>2025-12-30T21:37:57.000Z</time></trkpt>
        <trkpt lat="29.194051" lon="104.639354"><ele>388</ele><time>2025-12-30T21:37:59.000Z</time></trkpt>
        <trkpt lat="29.194046" lon="104.639366"><ele>388</ele><time>2025-12-30T21:38:06.000Z</time></trkpt>
        <trkpt lat="29.194032" lon="104.63937"><ele>387</ele><time>2025-12-30T21:38:17.000Z</time></trkpt>
        <trkpt lat="29.194039" lon="104.639367"><ele>388</ele><time>2025-12-30T21:38:26.000Z</time></trkpt>
        <trkpt lat="29.194044" lon="104.639351"><ele>387</ele><time>2025-12-30T21:38:34.000Z</time></trkpt>
        <trkpt lat="29.194055" lon="104.639348"><ele>387</ele><time>2025-12-30T21:38:39.000Z</time></trkpt>
        <trkpt lat="29.19405" lon="104.639367"><ele>386</ele><time>2025-12-30T21:38:43.000Z</time></trkpt>
        <trkpt lat="29.194051" lon="104.63937"><ele>386</ele><time>2025-12-30T21:38:47.000Z</time></trkpt>
        <trkpt lat="29.19405" lon="104.639373"><ele>385</ele><time>2025-12-30T21:38:52.000Z</time></trkpt>
        <trkpt lat="29.19405" lon="104.639375"><ele>385</ele><time>2025-12-30T21:38:55.000Z</time></trkpt>
        <trkpt lat="29.194033" lon="104.639378"><ele>384</ele><time>2025-12-30T21:39:02.000Z</time></trkpt>
        <trkpt lat="29.194034" lon="104.639371"><ele>384</ele><time>2025-12-30T21:39:12.000Z</time></trkpt>
        <trkpt lat="29.194046" lon="104.639375"><ele>384</ele><time>2025-12-30T21:39:17.000Z</time></trkpt>
        <trkpt lat="29.194049" lon="104.639378"><ele>384</ele><time>2025-12-30T21:39:19.000Z</time></trkpt>
        <trkpt lat="29.194049" lon="104.63938"><ele>384</ele><time>2025-12-30T21:39:20.000Z</time></trkpt>
        <trkpt lat="29.194056" lon="104.639406"><ele>383</ele><time>2025-12-30T21:39:29.000Z</time></trkpt>
        <trkpt lat="29.194057" lon="104.639408"><ele>383</ele><time>2025-12-30T21:39:30.000Z</time></trkpt>
        <trkpt lat="29.194072" lon="104.639402"><ele>382</ele><time>2025-12-30T21:39:36.000Z</time></trkpt>
        <trkpt lat="29.194093" lon="104.639416"><ele>382</ele><time>2025-12-30T21:39:41.000Z</time></trkpt>
        <trkpt lat="29.194092" lon="104.639424"><ele>382</ele><time>2025-12-30T21:39:43.000Z</time></trkpt>
        <trkpt lat="29.194113" lon="104.639419"><ele>382</ele><time>2025-12-30T21:39:51.000Z</time></trkpt>
        <trkpt lat="29.194115" lon="104.639412"><ele>382</ele><time>2025-12-30T21:39:57.000Z</time></trkpt>
        <trkpt lat="29.194113" lon="104.639409"><ele>382</ele><time>2025-12-30T21:40:05.000Z</time></trkpt>
        <trkpt lat="29.194105" lon="104.63941"><ele>382</ele><time>2025-12-30T21:40:08.000Z</time></trkpt>
        <trkpt lat="29.194062" lon="104.63945"><ele>381</ele><time>2025-12-30T21:40:18.000Z</time></trkpt>
        <trkpt lat="29.194033" lon="104.639449"><ele>382</ele><time>2025-12-30T21:40:27.000Z</time></trkpt>
        <trkpt lat="29.19402" lon="104.639467"><ele>381</ele><time>2025-12-30T21:40:35.000Z</time></trkpt>
        <trkpt lat="29.194015" lon="104.639462"><ele>381</ele><time>2025-12-30T21:40:41.000Z</time></trkpt>
        <trkpt lat="29.19402" lon="104.639467"><ele>381</ele><time>2025-12-30T21:40:43.000Z</time></trkpt>
        <trkpt lat="29.194022" lon="104.63947"><ele>381</ele><time>2025-12-30T21:40:44.000Z</time></trkpt>
        <trkpt lat="29.194025" lon="104.639476"><ele>380</ele><time>2025-12-30T21:40:46.000Z</time></trkpt>
        <trkpt lat="29.194028" lon="104.639477"><ele>380</ele><time>2025-12-30T21:40:48.000Z</time></trkpt>
        <trkpt lat="29.194022" lon="104.639487"><ele>380</ele><time>2025-12-30T21:40:51.000Z</time></trkpt>
        <trkpt lat="29.194021" lon="104.639487"><ele>379</ele><time>2025-12-30T21:40:52.000Z</time></trkpt>
        <trkpt lat="29.194014" lon="104.639492"><ele>379</ele><time>2025-12-30T21:40:59.000Z</time></trkpt>
        <trkpt lat="29.19402" lon="104.639497"><ele>378</ele><time>2025-12-30T21:41:00.000Z</time></trkpt>
        <trkpt lat="29.194027" lon="104.639499"><ele>378</ele><time>2025-12-30T21:41:04.000Z</time></trkpt>
        <trkpt lat="29.194041" lon="104.639505"><ele>378</ele><time>2025-12-30T21:41:11.000Z</time></trkpt>
        <trkpt lat="29.194044" lon="104.639507"><ele>377</ele><time>2025-12-30T21:41:14.000Z</time></trkpt>
        <trkpt lat="29.194028" lon="104.639505"><ele>377</ele><time>2025-12-30T21:41:21.000Z</time></trkpt>
        <trkpt lat="29.194023" lon="104.639519"><ele>377</ele><time>2025-12-30T21:41:33.000Z</time></trkpt>
        <trkpt lat="29.19404" lon="104.639515"><ele>377</ele><time>2025-12-30T21:41:41.000Z</time></trkpt>
        <trkpt lat="29.194056" lon="104.639507"><ele>376</ele><time>2025-12-30T21:41:48.000Z</time></trkpt>
        <trkpt lat="29.194055" lon="104.639509"><ele>376</ele><time>2025-12-30T21:41:53.000Z</time></trkpt>
        <trkpt lat="29.194055" lon="104.639514"><ele>376</ele><time>2025-12-30T21:41:56.000Z</time></trkpt>
        <trkpt lat="29.194067" lon="104.639512"><ele>375</ele><time>2025-12-30T21:42:05.000Z</time></trkpt>
        <trkpt lat="29.194071" lon="104.639511"><ele>375</ele><time>2025-12-30T21:42:09.000Z</time></trkpt>
        <trkpt lat="29.194084" lon="104.639521"><ele>374</ele><time>2025-12-30T21:42:13.000Z</time></trkpt>
        <trkpt lat="29.19409" lon="104.639512"><ele>374</ele><time>2025-12-30T21:42:17.000Z</time></trkpt>
        <trkpt lat="29.194092" lon="104.639509"><ele>374</ele><time>2025-12-30T21:42:21.000Z</time></trkpt>
        <trkpt lat="29.194095" lon="104.639506"><ele>373</ele><time>2025-12-30T21:42:28.000Z</time></trkpt>
        <trkpt lat="29.194103" lon="104.639515"><ele>372</ele><time>2025-12-30T21:42:39.000Z</time></trkpt>
        <trkpt lat="29.194107" lon="104.639513"><ele>372</ele><time>2025-12-30T21:42:40.000Z</time></trkpt>
        <trkpt lat="29.19411" lon="104.63951"><ele>372</ele><time>2025-12-30T21:42:41.000Z</time></trkpt>
        <trkpt lat="29.194111" lon="104.639512"><ele>372</ele><time>2025-12-30T21:42:42.000Z</time></trkpt>
        <trkpt lat="29.194098" lon="104.639534"><ele>372</ele><time>2025-12-30T21:42:48.000Z</time></trkpt>
        <trkpt lat="29.194104" lon="104.63956"><ele>372</ele><time>2025-12-30T21:42:53.000Z</time></trkpt>
        <trkpt lat="29.194096" lon="104.639589"><ele>371</ele><time>2025-12-30T21:42:57.000Z</time></trkpt>
        <trkpt lat="29.194096" lon="104.6396"><ele>371</ele><time>2025-12-30T21:42:59.000Z</time></trkpt>
        <trkpt lat="29.1941" lon="104.639585"><ele>371</ele><time>2025-12-30T21:43:04.000Z</time></trkpt>
        <trkpt lat="29.194086" lon="104.639565"><ele>371</ele><time>2025-12-30T21:43:10.000Z</time></trkpt>
        <trkpt lat="29.194098" lon="104.639568"><ele>371</ele><time>2025-12-30T21:43:21.000Z</time></trkpt>
        <trkpt lat="29.194086" lon="104.639571"><ele>372</ele><time>2025-12-30T21:43:29.000Z</time></trkpt>
        <trkpt lat="29.194089" lon="104.639576"><ele>372</ele><time>2025-12-30T21:43:35.000Z</time></trkpt>
        <trkpt lat="29.194097" lon="104.639586"><ele>372</ele><time>2025-12-30T21:43:43.000Z</time></trkpt>
        <trkpt lat="29.194065" lon="104.639622"><ele>371</ele><time>2025-12-30T21:43:50.000Z</time></trkpt>
        <trkpt lat="29.194056" lon="104.639639"><ele>371</ele><time>2025-12-30T21:43:52.000Z</time></trkpt>
        <trkpt lat="29.19404" lon="104.639684"><ele>370</ele><time>2025-12-30T21:43:57.000Z</time></trkpt>
        <trkpt lat="29.194017" lon="104.639721"><ele>370</ele><time>2025-12-30T21:44:03.000Z</time></trkpt>
        <trkpt lat="29.194019" lon="104.639727"><ele>370</ele><time>2025-12-30T21:44:12.000Z</time></trkpt>
        <trkpt lat="29.19402" lon="104.639721"><ele>370</ele><time>2025-12-30T21:44:23.000Z</time></trkpt>
        <trkpt lat="29.194023" lon="104.639707"><ele>370</ele><time>2025-12-30T21:44:34.000Z</time></trkpt>
        <trkpt lat="29.193979" lon="104.639726"><ele>370</ele><time>2025-12-30T21:44:42.000Z</time></trkpt>
        <trkpt lat="29.193999" lon="104.639705"><ele>370</ele><time>2025-12-30T21:44:49.000Z</time></trkpt>
        <trkpt lat="29.193985" lon="104.639745"><ele>370</ele><time>2025-12-30T21:44:56.000Z</time></trkpt>
        <trkpt lat="29.193978" lon="104.639759"><ele>371</ele><time>2025-12-30T21:44:58.000Z</time></trkpt>
        <trkpt lat="29.193977" lon="104.639761"><ele>371</ele><time>2025-12-30T21:45:04.000Z</time></trkpt>
        <trkpt lat="29.193975" lon="104.639762"><ele>371</ele><time>2025-12-30T21:45:14.000Z</time></trkpt>
        <trkpt lat="29.193974" lon="104.63977"><ele>371</ele><time>2025-12-30T21:45:17.000Z</time></trkpt>
        <trkpt lat="29.193975" lon="104.639771"><ele>371</ele><time>2025-12-30T21:45:21.000Z</time></trkpt>
        <trkpt lat="29.193987" lon="104.639777"><ele>371</ele><time>2025-12-30T21:45:26.000Z</time></trkpt>
        <trkpt lat="29.193987" lon="104.639777"><ele>371</ele><time>2025-12-30T21:45:27.000Z</time></trkpt>
        <trkpt lat="29.193985" lon="104.639778"><ele>371</ele><time>2025-12-30T21:45:29.000Z</time></trkpt>
        <trkpt lat="29.193981" lon="104.639782"><ele>371</ele><time>2025-12-30T21:45:34.000Z</time></trkpt>
        <trkpt lat="29.19395" lon="104.63979"><ele>371</ele><time>2025-12-30T21:45:41.000Z</time></trkpt>
        <trkpt lat="29.193952" lon="104.639778"><ele>371</ele><time>2025-12-30T21:45:51.000Z</time></trkpt>
        <trkpt lat="29.193951" lon="104.639779"><ele>371</ele><time>2025-12-30T21:45:53.000Z</time></trkpt>
        <trkpt lat="29.19395" lon="104.639786"><ele>371</ele><time>2025-12-30T21:46:01.000Z</time></trkpt>
        <trkpt lat="29.193955" lon="104.639787"><ele>372</ele><time>2025-12-30T21:46:03.000Z</time></trkpt>
        <trkpt lat="29.193951" lon="104.639781"><ele>371</ele><time>2025-12-30T21:46:10.000Z</time></trkpt>
        <trkpt lat="29.193947" lon="104.639787"><ele>371</ele><time>2025-12-30T21:46:12.000Z</time></trkpt>
        <trkpt lat="29.193941" lon="104.639792"><ele>371</ele><time>2025-12-30T21:46:13.000Z</time></trkpt>
        <trkpt lat="29.193957" lon="104.63981"><ele>372</ele><time>2025-12-30T21:46:22.000Z</time></trkpt>
        <trkpt lat="29.193957" lon="104.639803"><ele>372</ele><time>2025-12-30T21:46:29.000Z</time></trkpt>
        <trkpt lat="29.193952" lon="104.639803"><ele>372</ele><time>2025-12-30T21:46:37.000Z</time></trkpt>
        <trkpt lat="29.193961" lon="104.639783"><ele>372</ele><time>2025-12-30T21:46:46.000Z</time></trkpt>
        <trkpt lat="29.19395" lon="104.639778"><ele>372</ele><time>2025-12-30T21:46:54.000Z</time></trkpt>
        <trkpt lat="29.19396" lon="104.639782"><ele>372</ele><time>2025-12-30T21:46:56.000Z</time></trkpt>
        <trkpt lat="29.19397" lon="104.639787"><ele>373</ele><time>2025-12-30T21:46:59.000Z</time></trkpt>
        <trkpt lat="29.193982" lon="104.63979"><ele>373</ele><time>2025-12-30T21:47:03.000Z</time></trkpt>
        <trkpt lat="29.193984" lon="104.639788"><ele>373</ele><time>2025-12-30T21:47:12.000Z</time></trkpt>
        <trkpt lat="29.193966" lon="104.639799"><ele>373</ele><time>2025-12-30T21:47:22.000Z</time></trkpt>
        <trkpt lat="29.193957" lon="104.639813"><ele>373</ele><time>2025-12-30T21:47:29.000Z</time></trkpt>
        <trkpt lat="29.193957" lon="104.639813"><ele>373</ele><time>2025-12-30T21:47:32.000Z</time></trkpt>
        <trkpt lat="29.193951" lon="104.639809"><ele>373</ele><time>2025-12-30T21:47:35.000Z</time></trkpt>
        <trkpt lat="29.193951" lon="104.639792"><ele>373</ele><time>2025-12-30T21:47:37.000Z</time></trkpt>
        <trkpt lat="29.193964" lon="104.639792"><ele>373</ele><time>2025-12-30T21:47:44.000Z</time></trkpt>
        <trkpt lat="29.19398" lon="104.639825"><ele>373</ele><time>2025-12-30T21:47:53.000Z</time></trkpt>
        <trkpt lat="29.193982" lon="104.639826"><ele>373</ele><time>2025-12-30T21:47:55.000Z</time></trkpt>
        <trkpt lat="29.193984" lon="104.639827"><ele>373</ele><time>2025-12-30T21:47:57.000Z</time></trkpt>
        <trkpt lat="29.193984" lon="104.639826"><ele>373</ele><time>2025-12-30T21:48:04.000Z</time></trkpt>
        <trkpt lat="29.193977" lon="104.639807"><ele>373</ele><time>2025-12-30T21:48:12.000Z</time></trkpt>
        <trkpt lat="29.193979" lon="104.639798"><ele>373</ele><time>2025-12-30T21:48:22.000Z</time></trkpt>
        <trkpt lat="29.193977" lon="104.639807"><ele>374</ele><time>2025-12-30T21:48:32.000Z</time></trkpt>
        <trkpt lat="29.193987" lon="104.639811"><ele>373</ele><time>2025-12-30T21:48:40.000Z</time></trkpt>
        <trkpt lat="29.193985" lon="104.639811"><ele>373</ele><time>2025-12-30T21:48:42.000Z</time></trkpt>
        <trkpt lat="29.193963" lon="104.639809"><ele>373</ele><time>2025-12-30T21:48:50.000Z</time></trkpt>
        <trkpt lat="29.193977" lon="104.639807"><ele>373</ele><time>2025-12-30T21:49:00.000Z</time></trkpt>
        <trkpt lat="29.193986" lon="104.639811"><ele>374</ele><time>2025-12-30T21:49:09.000Z</time></trkpt>
        <trkpt lat="29.193986" lon="104.639811"><ele>374</ele><time>2025-12-30T21:49:11.000Z</time></trkpt>
        <trkpt lat="29.193986" lon="104.639811"><ele>374</ele><time>2025-12-30T21:49:12.000Z</time></trkpt>
        <trkpt lat="29.193996" lon="104.639779"><ele>374</ele><time>2025-12-30T21:49:23.000Z</time></trkpt>
        <trkpt lat="29.194048" lon="104.639749"><ele>375</ele><time>2025-12-30T21:49:31.000Z</time></trkpt>
        <trkpt lat="29.194055" lon="104.639746"><ele>375</ele><time>2025-12-30T21:49:32.000Z</time></trkpt>
        <trkpt lat="29.194072" lon="104.639733"><ele>375</ele><time>2025-12-30T21:49:40.000Z</time></trkpt>
        <trkpt lat="29.194125" lon="104.639711"><ele>375</ele><time>2025-12-30T21:49:50.000Z</time></trkpt>
        <trkpt lat="29.194155" lon="104.639722"><ele>375</ele><time>2025-12-30T21:49:56.000Z</time></trkpt>
        <trkpt lat="29.194152" lon="104.639722"><ele>375</ele><time>2025-12-30T21:50:00.000Z</time></trkpt>
        <trkpt lat="29.194173" lon="104.639728"><ele>376</ele><time>2025-12-30T21:50:06.000Z</time></trkpt>
        <trkpt lat="29.194201" lon="104.639755"><ele>377</ele><time>2025-12-30T21:50:12.000Z</time></trkpt>
        <trkpt lat="29.194204" lon="104.639757"><ele>377</ele><time>2025-12-30T21:50:14.000Z</time></trkpt>
        <trkpt lat="29.194193" lon="104.639774"><ele>378</ele><time>2025-12-30T21:50:20.000Z</time></trkpt>
        <trkpt lat="29.19418" lon="104.639784"><ele>378</ele><time>2025-12-30T21:50:23.000Z</time></trkpt>
        <trkpt lat="29.194156" lon="104.639799"><ele>379</ele><time>2025-12-30T21:50:27.000Z</time></trkpt>
        <trkpt lat="29.194142" lon="104.639803"><ele>379</ele><time>2025-12-30T21:50:29.000Z</time></trkpt>
        <trkpt lat="29.194121" lon="104.639817"><ele>379</ele><time>2025-12-30T21:50:37.000Z</time></trkpt>
        <trkpt lat="29.194122" lon="104.639818"><ele>379</ele><time>2025-12-30T21:50:38.000Z</time></trkpt>
        <trkpt lat="29.19414" lon="104.63983"><ele>380</ele><time>2025-12-30T21:50:44.000Z</time></trkpt>
        <trkpt lat="29.19414" lon="104.639833"><ele>380</ele><time>2025-12-30T21:50:45.000Z</time></trkpt>
        <trkpt lat="29.194135" lon="104.639849"><ele>381</ele><time>2025-12-30T21:50:50.000Z</time></trkpt>
        <trkpt lat="29.194134" lon="104.639856"><ele>382</ele><time>2025-12-30T21:50:52.000Z</time></trkpt>
        <trkpt lat="29.194107" lon="104.639863"><ele>383</ele><time>2025-12-30T21:50:55.000Z</time></trkpt>
        <trkpt lat="29.194104" lon="104.639863"><ele>383</ele><time>2025-12-30T21:50:58.000Z</time></trkpt>
        <trkpt lat="29.1941" lon="104.639874"><ele>384</ele><time>2025-12-30T21:51:06.000Z</time></trkpt>
        <trkpt lat="29.194073" lon="104.639882"><ele>385</ele><time>2025-12-30T21:51:12.000Z</time></trkpt>
        <trkpt lat="29.194068" lon="104.639885"><ele>385</ele><time>2025-12-30T21:51:13.000Z</time></trkpt>
        <trkpt lat="29.19405" lon="104.639878"><ele>385</ele><time>2025-12-30T21:51:21.000Z</time></trkpt>
        <trkpt lat="29.194056" lon="104.639891"><ele>385</ele><time>2025-12-30T21:51:31.000Z</time></trkpt>
        <trkpt lat="29.194046" lon="104.639887"><ele>385</ele><time>2025-12-30T21:51:42.000Z</time></trkpt>
        <trkpt lat="29.194039" lon="104.639914"><ele>386</ele><time>2025-12-30T21:51:51.000Z</time></trkpt>
        <trkpt lat="29.194033" lon="104.639922"><ele>386</ele><time>2025-12-30T21:51:52.000Z</time></trkpt>
        <trkpt lat="29.194016" lon="104.639949"><ele>387</ele><time>2025-12-30T21:51:57.000Z</time></trkpt>
        <trkpt lat="29.194021" lon="104.639955"><ele>387</ele><time>2025-12-30T21:52:00.000Z</time></trkpt>
        <trkpt lat="29.194019" lon="104.639959"><ele>388</ele><time>2025-12-30T21:52:01.000Z</time></trkpt>
        <trkpt lat="29.194013" lon="104.639981"><ele>388</ele><time>2025-12-30T21:52:04.000Z</time></trkpt>
        <trkpt lat="29.19403" lon="104.639979"><ele>389</ele><time>2025-12-30T21:52:08.000Z</time></trkpt>
        <trkpt lat="29.194034" lon="104.639977"><ele>389</ele><time>2025-12-30T21:52:09.000Z</time></trkpt>
        <trkpt lat="29.194041" lon="104.639974"><ele>390</ele><time>2025-12-30T21:52:11.000Z</time></trkpt>
        <trkpt lat="29.194043" lon="104.639968"><ele>390</ele><time>2025-12-30T21:52:15.000Z</time></trkpt>
        <trkpt lat="29.194035" lon="104.639964"><ele>390</ele><time>2025-12-30T21:52:18.000Z</time></trkpt>
        <trkpt lat="29.194026" lon="104.639963"><ele>390</ele><time>2025-12-30T21:52:21.000Z</time></trkpt>
        <trkpt lat="29.194013" lon="104.639963"><ele>390</ele><time>2025-12-30T21:52:24.000Z</time></trkpt>
        <trkpt lat="29.194018" lon="104.639963"><ele>390</ele><time>2025-12-30T21:52:30.000Z</time></trkpt>
        <trkpt lat="29.194021" lon="104.639964"><ele>390</ele><time>2025-12-30T21:52:31.000Z</time></trkpt>
        <trkpt lat="29.194032" lon="104.639947"><ele>391</ele><time>2025-12-30T21:52:37.000Z</time></trkpt>
        <trkpt lat="29.194032" lon="104.639939"><ele>392</ele><time>2025-12-30T21:52:41.000Z</time></trkpt>
        <trkpt lat="29.194016" lon="104.639942"><ele>392</ele><time>2025-12-30T21:52:47.000Z</time></trkpt>
        <trkpt lat="29.194016" lon="104.639934"><ele>392</ele><time>2025-12-30T21:52:58.000Z</time></trkpt>
        <trkpt lat="29.194126" lon="104.639966"><ele>392</ele><time>2025-12-30T21:53:05.000Z</time></trkpt>
        <trkpt lat="29.194155" lon="104.639951"><ele>393</ele><time>2025-12-30T21:53:09.000Z</time></trkpt>
        <trkpt lat="29.194164" lon="104.639957"><ele>393</ele><time>2025-12-30T21:53:11.000Z</time></trkpt>
        <trkpt lat="29.194207" lon="104.639983"><ele>394</ele><time>2025-12-30T21:53:17.000Z</time></trkpt>
        <trkpt lat="29.194213" lon="104.639996"><ele>394</ele><time>2025-12-30T21:53:18.000Z</time></trkpt>
        <trkpt lat="29.194223" lon="104.640011"><ele>395</ele><time>2025-12-30T21:53:23.000Z</time></trkpt>
        <trkpt lat="29.194192" lon="104.640029"><ele>395</ele><time>2025-12-30T21:53:28.000Z</time></trkpt>
        <trkpt lat="29.194171" lon="104.640035"><ele>396</ele><time>2025-12-30T21:53:30.000Z</time></trkpt>
        <trkpt lat="29.194159" lon="104.640039"><ele>396</ele><time>2025-12-30T21:53:31.000Z</time></trkpt>
        <trkpt lat="29.194161" lon="104.640037"><ele>397</ele><time>2025-12-30T21:53:34.000Z</time></trkpt>
        <trkpt lat="29.194158" lon="104.640039"><ele>398</ele><time>2025-12-30T21:53:35.000Z</time></trkpt>
        <trkpt lat="29.19415" lon="104.640039"><ele>398</ele><time>2025-12-30T21:53:39.000Z</time></trkpt>
        <trkpt lat="29.194162" lon="104.640036"><ele>398</ele><time>2025-12-30T21:53:42.000Z</time></trkpt>
        <trkpt lat="29.194163" lon="104.640037"><ele>398</ele><time>2025-12-30T21:53:43.000Z</time></trkpt>
        <trkpt lat="29.194159" lon="104.640038"><ele>398</ele><time>2025-12-30T21:53:44.000Z</time></trkpt>
        <trkpt lat="29.194153" lon="104.64004"><ele>398</ele><time>2025-12-30T21:53:49.000Z</time></trkpt>
        <trkpt lat="29.194146" lon="104.640032"><ele>398</ele><time>2025-12-30T21:53:55.000Z</time></trkpt>
        <trkpt lat="29.194166" lon="104.640032"><ele>398</ele><time>2025-12-30T21:53:58.000Z</time></trkpt>
        <trkpt lat="29.19421" lon="104.640026"><ele>398</ele><time>2025-12-30T21:54:04.000Z</time></trkpt>
        <trkpt lat="29.194256" lon="104.640025"><ele>398</ele><time>2025-12-30T21:54:08.000Z</time></trkpt>
        <trkpt lat="29.194272" lon="104.64008"><ele>398</ele><time>2025-12-30T21:54:14.000Z</time></trkpt>
        <trkpt lat="29.194268" lon="104.640111"><ele>400</ele><time>2025-12-30T21:54:18.000Z</time></trkpt>
        <trkpt lat="29.194274" lon="104.640118"><ele>400</ele><time>2025-12-30T21:54:20.000Z</time></trkpt>
        <trkpt lat="29.194285" lon="104.640122"><ele>401</ele><time>2025-12-30T21:54:23.000Z</time></trkpt>
        <trkpt lat="29.194295" lon="104.640131"><ele>401</ele><time>2025-12-30T21:54:28.000Z</time></trkpt>
        <trkpt lat="29.194307" lon="104.640148"><ele>400</ele><time>2025-12-30T21:54:30.000Z</time></trkpt>
        <trkpt lat="29.194296" lon="104.64015"><ele>401</ele><time>2025-12-30T21:54:38.000Z</time></trkpt>
        <trkpt lat="29.194296" lon="104.64015"><ele>401</ele><time>2025-12-30T21:54:54.000Z</time></trkpt>
        <trkpt lat="29.194296" lon="104.64015"><ele>401</ele><time>2025-12-30T21:55:10.000Z</time></trkpt>
        <trkpt lat="29.194325" lon="104.640166"><ele>401</ele><time>2025-12-30T21:55:20.000Z</time></trkpt>
        <trkpt lat="29.194385" lon="104.64017"><ele>401</ele><time>2025-12-30T21:55:28.000Z</time></trkpt>
        <trkpt lat="29.194428" lon="104.64014"><ele>401</ele><time>2025-12-30T21:55:35.000Z</time></trkpt>
        <trkpt lat="29.194447" lon="104.640122"><ele>401</ele><time>2025-12-30T21:55:42.000Z</time></trkpt>
        <trkpt lat="29.194451" lon="104.640126"><ele>402</ele><time>2025-12-30T21:55:44.000Z</time></trkpt>
        <trkpt lat="29.194463" lon="104.640142"><ele>403</ele><time>2025-12-30T21:55:50.000Z</time></trkpt>
        <trkpt lat="29.194478" lon="104.640148"><ele>404</ele><time>2025-12-30T21:55:55.000Z</time></trkpt>
        <trkpt lat="29.194482" lon="104.640159"><ele>404</ele><time>2025-12-30T21:55:58.000Z</time></trkpt>
        <trkpt lat="29.194493" lon="104.640174"><ele>405</ele><time>2025-12-30T21:56:01.000Z</time></trkpt>
        <trkpt lat="29.194492" lon="104.640173"><ele>405</ele><time>2025-12-30T21:56:02.000Z</time></trkpt>
        <trkpt lat="29.194494" lon="104.640186"><ele>406</ele><time>2025-12-30T21:56:06.000Z</time></trkpt>
        <trkpt lat="29.194495" lon="104.640194"><ele>406</ele><time>2025-12-30T21:56:08.000Z</time></trkpt>
        <trkpt lat="29.1945" lon="104.640226"><ele>407</ele><time>2025-12-30T21:56:13.000Z</time></trkpt>
        <trkpt lat="29.1945" lon="104.640226"><ele>407</ele><time>2025-12-30T21:56:14.000Z</time></trkpt>
        <trkpt lat="29.194501" lon="104.64022"><ele>407</ele><time>2025-12-30T21:56:16.000Z</time></trkpt>
        <trkpt lat="29.194502" lon="104.640215"><ele>407</ele><time>2025-12-30T21:56:20.000Z</time></trkpt>
        <trkpt lat="29.194505" lon="104.640211"><ele>407</ele><time>2025-12-30T21:56:24.000Z</time></trkpt>
        <trkpt lat="29.1945" lon="104.640221"><ele>406</ele><time>2025-12-30T21:56:35.000Z</time></trkpt>
        <trkpt lat="29.194498" lon="104.640219"><ele>406</ele><time>2025-12-30T21:56:37.000Z</time></trkpt>
        <trkpt lat="29.194484" lon="104.64022"><ele>406</ele><time>2025-12-30T21:56:47.000Z</time></trkpt>
        <trkpt lat="29.194487" lon="104.640221"><ele>406</ele><time>2025-12-30T21:56:51.000Z</time></trkpt>
        <trkpt lat="29.194492" lon="104.64022"><ele>406</ele><time>2025-12-30T21:56:55.000Z</time></trkpt>
        <trkpt lat="29.194494" lon="104.640218"><ele>406</ele><time>2025-12-30T21:56:57.000Z</time></trkpt>
        <trkpt lat="29.194497" lon="104.640217"><ele>406</ele><time>2025-12-30T21:57:00.000Z</time></trkpt>
        <trkpt lat="29.194499" lon="104.640215"><ele>406</ele><time>2025-12-30T21:57:02.000Z</time></trkpt>
        <trkpt lat="29.194499" lon="104.640217"><ele>406</ele><time>2025-12-30T21:57:05.000Z</time></trkpt>
        <trkpt lat="29.194499" lon="104.640217"><ele>406</ele><time>2025-12-30T21:57:09.000Z</time></trkpt>
        <trkpt lat="29.194499" lon="104.640217"><ele>406</ele><time>2025-12-30T21:57:11.000Z</time></trkpt>
        <trkpt lat="29.194501" lon="104.640214"><ele>405</ele><time>2025-12-30T21:57:18.000Z</time></trkpt>
        <trkpt lat="29.194505" lon="104.640222"><ele>405</ele><time>2025-12-30T21:57:28.000Z</time></trkpt>
        <trkpt lat="29.194518" lon="104.640234"><ele>405</ele><time>2025-12-30T21:57:31.000Z</time></trkpt>
        <trkpt lat="29.194536" lon="104.640244"><ele>406</ele><time>2025-12-30T21:57:34.000Z</time></trkpt>
        <trkpt lat="29.194531" lon="104.640243"><ele>407</ele><time>2025-12-30T21:57:38.000Z</time></trkpt>
        <trkpt lat="29.194549" lon="104.640275"><ele>407</ele><time>2025-12-30T21:57:42.000Z</time></trkpt>
        <trkpt lat="29.194561" lon="104.640319"><ele>408</ele><time>2025-12-30T21:57:45.000Z</time></trkpt>
        <trkpt lat="29.19458" lon="104.640365"><ele>408</ele><time>2025-12-30T21:57:49.000Z</time></trkpt>
        <trkpt lat="29.194592" lon="104.640395"><ele>409</ele><time>2025-12-30T21:57:54.000Z</time></trkpt>
        <trkpt lat="29.194591" lon="104.640399"><ele>409</ele><time>2025-12-30T21:57:59.000Z</time></trkpt>
        <trkpt lat="29.194591" lon="104.640403"><ele>410</ele><time>2025-12-30T21:58:01.000Z</time></trkpt>
        <trkpt lat="29.194594" lon="104.640407"><ele>410</ele><time>2025-12-30T21:58:02.000Z</time></trkpt>
        <trkpt lat="29.1946" lon="104.640413"><ele>410</ele><time>2025-12-30T21:58:03.000Z</time></trkpt>
        <trkpt lat="29.194617" lon="104.64042"><ele>410</ele><time>2025-12-30T21:58:05.000Z</time></trkpt>
        <trkpt lat="29.194631" lon="104.640425"><ele>411</ele><time>2025-12-30T21:58:06.000Z</time></trkpt>
        <trkpt lat="29.194655" lon="104.640433"><ele>412</ele><time>2025-12-30T21:58:10.000Z</time></trkpt>
        <trkpt lat="29.194675" lon="104.640414"><ele>413</ele><time>2025-12-30T21:58:16.000Z</time></trkpt>
        <trkpt lat="29.194684" lon="104.640401"><ele>414</ele><time>2025-12-30T21:58:18.000Z</time></trkpt>
        <trkpt lat="29.194684" lon="104.640394"><ele>414</ele><time>2025-12-30T21:58:19.000Z</time></trkpt>
        <trkpt lat="29.194684" lon="104.640387"><ele>414</ele><time>2025-12-30T21:58:20.000Z</time></trkpt>
        <trkpt lat="29.19468" lon="104.640367"><ele>415</ele><time>2025-12-30T21:58:23.000Z</time></trkpt>
        <trkpt lat="29.194679" lon="104.640362"><ele>415</ele><time>2025-12-30T21:58:24.000Z</time></trkpt>
        <trkpt lat="29.194674" lon="104.640344"><ele>416</ele><time>2025-12-30T21:58:26.000Z</time></trkpt>
        <trkpt lat="29.194685" lon="104.640308"><ele>417</ele><time>2025-12-30T21:58:30.000Z</time></trkpt>
        <trkpt lat="29.194693" lon="104.640311"><ele>417</ele><time>2025-12-30T21:58:32.000Z</time></trkpt>
        <trkpt lat="29.194696" lon="104.640318"><ele>417</ele><time>2025-12-30T21:58:33.000Z</time></trkpt>
        <trkpt lat="29.194697" lon="104.640326"><ele>417</ele><time>2025-12-30T21:58:34.000Z</time></trkpt>
        <trkpt lat="29.194702" lon="104.640338"><ele>418</ele><time>2025-12-30T21:58:36.000Z</time></trkpt>
        <trkpt lat="29.194704" lon="104.640345"><ele>418</ele><time>2025-12-30T21:58:38.000Z</time></trkpt>
        <trkpt lat="29.19472" lon="104.640393"><ele>418</ele><time>2025-12-30T21:58:44.000Z</time></trkpt>
        <trkpt lat="29.194752" lon="104.640438"><ele>418</ele><time>2025-12-30T21:58:50.000Z</time></trkpt>
        <trkpt lat="29.194781" lon="104.640503"><ele>419</ele><time>2025-12-30T21:58:56.000Z</time></trkpt>
        <trkpt lat="29.194813" lon="104.640553"><ele>419</ele><time>2025-12-30T21:59:05.000Z</time></trkpt>
        <trkpt lat="29.194811" lon="104.640549"><ele>419</ele><time>2025-12-30T21:59:14.000Z</time></trkpt>
        <trkpt lat="29.194807" lon="104.640551"><ele>419</ele><time>2025-12-30T21:59:20.000Z</time></trkpt>
        <trkpt lat="29.194846" lon="104.640581"><ele>419</ele><time>2025-12-30T21:59:28.000Z</time></trkpt>
        <trkpt lat="29.194899" lon="104.64062"><ele>419</ele><time>2025-12-30T21:59:34.000Z</time></trkpt>
        <trkpt lat="29.19493" lon="104.640636"><ele>420</ele><time>2025-12-30T21:59:38.000Z</time></trkpt>
        <trkpt lat="29.194942" lon="104.64064"><ele>420</ele><time>2025-12-30T21:59:39.000Z</time></trkpt>
        <trkpt lat="29.194961" lon="104.640658"><ele>420</ele><time>2025-12-30T21:59:41.000Z</time></trkpt>
        <trkpt lat="29.194994" lon="104.640696"><ele>420</ele><time>2025-12-30T21:59:47.000Z</time></trkpt>
        <trkpt lat="29.194985" lon="104.640691"><ele>420</ele><time>2025-12-30T21:59:57.000Z</time></trkpt>
        <trkpt lat="29.194988" lon="104.640688"><ele>420</ele><time>2025-12-30T22:00:06.000Z</time></trkpt>
        <trkpt lat="29.194998" lon="104.640699"><ele>420</ele><time>2025-12-30T22:00:09.000Z</time></trkpt>
        <trkpt lat="29.195062" lon="104.640745"><ele>421</ele><time>2025-12-30T22:00:16.000Z</time></trkpt>
        <trkpt lat="29.19508" lon="104.640755"><ele>421</ele><time>2025-12-30T22:00:18.000Z</time></trkpt>
        <trkpt lat="29.195108" lon="104.640795"><ele>422</ele><time>2025-12-30T22:00:23.000Z</time></trkpt>
        <trkpt lat="29.195118" lon="104.640828"><ele>422</ele><time>2025-12-30T22:00:26.000Z</time></trkpt>
        <trkpt lat="29.195116" lon="104.640854"><ele>422</ele><time>2025-12-30T22:00:28.000Z</time></trkpt>
        <trkpt lat="29.195112" lon="104.640867"><ele>422</ele><time>2025-12-30T22:00:29.000Z</time></trkpt>
        <trkpt lat="29.195113" lon="104.640874"><ele>422</ele><time>2025-12-30T22:00:30.000Z</time></trkpt>
        <trkpt lat="29.195113" lon="104.640874"><ele>422</ele><time>2025-12-30T22:00:31.000Z</time></trkpt>
        <trkpt lat="29.195106" lon="104.640878"><ele>423</ele><time>2025-12-30T22:00:34.000Z</time></trkpt>
        <trkpt lat="29.195102" lon="104.640874"><ele>423</ele><time>2025-12-30T22:00:40.000Z</time></trkpt>
        <trkpt lat="29.195097" lon="104.640873"><ele>423</ele><time>2025-12-30T22:00:42.000Z</time></trkpt>
        <trkpt lat="29.195101" lon="104.640874"><ele>423</ele><time>2025-12-30T22:00:47.000Z</time></trkpt>
        <trkpt lat="29.195123" lon="104.640866"><ele>422</ele><time>2025-12-30T22:00:53.000Z</time></trkpt>
        <trkpt lat="29.195186" lon="104.640869"><ele>423</ele><time>2025-12-30T22:01:00.000Z</time></trkpt>
        <trkpt lat="29.195259" lon="104.640879"><ele>423</ele><time>2025-12-30T22:01:08.000Z</time></trkpt>
        <trkpt lat="29.195285" lon="104.640967"><ele>424</ele><time>2025-12-30T22:01:17.000Z</time></trkpt>
        <trkpt lat="29.195292" lon="104.64103"><ele>424</ele><time>2025-12-30T22:01:22.000Z</time></trkpt>
        <trkpt lat="29.195294" lon="104.641041"><ele>424</ele><time>2025-12-30T22:01:23.000Z</time></trkpt>
        <trkpt lat="29.195303" lon="104.641056"><ele>424</ele><time>2025-12-30T22:01:25.000Z</time></trkpt>
        <trkpt lat="29.195324" lon="104.641074"><ele>425</ele><time>2025-12-30T22:01:28.000Z</time></trkpt>
        <trkpt lat="29.195342" lon="104.641071"><ele>425</ele><time>2025-12-30T22:01:30.000Z</time></trkpt>
        <trkpt lat="29.195375" lon="104.64104"><ele>424</ele><time>2025-12-30T22:01:34.000Z</time></trkpt>
        <trkpt lat="29.195413" lon="104.640985"><ele>423</ele><time>2025-12-30T22:01:39.000Z</time></trkpt>
        <trkpt lat="29.195419" lon="104.640973"><ele>423</ele><time>2025-12-30T22:01:40.000Z</time></trkpt>
        <trkpt lat="29.195476" lon="104.640911"><ele>422</ele><time>2025-12-30T22:01:46.000Z</time></trkpt>
        <trkpt lat="29.195497" lon="104.640893"><ele>422</ele><time>2025-12-30T22:01:48.000Z</time></trkpt>
        <trkpt lat="29.195511" lon="104.640862"><ele>421</ele><time>2025-12-30T22:01:53.000Z</time></trkpt>
        <trkpt lat="29.19552" lon="104.640852"><ele>421</ele><time>2025-12-30T22:01:54.000Z</time></trkpt>
        <trkpt lat="29.195551" lon="104.640798"><ele>420</ele><time>2025-12-30T22:01:59.000Z</time></trkpt>
        <trkpt lat="29.19556" lon="104.640778"><ele>420</ele><time>2025-12-30T22:02:01.000Z</time></trkpt>
        <trkpt lat="29.195569" lon="104.640723"><ele>419</ele><time>2025-12-30T22:02:06.000Z</time></trkpt>
        <trkpt lat="29.19558" lon="104.640687"><ele>419</ele><time>2025-12-30T22:02:10.000Z</time></trkpt>
        <trkpt lat="29.195598" lon="104.640616"><ele>418</ele><time>2025-12-30T22:02:15.000Z</time></trkpt>
        <trkpt lat="29.195611" lon="104.640534"><ele>417</ele><time>2025-12-30T22:02:21.000Z</time></trkpt>
        <trkpt lat="29.195607" lon="104.640456"><ele>416</ele><time>2025-12-30T22:02:27.000Z</time></trkpt>
        <trkpt lat="29.195602" lon="104.640425"><ele>416</ele><time>2025-12-30T22:02:29.000Z</time></trkpt>
        <trkpt lat="29.195581" lon="104.640348"><ele>415</ele><time>2025-12-30T22:02:34.000Z</time></trkpt>
        <trkpt lat="29.195573" lon="104.640338"><ele>414</ele><time>2025-12-30T22:02:35.000Z</time></trkpt>
        <trkpt lat="29.195554" lon="104.64032"><ele>414</ele><time>2025-12-30T22:02:39.000Z</time></trkpt>
        <trkpt lat="29.195537" lon="104.640246"><ele>414</ele><time>2025-12-30T22:02:44.000Z</time></trkpt>
        <trkpt lat="29.19553" lon="104.640199"><ele>413</ele><time>2025-12-30T22:02:48.000Z</time></trkpt>
        <trkpt lat="29.195521" lon="104.640118"><ele>413</ele><time>2025-12-30T22:02:53.000Z</time></trkpt>
        <trkpt lat="29.195509" lon="104.640081"><ele>412</ele><time>2025-12-30T22:02:56.000Z</time></trkpt>
        <trkpt lat="29.195489" lon="104.640033"><ele>412</ele><time>2025-12-30T22:03:02.000Z</time></trkpt>
        <trkpt lat="29.195506" lon="104.639977"><ele>411</ele><time>2025-12-30T22:03:09.000Z</time></trkpt>
        <trkpt lat="29.195511" lon="104.639977"><ele>411</ele><time>2025-12-30T22:03:10.000Z</time></trkpt>
        <trkpt lat="29.195531" lon="104.639993"><ele>411</ele><time>2025-12-30T22:03:20.000Z</time></trkpt>
        <trkpt lat="29.195535" lon="104.639984"><ele>411</ele><time>2025-12-30T22:03:23.000Z</time></trkpt>
        <trkpt lat="29.195517" lon="104.639958"><ele>411</ele><time>2025-12-30T22:03:34.000Z</time></trkpt>
        <trkpt lat="29.195557" lon="104.639915"><ele>410</ele><time>2025-12-30T22:03:42.000Z</time></trkpt>
        <trkpt lat="29.195595" lon="104.639896"><ele>410</ele><time>2025-12-30T22:03:48.000Z</time></trkpt>
        <trkpt lat="29.195605" lon="104.639881"><ele>409</ele><time>2025-12-30T22:03:50.000Z</time></trkpt>
        <trkpt lat="29.195627" lon="104.639838"><ele>408</ele><time>2025-12-30T22:03:53.000Z</time></trkpt>
        <trkpt lat="29.195652" lon="104.639822"><ele>408</ele><time>2025-12-30T22:03:55.000Z</time></trkpt>
        <trkpt lat="29.195661" lon="104.639816"><ele>408</ele><time>2025-12-30T22:03:56.000Z</time></trkpt>
        <trkpt lat="29.195714" lon="104.639755"><ele>407</ele><time>2025-12-30T22:04:02.000Z</time></trkpt>
        <trkpt lat="29.195719" lon="104.639739"><ele>407</ele><time>2025-12-30T22:04:03.000Z</time></trkpt>
        <trkpt lat="29.195741" lon="104.639687"><ele>406</ele><time>2025-12-30T22:04:08.000Z</time></trkpt>
        <trkpt lat="29.195764" lon="104.639615"><ele>405</ele><time>2025-12-30T22:04:14.000Z</time></trkpt>
        <trkpt lat="29.195765" lon="104.639588"><ele>405</ele><time>2025-12-30T22:04:16.000Z</time></trkpt>
        <trkpt lat="29.195782" lon="104.639548"><ele>405</ele><time>2025-12-30T22:04:20.000Z</time></trkpt>
        <trkpt lat="29.195823" lon="104.639445"><ele>404</ele><time>2025-12-30T22:04:29.000Z</time></trkpt>
        <trkpt lat="29.195837" lon="104.639426"><ele>404</ele><time>2025-12-30T22:04:32.000Z</time></trkpt>
        <trkpt lat="29.195837" lon="104.639431"><ele>403</ele><time>2025-12-30T22:04:34.000Z</time></trkpt>
        <trkpt lat="29.19583" lon="104.639431"><ele>404</ele><time>2025-12-30T22:04:43.000Z</time></trkpt>
        <trkpt lat="29.195828" lon="104.639436"><ele>403</ele><time>2025-12-30T22:04:51.000Z</time></trkpt>
        <trkpt lat="29.195838" lon="104.639435"><ele>403</ele><time>2025-12-30T22:04:54.000Z</time></trkpt>
        <trkpt lat="29.195852" lon="104.639417"><ele>403</ele><time>2025-12-30T22:05:07.000Z</time></trkpt>
        <trkpt lat="29.195882" lon="104.639337"><ele>402</ele><time>2025-12-30T22:05:13.000Z</time></trkpt>
        <trkpt lat="29.195889" lon="104.639314"><ele>402</ele><time>2025-12-30T22:05:16.000Z</time></trkpt>
        <trkpt lat="29.195926" lon="104.639222"><ele>401</ele><time>2025-12-30T22:05:24.000Z</time></trkpt>
        <trkpt lat="29.195924" lon="104.639202"><ele>401</ele><time>2025-12-30T22:05:26.000Z</time></trkpt>
        <trkpt lat="29.195924" lon="104.639183"><ele>400</ele><time>2025-12-30T22:05:27.000Z</time></trkpt>
        <trkpt lat="29.195922" lon="104.63916"><ele>400</ele><time>2025-12-30T22:05:29.000Z</time></trkpt>
        <trkpt lat="29.195927" lon="104.639099"><ele>400</ele><time>2025-12-30T22:05:33.000Z</time></trkpt>
        <trkpt lat="29.19592" lon="104.639014"><ele>399</ele><time>2025-12-30T22:05:39.000Z</time></trkpt>
        <trkpt lat="29.19589" lon="104.63896"><ele>398</ele><time>2025-12-30T22:05:44.000Z</time></trkpt>
        <trkpt lat="29.195852" lon="104.638912"><ele>398</ele><time>2025-12-30T22:05:50.000Z</time></trkpt>
        <trkpt lat="29.195837" lon="104.638856"><ele>398</ele><time>2025-12-30T22:05:55.000Z</time></trkpt>
        <trkpt lat="29.19584" lon="104.638849"><ele>398</ele><time>2025-12-30T22:05:56.000Z</time></trkpt>
        <trkpt lat="29.195867" lon="104.638828"><ele>397</ele><time>2025-12-30T22:05:59.000Z</time></trkpt>
        <trkpt lat="29.195903" lon="104.638803"><ele>397</ele><time>2025-12-30T22:06:02.000Z</time></trkpt>
        <trkpt lat="29.195971" lon="104.638755"><ele>397</ele><time>2025-12-30T22:06:08.000Z</time></trkpt>
        <trkpt lat="29.195981" lon="104.638712"><ele>398</ele><time>2025-12-30T22:06:13.000Z</time></trkpt>
        <trkpt lat="29.195978" lon="104.638702"><ele>398</ele><time>2025-12-30T22:06:16.000Z</time></trkpt>
        <trkpt lat="29.195964" lon="104.638686"><ele>398</ele><time>2025-12-30T22:06:25.000Z</time></trkpt>
        <trkpt lat="29.195957" lon="104.638604"><ele>398</ele><time>2025-12-30T22:06:31.000Z</time></trkpt>
        <trkpt lat="29.195953" lon="104.638541"><ele>398</ele><time>2025-12-30T22:06:37.000Z</time></trkpt>
        <trkpt lat="29.195924" lon="104.638423"><ele>397</ele><time>2025-12-30T22:06:48.000Z</time></trkpt>
        <trkpt lat="29.195911" lon="104.638387"><ele>397</ele><time>2025-12-30T22:06:52.000Z</time></trkpt>
        <trkpt lat="29.195881" lon="104.638346"><ele>396</ele><time>2025-12-30T22:06:57.000Z</time></trkpt>
        <trkpt lat="29.195865" lon="104.638281"><ele>396</ele><time>2025-12-30T22:07:01.000Z</time></trkpt>
        <trkpt lat="29.195861" lon="104.638235"><ele>395</ele><time>2025-12-30T22:07:03.000Z</time></trkpt>
        <trkpt lat="29.195864" lon="104.638145"><ele>396</ele><time>2025-12-30T22:07:09.000Z</time></trkpt>
        <trkpt lat="29.19589" lon="104.638067"><ele>397</ele><time>2025-12-30T22:07:16.000Z</time></trkpt>
        <trkpt lat="29.195894" lon="104.638053"><ele>397</ele><time>2025-12-30T22:07:17.000Z</time></trkpt>
        <trkpt lat="29.195905" lon="104.638026"><ele>398</ele><time>2025-12-30T22:07:21.000Z</time></trkpt>
        <trkpt lat="29.19591" lon="104.638038"><ele>397</ele><time>2025-12-30T22:07:24.000Z</time></trkpt>
        <trkpt lat="29.195918" lon="104.638054"><ele>397</ele><time>2025-12-30T22:07:27.000Z</time></trkpt>
        <trkpt lat="29.195923" lon="104.638064"><ele>397</ele><time>2025-12-30T22:07:28.000Z</time></trkpt>
        <trkpt lat="29.195948" lon="104.638033"><ele>397</ele><time>2025-12-30T22:07:32.000Z</time></trkpt>
        <trkpt lat="29.195973" lon="104.637981"><ele>398</ele><time>2025-12-30T22:07:39.000Z</time></trkpt>
        <trkpt lat="29.196017" lon="104.637911"><ele>398</ele><time>2025-12-30T22:07:46.000Z</time></trkpt>
        <trkpt lat="29.196047" lon="104.637843"><ele>398</ele><time>2025-12-30T22:07:52.000Z</time></trkpt>
        <trkpt lat="29.196076" lon="104.637793"><ele>398</ele><time>2025-12-30T22:07:57.000Z</time></trkpt>
        <trkpt lat="29.196088" lon="104.637769"><ele>398</ele><time>2025-12-30T22:07:59.000Z</time></trkpt>
        <trkpt lat="29.19612" lon="104.637734"><ele>398</ele><time>2025-12-30T22:08:02.000Z</time></trkpt>
        <trkpt lat="29.196127" lon="104.637694"><ele>398</ele><time>2025-12-30T22:08:07.000Z</time></trkpt>
        <trkpt lat="29.196158" lon="104.637614"><ele>397</ele><time>2025-12-30T22:08:12.000Z</time></trkpt>
        <trkpt lat="29.196172" lon="104.637595"><ele>397</ele><time>2025-12-30T22:08:13.000Z</time></trkpt>
        <trkpt lat="29.196203" lon="104.637567"><ele>396</ele><time>2025-12-30T22:08:17.000Z</time></trkpt>
        <trkpt lat="29.196235" lon="104.637546"><ele>396</ele><time>2025-12-30T22:08:21.000Z</time></trkpt>
        <trkpt lat="29.196242" lon="104.637537"><ele>395</ele><time>2025-12-30T22:08:22.000Z</time></trkpt>
        <trkpt lat="29.196248" lon="104.637515"><ele>395</ele><time>2025-12-30T22:08:27.000Z</time></trkpt>
        <trkpt lat="29.196277" lon="104.637484"><ele>393</ele><time>2025-12-30T22:08:33.000Z</time></trkpt>
        <trkpt lat="29.196323" lon="104.637462"><ele>393</ele><time>2025-12-30T22:08:37.000Z</time></trkpt>
        <trkpt lat="29.196365" lon="104.637436"><ele>392</ele><time>2025-12-30T22:08:40.000Z</time></trkpt>
        <trkpt lat="29.196435" lon="104.637417"><ele>392</ele><time>2025-12-30T22:08:46.000Z</time></trkpt>
        <trkpt lat="29.196469" lon="104.637399"><ele>392</ele><time>2025-12-30T22:08:53.000Z</time></trkpt>
        <trkpt lat="29.19647" lon="104.637379"><ele>392</ele><time>2025-12-30T22:09:00.000Z</time></trkpt>
        <trkpt lat="29.196468" lon="104.637385"><ele>392</ele><time>2025-12-30T22:09:15.000Z</time></trkpt>
        <trkpt lat="29.196466" lon="104.637378"><ele>391</ele><time>2025-12-30T22:09:18.000Z</time></trkpt>
        <trkpt lat="29.196473" lon="104.637345"><ele>391</ele><time>2025-12-30T22:09:21.000Z</time></trkpt>
        <trkpt lat="29.196496" lon="104.637318"><ele>391</ele><time>2025-12-30T22:09:28.000Z</time></trkpt>
        <trkpt lat="29.196526" lon="104.637312"><ele>390</ele><time>2025-12-30T22:09:36.000Z</time></trkpt>
        <trkpt lat="29.196532" lon="104.637339"><ele>391</ele><time>2025-12-30T22:09:44.000Z</time></trkpt>
        <trkpt lat="29.19653" lon="104.637369"><ele>390</ele><time>2025-12-30T22:09:46.000Z</time></trkpt>
        <trkpt lat="29.196512" lon="104.637407"><ele>391</ele><time>2025-12-30T22:09:50.000Z</time></trkpt>
        <trkpt lat="29.196497" lon="104.63743"><ele>392</ele><time>2025-12-30T22:09:57.000Z</time></trkpt>
        <trkpt lat="29.19642" lon="104.637439"><ele>391</ele><time>2025-12-30T22:10:05.000Z</time></trkpt>
        <trkpt lat="29.196382" lon="104.637445"><ele>392</ele><time>2025-12-30T22:10:12.000Z</time></trkpt>
        <trkpt lat="29.196379" lon="104.637449"><ele>392</ele><time>2025-12-30T22:10:15.000Z</time></trkpt>
        <trkpt lat="29.196374" lon="104.637451"><ele>392</ele><time>2025-12-30T22:10:17.000Z</time></trkpt>
        <trkpt lat="29.196358" lon="104.637471"><ele>392</ele><time>2025-12-30T22:10:21.000Z</time></trkpt>
        <trkpt lat="29.196335" lon="104.637487"><ele>392</ele><time>2025-12-30T22:10:27.000Z</time></trkpt>
        <trkpt lat="29.196284" lon="104.637508"><ele>392</ele><time>2025-12-30T22:10:34.000Z</time></trkpt>
        <trkpt lat="29.196281" lon="104.637512"><ele>393</ele><time>2025-12-30T22:10:35.000Z</time></trkpt>
        <trkpt lat="29.196264" lon="104.637512"><ele>393</ele><time>2025-12-30T22:10:37.000Z</time></trkpt>
        <trkpt lat="29.196249" lon="104.637521"><ele>394</ele><time>2025-12-30T22:10:39.000Z</time></trkpt>
        <trkpt lat="29.19622" lon="104.637549"><ele>394</ele><time>2025-12-30T22:10:43.000Z</time></trkpt>
        <trkpt lat="29.196196" lon="104.637567"><ele>395</ele><time>2025-12-30T22:10:46.000Z</time></trkpt>
        <trkpt lat="29.196188" lon="104.637563"><ele>395</ele><time>2025-12-30T22:10:49.000Z</time></trkpt>
        <trkpt lat="29.196184" lon="104.637554"><ele>395</ele><time>2025-12-30T22:10:51.000Z</time></trkpt>
        <trkpt lat="29.196188" lon="104.63755"><ele>395</ele><time>2025-12-30T22:10:53.000Z</time></trkpt>
        <trkpt lat="29.196178" lon="104.637565"><ele>395</ele><time>2025-12-30T22:10:58.000Z</time></trkpt>
        <trkpt lat="29.196187" lon="104.637586"><ele>395</ele><time>2025-12-30T22:11:04.000Z</time></trkpt>
        <trkpt lat="29.196195" lon="104.637595"><ele>395</ele><time>2025-12-30T22:11:07.000Z</time></trkpt>
        <trkpt lat="29.196178" lon="104.637553"><ele>395</ele><time>2025-12-30T22:11:17.000Z</time></trkpt>
        <trkpt lat="29.196171" lon="104.63755"><ele>395</ele><time>2025-12-30T22:11:24.000Z</time></trkpt>
        <trkpt lat="29.196187" lon="104.637563"><ele>395</ele><time>2025-12-30T22:11:27.000Z</time></trkpt>
        <trkpt lat="29.196184" lon="104.637575"><ele>395</ele><time>2025-12-30T22:11:35.000Z</time></trkpt>
        <trkpt lat="29.196186" lon="104.637567"><ele>395</ele><time>2025-12-30T22:11:41.000Z</time></trkpt>
        <trkpt lat="29.19619" lon="104.637572"><ele>395</ele><time>2025-12-30T22:11:44.000Z</time></trkpt>
        <trkpt lat="29.196187" lon="104.637576"><ele>395</ele><time>2025-12-30T22:11:46.000Z</time></trkpt>
        <trkpt lat="29.196193" lon="104.637577"><ele>395</ele><time>2025-12-30T22:11:53.000Z</time></trkpt>
        <trkpt lat="29.196171" lon="104.637589"><ele>395</ele><time>2025-12-30T22:12:00.000Z</time></trkpt>
        <trkpt lat="29.196145" lon="104.63763"><ele>396</ele><time>2025-12-30T22:12:04.000Z</time></trkpt>
        <trkpt lat="29.196145" lon="104.63766"><ele>396</ele><time>2025-12-30T22:12:07.000Z</time></trkpt>
        <trkpt lat="29.196142" lon="104.6377"><ele>397</ele><time>2025-12-30T22:12:11.000Z</time></trkpt>
        <trkpt lat="29.196132" lon="104.637718"><ele>397</ele><time>2025-12-30T22:12:13.000Z</time></trkpt>
        <trkpt lat="29.196095" lon="104.63777"><ele>398</ele><time>2025-12-30T22:12:19.000Z</time></trkpt>
        <trkpt lat="29.196106" lon="104.637761"><ele>398</ele><time>2025-12-30T22:12:24.000Z</time></trkpt>
        <trkpt lat="29.196073" lon="104.637796"><ele>397</ele><time>2025-12-30T22:12:34.000Z</time></trkpt>
        <trkpt lat="29.196043" lon="104.637842"><ele>398</ele><time>2025-12-30T22:12:39.000Z</time></trkpt>
        <trkpt lat="29.196024" lon="104.637912"><ele>398</ele><time>2025-12-30T22:12:46.000Z</time></trkpt>
        <trkpt lat="29.195996" lon="104.637944"><ele>398</ele><time>2025-12-30T22:12:53.000Z</time></trkpt>
        <trkpt lat="29.195986" lon="104.637965"><ele>398</ele><time>2025-12-30T22:12:59.000Z</time></trkpt>
        <trkpt lat="29.195964" lon="104.637996"><ele>397</ele><time>2025-12-30T22:13:04.000Z</time></trkpt>
        <trkpt lat="29.195946" lon="104.638053"><ele>397</ele><time>2025-12-30T22:13:09.000Z</time></trkpt>
        <trkpt lat="29.195935" lon="104.638094"><ele>397</ele><time>2025-12-30T22:13:15.000Z</time></trkpt>
        <trkpt lat="29.195933" lon="104.6381"><ele>396</ele><time>2025-12-30T22:13:16.000Z</time></trkpt>
        <trkpt lat="29.195923" lon="104.638176"><ele>396</ele><time>2025-12-30T22:13:23.000Z</time></trkpt>
        <trkpt lat="29.195926" lon="104.638188"><ele>396</ele><time>2025-12-30T22:13:25.000Z</time></trkpt>
        <trkpt lat="29.195931" lon="104.638195"><ele>396</ele><time>2025-12-30T22:13:26.000Z</time></trkpt>
        <trkpt lat="29.195937" lon="104.638218"><ele>395</ele><time>2025-12-30T22:13:28.000Z</time></trkpt>
        <trkpt lat="29.195916" lon="104.638267"><ele>395</ele><time>2025-12-30T22:13:33.000Z</time></trkpt>
        <trkpt lat="29.195907" lon="104.638253"><ele>395</ele><time>2025-12-30T22:13:36.000Z</time></trkpt>
        <trkpt lat="29.195908" lon="104.638253"><ele>395</ele><time>2025-12-30T22:13:38.000Z</time></trkpt>
        <trkpt lat="29.195907" lon="104.638247"><ele>395</ele><time>2025-12-30T22:13:45.000Z</time></trkpt>
        <trkpt lat="29.195907" lon="104.638246"><ele>394</ele><time>2025-12-30T22:13:52.000Z</time></trkpt>
        <trkpt lat="29.195915" lon="104.638252"><ele>395</ele><time>2025-12-30T22:13:58.000Z</time></trkpt>
        <trkpt lat="29.195912" lon="104.63827"><ele>394</ele><time>2025-12-30T22:14:07.000Z</time></trkpt>
        <trkpt lat="29.19591" lon="104.63827"><ele>395</ele><time>2025-12-30T22:14:13.000Z</time></trkpt>
        <trkpt lat="29.19589" lon="104.638271"><ele>394</ele><time>2025-12-30T22:14:19.000Z</time></trkpt>
        <trkpt lat="29.195889" lon="104.638273"><ele>394</ele><time>2025-12-30T22:14:20.000Z</time></trkpt>
        <trkpt lat="29.195883" lon="104.638299"><ele>393</ele><time>2025-12-30T22:14:24.000Z</time></trkpt>
        <trkpt lat="29.195877" lon="104.638329"><ele>392</ele><time>2025-12-30T22:14:26.000Z</time></trkpt>
        <trkpt lat="29.195853" lon="104.638364"><ele>392</ele><time>2025-12-30T22:14:32.000Z</time></trkpt>
        <trkpt lat="29.195797" lon="104.638369"><ele>392</ele><time>2025-12-30T22:14:40.000Z</time></trkpt>
        <trkpt lat="29.19575" lon="104.638357"><ele>392</ele><time>2025-12-30T22:14:47.000Z</time></trkpt>
        <trkpt lat="29.195728" lon="104.638329"><ele>394</ele><time>2025-12-30T22:14:54.000Z</time></trkpt>
        <trkpt lat="29.195718" lon="104.638311"><ele>394</ele><time>2025-12-30T22:15:01.000Z</time></trkpt>
        <trkpt lat="29.19569" lon="104.63824"><ele>393</ele><time>2025-12-30T22:15:09.000Z</time></trkpt>
        <trkpt lat="29.195689" lon="104.638157"><ele>392</ele><time>2025-12-30T22:15:15.000Z</time></trkpt>
        <trkpt lat="29.195681" lon="104.638134"><ele>392</ele><time>2025-12-30T22:15:17.000Z</time></trkpt>
        <trkpt lat="29.195646" lon="104.638046"><ele>391</ele><time>2025-12-30T22:15:23.000Z</time></trkpt>
        <trkpt lat="29.195644" lon="104.638011"><ele>390</ele><time>2025-12-30T22:15:26.000Z</time></trkpt>
        <trkpt lat="29.195653" lon="104.638001"><ele>390</ele><time>2025-12-30T22:15:27.000Z</time></trkpt>
        <trkpt lat="29.195669" lon="104.637966"><ele>389</ele><time>2025-12-30T22:15:30.000Z</time></trkpt>
        <trkpt lat="29.195669" lon="104.637947"><ele>389</ele><time>2025-12-30T22:15:32.000Z</time></trkpt>
        <trkpt lat="29.195666" lon="104.63791"><ele>388</ele><time>2025-12-30T22:15:37.000Z</time></trkpt>
        <trkpt lat="29.195664" lon="104.637901"><ele>388</ele><time>2025-12-30T22:15:38.000Z</time></trkpt>
        <trkpt lat="29.195655" lon="104.637829"><ele>387</ele><time>2025-12-30T22:15:43.000Z</time></trkpt>
        <trkpt lat="29.195657" lon="104.637813"><ele>387</ele><time>2025-12-30T22:15:44.000Z</time></trkpt>
        <trkpt lat="29.195669" lon="104.637751"><ele>386</ele><time>2025-12-30T22:15:48.000Z</time></trkpt>
        <trkpt lat="29.195682" lon="104.637711"><ele>385</ele><time>2025-12-30T22:15:51.000Z</time></trkpt>
        <trkpt lat="29.1957" lon="104.63766"><ele>384</ele><time>2025-12-30T22:15:56.000Z</time></trkpt>
        <trkpt lat="29.195709" lon="104.637639"><ele>384</ele><time>2025-12-30T22:15:59.000Z</time></trkpt>
        <trkpt lat="29.195716" lon="104.6376"><ele>383</ele><time>2025-12-30T22:16:02.000Z</time></trkpt>
        <trkpt lat="29.195756" lon="104.637517"><ele>383</ele><time>2025-12-30T22:16:08.000Z</time></trkpt>
        <trkpt lat="29.195773" lon="104.637482"><ele>382</ele><time>2025-12-30T22:16:11.000Z</time></trkpt>
        <trkpt lat="29.195789" lon="104.637431"><ele>382</ele><time>2025-12-30T22:16:15.000Z</time></trkpt>
        <trkpt lat="29.195792" lon="104.637415"><ele>381</ele><time>2025-12-30T22:16:16.000Z</time></trkpt>
        <trkpt lat="29.195803" lon="104.637385"><ele>381</ele><time>2025-12-30T22:16:19.000Z</time></trkpt>
        <trkpt lat="29.195839" lon="104.63732"><ele>381</ele><time>2025-12-30T22:16:24.000Z</time></trkpt>
        <trkpt lat="29.195849" lon="104.637258"><ele>380</ele><time>2025-12-30T22:16:28.000Z</time></trkpt>
        <trkpt lat="29.195851" lon="104.637202"><ele>379</ele><time>2025-12-30T22:16:32.000Z</time></trkpt>
        <trkpt lat="29.195852" lon="104.637193"><ele>379</ele><time>2025-12-30T22:16:33.000Z</time></trkpt>
        <trkpt lat="29.195873" lon="104.637111"><ele>378</ele><time>2025-12-30T22:16:41.000Z</time></trkpt>
        <trkpt lat="29.195892" lon="104.637082"><ele>378</ele><time>2025-12-30T22:16:44.000Z</time></trkpt>
        <trkpt lat="29.19592" lon="104.637038"><ele>377</ele><time>2025-12-30T22:16:48.000Z</time></trkpt>
        <trkpt lat="29.195932" lon="104.637029"><ele>377</ele><time>2025-12-30T22:16:49.000Z</time></trkpt>
        <trkpt lat="29.19595" lon="104.637011"><ele>376</ele><time>2025-12-30T22:16:52.000Z</time></trkpt>
        <trkpt lat="29.195995" lon="104.636968"><ele>375</ele><time>2025-12-30T22:16:58.000Z</time></trkpt>
        <trkpt lat="29.196035" lon="104.636902"><ele>375</ele><time>2025-12-30T22:17:04.000Z</time></trkpt>
        <trkpt lat="29.196035" lon="104.636903"><ele>375</ele><time>2025-12-30T22:17:05.000Z</time></trkpt>
        <trkpt lat="29.196078" lon="104.636836"><ele>375</ele><time>2025-12-30T22:17:11.000Z</time></trkpt>
        <trkpt lat="29.196107" lon="104.636767"><ele>374</ele><time>2025-12-30T22:17:16.000Z</time></trkpt>
        <trkpt lat="29.196122" lon="104.636741"><ele>374</ele><time>2025-12-30T22:17:19.000Z</time></trkpt>
        <trkpt lat="29.19614" lon="104.636717"><ele>373</ele><time>2025-12-30T22:17:21.000Z</time></trkpt>
        <trkpt lat="29.196178" lon="104.636676"><ele>373</ele><time>2025-12-30T22:17:25.000Z</time></trkpt>
        <trkpt lat="29.1962" lon="104.63664"><ele>372</ele><time>2025-12-30T22:17:28.000Z</time></trkpt>
        <trkpt lat="29.196236" lon="104.636583"><ele>371</ele><time>2025-12-30T22:17:33.000Z</time></trkpt>
        <trkpt lat="29.196243" lon="104.636572"><ele>371</ele><time>2025-12-30T22:17:34.000Z</time></trkpt>
        <trkpt lat="29.19628" lon="104.636507"><ele>371</ele><time>2025-12-30T22:17:40.000Z</time></trkpt>
        <trkpt lat="29.196273" lon="104.636517"><ele>370</ele><time>2025-12-30T22:17:44.000Z</time></trkpt>
        <trkpt lat="29.196281" lon="104.636501"><ele>370</ele><time>2025-12-30T22:17:48.000Z</time></trkpt>
        <trkpt lat="29.196313" lon="104.636446"><ele>370</ele><time>2025-12-30T22:17:55.000Z</time></trkpt>
        <trkpt lat="29.196328" lon="104.636391"><ele>370</ele><time>2025-12-30T22:17:59.000Z</time></trkpt>
        <trkpt lat="29.196335" lon="104.636363"><ele>369</ele><time>2025-12-30T22:18:02.000Z</time></trkpt>
        <trkpt lat="29.196343" lon="104.636319"><ele>369</ele><time>2025-12-30T22:18:05.000Z</time></trkpt>
        <trkpt lat="29.19634" lon="104.636288"><ele>368</ele><time>2025-12-30T22:18:07.000Z</time></trkpt>
        <trkpt lat="29.19633" lon="104.636254"><ele>368</ele><time>2025-12-30T22:18:10.000Z</time></trkpt>
        <trkpt lat="29.196323" lon="104.636219"><ele>368</ele><time>2025-12-30T22:18:14.000Z</time></trkpt>
        <trkpt lat="29.196311" lon="104.636169"><ele>368</ele><time>2025-12-30T22:18:18.000Z</time></trkpt>
        <trkpt lat="29.196271" lon="104.636104"><ele>368</ele><time>2025-12-30T22:18:24.000Z</time></trkpt>
        <trkpt lat="29.196252" lon="104.636076"><ele>368</ele><time>2025-12-30T22:18:28.000Z</time></trkpt>
        <trkpt lat="29.196216" lon="104.636042"><ele>368</ele><time>2025-12-30T22:18:32.000Z</time></trkpt>
        <trkpt lat="29.196205" lon="104.636039"><ele>367</ele><time>2025-12-30T22:18:34.000Z</time></trkpt>
        <trkpt lat="29.196184" lon="104.636025"><ele>367</ele><time>2025-12-30T22:18:36.000Z</time></trkpt>
        <trkpt lat="29.196114" lon="104.636002"><ele>366</ele><time>2025-12-30T22:18:43.000Z</time></trkpt>
        <trkpt lat="29.1961" lon="104.635987"><ele>366</ele><time>2025-12-30T22:18:45.000Z</time></trkpt>
        <trkpt lat="29.196089" lon="104.635984"><ele>366</ele><time>2025-12-30T22:18:48.000Z</time></trkpt>
        <trkpt lat="29.196034" lon="104.635944"><ele>365</ele><time>2025-12-30T22:18:54.000Z</time></trkpt>
        <trkpt lat="29.196026" lon="104.635935"><ele>365</ele><time>2025-12-30T22:18:55.000Z</time></trkpt>
        <trkpt lat="29.195995" lon="104.635896"><ele>364</ele><time>2025-12-30T22:19:00.000Z</time></trkpt>
        <trkpt lat="29.195992" lon="104.635893"><ele>364</ele><time>2025-12-30T22:19:01.000Z</time></trkpt>
        <trkpt lat="29.195987" lon="104.635872"><ele>363</ele><time>2025-12-30T22:19:08.000Z</time></trkpt>
        <trkpt lat="29.195985" lon="104.635864"><ele>363</ele><time>2025-12-30T22:19:10.000Z</time></trkpt>
        <trkpt lat="29.195958" lon="104.635845"><ele>362</ele><time>2025-12-30T22:19:14.000Z</time></trkpt>
        <trkpt lat="29.195932" lon="104.635839"><ele>361</ele><time>2025-12-30T22:19:17.000Z</time></trkpt>
        <trkpt lat="29.195916" lon="104.635838"><ele>361</ele><time>2025-12-30T22:19:20.000Z</time></trkpt>
        <trkpt lat="29.195897" lon="104.635822"><ele>360</ele><time>2025-12-30T22:19:24.000Z</time></trkpt>
        <trkpt lat="29.195876" lon="104.635818"><ele>360</ele><time>2025-12-30T22:19:31.000Z</time></trkpt>
        <trkpt lat="29.195869" lon="104.635815"><ele>359</ele><time>2025-12-30T22:19:32.000Z</time></trkpt>
        <trkpt lat="29.195858" lon="104.63582"><ele>359</ele><time>2025-12-30T22:19:35.000Z</time></trkpt>
        <trkpt lat="29.195824" lon="104.635822"><ele>358</ele><time>2025-12-30T22:19:39.000Z</time></trkpt>
        <trkpt lat="29.195801" lon="104.635805"><ele>358</ele><time>2025-12-30T22:19:42.000Z</time></trkpt>
        <trkpt lat="29.195788" lon="104.635784"><ele>357</ele><time>2025-12-30T22:19:45.000Z</time></trkpt>
        <trkpt lat="29.195726" lon="104.635759"><ele>357</ele><time>2025-12-30T22:19:51.000Z</time></trkpt>
        <trkpt lat="29.195719" lon="104.635759"><ele>356</ele><time>2025-12-30T22:19:52.000Z</time></trkpt>
        <trkpt lat="29.195653" lon="104.635752"><ele>356</ele><time>2025-12-30T22:20:00.000Z</time></trkpt>
        <trkpt lat="29.195611" lon="104.635702"><ele>356</ele><time>2025-12-30T22:20:05.000Z</time></trkpt>
        <trkpt lat="29.195609" lon="104.635697"><ele>355</ele><time>2025-12-30T22:20:06.000Z</time></trkpt>
        <trkpt lat="29.195632" lon="104.635677"><ele>355</ele><time>2025-12-30T22:20:13.000Z</time></trkpt>
        <trkpt lat="29.195629" lon="104.635682"><ele>355</ele><time>2025-12-30T22:20:14.000Z</time></trkpt>
        <trkpt lat="29.195625" lon="104.635686"><ele>355</ele><time>2025-12-30T22:20:15.000Z</time></trkpt>
        <trkpt lat="29.195622" lon="104.63569"><ele>355</ele><time>2025-12-30T22:20:16.000Z</time></trkpt>
        <trkpt lat="29.195604" lon="104.63568"><ele>356</ele><time>2025-12-30T22:20:19.000Z</time></trkpt>
        <trkpt lat="29.195598" lon="104.635676"><ele>356</ele><time>2025-12-30T22:20:20.000Z</time></trkpt>
        <trkpt lat="29.195587" lon="104.635668"><ele>356</ele><time>2025-12-30T22:20:27.000Z</time></trkpt>
        <trkpt lat="29.195586" lon="104.635667"><ele>356</ele><time>2025-12-30T22:20:30.000Z</time></trkpt>
        <trkpt lat="29.195587" lon="104.635669"><ele>356</ele><time>2025-12-30T22:20:31.000Z</time></trkpt>
        <trkpt lat="29.195588" lon="104.635671"><ele>356</ele><time>2025-12-30T22:20:33.000Z</time></trkpt>
        <trkpt lat="29.195591" lon="104.635654"><ele>356</ele><time>2025-12-30T22:20:42.000Z</time></trkpt>
        <trkpt lat="29.195577" lon="104.635635"><ele>356</ele><time>2025-12-30T22:20:52.000Z</time></trkpt>
        <trkpt lat="29.195577" lon="104.635635"><ele>357</ele><time>2025-12-30T22:20:53.000Z</time></trkpt>
        <trkpt lat="29.195559" lon="104.635625"><ele>357</ele><time>2025-12-30T22:21:01.000Z</time></trkpt>
        <trkpt lat="29.195542" lon="104.635616"><ele>358</ele><time>2025-12-30T22:21:05.000Z</time></trkpt>
        <trkpt lat="29.195542" lon="104.635616"><ele>358</ele><time>2025-12-30T22:21:06.000Z</time></trkpt>
        <trkpt lat="29.195532" lon="104.635608"><ele>358</ele><time>2025-12-30T22:21:09.000Z</time></trkpt>
        <trkpt lat="29.1955" lon="104.635588"><ele>359</ele><time>2025-12-30T22:21:13.000Z</time></trkpt>
        <trkpt lat="29.195486" lon="104.635579"><ele>359</ele><time>2025-12-30T22:21:16.000Z</time></trkpt>
        <trkpt lat="29.19548" lon="104.635582"><ele>360</ele><time>2025-12-30T22:21:19.000Z</time></trkpt>
        <trkpt lat="29.195482" lon="104.635614"><ele>361</ele><time>2025-12-30T22:21:24.000Z</time></trkpt>
        <trkpt lat="29.195477" lon="104.63562"><ele>361</ele><time>2025-12-30T22:21:25.000Z</time></trkpt>
        <trkpt lat="29.195463" lon="104.635625"><ele>362</ele><time>2025-12-30T22:21:27.000Z</time></trkpt>
        <trkpt lat="29.195452" lon="104.635628"><ele>362</ele><time>2025-12-30T22:21:29.000Z</time></trkpt>
        <trkpt lat="29.19545" lon="104.635628"><ele>362</ele><time>2025-12-30T22:21:30.000Z</time></trkpt>
        <trkpt lat="29.195434" lon="104.635618"><ele>363</ele><time>2025-12-30T22:21:33.000Z</time></trkpt>
        <trkpt lat="29.195422" lon="104.635611"><ele>363</ele><time>2025-12-30T22:21:35.000Z</time></trkpt>
        <trkpt lat="29.195411" lon="104.635601"><ele>363</ele><time>2025-12-30T22:21:37.000Z</time></trkpt>
        <trkpt lat="29.195398" lon="104.635586"><ele>364</ele><time>2025-12-30T22:21:41.000Z</time></trkpt>
        <trkpt lat="29.1954" lon="104.635577"><ele>364</ele><time>2025-12-30T22:21:47.000Z</time></trkpt>
        <trkpt lat="29.195397" lon="104.635572"><ele>364</ele><time>2025-12-30T22:21:49.000Z</time></trkpt>
        <trkpt lat="29.195389" lon="104.635593"><ele>364</ele><time>2025-12-30T22:21:55.000Z</time></trkpt>
        <trkpt lat="29.195393" lon="104.635602"><ele>365</ele><time>2025-12-30T22:21:58.000Z</time></trkpt>
        <trkpt lat="29.195379" lon="104.635557"><ele>365</ele><time>2025-12-30T22:22:04.000Z</time></trkpt>
        <trkpt lat="29.195377" lon="104.635556"><ele>365</ele><time>2025-12-30T22:22:06.000Z</time></trkpt>
        <trkpt lat="29.195375" lon="104.635562"><ele>365</ele><time>2025-12-30T22:22:08.000Z</time></trkpt>
        <trkpt lat="29.195379" lon="104.635561"><ele>365</ele><time>2025-12-30T22:22:13.000Z</time></trkpt>
        <trkpt lat="29.195371" lon="104.635579"><ele>365</ele><time>2025-12-30T22:22:22.000Z</time></trkpt>
        <trkpt lat="29.195365" lon="104.635581"><ele>365</ele><time>2025-12-30T22:22:23.000Z</time></trkpt>
        <trkpt lat="29.195351" lon="104.635576"><ele>367</ele><time>2025-12-30T22:22:28.000Z</time></trkpt>
        <trkpt lat="29.195345" lon="104.635574"><ele>368</ele><time>2025-12-30T22:22:30.000Z</time></trkpt>
        <trkpt lat="29.19534" lon="104.635574"><ele>368</ele><time>2025-12-30T22:22:31.000Z</time></trkpt>
        <trkpt lat="29.195301" lon="104.635566"><ele>369</ele><time>2025-12-30T22:22:36.000Z</time></trkpt>
        <trkpt lat="29.195308" lon="104.63557"><ele>369</ele><time>2025-12-30T22:22:39.000Z</time></trkpt>
        <trkpt lat="29.195307" lon="104.635569"><ele>369</ele><time>2025-12-30T22:22:44.000Z</time></trkpt>
        <trkpt lat="29.195284" lon="104.635549"><ele>370</ele><time>2025-12-30T22:22:53.000Z</time></trkpt>
        <trkpt lat="29.195278" lon="104.635548"><ele>370</ele><time>2025-12-30T22:22:54.000Z</time></trkpt>
        <trkpt lat="29.195251" lon="104.635533"><ele>371</ele><time>2025-12-30T22:22:59.000Z</time></trkpt>
        <trkpt lat="29.195242" lon="104.63551"><ele>372</ele><time>2025-12-30T22:23:03.000Z</time></trkpt>
        <trkpt lat="29.195243" lon="104.635504"><ele>372</ele><time>2025-12-30T22:23:04.000Z</time></trkpt>
        <trkpt lat="29.195232" lon="104.635498"><ele>372</ele><time>2025-12-30T22:23:12.000Z</time></trkpt>
        <trkpt lat="29.195237" lon="104.635528"><ele>372</ele><time>2025-12-30T22:23:22.000Z</time></trkpt>
        <trkpt lat="29.195243" lon="104.635532"><ele>372</ele><time>2025-12-30T22:23:24.000Z</time></trkpt>
        <trkpt lat="29.195248" lon="104.635535"><ele>372</ele><time>2025-12-30T22:23:33.000Z</time></trkpt>
        <trkpt lat="29.195251" lon="104.635537"><ele>372</ele><time>2025-12-30T22:23:35.000Z</time></trkpt>
        <trkpt lat="29.195233" lon="104.635554"><ele>371</ele><time>2025-12-30T22:23:42.000Z</time></trkpt>
        <trkpt lat="29.19523" lon="104.635584"><ele>372</ele><time>2025-12-30T22:23:47.000Z</time></trkpt>
        <trkpt lat="29.195205" lon="104.63567"><ele>373</ele><time>2025-12-30T22:23:55.000Z</time></trkpt>
        <trkpt lat="29.195199" lon="104.635676"><ele>373</ele><time>2025-12-30T22:23:56.000Z</time></trkpt>
        <trkpt lat="29.195196" lon="104.635686"><ele>374</ele><time>2025-12-30T22:23:57.000Z</time></trkpt>
        <trkpt lat="29.195192" lon="104.635693"><ele>374</ele><time>2025-12-30T22:23:58.000Z</time></trkpt>
        <trkpt lat="29.195186" lon="104.635706"><ele>374</ele><time>2025-12-30T22:23:59.000Z</time></trkpt>
        <trkpt lat="29.19518" lon="104.635715"><ele>374</ele><time>2025-12-30T22:24:00.000Z</time></trkpt>
        <trkpt lat="29.19516" lon="104.635743"><ele>375</ele><time>2025-12-30T22:24:04.000Z</time></trkpt>
        <trkpt lat="29.195103" lon="104.635787"><ele>375</ele><time>2025-12-30T22:24:11.000Z</time></trkpt>
        <trkpt lat="29.195094" lon="104.63579"><ele>375</ele><time>2025-12-30T22:24:12.000Z</time></trkpt>
        <trkpt lat="29.195076" lon="104.635802"><ele>376</ele><time>2025-12-30T22:24:14.000Z</time></trkpt>
        <trkpt lat="29.195041" lon="104.635832"><ele>376</ele><time>2025-12-30T22:24:19.000Z</time></trkpt>
        <trkpt lat="29.19503" lon="104.635842"><ele>376</ele><time>2025-12-30T22:24:20.000Z</time></trkpt>
        <trkpt lat="29.194966" lon="104.635892"><ele>374</ele><time>2025-12-30T22:24:27.000Z</time></trkpt>
        <trkpt lat="29.194911" lon="104.635911"><ele>373</ele><time>2025-12-30T22:24:33.000Z</time></trkpt>
        <trkpt lat="29.194839" lon="104.635911"><ele>372</ele><time>2025-12-30T22:24:38.000Z</time></trkpt>
        <trkpt lat="29.194797" lon="104.635883"><ele>372</ele><time>2025-12-30T22:24:42.000Z</time></trkpt>
        <trkpt lat="29.194789" lon="104.635873"><ele>372</ele><time>2025-12-30T22:24:44.000Z</time></trkpt>
        <trkpt lat="29.194788" lon="104.635865"><ele>372</ele><time>2025-12-30T22:24:50.000Z</time></trkpt>
        <trkpt lat="29.194778" lon="104.635855"><ele>372</ele><time>2025-12-30T22:24:55.000Z</time></trkpt>
        <trkpt lat="29.194777" lon="104.635869"><ele>372</ele><time>2025-12-30T22:25:05.000Z</time></trkpt>
        <trkpt lat="29.194763" lon="104.635864"><ele>372</ele><time>2025-12-30T22:25:13.000Z</time></trkpt>
        <trkpt lat="29.194703" lon="104.635819"><ele>373</ele><time>2025-12-30T22:25:18.000Z</time></trkpt>
        <trkpt lat="29.194692" lon="104.635823"><ele>373</ele><time>2025-12-30T22:25:22.000Z</time></trkpt>
        <trkpt lat="29.194697" lon="104.635822"><ele>373</ele><time>2025-12-30T22:25:23.000Z</time></trkpt>
        <trkpt lat="29.194666" lon="104.635797"><ele>373</ele><time>2025-12-30T22:25:33.000Z</time></trkpt>
        <trkpt lat="29.194681" lon="104.635829"><ele>372</ele><time>2025-12-30T22:25:38.000Z</time></trkpt>
        <trkpt lat="29.194692" lon="104.635844"><ele>373</ele><time>2025-12-30T22:25:40.000Z</time></trkpt>
        <trkpt lat="29.194694" lon="104.635845"><ele>373</ele><time>2025-12-30T22:25:41.000Z</time></trkpt>
        <trkpt lat="29.194692" lon="104.63583"><ele>372</ele><time>2025-12-30T22:25:49.000Z</time></trkpt>
        <trkpt lat="29.194692" lon="104.635827"><ele>372</ele><time>2025-12-30T22:25:51.000Z</time></trkpt>
        <trkpt lat="29.194674" lon="104.635803"><ele>372</ele><time>2025-12-30T22:25:57.000Z</time></trkpt>
        <trkpt lat="29.194644" lon="104.6358"><ele>373</ele><time>2025-12-30T22:26:01.000Z</time></trkpt>
        <trkpt lat="29.194624" lon="104.635787"><ele>372</ele><time>2025-12-30T22:26:08.000Z</time></trkpt>
        <trkpt lat="29.194627" lon="104.635781"><ele>372</ele><time>2025-12-30T22:26:20.000Z</time></trkpt>
        <trkpt lat="29.194628" lon="104.635779"><ele>372</ele><time>2025-12-30T22:26:24.000Z</time></trkpt>
        <trkpt lat="29.194626" lon="104.635778"><ele>372</ele><time>2025-12-30T22:26:25.000Z</time></trkpt>
        <trkpt lat="29.194624" lon="104.635778"><ele>372</ele><time>2025-12-30T22:26:26.000Z</time></trkpt>
        <trkpt lat="29.194623" lon="104.63578"><ele>372</ele><time>2025-12-30T22:26:27.000Z</time></trkpt>
        <trkpt lat="29.194621" lon="104.635779"><ele>372</ele><time>2025-12-30T22:26:28.000Z</time></trkpt>
        <trkpt lat="29.194618" lon="104.63578"><ele>372</ele><time>2025-12-30T22:26:30.000Z</time></trkpt>
        <trkpt lat="29.194627" lon="104.635781"><ele>371</ele><time>2025-12-30T22:26:44.000Z</time></trkpt>
        <trkpt lat="29.194627" lon="104.635781"><ele>371</ele><time>2025-12-30T22:26:50.000Z</time></trkpt>
        <trkpt lat="29.194627" lon="104.635781"><ele>371</ele><time>2025-12-30T22:26:57.000Z</time></trkpt>
        <trkpt lat="29.194616" lon="104.635782"><ele>371</ele><time>2025-12-30T22:27:04.000Z</time></trkpt>
        <trkpt lat="29.194618" lon="104.635788"><ele>371</ele><time>2025-12-30T22:27:06.000Z</time></trkpt>
        <trkpt lat="29.194613" lon="104.635802"><ele>371</ele><time>2025-12-30T22:27:12.000Z</time></trkpt>
        <trkpt lat="29.19462" lon="104.635808"><ele>372</ele><time>2025-12-30T22:27:18.000Z</time></trkpt>
        <trkpt lat="29.194633" lon="104.635801"><ele>371</ele><time>2025-12-30T22:27:23.000Z</time></trkpt>
        <trkpt lat="29.194629" lon="104.635787"><ele>371</ele><time>2025-12-30T22:27:31.000Z</time></trkpt>
        <trkpt lat="29.194627" lon="104.635781"><ele>371</ele><time>2025-12-30T22:27:39.000Z</time></trkpt>
        <trkpt lat="29.19462" lon="104.635791"><ele>372</ele><time>2025-12-30T22:27:47.000Z</time></trkpt>
        <trkpt lat="29.194624" lon="104.635798"><ele>372</ele><time>2025-12-30T22:28:00.000Z</time></trkpt>
        <trkpt lat="29.194624" lon="104.635798"><ele>372</ele><time>2025-12-30T22:28:07.000Z</time></trkpt>
        <trkpt lat="29.194624" lon="104.635798"><ele>372</ele><time>2025-12-30T22:28:14.000Z</time></trkpt>
        <trkpt lat="29.194624" lon="104.635798"><ele>371</ele><time>2025-12-30T22:28:29.000Z</time></trkpt>
        <trkpt lat="29.194624" lon="104.635798"><ele>371</ele><time>2025-12-30T22:28:32.000Z</time></trkpt>
        <trkpt lat="29.194624" lon="104.635798"><ele>371</ele><time>2025-12-30T22:28:46.000Z</time></trkpt>
        <trkpt lat="29.194624" lon="104.635797"><ele>371</ele><time>2025-12-30T22:28:59.000Z</time></trkpt>
        <trkpt lat="29.194624" lon="104.635788"><ele>371</ele><time>2025-12-30T22:29:10.000Z</time></trkpt>
        <trkpt lat="29.19462" lon="104.635776"><ele>371</ele><time>2025-12-30T22:29:18.000Z</time></trkpt>
        <trkpt lat="29.194625" lon="104.635768"><ele>371</ele><time>2025-12-30T22:29:22.000Z</time></trkpt>
        <trkpt lat="29.194624" lon="104.63578"><ele>372</ele><time>2025-12-30T22:29:25.000Z</time></trkpt>
        <trkpt lat="29.194621" lon="104.63579"><ele>371</ele><time>2025-12-30T22:29:35.000Z</time></trkpt>
        <trkpt lat="29.194627" lon="104.63579"><ele>371</ele><time>2025-12-30T22:29:43.000Z</time></trkpt>
        <trkpt lat="29.194635" lon="104.63577"><ele>371</ele><time>2025-12-30T22:29:52.000Z</time></trkpt>
        <trkpt lat="29.194633" lon="104.635766"><ele>371</ele><time>2025-12-30T22:30:03.000Z</time></trkpt>
        <trkpt lat="29.194622" lon="104.635766"><ele>371</ele><time>2025-12-30T22:30:18.000Z</time></trkpt>
        <trkpt lat="29.194625" lon="104.635775"><ele>371</ele><time>2025-12-30T22:30:23.000Z</time></trkpt>
        <trkpt lat="29.194619" lon="104.635775"><ele>371</ele><time>2025-12-30T22:30:25.000Z</time></trkpt>
        <trkpt lat="29.194622" lon="104.635778"><ele>371</ele><time>2025-12-30T22:30:37.000Z</time></trkpt>
        <trkpt lat="29.194629" lon="104.635768"><ele>371</ele><time>2025-12-30T22:30:46.000Z</time></trkpt>
        <trkpt lat="29.194628" lon="104.635756"><ele>371</ele><time>2025-12-30T22:30:50.000Z</time></trkpt>
        <trkpt lat="29.194635" lon="104.635757"><ele>371</ele><time>2025-12-30T22:30:54.000Z</time></trkpt>
        <trkpt lat="29.194638" lon="104.635752"><ele>371</ele><time>2025-12-30T22:30:56.000Z</time></trkpt>
        <trkpt lat="29.194657" lon="104.635747"><ele>371</ele><time>2025-12-30T22:31:09.000Z</time></trkpt>
        <trkpt lat="29.194649" lon="104.635761"><ele>371</ele><time>2025-12-30T22:31:17.000Z</time></trkpt>
        <trkpt lat="29.194615" lon="104.635784"><ele>371</ele><time>2025-12-30T22:31:31.000Z</time></trkpt>
        <trkpt lat="29.194615" lon="104.635783"><ele>371</ele><time>2025-12-30T22:31:39.000Z</time></trkpt>
        <trkpt lat="29.194619" lon="104.63578"><ele>371</ele><time>2025-12-30T22:31:44.000Z</time></trkpt>
        <trkpt lat="29.19462" lon="104.635775"><ele>371</ele><time>2025-12-30T22:31:51.000Z</time></trkpt>
        <trkpt lat="29.194615" lon="104.635774"><ele>371</ele><time>2025-12-30T22:31:57.000Z</time></trkpt>
        <trkpt lat="29.194615" lon="104.635783"><ele>371</ele><time>2025-12-30T22:32:05.000Z</time></trkpt>
        <trkpt lat="29.194623" lon="104.635768"><ele>371</ele><time>2025-12-30T22:32:15.000Z</time></trkpt>
        <trkpt lat="29.194623" lon="104.635768"><ele>371</ele><time>2025-12-30T22:32:17.000Z</time></trkpt>
        <trkpt lat="29.194623" lon="104.635768"><ele>371</ele><time>2025-12-30T22:32:27.000Z</time></trkpt>
        <trkpt lat="29.194623" lon="104.635768"><ele>371</ele><time>2025-12-30T22:32:31.000Z</time></trkpt>
        <trkpt lat="29.194609" lon="104.635777"><ele>371</ele><time>2025-12-30T22:32:39.000Z</time></trkpt>
        <trkpt lat="29.194609" lon="104.635777"><ele>371</ele><time>2025-12-30T22:32:43.000Z</time></trkpt>
        <trkpt lat="29.194609" lon="104.635777"><ele>371</ele><time>2025-12-30T22:32:55.000Z</time></trkpt>
        <trkpt lat="29.194609" lon="104.635777"><ele>371</ele><time>2025-12-30T22:32:58.000Z</time></trkpt>
        <trkpt lat="29.194609" lon="104.635777"><ele>371</ele><time>2025-12-30T22:33:06.000Z</time></trkpt>
        <trkpt lat="29.194609" lon="104.635777"><ele>371</ele><time>2025-12-30T22:33:09.000Z</time></trkpt>
        <trkpt lat="29.194609" lon="104.635777"><ele>371</ele><time>2025-12-30T22:33:18.000Z</time></trkpt>
        <trkpt lat="29.194609" lon="104.635777"><ele>371</ele><time>2025-12-30T22:33:28.000Z</time></trkpt>
        <trkpt lat="29.194609" lon="104.635772"><ele>371</ele><time>2025-12-30T22:33:38.000Z</time></trkpt>
        <trkpt lat="29.194629" lon="104.635773"><ele>371</ele><time>2025-12-30T22:33:50.000Z</time></trkpt>
        <trkpt lat="29.194631" lon="104.63577"><ele>371</ele><time>2025-12-30T22:33:51.000Z</time></trkpt>
        <trkpt lat="29.194634" lon="104.635767"><ele>371</ele><time>2025-12-30T22:33:53.000Z</time></trkpt>
        <trkpt lat="29.194635" lon="104.635765"><ele>371</ele><time>2025-12-30T22:33:59.000Z</time></trkpt>
        <trkpt lat="29.194637" lon="104.635759"><ele>370</ele><time>2025-12-30T22:34:01.000Z</time></trkpt>
        <trkpt lat="29.194622" lon="104.63576"><ele>371</ele><time>2025-12-30T22:34:07.000Z</time></trkpt>
        <trkpt lat="29.194603" lon="104.635785"><ele>370</ele><time>2025-12-30T22:34:15.000Z</time></trkpt>
        <trkpt lat="29.194606" lon="104.63578"><ele>370</ele><time>2025-12-30T22:34:17.000Z</time></trkpt>
        <trkpt lat="29.194616" lon="104.635789"><ele>370</ele><time>2025-12-30T22:34:28.000Z</time></trkpt>
        <trkpt lat="29.194631" lon="104.63579"><ele>370</ele><time>2025-12-30T22:34:38.000Z</time></trkpt>
        <trkpt lat="29.194629" lon="104.635788"><ele>370</ele><time>2025-12-30T22:34:39.000Z</time></trkpt>
        <trkpt lat="29.194642" lon="104.635786"><ele>370</ele><time>2025-12-30T22:34:49.000Z</time></trkpt>
        <trkpt lat="29.194642" lon="104.635785"><ele>370</ele><time>2025-12-30T22:34:58.000Z</time></trkpt>
        <trkpt lat="29.194628" lon="104.635783"><ele>370</ele><time>2025-12-30T22:35:03.000Z</time></trkpt>
        <trkpt lat="29.194625" lon="104.635784"><ele>370</ele><time>2025-12-30T22:35:05.000Z</time></trkpt>
        <trkpt lat="29.194618" lon="104.635783"><ele>370</ele><time>2025-12-30T22:35:07.000Z</time></trkpt>
        <trkpt lat="29.194609" lon="104.635777"><ele>370</ele><time>2025-12-30T22:35:21.000Z</time></trkpt>
        <trkpt lat="29.194609" lon="104.635777"><ele>370</ele><time>2025-12-30T22:35:25.000Z</time></trkpt>
        <trkpt lat="29.194609" lon="104.635777"><ele>370</ele><time>2025-12-30T22:35:27.000Z</time></trkpt>
        <trkpt lat="29.194609" lon="104.635777"><ele>370</ele><time>2025-12-30T22:35:35.000Z</time></trkpt>
        <trkpt lat="29.194609" lon="104.635777"><ele>370</ele><time>2025-12-30T22:35:45.000Z</time></trkpt>
        <trkpt lat="29.194609" lon="104.635777"><ele>370</ele><time>2025-12-30T22:35:50.000Z</time></trkpt>
        <trkpt lat="29.194609" lon="104.635777"><ele>370</ele><time>2025-12-30T22:35:55.000Z</time></trkpt>
        <trkpt lat="29.194609" lon="104.635777"><ele>370</ele><time>2025-12-30T22:36:06.000Z</time></trkpt>
        <trkpt lat="29.194609" lon="104.635777"><ele>370</ele><time>2025-12-30T22:36:07.000Z</time></trkpt>
        <trkpt lat="29.194609" lon="104.635777"><ele>371</ele><time>2025-12-30T22:36:30.000Z</time></trkpt>
        <trkpt lat="29.194609" lon="104.635777"><ele>371</ele><time>2025-12-30T22:36:39.000Z</time></trkpt>
        <trkpt lat="29.194609" lon="104.635777"><ele>370</ele><time>2025-12-30T22:36:56.000Z</time></trkpt>
        <trkpt lat="29.194609" lon="104.635777"><ele>371</ele><time>2025-12-30T22:37:08.000Z</time></trkpt>
        <trkpt lat="29.194609" lon="104.635777"><ele>371</ele><time>2025-12-30T22:37:22.000Z</time></trkpt>
        <trkpt lat="29.194609" lon="104.635777"><ele>370</ele><time>2025-12-30T22:37:27.000Z</time></trkpt>
        <trkpt lat="29.19463" lon="104.635791"><ele>371</ele><time>2025-12-30T22:37:40.000Z</time></trkpt>
        <trkpt lat="29.194624" lon="104.635781"><ele>371</ele><time>2025-12-30T22:37:54.000Z</time></trkpt>
        <trkpt lat="29.194624" lon="104.635786"><ele>371</ele><time>2025-12-30T22:38:06.000Z</time></trkpt>
        <trkpt lat="29.194624" lon="104.635785"><ele>371</ele><time>2025-12-30T22:38:08.000Z</time></trkpt>
        <trkpt lat="29.194634" lon="104.635793"><ele>371</ele><time>2025-12-30T22:38:15.000Z</time></trkpt>
        <trkpt lat="29.19464" lon="104.635779"><ele>371</ele><time>2025-12-30T22:38:24.000Z</time></trkpt>
        <trkpt lat="29.194635" lon="104.635774"><ele>371</ele><time>2025-12-30T22:38:35.000Z</time></trkpt>
        <trkpt lat="29.194635" lon="104.635774"><ele>371</ele><time>2025-12-30T22:38:50.000Z</time></trkpt>
        <trkpt lat="29.194634" lon="104.635776"><ele>371</ele><time>2025-12-30T22:38:58.000Z</time></trkpt>
        <trkpt lat="29.194633" lon="104.635783"><ele>371</ele><time>2025-12-30T22:39:06.000Z</time></trkpt>
        <trkpt lat="29.194636" lon="104.635777"><ele>371</ele><time>2025-12-30T22:39:17.000Z</time></trkpt>
        <trkpt lat="29.194626" lon="104.63579"><ele>371</ele><time>2025-12-30T22:39:25.000Z</time></trkpt>
        <trkpt lat="29.194623" lon="104.635781"><ele>371</ele><time>2025-12-30T22:39:31.000Z</time></trkpt>
        <trkpt lat="29.194625" lon="104.635777"><ele>371</ele><time>2025-12-30T22:39:39.000Z</time></trkpt>
        <trkpt lat="29.194635" lon="104.635774"><ele>371</ele><time>2025-12-30T22:39:51.000Z</time></trkpt>
        <trkpt lat="29.194635" lon="104.635774"><ele>371</ele><time>2025-12-30T22:39:58.000Z</time></trkpt>
        <trkpt lat="29.194627" lon="104.635775"><ele>371</ele><time>2025-12-30T22:40:07.000Z</time></trkpt>
        <trkpt lat="29.194635" lon="104.635774"><ele>371</ele><time>2025-12-30T22:40:19.000Z</time></trkpt>
        <trkpt lat="29.194635" lon="104.635774"><ele>371</ele><time>2025-12-30T22:40:23.000Z</time></trkpt>
        <trkpt lat="29.194616" lon="104.63578"><ele>371</ele><time>2025-12-30T22:40:29.000Z</time></trkpt>
        <trkpt lat="29.194658" lon="104.635761"><ele>371</ele><time>2025-12-30T22:40:39.000Z</time></trkpt>
        <trkpt lat="29.194648" lon="104.63576"><ele>371</ele><time>2025-12-30T22:40:49.000Z</time></trkpt>
        <trkpt lat="29.194629" lon="104.635757"><ele>371</ele><time>2025-12-30T22:41:01.000Z</time></trkpt>
        <trkpt lat="29.19463" lon="104.635774"><ele>371</ele><time>2025-12-30T22:41:12.000Z</time></trkpt>
        <trkpt lat="29.194635" lon="104.635774"><ele>371</ele><time>2025-12-30T22:41:14.000Z</time></trkpt>
        <trkpt lat="29.194635" lon="104.635774"><ele>371</ele><time>2025-12-30T22:41:15.000Z</time></trkpt>
        <trkpt lat="29.194621" lon="104.635773"><ele>371</ele><time>2025-12-30T22:41:22.000Z</time></trkpt>
        <trkpt lat="29.19462" lon="104.635773"><ele>371</ele><time>2025-12-30T22:41:27.000Z</time></trkpt>
        <trkpt lat="29.19462" lon="104.635775"><ele>370</ele><time>2025-12-30T22:41:33.000Z</time></trkpt>
        <trkpt lat="29.194635" lon="104.635774"><ele>371</ele><time>2025-12-30T22:41:36.000Z</time></trkpt>
        <trkpt lat="29.194627" lon="104.635775"><ele>371</ele><time>2025-12-30T22:41:37.000Z</time></trkpt>
        <trkpt lat="29.194621" lon="104.635778"><ele>371</ele><time>2025-12-30T22:41:40.000Z</time></trkpt>
        <trkpt lat="29.194619" lon="104.635778"><ele>371</ele><time>2025-12-30T22:41:41.000Z</time></trkpt>
        <trkpt lat="29.194617" lon="104.635777"><ele>371</ele><time>2025-12-30T22:41:42.000Z</time></trkpt>
        <trkpt lat="29.194635" lon="104.635774"><ele>371</ele><time>2025-12-30T22:41:47.000Z</time></trkpt>
        <trkpt lat="29.194633" lon="104.635766"><ele>371</ele><time>2025-12-30T22:41:55.000Z</time></trkpt>
        <trkpt lat="29.194635" lon="104.635768"><ele>371</ele><time>2025-12-30T22:41:56.000Z</time></trkpt>
        <trkpt lat="29.194639" lon="104.635773"><ele>371</ele><time>2025-12-30T22:41:58.000Z</time></trkpt>
        <trkpt lat="29.194624" lon="104.635758"><ele>370</ele><time>2025-12-30T22:42:07.000Z</time></trkpt>
        <trkpt lat="29.194632" lon="104.635757"><ele>370</ele><time>2025-12-30T22:42:14.000Z</time></trkpt>
        <trkpt lat="29.19464" lon="104.635778"><ele>370</ele><time>2025-12-30T22:42:18.000Z</time></trkpt>
        <trkpt lat="29.194635" lon="104.635774"><ele>370</ele><time>2025-12-30T22:42:34.000Z</time></trkpt>
        <trkpt lat="29.194635" lon="104.635774"><ele>370</ele><time>2025-12-30T22:42:36.000Z</time></trkpt>
        <trkpt lat="29.194635" lon="104.635774"><ele>370</ele><time>2025-12-30T22:42:44.000Z</time></trkpt>
        <trkpt lat="29.194632" lon="104.635782"><ele>370</ele><time>2025-12-30T22:42:51.000Z</time></trkpt>
        <trkpt lat="29.194632" lon="104.635756"><ele>370</ele><time>2025-12-30T22:43:02.000Z</time></trkpt>
        <trkpt lat="29.194632" lon="104.635756"><ele>370</ele><time>2025-12-30T22:43:10.000Z</time></trkpt>
        <trkpt lat="29.194632" lon="104.635756"><ele>370</ele><time>2025-12-30T22:43:11.000Z</time></trkpt>
        <trkpt lat="29.194632" lon="104.635756"><ele>370</ele><time>2025-12-30T22:43:15.000Z</time></trkpt>
        <trkpt lat="29.194632" lon="104.635756"><ele>370</ele><time>2025-12-30T22:43:19.000Z</time></trkpt>
        <trkpt lat="29.194632" lon="104.635756"><ele>370</ele><time>2025-12-30T22:43:41.000Z</time></trkpt>
        <trkpt lat="29.194627" lon="104.635766"><ele>371</ele><time>2025-12-30T22:44:07.000Z</time></trkpt>
        <trkpt lat="29.194621" lon="104.635758"><ele>370</ele><time>2025-12-30T22:44:15.000Z</time></trkpt>
        <trkpt lat="29.194634" lon="104.635767"><ele>371</ele><time>2025-12-30T22:44:27.000Z</time></trkpt>
        <trkpt lat="29.194646" lon="104.635744"><ele>371</ele><time>2025-12-30T22:44:34.000Z</time></trkpt>
        <trkpt lat="29.194645" lon="104.63574"><ele>371</ele><time>2025-12-30T22:44:38.000Z</time></trkpt>
        <trkpt lat="29.194635" lon="104.635753"><ele>371</ele><time>2025-12-30T22:44:48.000Z</time></trkpt>
        <trkpt lat="29.194637" lon="104.635776"><ele>372</ele><time>2025-12-30T22:44:59.000Z</time></trkpt>
        <trkpt lat="29.194637" lon="104.635776"><ele>372</ele><time>2025-12-30T22:45:10.000Z</time></trkpt>
        <trkpt lat="29.194637" lon="104.635776"><ele>372</ele><time>2025-12-30T22:45:11.000Z</time></trkpt>
        <trkpt lat="29.194642" lon="104.635773"><ele>372</ele><time>2025-12-30T22:45:15.000Z</time></trkpt>
        <trkpt lat="29.194645" lon="104.635751"><ele>372</ele><time>2025-12-30T22:45:25.000Z</time></trkpt>
        <trkpt lat="29.194618" lon="104.635742"><ele>372</ele><time>2025-12-30T22:45:34.000Z</time></trkpt>
        <trkpt lat="29.194615" lon="104.635752"><ele>372</ele><time>2025-12-30T22:45:44.000Z</time></trkpt>
        <trkpt lat="29.194634" lon="104.635763"><ele>372</ele><time>2025-12-30T22:45:50.000Z</time></trkpt>
        <trkpt lat="29.194641" lon="104.635763"><ele>372</ele><time>2025-12-30T22:45:52.000Z</time></trkpt>
        <trkpt lat="29.194645" lon="104.635762"><ele>372</ele><time>2025-12-30T22:45:53.000Z</time></trkpt>
        <trkpt lat="29.194642" lon="104.635771"><ele>372</ele><time>2025-12-30T22:45:56.000Z</time></trkpt>
        <trkpt lat="29.194639" lon="104.635778"><ele>372</ele><time>2025-12-30T22:46:00.000Z</time></trkpt>
        <trkpt lat="29.194641" lon="104.635774"><ele>372</ele><time>2025-12-30T22:46:08.000Z</time></trkpt>
        <trkpt lat="29.194633" lon="104.63582"><ele>372</ele><time>2025-12-30T22:46:13.000Z</time></trkpt>
        <trkpt lat="29.194609" lon="104.63585"><ele>372</ele><time>2025-12-30T22:46:16.000Z</time></trkpt>
        <trkpt lat="29.19459" lon="104.635871"><ele>372</ele><time>2025-12-30T22:46:18.000Z</time></trkpt>
        <trkpt lat="29.19454" lon="104.635863"><ele>373</ele><time>2025-12-30T22:46:23.000Z</time></trkpt>
        <trkpt lat="29.194531" lon="104.635857"><ele>373</ele><time>2025-12-30T22:46:25.000Z</time></trkpt>
        <trkpt lat="29.1945" lon="104.635844"><ele>374</ele><time>2025-12-30T22:46:29.000Z</time></trkpt>
        <trkpt lat="29.194483" lon="104.635838"><ele>374</ele><time>2025-12-30T22:46:34.000Z</time></trkpt>
        <trkpt lat="29.194439" lon="104.635803"><ele>374</ele><time>2025-12-30T22:46:40.000Z</time></trkpt>
        <trkpt lat="29.194396" lon="104.635778"><ele>374</ele><time>2025-12-30T22:46:45.000Z</time></trkpt>
        <trkpt lat="29.19438" lon="104.635777"><ele>374</ele><time>2025-12-30T22:46:47.000Z</time></trkpt>
        <trkpt lat="29.194349" lon="104.635768"><ele>375</ele><time>2025-12-30T22:46:52.000Z</time></trkpt>
        <trkpt lat="29.194339" lon="104.635753"><ele>375</ele><time>2025-12-30T22:46:54.000Z</time></trkpt>
        <trkpt lat="29.194321" lon="104.635745"><ele>375</ele><time>2025-12-30T22:46:58.000Z</time></trkpt>
        <trkpt lat="29.194256" lon="104.635687"><ele>375</ele><time>2025-12-30T22:47:07.000Z</time></trkpt>
        <trkpt lat="29.194154" lon="104.635655"><ele>375</ele><time>2025-12-30T22:47:17.000Z</time></trkpt>
        <trkpt lat="29.194118" lon="104.635685"><ele>376</ele><time>2025-12-30T22:47:25.000Z</time></trkpt>
        <trkpt lat="29.194103" lon="104.635698"><ele>376</ele><time>2025-12-30T22:47:29.000Z</time></trkpt>
        <trkpt lat="29.194098" lon="104.635703"><ele>377</ele><time>2025-12-30T22:47:34.000Z</time></trkpt>
        <trkpt lat="29.1941" lon="104.635703"><ele>378</ele><time>2025-12-30T22:47:35.000Z</time></trkpt>
        <trkpt lat="29.194105" lon="104.635715"><ele>378</ele><time>2025-12-30T22:47:44.000Z</time></trkpt>
        <trkpt lat="29.194051" lon="104.635713"><ele>377</ele><time>2025-12-30T22:47:51.000Z</time></trkpt>
        <trkpt lat="29.193985" lon="104.635704"><ele>378</ele><time>2025-12-30T22:47:57.000Z</time></trkpt>
        <trkpt lat="29.193979" lon="104.635702"><ele>379</ele><time>2025-12-30T22:47:58.000Z</time></trkpt>
        <trkpt lat="29.193956" lon="104.635709"><ele>379</ele><time>2025-12-30T22:48:02.000Z</time></trkpt>
        <trkpt lat="29.19394" lon="104.635717"><ele>379</ele><time>2025-12-30T22:48:04.000Z</time></trkpt>
        <trkpt lat="29.193915" lon="104.635744"><ele>379</ele><time>2025-12-30T22:48:09.000Z</time></trkpt>
        <trkpt lat="29.193821" lon="104.635766"><ele>379</ele><time>2025-12-30T22:48:19.000Z</time></trkpt>
        <trkpt lat="29.193731" lon="104.635745"><ele>379</ele><time>2025-12-30T22:48:28.000Z</time></trkpt>
        <trkpt lat="29.193727" lon="104.635732"><ele>379</ele><time>2025-12-30T22:48:30.000Z</time></trkpt>
        <trkpt lat="29.193695" lon="104.635724"><ele>379</ele><time>2025-12-30T22:48:34.000Z</time></trkpt>
        <trkpt lat="29.193626" lon="104.635672"><ele>379</ele><time>2025-12-30T22:48:42.000Z</time></trkpt>
        <trkpt lat="29.193535" lon="104.635566"><ele>378</ele><time>2025-12-30T22:48:52.000Z</time></trkpt>
        <trkpt lat="29.193522" lon="104.635523"><ele>378</ele><time>2025-12-30T22:48:59.000Z</time></trkpt>
        <trkpt lat="29.193537" lon="104.635518"><ele>379</ele><time>2025-12-30T22:49:04.000Z</time></trkpt>
        <trkpt lat="29.193548" lon="104.635518"><ele>378</ele><time>2025-12-30T22:49:06.000Z</time></trkpt>
        <trkpt lat="29.193529" lon="104.635507"><ele>379</ele><time>2025-12-30T22:49:13.000Z</time></trkpt>
        <trkpt lat="29.193529" lon="104.635507"><ele>378</ele><time>2025-12-30T22:49:19.000Z</time></trkpt>
        <trkpt lat="29.193529" lon="104.635507"><ele>378</ele><time>2025-12-30T22:49:21.000Z</time></trkpt>
        <trkpt lat="29.193526" lon="104.635509"><ele>378</ele><time>2025-12-30T22:49:23.000Z</time></trkpt>
        <trkpt lat="29.193481" lon="104.635494"><ele>378</ele><time>2025-12-30T22:49:27.000Z</time></trkpt>
        <trkpt lat="29.193444" lon="104.635437"><ele>378</ele><time>2025-12-30T22:49:32.000Z</time></trkpt>
        <trkpt lat="29.193425" lon="104.635382"><ele>378</ele><time>2025-12-30T22:49:38.000Z</time></trkpt>
        <trkpt lat="29.193432" lon="104.635383"><ele>378</ele><time>2025-12-30T22:49:45.000Z</time></trkpt>
        <trkpt lat="29.193416" lon="104.635334"><ele>378</ele><time>2025-12-30T22:49:50.000Z</time></trkpt>
        <trkpt lat="29.193392" lon="104.635279"><ele>378</ele><time>2025-12-30T22:49:56.000Z</time></trkpt>
        <trkpt lat="29.193346" lon="104.635236"><ele>378</ele><time>2025-12-30T22:50:04.000Z</time></trkpt>
        <trkpt lat="29.193293" lon="104.635202"><ele>379</ele><time>2025-12-30T22:50:11.000Z</time></trkpt>
        <trkpt lat="29.193247" lon="104.635155"><ele>379</ele><time>2025-12-30T22:50:18.000Z</time></trkpt>
        <trkpt lat="29.193191" lon="104.635129"><ele>379</ele><time>2025-12-30T22:50:26.000Z</time></trkpt>
        <trkpt lat="29.193113" lon="104.635091"><ele>379</ele><time>2025-12-30T22:50:34.000Z</time></trkpt>
        <trkpt lat="29.193063" lon="104.635009"><ele>379</ele><time>2025-12-30T22:50:41.000Z</time></trkpt>
        <trkpt lat="29.193034" lon="104.634972"><ele>379</ele><time>2025-12-30T22:50:45.000Z</time></trkpt>
        <trkpt lat="29.193007" lon="104.634963"><ele>379</ele><time>2025-12-30T22:50:48.000Z</time></trkpt>
        <trkpt lat="29.192964" lon="104.634951"><ele>379</ele><time>2025-12-30T22:50:55.000Z</time></trkpt>
        <trkpt lat="29.192927" lon="104.634932"><ele>380</ele><time>2025-12-30T22:51:00.000Z</time></trkpt>
        <trkpt lat="29.192919" lon="104.634928"><ele>380</ele><time>2025-12-30T22:51:01.000Z</time></trkpt>
        <trkpt lat="29.192891" lon="104.634917"><ele>380</ele><time>2025-12-30T22:51:06.000Z</time></trkpt>
        <trkpt lat="29.192827" lon="104.634899"><ele>380</ele><time>2025-12-30T22:51:13.000Z</time></trkpt>
        <trkpt lat="29.192712" lon="104.634924"><ele>380</ele><time>2025-12-30T22:51:23.000Z</time></trkpt>
        <trkpt lat="29.19269" lon="104.634958"><ele>380</ele><time>2025-12-30T22:51:32.000Z</time></trkpt>
        <trkpt lat="29.19269" lon="104.634959"><ele>380</ele><time>2025-12-30T22:51:35.000Z</time></trkpt>
        <trkpt lat="29.192719" lon="104.634957"><ele>380</ele><time>2025-12-30T22:51:43.000Z</time></trkpt>
        <trkpt lat="29.192752" lon="104.634963"><ele>380</ele><time>2025-12-30T22:51:53.000Z</time></trkpt>
        <trkpt lat="29.192749" lon="104.634975"><ele>380</ele><time>2025-12-30T22:51:58.000Z</time></trkpt>
        <trkpt lat="29.192752" lon="104.634967"><ele>380</ele><time>2025-12-30T22:52:04.000Z</time></trkpt>
        <trkpt lat="29.192767" lon="104.634984"><ele>380</ele><time>2025-12-30T22:52:12.000Z</time></trkpt>
        <trkpt lat="29.192767" lon="104.634977"><ele>380</ele><time>2025-12-30T22:52:20.000Z</time></trkpt>
        <trkpt lat="29.192723" lon="104.634961"><ele>381</ele><time>2025-12-30T22:52:28.000Z</time></trkpt>
        <trkpt lat="29.192722" lon="104.635015"><ele>381</ele><time>2025-12-30T22:52:35.000Z</time></trkpt>
        <trkpt lat="29.192679" lon="104.635057"><ele>381</ele><time>2025-12-30T22:52:42.000Z</time></trkpt>
        <trkpt lat="29.192651" lon="104.635093"><ele>382</ele><time>2025-12-30T22:52:47.000Z</time></trkpt>
        <trkpt lat="29.19262" lon="104.635103"><ele>382</ele><time>2025-12-30T22:52:49.000Z</time></trkpt>
        <trkpt lat="29.192583" lon="104.635097"><ele>383</ele><time>2025-12-30T22:52:52.000Z</time></trkpt>
        <trkpt lat="29.192555" lon="104.635093"><ele>383</ele><time>2025-12-30T22:52:54.000Z</time></trkpt>
        <trkpt lat="29.192535" lon="104.635094"><ele>383</ele><time>2025-12-30T22:52:56.000Z</time></trkpt>
        <trkpt lat="29.192493" lon="104.635106"><ele>383</ele><time>2025-12-30T22:53:00.000Z</time></trkpt>
        <trkpt lat="29.192489" lon="104.635111"><ele>383</ele><time>2025-12-30T22:53:02.000Z</time></trkpt>
        <trkpt lat="29.19248" lon="104.635128"><ele>383</ele><time>2025-12-30T22:53:07.000Z</time></trkpt>
        <trkpt lat="29.192471" lon="104.635124"><ele>382</ele><time>2025-12-30T22:53:17.000Z</time></trkpt>
        <trkpt lat="29.192479" lon="104.635132"><ele>382</ele><time>2025-12-30T22:53:26.000Z</time></trkpt>
        <trkpt lat="29.192445" lon="104.635157"><ele>383</ele><time>2025-12-30T22:53:32.000Z</time></trkpt>
        <trkpt lat="29.192442" lon="104.635156"><ele>383</ele><time>2025-12-30T22:53:33.000Z</time></trkpt>
        <trkpt lat="29.192387" lon="104.635187"><ele>384</ele><time>2025-12-30T22:53:38.000Z</time></trkpt>
        <trkpt lat="29.192396" lon="104.635221"><ele>384</ele><time>2025-12-30T22:53:45.000Z</time></trkpt>
        <trkpt lat="29.192397" lon="104.635225"><ele>384</ele><time>2025-12-30T22:53:46.000Z</time></trkpt>
        <trkpt lat="29.192393" lon="104.635241"><ele>385</ele><time>2025-12-30T22:53:52.000Z</time></trkpt>
        <trkpt lat="29.192377" lon="104.635262"><ele>385</ele><time>2025-12-30T22:53:55.000Z</time></trkpt>
        <trkpt lat="29.19234" lon="104.635268"><ele>386</ele><time>2025-12-30T22:53:58.000Z</time></trkpt>
        <trkpt lat="29.192272" lon="104.635288"><ele>386</ele><time>2025-12-30T22:54:05.000Z</time></trkpt>
        <trkpt lat="29.192209" lon="104.635298"><ele>386</ele><time>2025-12-30T22:54:09.000Z</time></trkpt>
        <trkpt lat="29.192158" lon="104.635305"><ele>386</ele><time>2025-12-30T22:54:15.000Z</time></trkpt>
        <trkpt lat="29.192141" lon="104.635318"><ele>386</ele><time>2025-12-30T22:54:22.000Z</time></trkpt>
        <trkpt lat="29.192131" lon="104.635322"><ele>386</ele><time>2025-12-30T22:54:30.000Z</time></trkpt>
        <trkpt lat="29.192122" lon="104.635324"><ele>386</ele><time>2025-12-30T22:54:35.000Z</time></trkpt>
        <trkpt lat="29.192121" lon="104.635322"><ele>387</ele><time>2025-12-30T22:54:37.000Z</time></trkpt>
        <trkpt lat="29.192121" lon="104.635322"><ele>386</ele><time>2025-12-30T22:54:42.000Z</time></trkpt>
        <trkpt lat="29.192121" lon="104.635322"><ele>386</ele><time>2025-12-30T22:54:44.000Z</time></trkpt>
        <trkpt lat="29.192082" lon="104.63534"><ele>386</ele><time>2025-12-30T22:54:49.000Z</time></trkpt>
        <trkpt lat="29.192018" lon="104.635352"><ele>386</ele><time>2025-12-30T22:54:57.000Z</time></trkpt>
        <trkpt lat="29.192013" lon="104.635354"><ele>387</ele><time>2025-12-30T22:55:03.000Z</time></trkpt>
        <trkpt lat="29.192012" lon="104.635355"><ele>386</ele><time>2025-12-30T22:55:05.000Z</time></trkpt>
        <trkpt lat="29.192031" lon="104.635365"><ele>386</ele><time>2025-12-30T22:55:15.000Z</time></trkpt>
        <trkpt lat="29.192034" lon="104.635358"><ele>387</ele><time>2025-12-30T22:55:24.000Z</time></trkpt>
        <trkpt lat="29.191995" lon="104.635365"><ele>386</ele><time>2025-12-30T22:55:33.000Z</time></trkpt>
        <trkpt lat="29.191948" lon="104.635375"><ele>386</ele><time>2025-12-30T22:55:39.000Z</time></trkpt>
        <trkpt lat="29.191911" lon="104.635376"><ele>387</ele><time>2025-12-30T22:55:46.000Z</time></trkpt>
        <trkpt lat="29.19191" lon="104.63539"><ele>387</ele><time>2025-12-30T22:55:53.000Z</time></trkpt>
        <trkpt lat="29.19191" lon="104.635391"><ele>387</ele><time>2025-12-30T22:55:54.000Z</time></trkpt>
        <trkpt lat="29.191854" lon="104.635392"><ele>386</ele><time>2025-12-30T22:56:00.000Z</time></trkpt>
        <trkpt lat="29.191809" lon="104.635395"><ele>386</ele><time>2025-12-30T22:56:08.000Z</time></trkpt>
        <trkpt lat="29.191778" lon="104.635373"><ele>386</ele><time>2025-12-30T22:56:16.000Z</time></trkpt>
        <trkpt lat="29.191769" lon="104.635368"><ele>386</ele><time>2025-12-30T22:56:17.000Z</time></trkpt>
        <trkpt lat="29.191752" lon="104.635348"><ele>386</ele><time>2025-12-30T22:56:20.000Z</time></trkpt>
        <trkpt lat="29.191732" lon="104.635305"><ele>386</ele><time>2025-12-30T22:56:26.000Z</time></trkpt>
        <trkpt lat="29.191698" lon="104.635284"><ele>387</ele><time>2025-12-30T22:56:32.000Z</time></trkpt>
        <trkpt lat="29.191638" lon="104.635251"><ele>386</ele><time>2025-12-30T22:56:41.000Z</time></trkpt>
        <trkpt lat="29.191636" lon="104.635238"><ele>386</ele><time>2025-12-30T22:56:49.000Z</time></trkpt>
        <trkpt lat="29.191651" lon="104.63525"><ele>387</ele><time>2025-12-30T22:56:59.000Z</time></trkpt>
        <trkpt lat="29.191588" lon="104.635259"><ele>386</ele><time>2025-12-30T22:57:04.000Z</time></trkpt>
        <trkpt lat="29.191513" lon="104.635228"><ele>386</ele><time>2025-12-30T22:57:12.000Z</time></trkpt>
        <trkpt lat="29.191492" lon="104.635223"><ele>387</ele><time>2025-12-30T22:57:18.000Z</time></trkpt>
        <trkpt lat="29.191485" lon="104.635213"><ele>387</ele><time>2025-12-30T22:57:24.000Z</time></trkpt>
        <trkpt lat="29.191503" lon="104.635213"><ele>387</ele><time>2025-12-30T22:57:32.000Z</time></trkpt>
        <trkpt lat="29.19153" lon="104.635233"><ele>387</ele><time>2025-12-30T22:57:38.000Z</time></trkpt>
        <trkpt lat="29.191547" lon="104.635275"><ele>387</ele><time>2025-12-30T22:57:42.000Z</time></trkpt>
        <trkpt lat="29.191573" lon="104.635344"><ele>387</ele><time>2025-12-30T22:57:51.000Z</time></trkpt>
        <trkpt lat="29.191573" lon="104.635356"><ele>387</ele><time>2025-12-30T22:57:52.000Z</time></trkpt>
        <trkpt lat="29.191569" lon="104.635377"><ele>387</ele><time>2025-12-30T22:57:54.000Z</time></trkpt>
        <trkpt lat="29.191567" lon="104.635396"><ele>388</ele><time>2025-12-30T22:57:58.000Z</time></trkpt>
        <trkpt lat="29.191561" lon="104.635401"><ele>388</ele><time>2025-12-30T22:57:59.000Z</time></trkpt>
        <trkpt lat="29.191525" lon="104.635381"><ele>388</ele><time>2025-12-30T22:58:04.000Z</time></trkpt>
        <trkpt lat="29.191512" lon="104.635374"><ele>388</ele><time>2025-12-30T22:58:06.000Z</time></trkpt>
        <trkpt lat="29.191484" lon="104.635307"><ele>388</ele><time>2025-12-30T22:58:13.000Z</time></trkpt>
        <trkpt lat="29.191499" lon="104.635253"><ele>388</ele><time>2025-12-30T22:58:23.000Z</time></trkpt>
        <trkpt lat="29.19148" lon="104.635194"><ele>389</ele><time>2025-12-30T22:58:29.000Z</time></trkpt>
        <trkpt lat="29.191478" lon="104.63518"><ele>388</ele><time>2025-12-30T22:58:31.000Z</time></trkpt>
        <trkpt lat="29.191477" lon="104.635173"><ele>388</ele><time>2025-12-30T22:58:32.000Z</time></trkpt>
        <trkpt lat="29.191477" lon="104.635163"><ele>388</ele><time>2025-12-30T22:58:33.000Z</time></trkpt>
        <trkpt lat="29.19149" lon="104.635094"><ele>388</ele><time>2025-12-30T22:58:41.000Z</time></trkpt>
        <trkpt lat="29.19148" lon="104.635095"><ele>389</ele><time>2025-12-30T22:58:44.000Z</time></trkpt>
        <trkpt lat="29.191472" lon="104.635086"><ele>389</ele><time>2025-12-30T22:58:46.000Z</time></trkpt>
        <trkpt lat="29.191465" lon="104.635085"><ele>390</ele><time>2025-12-30T22:58:47.000Z</time></trkpt>
        <trkpt lat="29.19146" lon="104.635088"><ele>390</ele><time>2025-12-30T22:58:48.000Z</time></trkpt>
        <trkpt lat="29.191451" lon="104.63509"><ele>391</ele><time>2025-12-30T22:58:50.000Z</time></trkpt>
        <trkpt lat="29.191436" lon="104.635074"><ele>392</ele><time>2025-12-30T22:58:55.000Z</time></trkpt>
        <trkpt lat="29.191435" lon="104.635055"><ele>393</ele><time>2025-12-30T22:59:00.000Z</time></trkpt>
        <trkpt lat="29.191436" lon="104.635044"><ele>393</ele><time>2025-12-30T22:59:02.000Z</time></trkpt>
        <trkpt lat="29.19144" lon="104.635039"><ele>393</ele><time>2025-12-30T22:59:03.000Z</time></trkpt>
        <trkpt lat="29.191438" lon="104.635028"><ele>394</ele><time>2025-12-30T22:59:06.000Z</time></trkpt>
        <trkpt lat="29.191441" lon="104.635012"><ele>394</ele><time>2025-12-30T22:59:08.000Z</time></trkpt>
        <trkpt lat="29.191445" lon="104.63501"><ele>394</ele><time>2025-12-30T22:59:09.000Z</time></trkpt>
        <trkpt lat="29.191461" lon="104.634998"><ele>395</ele><time>2025-12-30T22:59:13.000Z</time></trkpt>
        <trkpt lat="29.191491" lon="104.634992"><ele>396</ele><time>2025-12-30T22:59:18.000Z</time></trkpt>
        <trkpt lat="29.191481" lon="104.634993"><ele>396</ele><time>2025-12-30T22:59:25.000Z</time></trkpt>
        <trkpt lat="29.191481" lon="104.634986"><ele>397</ele><time>2025-12-30T22:59:32.000Z</time></trkpt>
        <trkpt lat="29.191479" lon="104.634987"><ele>397</ele><time>2025-12-30T22:59:34.000Z</time></trkpt>
        <trkpt lat="29.191485" lon="104.634988"><ele>397</ele><time>2025-12-30T22:59:35.000Z</time></trkpt>
        <trkpt lat="29.191495" lon="104.634984"><ele>397</ele><time>2025-12-30T22:59:40.000Z</time></trkpt>
        <trkpt lat="29.191504" lon="104.634963"><ele>397</ele><time>2025-12-30T22:59:45.000Z</time></trkpt>
        <trkpt lat="29.191522" lon="104.634943"><ele>397</ele><time>2025-12-30T22:59:49.000Z</time></trkpt>
        <trkpt lat="29.191559" lon="104.634918"><ele>398</ele><time>2025-12-30T22:59:57.000Z</time></trkpt>
        <trkpt lat="29.191569" lon="104.63491"><ele>398</ele><time>2025-12-30T22:59:58.000Z</time></trkpt>
        <trkpt lat="29.191623" lon="104.634878"><ele>400</ele><time>2025-12-30T23:00:03.000Z</time></trkpt>
        <trkpt lat="29.191642" lon="104.634868"><ele>401</ele><time>2025-12-30T23:00:08.000Z</time></trkpt>
        <trkpt lat="29.191659" lon="104.634852"><ele>401</ele><time>2025-12-30T23:00:11.000Z</time></trkpt>
        <trkpt lat="29.191664" lon="104.634832"><ele>402</ele><time>2025-12-30T23:00:14.000Z</time></trkpt>
        <trkpt lat="29.191655" lon="104.634819"><ele>403</ele><time>2025-12-30T23:00:18.000Z</time></trkpt>
        <trkpt lat="29.191649" lon="104.634816"><ele>404</ele><time>2025-12-30T23:00:25.000Z</time></trkpt>
        <trkpt lat="29.191633" lon="104.634804"><ele>404</ele><time>2025-12-30T23:00:29.000Z</time></trkpt>
        <trkpt lat="29.191611" lon="104.634795"><ele>404</ele><time>2025-12-30T23:00:31.000Z</time></trkpt>
        <trkpt lat="29.191588" lon="104.634791"><ele>405</ele><time>2025-12-30T23:00:34.000Z</time></trkpt>
        <trkpt lat="29.191581" lon="104.634788"><ele>406</ele><time>2025-12-30T23:00:38.000Z</time></trkpt>
        <trkpt lat="29.191559" lon="104.634791"><ele>406</ele><time>2025-12-30T23:00:42.000Z</time></trkpt>
        <trkpt lat="29.191545" lon="104.634809"><ele>407</ele><time>2025-12-30T23:00:44.000Z</time></trkpt>
        <trkpt lat="29.191532" lon="104.634823"><ele>407</ele><time>2025-12-30T23:00:47.000Z</time></trkpt>
        <trkpt lat="29.191508" lon="104.634829"><ele>409</ele><time>2025-12-30T23:00:51.000Z</time></trkpt>
        <trkpt lat="29.191484" lon="104.634842"><ele>410</ele><time>2025-12-30T23:00:56.000Z</time></trkpt>
        <trkpt lat="29.191452" lon="104.634856"><ele>410</ele><time>2025-12-30T23:00:58.000Z</time></trkpt>
        <trkpt lat="29.191416" lon="104.634865"><ele>411</ele><time>2025-12-30T23:01:04.000Z</time></trkpt>
        <trkpt lat="29.191397" lon="104.63489"><ele>412</ele><time>2025-12-30T23:01:12.000Z</time></trkpt>
        <trkpt lat="29.191387" lon="104.634898"><ele>412</ele><time>2025-12-30T23:01:14.000Z</time></trkpt>
        <trkpt lat="29.191388" lon="104.634905"><ele>412</ele><time>2025-12-30T23:01:20.000Z</time></trkpt>
        <trkpt lat="29.191376" lon="104.634909"><ele>412</ele><time>2025-12-30T23:01:24.000Z</time></trkpt>
        <trkpt lat="29.191372" lon="104.634911"><ele>412</ele><time>2025-12-30T23:01:25.000Z</time></trkpt>
        <trkpt lat="29.191367" lon="104.634911"><ele>412</ele><time>2025-12-30T23:01:26.000Z</time></trkpt>
        <trkpt lat="29.191338" lon="104.634902"><ele>413</ele><time>2025-12-30T23:01:31.000Z</time></trkpt>
        <trkpt lat="29.191331" lon="104.634901"><ele>413</ele><time>2025-12-30T23:01:32.000Z</time></trkpt>
        <trkpt lat="29.191335" lon="104.634901"><ele>414</ele><time>2025-12-30T23:01:36.000Z</time></trkpt>
        <trkpt lat="29.191325" lon="104.634901"><ele>414</ele><time>2025-12-30T23:01:38.000Z</time></trkpt>
        <trkpt lat="29.191307" lon="104.634902"><ele>415</ele><time>2025-12-30T23:01:41.000Z</time></trkpt>
        <trkpt lat="29.191298" lon="104.634904"><ele>415</ele><time>2025-12-30T23:01:42.000Z</time></trkpt>
        <trkpt lat="29.191291" lon="104.634916"><ele>415</ele><time>2025-12-30T23:01:44.000Z</time></trkpt>
        <trkpt lat="29.191251" lon="104.634929"><ele>415</ele><time>2025-12-30T23:01:51.000Z</time></trkpt>
        <trkpt lat="29.191241" lon="104.634933"><ele>415</ele><time>2025-12-30T23:02:00.000Z</time></trkpt>
        <trkpt lat="29.191241" lon="104.634933"><ele>415</ele><time>2025-12-30T23:02:01.000Z</time></trkpt>
        <trkpt lat="29.191239" lon="104.634926"><ele>416</ele><time>2025-12-30T23:02:05.000Z</time></trkpt>
        <trkpt lat="29.191241" lon="104.634925"><ele>415</ele><time>2025-12-30T23:02:07.000Z</time></trkpt>
        <trkpt lat="29.191265" lon="104.634913"><ele>415</ele><time>2025-12-30T23:02:13.000Z</time></trkpt>
        <trkpt lat="29.19136" lon="104.634868"><ele>414</ele><time>2025-12-30T23:02:22.000Z</time></trkpt>
        <trkpt lat="29.191389" lon="104.634844"><ele>414</ele><time>2025-12-30T23:02:28.000Z</time></trkpt>
        <trkpt lat="29.191376" lon="104.63484"><ele>414</ele><time>2025-12-30T23:02:29.000Z</time></trkpt>
        <trkpt lat="29.191366" lon="104.634834"><ele>414</ele><time>2025-12-30T23:02:30.000Z</time></trkpt>
        <trkpt lat="29.191333" lon="104.634837"><ele>415</ele><time>2025-12-30T23:02:34.000Z</time></trkpt>
        <trkpt lat="29.191317" lon="104.634849"><ele>416</ele><time>2025-12-30T23:02:37.000Z</time></trkpt>
        <trkpt lat="29.191312" lon="104.634854"><ele>417</ele><time>2025-12-30T23:02:38.000Z</time></trkpt>
        <trkpt lat="29.191307" lon="104.634853"><ele>417</ele><time>2025-12-30T23:02:40.000Z</time></trkpt>
        <trkpt lat="29.191301" lon="104.634842"><ele>418</ele><time>2025-12-30T23:02:43.000Z</time></trkpt>
        <trkpt lat="29.191292" lon="104.634838"><ele>418</ele><time>2025-12-30T23:02:45.000Z</time></trkpt>
        <trkpt lat="29.191253" lon="104.634844"><ele>419</ele><time>2025-12-30T23:02:50.000Z</time></trkpt>
        <trkpt lat="29.191246" lon="104.634852"><ele>419</ele><time>2025-12-30T23:02:52.000Z</time></trkpt>
        <trkpt lat="29.191212" lon="104.634858"><ele>420</ele><time>2025-12-30T23:02:56.000Z</time></trkpt>
        <trkpt lat="29.191189" lon="104.63485"><ele>420</ele><time>2025-12-30T23:03:00.000Z</time></trkpt>
        <trkpt lat="29.191168" lon="104.634832"><ele>421</ele><time>2025-12-30T23:03:05.000Z</time></trkpt>
        <trkpt lat="29.191151" lon="104.634823"><ele>421</ele><time>2025-12-30T23:03:08.000Z</time></trkpt>
        <trkpt lat="29.191123" lon="104.634819"><ele>422</ele><time>2025-12-30T23:03:11.000Z</time></trkpt>
        <trkpt lat="29.191109" lon="104.634818"><ele>422</ele><time>2025-12-30T23:03:12.000Z</time></trkpt>
        <trkpt lat="29.191097" lon="104.634833"><ele>423</ele><time>2025-12-30T23:03:15.000Z</time></trkpt>
        <trkpt lat="29.191097" lon="104.634839"><ele>423</ele><time>2025-12-30T23:03:16.000Z</time></trkpt>
        <trkpt lat="29.191104" lon="104.63483"><ele>423</ele><time>2025-12-30T23:03:23.000Z</time></trkpt>
        <trkpt lat="29.191093" lon="104.634839"><ele>423</ele><time>2025-12-30T23:03:30.000Z</time></trkpt>
        <trkpt lat="29.191084" lon="104.634831"><ele>423</ele><time>2025-12-30T23:03:35.000Z</time></trkpt>
        <trkpt lat="29.191084" lon="104.634831"><ele>423</ele><time>2025-12-30T23:03:36.000Z</time></trkpt>
        <trkpt lat="29.191086" lon="104.63483"><ele>423</ele><time>2025-12-30T23:03:37.000Z</time></trkpt>
        <trkpt lat="29.191084" lon="104.634829"><ele>423</ele><time>2025-12-30T23:03:38.000Z</time></trkpt>
        <trkpt lat="29.191072" lon="104.634824"><ele>423</ele><time>2025-12-30T23:03:43.000Z</time></trkpt>
        <trkpt lat="29.191068" lon="104.634817"><ele>423</ele><time>2025-12-30T23:03:45.000Z</time></trkpt>
        <trkpt lat="29.191065" lon="104.634823"><ele>423</ele><time>2025-12-30T23:03:53.000Z</time></trkpt>
        <trkpt lat="29.191031" lon="104.634835"><ele>423</ele><time>2025-12-30T23:04:01.000Z</time></trkpt>
        <trkpt lat="29.191013" lon="104.634846"><ele>423</ele><time>2025-12-30T23:04:05.000Z</time></trkpt>
        <trkpt lat="29.191015" lon="104.634849"><ele>423</ele><time>2025-12-30T23:04:07.000Z</time></trkpt>
        <trkpt lat="29.191013" lon="104.634892"><ele>424</ele><time>2025-12-30T23:04:11.000Z</time></trkpt>
        <trkpt lat="29.191003" lon="104.6349"><ele>424</ele><time>2025-12-30T23:04:13.000Z</time></trkpt>
        <trkpt lat="29.19099" lon="104.634893"><ele>425</ele><time>2025-12-30T23:04:19.000Z</time></trkpt>
        <trkpt lat="29.190984" lon="104.634897"><ele>425</ele><time>2025-12-30T23:04:22.000Z</time></trkpt>
        <trkpt lat="29.190951" lon="104.634911"><ele>425</ele><time>2025-12-30T23:04:26.000Z</time></trkpt>
        <trkpt lat="29.190933" lon="104.634935"><ele>425</ele><time>2025-12-30T23:04:29.000Z</time></trkpt>
        <trkpt lat="29.190893" lon="104.634937"><ele>426</ele><time>2025-12-30T23:04:34.000Z</time></trkpt>
        <trkpt lat="29.190888" lon="104.634935"><ele>426</ele><time>2025-12-30T23:04:35.000Z</time></trkpt>
        <trkpt lat="29.190874" lon="104.634945"><ele>427</ele><time>2025-12-30T23:04:39.000Z</time></trkpt>
        <trkpt lat="29.190876" lon="104.634949"><ele>428</ele><time>2025-12-30T23:04:41.000Z</time></trkpt>
        <trkpt lat="29.190863" lon="104.634968"><ele>428</ele><time>2025-12-30T23:04:45.000Z</time></trkpt>
        <trkpt lat="29.190863" lon="104.634968"><ele>429</ele><time>2025-12-30T23:04:48.000Z</time></trkpt>
        <trkpt lat="29.190863" lon="104.634968"><ele>429</ele><time>2025-12-30T23:04:49.000Z</time></trkpt>
        <trkpt lat="29.190856" lon="104.634965"><ele>430</ele><time>2025-12-30T23:04:55.000Z</time></trkpt>
        <trkpt lat="29.190859" lon="104.634953"><ele>430</ele><time>2025-12-30T23:05:01.000Z</time></trkpt>
        <trkpt lat="29.190854" lon="104.634955"><ele>430</ele><time>2025-12-30T23:05:02.000Z</time></trkpt>
        <trkpt lat="29.190846" lon="104.634956"><ele>430</ele><time>2025-12-30T23:05:03.000Z</time></trkpt>
        <trkpt lat="29.190829" lon="104.634942"><ele>431</ele><time>2025-12-30T23:05:10.000Z</time></trkpt>
        <trkpt lat="29.190829" lon="104.634941"><ele>432</ele><time>2025-12-30T23:05:11.000Z</time></trkpt>
        <trkpt lat="29.190793" lon="104.634958"><ele>432</ele><time>2025-12-30T23:05:18.000Z</time></trkpt>
        <trkpt lat="29.19078" lon="104.634961"><ele>432</ele><time>2025-12-30T23:05:22.000Z</time></trkpt>
        <trkpt lat="29.190781" lon="104.634961"><ele>432</ele><time>2025-12-30T23:05:25.000Z</time></trkpt>
        <trkpt lat="29.190738" lon="104.634956"><ele>432</ele><time>2025-12-30T23:05:32.000Z</time></trkpt>
        <trkpt lat="29.190751" lon="104.634948"><ele>432</ele><time>2025-12-30T23:05:38.000Z</time></trkpt>
        <trkpt lat="29.190753" lon="104.63495"><ele>432</ele><time>2025-12-30T23:05:42.000Z</time></trkpt>
        <trkpt lat="29.190753" lon="104.63495"><ele>432</ele><time>2025-12-30T23:05:44.000Z</time></trkpt>
        <trkpt lat="29.190751" lon="104.634947"><ele>432</ele><time>2025-12-30T23:05:47.000Z</time></trkpt>
        <trkpt lat="29.190747" lon="104.634944"><ele>432</ele><time>2025-12-30T23:05:57.000Z</time></trkpt>
        <trkpt lat="29.190759" lon="104.634944"><ele>432</ele><time>2025-12-30T23:06:03.000Z</time></trkpt>
        <trkpt lat="29.190752" lon="104.634933"><ele>432</ele><time>2025-12-30T23:06:12.000Z</time></trkpt>
        <trkpt lat="29.190757" lon="104.634919"><ele>431</ele><time>2025-12-30T23:06:22.000Z</time></trkpt>
        <trkpt lat="29.190755" lon="104.634927"><ele>431</ele><time>2025-12-30T23:06:23.000Z</time></trkpt>
        <trkpt lat="29.190751" lon="104.634929"><ele>431</ele><time>2025-12-30T23:06:26.000Z</time></trkpt>
        <trkpt lat="29.190748" lon="104.634949"><ele>431</ele><time>2025-12-30T23:06:30.000Z</time></trkpt>
        <trkpt lat="29.190748" lon="104.634958"><ele>431</ele><time>2025-12-30T23:06:31.000Z</time></trkpt>
        <trkpt lat="29.190759" lon="104.634983"><ele>431</ele><time>2025-12-30T23:06:42.000Z</time></trkpt>
        <trkpt lat="29.19077" lon="104.634959"><ele>431</ele><time>2025-12-30T23:06:49.000Z</time></trkpt>
        <trkpt lat="29.190748" lon="104.634971"><ele>432</ele><time>2025-12-30T23:06:55.000Z</time></trkpt>
        <trkpt lat="29.190745" lon="104.634954"><ele>432</ele><time>2025-12-30T23:07:00.000Z</time></trkpt>
        <trkpt lat="29.190769" lon="104.634939"><ele>431</ele><time>2025-12-30T23:07:09.000Z</time></trkpt>
        <trkpt lat="29.190813" lon="104.634987"><ele>431</ele><time>2025-12-30T23:07:15.000Z</time></trkpt>
        <trkpt lat="29.190804" lon="104.634991"><ele>432</ele><time>2025-12-30T23:07:16.000Z</time></trkpt>
        <trkpt lat="29.190794" lon="104.635002"><ele>432</ele><time>2025-12-30T23:07:19.000Z</time></trkpt>
        <trkpt lat="29.190786" lon="104.635009"><ele>433</ele><time>2025-12-30T23:07:20.000Z</time></trkpt>
        <trkpt lat="29.190766" lon="104.635026"><ele>434</ele><time>2025-12-30T23:07:23.000Z</time></trkpt>
        <trkpt lat="29.190759" lon="104.635032"><ele>434</ele><time>2025-12-30T23:07:25.000Z</time></trkpt>
        <trkpt lat="29.190754" lon="104.635031"><ele>435</ele><time>2025-12-30T23:07:28.000Z</time></trkpt>
        <trkpt lat="29.190752" lon="104.635031"><ele>435</ele><time>2025-12-30T23:07:32.000Z</time></trkpt>
        <trkpt lat="29.190757" lon="104.63503"><ele>435</ele><time>2025-12-30T23:07:33.000Z</time></trkpt>
        <trkpt lat="29.190734" lon="104.635021"><ele>435</ele><time>2025-12-30T23:07:39.000Z</time></trkpt>
        <trkpt lat="29.190722" lon="104.635022"><ele>435</ele><time>2025-12-30T23:07:41.000Z</time></trkpt>
        <trkpt lat="29.190727" lon="104.63504"><ele>435</ele><time>2025-12-30T23:07:49.000Z</time></trkpt>
        <trkpt lat="29.190739" lon="104.635038"><ele>435</ele><time>2025-12-30T23:07:52.000Z</time></trkpt>
        <trkpt lat="29.190745" lon="104.635027"><ele>435</ele><time>2025-12-30T23:07:54.000Z</time></trkpt>
        <trkpt lat="29.190755" lon="104.635009"><ele>435</ele><time>2025-12-30T23:07:59.000Z</time></trkpt>
        <trkpt lat="29.190753" lon="104.635"><ele>436</ele><time>2025-12-30T23:08:06.000Z</time></trkpt>
        <trkpt lat="29.190756" lon="104.634994"><ele>436</ele><time>2025-12-30T23:08:08.000Z</time></trkpt>
        <trkpt lat="29.190758" lon="104.635001"><ele>436</ele><time>2025-12-30T23:08:11.000Z</time></trkpt>
        <trkpt lat="29.190751" lon="104.635034"><ele>435</ele><time>2025-12-30T23:08:18.000Z</time></trkpt>
        <trkpt lat="29.190744" lon="104.635039"><ele>435</ele><time>2025-12-30T23:08:26.000Z</time></trkpt>
        <trkpt lat="29.190748" lon="104.635033"><ele>435</ele><time>2025-12-30T23:08:38.000Z</time></trkpt>
        <trkpt lat="29.190744" lon="104.635014"><ele>435</ele><time>2025-12-30T23:08:48.000Z</time></trkpt>
        <trkpt lat="29.190738" lon="104.635007"><ele>435</ele><time>2025-12-30T23:08:54.000Z</time></trkpt>
        <trkpt lat="29.190723" lon="104.635025"><ele>435</ele><time>2025-12-30T23:09:01.000Z</time></trkpt>
        <trkpt lat="29.190723" lon="104.635042"><ele>436</ele><time>2025-12-30T23:09:03.000Z</time></trkpt>
        <trkpt lat="29.190716" lon="104.635059"><ele>436</ele><time>2025-12-30T23:09:05.000Z</time></trkpt>
        <trkpt lat="29.190713" lon="104.635068"><ele>436</ele><time>2025-12-30T23:09:06.000Z</time></trkpt>
        <trkpt lat="29.190698" lon="104.635083"><ele>437</ele><time>2025-12-30T23:09:08.000Z</time></trkpt>
        <trkpt lat="29.190681" lon="104.635083"><ele>436</ele><time>2025-12-30T23:09:13.000Z</time></trkpt>
        <trkpt lat="29.190679" lon="104.63508"><ele>436</ele><time>2025-12-30T23:09:16.000Z</time></trkpt>
        <trkpt lat="29.190683" lon="104.635072"><ele>437</ele><time>2025-12-30T23:09:21.000Z</time></trkpt>
        <trkpt lat="29.190691" lon="104.635064"><ele>436</ele><time>2025-12-30T23:09:32.000Z</time></trkpt>
        <trkpt lat="29.190673" lon="104.635098"><ele>437</ele><time>2025-12-30T23:09:42.000Z</time></trkpt>
        <trkpt lat="29.190671" lon="104.635103"><ele>437</ele><time>2025-12-30T23:09:43.000Z</time></trkpt>
        <trkpt lat="29.190665" lon="104.635124"><ele>436</ele><time>2025-12-30T23:09:51.000Z</time></trkpt>
        <trkpt lat="29.190663" lon="104.635127"><ele>436</ele><time>2025-12-30T23:10:01.000Z</time></trkpt>
        <trkpt lat="29.190663" lon="104.635106"><ele>436</ele><time>2025-12-30T23:10:09.000Z</time></trkpt>
        <trkpt lat="29.190672" lon="104.635113"><ele>436</ele><time>2025-12-30T23:10:17.000Z</time></trkpt>
        <trkpt lat="29.190661" lon="104.635151"><ele>435</ele><time>2025-12-30T23:10:24.000Z</time></trkpt>
        <trkpt lat="29.190667" lon="104.635151"><ele>435</ele><time>2025-12-30T23:10:30.000Z</time></trkpt>
        <trkpt lat="29.190661" lon="104.635157"><ele>435</ele><time>2025-12-30T23:10:35.000Z</time></trkpt>
        <trkpt lat="29.19066" lon="104.635157"><ele>434</ele><time>2025-12-30T23:10:45.000Z</time></trkpt>
        <trkpt lat="29.190671" lon="104.635145"><ele>434</ele><time>2025-12-30T23:10:55.000Z</time></trkpt>
        <trkpt lat="29.190671" lon="104.635145"><ele>434</ele><time>2025-12-30T23:10:56.000Z</time></trkpt>
        <trkpt lat="29.190656" lon="104.635143"><ele>434</ele><time>2025-12-30T23:11:09.000Z</time></trkpt>
        <trkpt lat="29.190658" lon="104.635142"><ele>434</ele><time>2025-12-30T23:11:10.000Z</time></trkpt>
        <trkpt lat="29.190665" lon="104.635168"><ele>434</ele><time>2025-12-30T23:11:19.000Z</time></trkpt>
        <trkpt lat="29.190656" lon="104.635175"><ele>434</ele><time>2025-12-30T23:11:25.000Z</time></trkpt>
        <trkpt lat="29.190656" lon="104.635164"><ele>434</ele><time>2025-12-30T23:11:28.000Z</time></trkpt>
        <trkpt lat="29.190667" lon="104.635164"><ele>434</ele><time>2025-12-30T23:11:37.000Z</time></trkpt>
        <trkpt lat="29.190666" lon="104.635158"><ele>434</ele><time>2025-12-30T23:11:48.000Z</time></trkpt>
        <trkpt lat="29.190672" lon="104.635121"><ele>434</ele><time>2025-12-30T23:11:56.000Z</time></trkpt>
        <trkpt lat="29.190656" lon="104.635143"><ele>434</ele><time>2025-12-30T23:12:05.000Z</time></trkpt>
        <trkpt lat="29.190655" lon="104.635141"><ele>434</ele><time>2025-12-30T23:12:07.000Z</time></trkpt>
        <trkpt lat="29.190658" lon="104.635133"><ele>435</ele><time>2025-12-30T23:12:08.000Z</time></trkpt>
        <trkpt lat="29.190659" lon="104.635125"><ele>434</ele><time>2025-12-30T23:12:09.000Z</time></trkpt>
        <trkpt lat="29.190658" lon="104.635114"><ele>434</ele><time>2025-12-30T23:12:11.000Z</time></trkpt>
        <trkpt lat="29.190657" lon="104.635112"><ele>434</ele><time>2025-12-30T23:12:12.000Z</time></trkpt>
        <trkpt lat="29.190647" lon="104.635113"><ele>434</ele><time>2025-12-30T23:12:20.000Z</time></trkpt>
        <trkpt lat="29.190652" lon="104.635099"><ele>434</ele><time>2025-12-30T23:12:28.000Z</time></trkpt>
        <trkpt lat="29.190652" lon="104.635098"><ele>434</ele><time>2025-12-30T23:12:30.000Z</time></trkpt>
        <trkpt lat="29.190655" lon="104.635092"><ele>434</ele><time>2025-12-30T23:12:33.000Z</time></trkpt>
        <trkpt lat="29.190659" lon="104.635098"><ele>434</ele><time>2025-12-30T23:12:46.000Z</time></trkpt>
        <trkpt lat="29.190655" lon="104.635103"><ele>434</ele><time>2025-12-30T23:12:51.000Z</time></trkpt>
        <trkpt lat="29.190655" lon="104.635103"><ele>434</ele><time>2025-12-30T23:12:53.000Z</time></trkpt>
        <trkpt lat="29.19065" lon="104.635105"><ele>434</ele><time>2025-12-30T23:13:01.000Z</time></trkpt>
        <trkpt lat="29.190653" lon="104.635113"><ele>434</ele><time>2025-12-30T23:13:12.000Z</time></trkpt>
        <trkpt lat="29.190657" lon="104.635123"><ele>434</ele><time>2025-12-30T23:13:15.000Z</time></trkpt>
        <trkpt lat="29.190661" lon="104.635115"><ele>434</ele><time>2025-12-30T23:13:18.000Z</time></trkpt>
        <trkpt lat="29.190659" lon="104.635117"><ele>434</ele><time>2025-12-30T23:13:21.000Z</time></trkpt>
        <trkpt lat="29.190648" lon="104.635109"><ele>434</ele><time>2025-12-30T23:13:32.000Z</time></trkpt>
        <trkpt lat="29.190637" lon="104.635129"><ele>434</ele><time>2025-12-30T23:13:40.000Z</time></trkpt>
        <trkpt lat="29.190637" lon="104.635145"><ele>433</ele><time>2025-12-30T23:13:46.000Z</time></trkpt>
        <trkpt lat="29.190641" lon="104.635156"><ele>433</ele><time>2025-12-30T23:13:49.000Z</time></trkpt>
        <trkpt lat="29.190637" lon="104.635167"><ele>433</ele><time>2025-12-30T23:13:57.000Z</time></trkpt>
        <trkpt lat="29.190619" lon="104.635187"><ele>433</ele><time>2025-12-30T23:14:00.000Z</time></trkpt>
        <trkpt lat="29.190602" lon="104.635213"><ele>432</ele><time>2025-12-30T23:14:04.000Z</time></trkpt>
        <trkpt lat="29.190598" lon="104.635231"><ele>431</ele><time>2025-12-30T23:14:11.000Z</time></trkpt>
        <trkpt lat="29.190595" lon="104.635242"><ele>430</ele><time>2025-12-30T23:14:14.000Z</time></trkpt>
        <trkpt lat="29.190593" lon="104.635246"><ele>430</ele><time>2025-12-30T23:14:15.000Z</time></trkpt>
        <trkpt lat="29.190602" lon="104.635247"><ele>429</ele><time>2025-12-30T23:14:25.000Z</time></trkpt>
        <trkpt lat="29.190604" lon="104.63526"><ele>429</ele><time>2025-12-30T23:14:28.000Z</time></trkpt>
        <trkpt lat="29.190603" lon="104.635265"><ele>429</ele><time>2025-12-30T23:14:30.000Z</time></trkpt>
        <trkpt lat="29.190591" lon="104.635287"><ele>428</ele><time>2025-12-30T23:14:34.000Z</time></trkpt>
        <trkpt lat="29.190583" lon="104.635293"><ele>428</ele><time>2025-12-30T23:14:35.000Z</time></trkpt>
        <trkpt lat="29.190595" lon="104.635293"><ele>427</ele><time>2025-12-30T23:14:41.000Z</time></trkpt>
        <trkpt lat="29.190602" lon="104.63529"><ele>426</ele><time>2025-12-30T23:14:42.000Z</time></trkpt>
        <trkpt lat="29.190618" lon="104.635299"><ele>426</ele><time>2025-12-30T23:14:45.000Z</time></trkpt>
        <trkpt lat="29.190621" lon="104.635308"><ele>426</ele><time>2025-12-30T23:14:47.000Z</time></trkpt>
        <trkpt lat="29.190613" lon="104.635319"><ele>425</ele><time>2025-12-30T23:14:50.000Z</time></trkpt>
        <trkpt lat="29.190604" lon="104.635319"><ele>425</ele><time>2025-12-30T23:14:53.000Z</time></trkpt>
        <trkpt lat="29.190591" lon="104.63532"><ele>424</ele><time>2025-12-30T23:14:58.000Z</time></trkpt>
        <trkpt lat="29.190596" lon="104.63532"><ele>424</ele><time>2025-12-30T23:15:03.000Z</time></trkpt>
        <trkpt lat="29.190596" lon="104.635321"><ele>424</ele><time>2025-12-30T23:15:04.000Z</time></trkpt>
        <trkpt lat="29.190602" lon="104.635327"><ele>424</ele><time>2025-12-30T23:15:07.000Z</time></trkpt>
        <trkpt lat="29.190602" lon="104.635327"><ele>424</ele><time>2025-12-30T23:15:14.000Z</time></trkpt>
        <trkpt lat="29.190602" lon="104.635327"><ele>424</ele><time>2025-12-30T23:15:18.000Z</time></trkpt>
        <trkpt lat="29.190602" lon="104.635327"><ele>423</ele><time>2025-12-30T23:15:23.000Z</time></trkpt>
        <trkpt lat="29.190598" lon="104.635322"><ele>423</ele><time>2025-12-30T23:15:28.000Z</time></trkpt>
        <trkpt lat="29.190598" lon="104.635329"><ele>422</ele><time>2025-12-30T23:15:30.000Z</time></trkpt>
        <trkpt lat="29.190588" lon="104.635328"><ele>421</ele><time>2025-12-30T23:15:32.000Z</time></trkpt>
        <trkpt lat="29.190588" lon="104.635337"><ele>420</ele><time>2025-12-30T23:15:35.000Z</time></trkpt>
        <trkpt lat="29.190594" lon="104.635344"><ele>420</ele><time>2025-12-30T23:15:44.000Z</time></trkpt>
        <trkpt lat="29.190594" lon="104.635345"><ele>420</ele><time>2025-12-30T23:15:45.000Z</time></trkpt>
        <trkpt lat="29.190575" lon="104.635336"><ele>419</ele><time>2025-12-30T23:15:51.000Z</time></trkpt>
        <trkpt lat="29.190568" lon="104.635328"><ele>419</ele><time>2025-12-30T23:15:53.000Z</time></trkpt>
        <trkpt lat="29.190564" lon="104.635355"><ele>419</ele><time>2025-12-30T23:15:57.000Z</time></trkpt>
        <trkpt lat="29.190535" lon="104.635405"><ele>418</ele><time>2025-12-30T23:16:03.000Z</time></trkpt>
        <trkpt lat="29.190503" lon="104.63543"><ele>418</ele><time>2025-12-30T23:16:09.000Z</time></trkpt>
        <trkpt lat="29.190481" lon="104.635454"><ele>419</ele><time>2025-12-30T23:16:16.000Z</time></trkpt>
        <trkpt lat="29.190458" lon="104.6355"><ele>419</ele><time>2025-12-30T23:16:22.000Z</time></trkpt>
        <trkpt lat="29.190452" lon="104.635571"><ele>420</ele><time>2025-12-30T23:16:28.000Z</time></trkpt>
        <trkpt lat="29.19045" lon="104.635591"><ele>420</ele><time>2025-12-30T23:16:30.000Z</time></trkpt>
        <trkpt lat="29.190438" lon="104.635603"><ele>421</ele><time>2025-12-30T23:16:35.000Z</time></trkpt>
        <trkpt lat="29.190419" lon="104.635639"><ele>421</ele><time>2025-12-30T23:16:40.000Z</time></trkpt>
        <trkpt lat="29.190413" lon="104.635643"><ele>421</ele><time>2025-12-30T23:16:41.000Z</time></trkpt>
        <trkpt lat="29.190392" lon="104.635661"><ele>422</ele><time>2025-12-30T23:16:44.000Z</time></trkpt>
        <trkpt lat="29.190384" lon="104.635672"><ele>422</ele><time>2025-12-30T23:16:46.000Z</time></trkpt>
        <trkpt lat="29.19032" lon="104.635727"><ele>423</ele><time>2025-12-30T23:16:54.000Z</time></trkpt>
        <trkpt lat="29.19029" lon="104.635741"><ele>424</ele><time>2025-12-30T23:17:01.000Z</time></trkpt>
        <trkpt lat="29.190294" lon="104.635734"><ele>424</ele><time>2025-12-30T23:17:03.000Z</time></trkpt>
        <trkpt lat="29.19031" lon="104.635737"><ele>424</ele><time>2025-12-30T23:17:10.000Z</time></trkpt>
        <trkpt lat="29.190323" lon="104.63574"><ele>424</ele><time>2025-12-30T23:17:11.000Z</time></trkpt>
        <trkpt lat="29.190332" lon="104.635744"><ele>424</ele><time>2025-12-30T23:17:16.000Z</time></trkpt>
        <trkpt lat="29.19032" lon="104.635743"><ele>424</ele><time>2025-12-30T23:17:21.000Z</time></trkpt>
        <trkpt lat="29.190315" lon="104.635748"><ele>424</ele><time>2025-12-30T23:17:29.000Z</time></trkpt>
        <trkpt lat="29.190286" lon="104.63576"><ele>424</ele><time>2025-12-30T23:17:35.000Z</time></trkpt>
        <trkpt lat="29.190283" lon="104.635763"><ele>424</ele><time>2025-12-30T23:17:37.000Z</time></trkpt>
        <trkpt lat="29.19028" lon="104.635765"><ele>424</ele><time>2025-12-30T23:17:40.000Z</time></trkpt>
        <trkpt lat="29.19029" lon="104.635767"><ele>424</ele><time>2025-12-30T23:17:44.000Z</time></trkpt>
        <trkpt lat="29.190248" lon="104.635793"><ele>424</ele><time>2025-12-30T23:17:52.000Z</time></trkpt>
        <trkpt lat="29.19022" lon="104.635799"><ele>425</ele><time>2025-12-30T23:17:54.000Z</time></trkpt>
        <trkpt lat="29.19021" lon="104.635803"><ele>425</ele><time>2025-12-30T23:17:55.000Z</time></trkpt>
        <trkpt lat="29.190204" lon="104.635806"><ele>425</ele><time>2025-12-30T23:17:56.000Z</time></trkpt>
        <trkpt lat="29.190199" lon="104.635808"><ele>425</ele><time>2025-12-30T23:17:57.000Z</time></trkpt>
        <trkpt lat="29.190142" lon="104.635823"><ele>425</ele><time>2025-12-30T23:18:03.000Z</time></trkpt>
        <trkpt lat="29.190118" lon="104.635827"><ele>426</ele><time>2025-12-30T23:18:05.000Z</time></trkpt>
        <trkpt lat="29.190087" lon="104.63583"><ele>426</ele><time>2025-12-30T23:18:09.000Z</time></trkpt>
        <trkpt lat="29.190073" lon="104.635842"><ele>427</ele><time>2025-12-30T23:18:11.000Z</time></trkpt>
        <trkpt lat="29.190053" lon="104.635859"><ele>428</ele><time>2025-12-30T23:18:14.000Z</time></trkpt>
        <trkpt lat="29.190055" lon="104.635865"><ele>428</ele><time>2025-12-30T23:18:15.000Z</time></trkpt>
        <trkpt lat="29.190045" lon="104.635884"><ele>429</ele><time>2025-12-30T23:18:20.000Z</time></trkpt>
        <trkpt lat="29.190037" lon="104.635894"><ele>429</ele><time>2025-12-30T23:18:22.000Z</time></trkpt>
        <trkpt lat="29.19002" lon="104.635909"><ele>430</ele><time>2025-12-30T23:18:25.000Z</time></trkpt>
        <trkpt lat="29.190004" lon="104.635918"><ele>430</ele><time>2025-12-30T23:18:27.000Z</time></trkpt>
        <trkpt lat="29.189996" lon="104.635924"><ele>430</ele><time>2025-12-30T23:18:28.000Z</time></trkpt>
        <trkpt lat="29.189968" lon="104.635952"><ele>431</ele><time>2025-12-30T23:18:32.000Z</time></trkpt>
        <trkpt lat="29.189924" lon="104.635981"><ele>431</ele><time>2025-12-30T23:18:36.000Z</time></trkpt>
        <trkpt lat="29.189914" lon="104.635989"><ele>431</ele><time>2025-12-30T23:18:38.000Z</time></trkpt>
        <trkpt lat="29.189883" lon="104.636023"><ele>432</ele><time>2025-12-30T23:18:43.000Z</time></trkpt>
        <trkpt lat="29.189882" lon="104.636036"><ele>432</ele><time>2025-12-30T23:18:45.000Z</time></trkpt>
        <trkpt lat="29.189888" lon="104.636049"><ele>432</ele><time>2025-12-30T23:18:47.000Z</time></trkpt>
        <trkpt lat="29.189891" lon="104.636056"><ele>432</ele><time>2025-12-30T23:18:48.000Z</time></trkpt>
        <trkpt lat="29.189929" lon="104.636086"><ele>433</ele><time>2025-12-30T23:18:54.000Z</time></trkpt>
        <trkpt lat="29.189932" lon="104.636076"><ele>433</ele><time>2025-12-30T23:18:55.000Z</time></trkpt>
        <trkpt lat="29.189952" lon="104.636042"><ele>433</ele><time>2025-12-30T23:18:59.000Z</time></trkpt>
        <trkpt lat="29.18997" lon="104.636026"><ele>434</ele><time>2025-12-30T23:19:03.000Z</time></trkpt>
        <trkpt lat="29.189973" lon="104.636021"><ele>434</ele><time>2025-12-30T23:19:07.000Z</time></trkpt>
        <trkpt lat="29.189984" lon="104.636016"><ele>434</ele><time>2025-12-30T23:19:10.000Z</time></trkpt>
        <trkpt lat="29.189976" lon="104.636021"><ele>435</ele><time>2025-12-30T23:19:16.000Z</time></trkpt>
        <trkpt lat="29.189979" lon="104.635987"><ele>435</ele><time>2025-12-30T23:19:22.000Z</time></trkpt>
        <trkpt lat="29.189989" lon="104.635968"><ele>436</ele><time>2025-12-30T23:19:24.000Z</time></trkpt>
        <trkpt lat="29.190002" lon="104.635956"><ele>436</ele><time>2025-12-30T23:19:26.000Z</time></trkpt>
        <trkpt lat="29.190037" lon="104.635958"><ele>437</ele><time>2025-12-30T23:19:31.000Z</time></trkpt>
        <trkpt lat="29.190046" lon="104.635957"><ele>437</ele><time>2025-12-30T23:19:34.000Z</time></trkpt>
        <trkpt lat="29.190071" lon="104.635982"><ele>438</ele><time>2025-12-30T23:19:39.000Z</time></trkpt>
        <trkpt lat="29.190131" lon="104.635963"><ele>438</ele><time>2025-12-30T23:19:46.000Z</time></trkpt>
        <trkpt lat="29.190163" lon="104.635951"><ele>438</ele><time>2025-12-30T23:19:51.000Z</time></trkpt>
        <trkpt lat="29.190172" lon="104.635953"><ele>439</ele><time>2025-12-30T23:19:52.000Z</time></trkpt>
        <trkpt lat="29.19023" lon="104.635951"><ele>440</ele><time>2025-12-30T23:20:00.000Z</time></trkpt>
        <trkpt lat="29.190252" lon="104.635936"><ele>441</ele><time>2025-12-30T23:20:04.000Z</time></trkpt>
        <trkpt lat="29.190279" lon="104.63593"><ele>441</ele><time>2025-12-30T23:20:08.000Z</time></trkpt>
        <trkpt lat="29.190288" lon="104.635931"><ele>442</ele><time>2025-12-30T23:20:09.000Z</time></trkpt>
        <trkpt lat="29.190332" lon="104.63596"><ele>442</ele><time>2025-12-30T23:20:17.000Z</time></trkpt>
        <trkpt lat="29.190353" lon="104.635977"><ele>443</ele><time>2025-12-30T23:20:20.000Z</time></trkpt>
        <trkpt lat="29.190348" lon="104.635975"><ele>443</ele><time>2025-12-30T23:20:25.000Z</time></trkpt>
        <trkpt lat="29.190347" lon="104.635978"><ele>443</ele><time>2025-12-30T23:20:31.000Z</time></trkpt>
        <trkpt lat="29.190345" lon="104.635987"><ele>443</ele><time>2025-12-30T23:20:33.000Z</time></trkpt>
        <trkpt lat="29.19035" lon="104.635981"><ele>443</ele><time>2025-12-30T23:20:42.000Z</time></trkpt>
        <trkpt lat="29.190351" lon="104.635981"><ele>443</ele><time>2025-12-30T23:20:45.000Z</time></trkpt>
        <trkpt lat="29.190359" lon="104.635977"><ele>443</ele><time>2025-12-30T23:20:52.000Z</time></trkpt>
        <trkpt lat="29.190388" lon="104.635985"><ele>443</ele><time>2025-12-30T23:20:56.000Z</time></trkpt>
        <trkpt lat="29.190418" lon="104.635996"><ele>443</ele><time>2025-12-30T23:20:58.000Z</time></trkpt>
        <trkpt lat="29.190452" lon="104.636015"><ele>444</ele><time>2025-12-30T23:21:04.000Z</time></trkpt>
        <trkpt lat="29.190457" lon="104.636027"><ele>444</ele><time>2025-12-30T23:21:06.000Z</time></trkpt>
        <trkpt lat="29.190445" lon="104.636043"><ele>445</ele><time>2025-12-30T23:21:15.000Z</time></trkpt>
        <trkpt lat="29.190462" lon="104.636051"><ele>444</ele><time>2025-12-30T23:21:21.000Z</time></trkpt>
        <trkpt lat="29.190462" lon="104.636047"><ele>444</ele><time>2025-12-30T23:21:22.000Z</time></trkpt>
        <trkpt lat="29.190486" lon="104.636053"><ele>444</ele><time>2025-12-30T23:21:28.000Z</time></trkpt>
        <trkpt lat="29.190487" lon="104.636051"><ele>445</ele><time>2025-12-30T23:21:29.000Z</time></trkpt>
        <trkpt lat="29.190489" lon="104.636052"><ele>445</ele><time>2025-12-30T23:21:30.000Z</time></trkpt>
        <trkpt lat="29.190526" lon="104.636095"><ele>445</ele><time>2025-12-30T23:21:36.000Z</time></trkpt>
        <trkpt lat="29.190577" lon="104.636143"><ele>445</ele><time>2025-12-30T23:21:44.000Z</time></trkpt>
        <trkpt lat="29.190576" lon="104.636134"><ele>445</ele><time>2025-12-30T23:21:50.000Z</time></trkpt>
        <trkpt lat="29.190585" lon="104.636137"><ele>445</ele><time>2025-12-30T23:21:53.000Z</time></trkpt>
        <trkpt lat="29.190631" lon="104.636172"><ele>446</ele><time>2025-12-30T23:22:00.000Z</time></trkpt>
        <trkpt lat="29.190652" lon="104.636196"><ele>446</ele><time>2025-12-30T23:22:03.000Z</time></trkpt>
        <trkpt lat="29.19067" lon="104.636219"><ele>446</ele><time>2025-12-30T23:22:05.000Z</time></trkpt>
        <trkpt lat="29.190676" lon="104.63623"><ele>446</ele><time>2025-12-30T23:22:07.000Z</time></trkpt>
        <trkpt lat="29.190683" lon="104.636241"><ele>447</ele><time>2025-12-30T23:22:10.000Z</time></trkpt>
        <trkpt lat="29.190691" lon="104.636257"><ele>447</ele><time>2025-12-30T23:22:13.000Z</time></trkpt>
        <trkpt lat="29.190726" lon="104.636269"><ele>448</ele><time>2025-12-30T23:22:18.000Z</time></trkpt>
        <trkpt lat="29.190737" lon="104.636264"><ele>447</ele><time>2025-12-30T23:22:26.000Z</time></trkpt>
        <trkpt lat="29.190743" lon="104.636272"><ele>448</ele><time>2025-12-30T23:22:29.000Z</time></trkpt>
        <trkpt lat="29.190742" lon="104.636276"><ele>448</ele><time>2025-12-30T23:22:31.000Z</time></trkpt>
        <trkpt lat="29.19074" lon="104.636281"><ele>448</ele><time>2025-12-30T23:22:34.000Z</time></trkpt>
        <trkpt lat="29.190744" lon="104.636303"><ele>447</ele><time>2025-12-30T23:22:43.000Z</time></trkpt>
        <trkpt lat="29.190749" lon="104.636306"><ele>447</ele><time>2025-12-30T23:22:44.000Z</time></trkpt>
        <trkpt lat="29.190768" lon="104.63633"><ele>447</ele><time>2025-12-30T23:22:52.000Z</time></trkpt>
        <trkpt lat="29.19077" lon="104.636336"><ele>448</ele><time>2025-12-30T23:22:54.000Z</time></trkpt>
        <trkpt lat="29.190734" lon="104.636325"><ele>449</ele><time>2025-12-30T23:23:03.000Z</time></trkpt>
        <trkpt lat="29.190724" lon="104.636332"><ele>449</ele><time>2025-12-30T23:23:07.000Z</time></trkpt>
        <trkpt lat="29.190725" lon="104.636332"><ele>449</ele><time>2025-12-30T23:23:08.000Z</time></trkpt>
        <trkpt lat="29.190725" lon="104.636332"><ele>449</ele><time>2025-12-30T23:23:09.000Z</time></trkpt>
        <trkpt lat="29.190719" lon="104.63633"><ele>448</ele><time>2025-12-30T23:23:11.000Z</time></trkpt>
        <trkpt lat="29.190729" lon="104.636308"><ele>448</ele><time>2025-12-30T23:23:17.000Z</time></trkpt>
        <trkpt lat="29.190737" lon="104.636309"><ele>449</ele><time>2025-12-30T23:23:21.000Z</time></trkpt>
        <trkpt lat="29.190748" lon="104.636311"><ele>449</ele><time>2025-12-30T23:23:28.000Z</time></trkpt>
        <trkpt lat="29.190746" lon="104.6363"><ele>449</ele><time>2025-12-30T23:23:36.000Z</time></trkpt>
        <trkpt lat="29.190749" lon="104.636304"><ele>449</ele><time>2025-12-30T23:23:37.000Z</time></trkpt>
        <trkpt lat="29.190761" lon="104.636318"><ele>451</ele><time>2025-12-30T23:23:41.000Z</time></trkpt>
        <trkpt lat="29.190763" lon="104.636334"><ele>451</ele><time>2025-12-30T23:23:43.000Z</time></trkpt>
        <trkpt lat="29.190772" lon="104.636335"><ele>451</ele><time>2025-12-30T23:23:49.000Z</time></trkpt>
        <trkpt lat="29.190774" lon="104.636335"><ele>452</ele><time>2025-12-30T23:23:50.000Z</time></trkpt>
        <trkpt lat="29.190767" lon="104.636335"><ele>452</ele><time>2025-12-30T23:23:56.000Z</time></trkpt>
        <trkpt lat="29.190766" lon="104.636333"><ele>452</ele><time>2025-12-30T23:23:57.000Z</time></trkpt>
        <trkpt lat="29.190765" lon="104.636336"><ele>452</ele><time>2025-12-30T23:24:00.000Z</time></trkpt>
        <trkpt lat="29.190766" lon="104.636339"><ele>452</ele><time>2025-12-30T23:24:02.000Z</time></trkpt>
        <trkpt lat="29.19078" lon="104.636344"><ele>452</ele><time>2025-12-30T23:24:04.000Z</time></trkpt>
        <trkpt lat="29.190787" lon="104.636347"><ele>453</ele><time>2025-12-30T23:24:05.000Z</time></trkpt>
        <trkpt lat="29.190802" lon="104.636367"><ele>454</ele><time>2025-12-30T23:24:09.000Z</time></trkpt>
        <trkpt lat="29.19081" lon="104.63637"><ele>454</ele><time>2025-12-30T23:24:11.000Z</time></trkpt>
        <trkpt lat="29.190814" lon="104.636379"><ele>455</ele><time>2025-12-30T23:24:13.000Z</time></trkpt>
        <trkpt lat="29.190831" lon="104.636392"><ele>456</ele><time>2025-12-30T23:24:18.000Z</time></trkpt>
        <trkpt lat="29.190857" lon="104.636401"><ele>457</ele><time>2025-12-30T23:24:21.000Z</time></trkpt>
        <trkpt lat="29.190863" lon="104.636405"><ele>457</ele><time>2025-12-30T23:24:22.000Z</time></trkpt>
        <trkpt lat="29.190884" lon="104.636413"><ele>458</ele><time>2025-12-30T23:24:25.000Z</time></trkpt>
        <trkpt lat="29.190895" lon="104.636412"><ele>458</ele><time>2025-12-30T23:24:27.000Z</time></trkpt>
        <trkpt lat="29.190952" lon="104.636419"><ele>459</ele><time>2025-12-30T23:24:34.000Z</time></trkpt>
        <trkpt lat="29.191007" lon="104.636436"><ele>459</ele><time>2025-12-30T23:24:40.000Z</time></trkpt>
        <trkpt lat="29.191043" lon="104.636455"><ele>458</ele><time>2025-12-30T23:24:44.000Z</time></trkpt>
        <trkpt lat="29.191061" lon="104.636465"><ele>458</ele><time>2025-12-30T23:24:47.000Z</time></trkpt>
        <trkpt lat="29.191102" lon="104.636486"><ele>457</ele><time>2025-12-30T23:24:53.000Z</time></trkpt>
        <trkpt lat="29.191108" lon="104.636491"><ele>457</ele><time>2025-12-30T23:24:54.000Z</time></trkpt>
        <trkpt lat="29.19111" lon="104.636495"><ele>456</ele><time>2025-12-30T23:24:56.000Z</time></trkpt>
        <trkpt lat="29.19112" lon="104.636507"><ele>455</ele><time>2025-12-30T23:24:59.000Z</time></trkpt>
        <trkpt lat="29.191131" lon="104.636519"><ele>454</ele><time>2025-12-30T23:25:01.000Z</time></trkpt>
        <trkpt lat="29.191135" lon="104.636514"><ele>454</ele><time>2025-12-30T23:25:03.000Z</time></trkpt>
        <trkpt lat="29.191143" lon="104.636508"><ele>454</ele><time>2025-12-30T23:25:04.000Z</time></trkpt>
        <trkpt lat="29.191163" lon="104.636498"><ele>453</ele><time>2025-12-30T23:25:06.000Z</time></trkpt>
        <trkpt lat="29.191177" lon="104.636479"><ele>453</ele><time>2025-12-30T23:25:08.000Z</time></trkpt>
        <trkpt lat="29.191184" lon="104.63648"><ele>452</ele><time>2025-12-30T23:25:12.000Z</time></trkpt>
        <trkpt lat="29.191194" lon="104.636478"><ele>452</ele><time>2025-12-30T23:25:15.000Z</time></trkpt>
        <trkpt lat="29.191202" lon="104.63647"><ele>450</ele><time>2025-12-30T23:25:19.000Z</time></trkpt>
        <trkpt lat="29.191219" lon="104.636461"><ele>450</ele><time>2025-12-30T23:25:24.000Z</time></trkpt>
        <trkpt lat="29.191228" lon="104.636461"><ele>450</ele><time>2025-12-30T23:25:27.000Z</time></trkpt>
        <trkpt lat="29.191237" lon="104.636456"><ele>449</ele><time>2025-12-30T23:25:29.000Z</time></trkpt>
        <trkpt lat="29.191244" lon="104.636451"><ele>449</ele><time>2025-12-30T23:25:31.000Z</time></trkpt>
        <trkpt lat="29.191251" lon="104.636456"><ele>448</ele><time>2025-12-30T23:25:33.000Z</time></trkpt>
        <trkpt lat="29.191257" lon="104.636458"><ele>448</ele><time>2025-12-30T23:25:34.000Z</time></trkpt>
        <trkpt lat="29.191263" lon="104.636459"><ele>448</ele><time>2025-12-30T23:25:35.000Z</time></trkpt>
        <trkpt lat="29.191281" lon="104.636458"><ele>447</ele><time>2025-12-30T23:25:38.000Z</time></trkpt>
        <trkpt lat="29.191293" lon="104.636457"><ele>446</ele><time>2025-12-30T23:25:43.000Z</time></trkpt>
        <trkpt lat="29.1913" lon="104.636463"><ele>446</ele><time>2025-12-30T23:25:47.000Z</time></trkpt>
        <trkpt lat="29.191305" lon="104.636464"><ele>445</ele><time>2025-12-30T23:25:50.000Z</time></trkpt>
        <trkpt lat="29.191309" lon="104.636464"><ele>445</ele><time>2025-12-30T23:25:51.000Z</time></trkpt>
        <trkpt lat="29.191328" lon="104.636471"><ele>444</ele><time>2025-12-30T23:25:56.000Z</time></trkpt>
        <trkpt lat="29.191329" lon="104.636478"><ele>443</ele><time>2025-12-30T23:25:58.000Z</time></trkpt>
        <trkpt lat="29.191333" lon="104.636482"><ele>443</ele><time>2025-12-30T23:25:59.000Z</time></trkpt>
        <trkpt lat="29.191343" lon="104.636489"><ele>442</ele><time>2025-12-30T23:26:01.000Z</time></trkpt>
        <trkpt lat="29.191358" lon="104.636485"><ele>441</ele><time>2025-12-30T23:26:04.000Z</time></trkpt>
        <trkpt lat="29.191386" lon="104.636471"><ele>440</ele><time>2025-12-30T23:26:07.000Z</time></trkpt>
        <trkpt lat="29.191404" lon="104.636469"><ele>440</ele><time>2025-12-30T23:26:10.000Z</time></trkpt>
        <trkpt lat="29.191409" lon="104.636469"><ele>440</ele><time>2025-12-30T23:26:15.000Z</time></trkpt>
        <trkpt lat="29.191436" lon="104.636465"><ele>439</ele><time>2025-12-30T23:26:23.000Z</time></trkpt>
        <trkpt lat="29.191439" lon="104.636464"><ele>439</ele><time>2025-12-30T23:26:24.000Z</time></trkpt>
        <trkpt lat="29.191438" lon="104.636464"><ele>439</ele><time>2025-12-30T23:26:30.000Z</time></trkpt>
        <trkpt lat="29.191437" lon="104.636464"><ele>439</ele><time>2025-12-30T23:26:31.000Z</time></trkpt>
        <trkpt lat="29.191437" lon="104.636463"><ele>439</ele><time>2025-12-30T23:26:32.000Z</time></trkpt>
        <trkpt lat="29.19144" lon="104.636463"><ele>439</ele><time>2025-12-30T23:26:33.000Z</time></trkpt>
        <trkpt lat="29.191439" lon="104.636465"><ele>439</ele><time>2025-12-30T23:26:34.000Z</time></trkpt>
        <trkpt lat="29.191451" lon="104.636471"><ele>438</ele><time>2025-12-30T23:26:39.000Z</time></trkpt>
        <trkpt lat="29.191465" lon="104.636461"><ele>437</ele><time>2025-12-30T23:26:41.000Z</time></trkpt>
        <trkpt lat="29.191478" lon="104.636461"><ele>437</ele><time>2025-12-30T23:26:43.000Z</time></trkpt>
        <trkpt lat="29.191489" lon="104.636471"><ele>436</ele><time>2025-12-30T23:26:47.000Z</time></trkpt>
        <trkpt lat="29.191491" lon="104.636476"><ele>435</ele><time>2025-12-30T23:26:49.000Z</time></trkpt>
        <trkpt lat="29.191534" lon="104.636451"><ele>435</ele><time>2025-12-30T23:26:56.000Z</time></trkpt>
        <trkpt lat="29.191546" lon="104.636444"><ele>434</ele><time>2025-12-30T23:26:57.000Z</time></trkpt>
        <trkpt lat="29.191556" lon="104.636438"><ele>434</ele><time>2025-12-30T23:26:58.000Z</time></trkpt>
        <trkpt lat="29.191564" lon="104.636434"><ele>434</ele><time>2025-12-30T23:26:59.000Z</time></trkpt>
        <trkpt lat="29.191568" lon="104.636434"><ele>434</ele><time>2025-12-30T23:27:00.000Z</time></trkpt>
        <trkpt lat="29.191572" lon="104.636432"><ele>433</ele><time>2025-12-30T23:27:04.000Z</time></trkpt>
        <trkpt lat="29.191574" lon="104.63643"><ele>433</ele><time>2025-12-30T23:27:05.000Z</time></trkpt>
        <trkpt lat="29.191574" lon="104.636428"><ele>433</ele><time>2025-12-30T23:27:07.000Z</time></trkpt>
        <trkpt lat="29.191565" lon="104.636428"><ele>433</ele><time>2025-12-30T23:27:11.000Z</time></trkpt>
        <trkpt lat="29.191557" lon="104.636422"><ele>433</ele><time>2025-12-30T23:27:18.000Z</time></trkpt>
        <trkpt lat="29.191582" lon="104.636419"><ele>433</ele><time>2025-12-30T23:27:27.000Z</time></trkpt>
        <trkpt lat="29.191584" lon="104.636419"><ele>433</ele><time>2025-12-30T23:27:28.000Z</time></trkpt>
        <trkpt lat="29.191584" lon="104.63642"><ele>433</ele><time>2025-12-30T23:27:29.000Z</time></trkpt>
        <trkpt lat="29.191592" lon="104.636416"><ele>432</ele><time>2025-12-30T23:27:33.000Z</time></trkpt>
        <trkpt lat="29.191608" lon="104.636409"><ele>433</ele><time>2025-12-30T23:27:38.000Z</time></trkpt>
        <trkpt lat="29.191605" lon="104.636412"><ele>433</ele><time>2025-12-30T23:27:48.000Z</time></trkpt>
        <trkpt lat="29.191643" lon="104.636425"><ele>434</ele><time>2025-12-30T23:27:55.000Z</time></trkpt>
        <trkpt lat="29.191663" lon="104.636413"><ele>434</ele><time>2025-12-30T23:28:02.000Z</time></trkpt>
        <trkpt lat="29.191674" lon="104.636416"><ele>434</ele><time>2025-12-30T23:28:10.000Z</time></trkpt>
        <trkpt lat="29.191669" lon="104.636415"><ele>434</ele><time>2025-12-30T23:28:12.000Z</time></trkpt>
        <trkpt lat="29.191663" lon="104.636411"><ele>434</ele><time>2025-12-30T23:28:13.000Z</time></trkpt>
        <trkpt lat="29.191665" lon="104.636407"><ele>434</ele><time>2025-12-30T23:28:14.000Z</time></trkpt>
        <trkpt lat="29.191667" lon="104.636404"><ele>434</ele><time>2025-12-30T23:28:15.000Z</time></trkpt>
        <trkpt lat="29.191671" lon="104.636407"><ele>433</ele><time>2025-12-30T23:28:20.000Z</time></trkpt>
        <trkpt lat="29.191708" lon="104.636402"><ele>434</ele><time>2025-12-30T23:28:25.000Z</time></trkpt>
        <trkpt lat="29.19172" lon="104.636401"><ele>435</ele><time>2025-12-30T23:28:26.000Z</time></trkpt>
        <trkpt lat="29.191771" lon="104.636395"><ele>435</ele><time>2025-12-30T23:28:30.000Z</time></trkpt>
        <trkpt lat="29.191793" lon="104.636395"><ele>436</ele><time>2025-12-30T23:28:32.000Z</time></trkpt>
        <trkpt lat="29.191796" lon="104.636394"><ele>436</ele><time>2025-12-30T23:28:35.000Z</time></trkpt>
        <trkpt lat="29.191793" lon="104.636391"><ele>436</ele><time>2025-12-30T23:28:43.000Z</time></trkpt>
        <trkpt lat="29.191796" lon="104.636393"><ele>436</ele><time>2025-12-30T23:28:45.000Z</time></trkpt>
        <trkpt lat="29.191794" lon="104.636396"><ele>436</ele><time>2025-12-30T23:28:47.000Z</time></trkpt>
        <trkpt lat="29.191793" lon="104.636402"><ele>436</ele><time>2025-12-30T23:29:00.000Z</time></trkpt>
        <trkpt lat="29.191793" lon="104.636402"><ele>436</ele><time>2025-12-30T23:29:10.000Z</time></trkpt>
        <trkpt lat="29.191793" lon="104.636402"><ele>436</ele><time>2025-12-30T23:29:11.000Z</time></trkpt>
        <trkpt lat="29.191792" lon="104.636399"><ele>436</ele><time>2025-12-30T23:29:12.000Z</time></trkpt>
        <trkpt lat="29.191798" lon="104.636396"><ele>436</ele><time>2025-12-30T23:29:13.000Z</time></trkpt>
        <trkpt lat="29.191817" lon="104.636389"><ele>437</ele><time>2025-12-30T23:29:17.000Z</time></trkpt>
        <trkpt lat="29.191851" lon="104.636384"><ele>438</ele><time>2025-12-30T23:29:20.000Z</time></trkpt>
        <trkpt lat="29.191857" lon="104.636382"><ele>438</ele><time>2025-12-30T23:29:21.000Z</time></trkpt>
        <trkpt lat="29.191866" lon="104.636378"><ele>439</ele><time>2025-12-30T23:29:24.000Z</time></trkpt>
        <trkpt lat="29.191871" lon="104.636378"><ele>440</ele><time>2025-12-30T23:29:26.000Z</time></trkpt>
        <trkpt lat="29.191872" lon="104.636377"><ele>440</ele><time>2025-12-30T23:29:27.000Z</time></trkpt>
        <trkpt lat="29.191875" lon="104.636377"><ele>441</ele><time>2025-12-30T23:29:28.000Z</time></trkpt>
        <trkpt lat="29.191924" lon="104.636356"><ele>442</ele><time>2025-12-30T23:29:35.000Z</time></trkpt>
        <trkpt lat="29.191949" lon="104.63634"><ele>443</ele><time>2025-12-30T23:29:38.000Z</time></trkpt>
        <trkpt lat="29.191965" lon="104.636338"><ele>444</ele><time>2025-12-30T23:29:43.000Z</time></trkpt>
        <trkpt lat="29.191979" lon="104.636339"><ele>445</ele><time>2025-12-30T23:29:47.000Z</time></trkpt>
        <trkpt lat="29.191981" lon="104.63634"><ele>445</ele><time>2025-12-30T23:29:48.000Z</time></trkpt>
        <trkpt lat="29.192" lon="104.636346"><ele>446</ele><time>2025-12-30T23:29:52.000Z</time></trkpt>
        <trkpt lat="29.192004" lon="104.636348"><ele>445</ele><time>2025-12-30T23:29:59.000Z</time></trkpt>
        <trkpt lat="29.192006" lon="104.636347"><ele>445</ele><time>2025-12-30T23:30:00.000Z</time></trkpt>
        <trkpt lat="29.192017" lon="104.636337"><ele>445</ele><time>2025-12-30T23:30:03.000Z</time></trkpt>
        <trkpt lat="29.192043" lon="104.63631"><ele>444</ele><time>2025-12-30T23:30:09.000Z</time></trkpt>
        <trkpt lat="29.192056" lon="104.636302"><ele>444</ele><time>2025-12-30T23:30:16.000Z</time></trkpt>
        <trkpt lat="29.192061" lon="104.6363"><ele>444</ele><time>2025-12-30T23:30:17.000Z</time></trkpt>
        <trkpt lat="29.192093" lon="104.63629"><ele>445</ele><time>2025-12-30T23:30:22.000Z</time></trkpt>
        <trkpt lat="29.192098" lon="104.636287"><ele>445</ele><time>2025-12-30T23:30:23.000Z</time></trkpt>
        <trkpt lat="29.192103" lon="104.636266"><ele>445</ele><time>2025-12-30T23:30:25.000Z</time></trkpt>
        <trkpt lat="29.192117" lon="104.636251"><ele>445</ele><time>2025-12-30T23:30:27.000Z</time></trkpt>
        <trkpt lat="29.192142" lon="104.636223"><ele>446</ele><time>2025-12-30T23:30:31.000Z</time></trkpt>
        <trkpt lat="29.192174" lon="104.636213"><ele>447</ele><time>2025-12-30T23:30:36.000Z</time></trkpt>
        <trkpt lat="29.192178" lon="104.63621"><ele>448</ele><time>2025-12-30T23:30:37.000Z</time></trkpt>
        <trkpt lat="29.192224" lon="104.636182"><ele>448</ele><time>2025-12-30T23:30:45.000Z</time></trkpt>
        <trkpt lat="29.192259" lon="104.636178"><ele>449</ele><time>2025-12-30T23:30:48.000Z</time></trkpt>
        <trkpt lat="29.192266" lon="104.636179"><ele>450</ele><time>2025-12-30T23:30:49.000Z</time></trkpt>
        <trkpt lat="29.192282" lon="104.636176"><ele>450</ele><time>2025-12-30T23:30:51.000Z</time></trkpt>
        <trkpt lat="29.192302" lon="104.636159"><ele>450</ele><time>2025-12-30T23:30:58.000Z</time></trkpt>
        <trkpt lat="29.192303" lon="104.636153"><ele>450</ele><time>2025-12-30T23:31:05.000Z</time></trkpt>
        <trkpt lat="29.192288" lon="104.636146"><ele>449</ele><time>2025-12-30T23:31:11.000Z</time></trkpt>
        <trkpt lat="29.192304" lon="104.636155"><ele>449</ele><time>2025-12-30T23:31:18.000Z</time></trkpt>
        <trkpt lat="29.192303" lon="104.636155"><ele>448</ele><time>2025-12-30T23:31:19.000Z</time></trkpt>
        <trkpt lat="29.192291" lon="104.636154"><ele>449</ele><time>2025-12-30T23:31:26.000Z</time></trkpt>
        <trkpt lat="29.192285" lon="104.636156"><ele>449</ele><time>2025-12-30T23:31:28.000Z</time></trkpt>
        <trkpt lat="29.192294" lon="104.63616"><ele>449</ele><time>2025-12-30T23:31:36.000Z</time></trkpt>
        <trkpt lat="29.192294" lon="104.636155"><ele>448</ele><time>2025-12-30T23:31:46.000Z</time></trkpt>
        <trkpt lat="29.192288" lon="104.636158"><ele>448</ele><time>2025-12-30T23:31:48.000Z</time></trkpt>
        <trkpt lat="29.192297" lon="104.636158"><ele>448</ele><time>2025-12-30T23:31:58.000Z</time></trkpt>
        <trkpt lat="29.19227" lon="104.636147"><ele>448</ele><time>2025-12-30T23:32:04.000Z</time></trkpt>
        <trkpt lat="29.192268" lon="104.636139"><ele>448</ele><time>2025-12-30T23:32:09.000Z</time></trkpt>
        <trkpt lat="29.192285" lon="104.636146"><ele>448</ele><time>2025-12-30T23:32:17.000Z</time></trkpt>
        <trkpt lat="29.192288" lon="104.63615"><ele>448</ele><time>2025-12-30T23:32:19.000Z</time></trkpt>
        <trkpt lat="29.192289" lon="104.636153"><ele>448</ele><time>2025-12-30T23:32:20.000Z</time></trkpt>
        <trkpt lat="29.192287" lon="104.636156"><ele>448</ele><time>2025-12-30T23:32:25.000Z</time></trkpt>
        <trkpt lat="29.192279" lon="104.636157"><ele>448</ele><time>2025-12-30T23:32:28.000Z</time></trkpt>
        <trkpt lat="29.192272" lon="104.636155"><ele>448</ele><time>2025-12-30T23:32:32.000Z</time></trkpt>
        <trkpt lat="29.192259" lon="104.636143"><ele>448</ele><time>2025-12-30T23:32:39.000Z</time></trkpt>
        <trkpt lat="29.192273" lon="104.636146"><ele>449</ele><time>2025-12-30T23:32:43.000Z</time></trkpt>
        <trkpt lat="29.192283" lon="104.636154"><ele>449</ele><time>2025-12-30T23:32:46.000Z</time></trkpt>
        <trkpt lat="29.192293" lon="104.636154"><ele>448</ele><time>2025-12-30T23:32:53.000Z</time></trkpt>
        <trkpt lat="29.19229" lon="104.636155"><ele>448</ele><time>2025-12-30T23:32:55.000Z</time></trkpt>
        <trkpt lat="29.192287" lon="104.636157"><ele>448</ele><time>2025-12-30T23:33:02.000Z</time></trkpt>
        <trkpt lat="29.192299" lon="104.636151"><ele>448</ele><time>2025-12-30T23:33:12.000Z</time></trkpt>
        <trkpt lat="29.192298" lon="104.636157"><ele>448</ele><time>2025-12-30T23:33:19.000Z</time></trkpt>
        <trkpt lat="29.192299" lon="104.636155"><ele>448</ele><time>2025-12-30T23:33:22.000Z</time></trkpt>
        <trkpt lat="29.192307" lon="104.636153"><ele>448</ele><time>2025-12-30T23:33:34.000Z</time></trkpt>
        <trkpt lat="29.192296" lon="104.636156"><ele>448</ele><time>2025-12-30T23:33:44.000Z</time></trkpt>
        <trkpt lat="29.192295" lon="104.636158"><ele>448</ele><time>2025-12-30T23:33:53.000Z</time></trkpt>
        <trkpt lat="29.192305" lon="104.63615"><ele>448</ele><time>2025-12-30T23:34:03.000Z</time></trkpt>
        <trkpt lat="29.192301" lon="104.636152"><ele>448</ele><time>2025-12-30T23:34:04.000Z</time></trkpt>
        <trkpt lat="29.192293" lon="104.636153"><ele>448</ele><time>2025-12-30T23:34:05.000Z</time></trkpt>
        <trkpt lat="29.192293" lon="104.636153"><ele>449</ele><time>2025-12-30T23:34:07.000Z</time></trkpt>
        <trkpt lat="29.192293" lon="104.636153"><ele>448</ele><time>2025-12-30T23:34:08.000Z</time></trkpt>
        <trkpt lat="29.192293" lon="104.636153"><ele>448</ele><time>2025-12-30T23:34:09.000Z</time></trkpt>
        <trkpt lat="29.192288" lon="104.636154"><ele>448</ele><time>2025-12-30T23:34:18.000Z</time></trkpt>
        <trkpt lat="29.192283" lon="104.636165"><ele>448</ele><time>2025-12-30T23:34:29.000Z</time></trkpt>
        <trkpt lat="29.192306" lon="104.636165"><ele>448</ele><time>2025-12-30T23:34:42.000Z</time></trkpt>
        <trkpt lat="29.192305" lon="104.636158"><ele>448</ele><time>2025-12-30T23:34:55.000Z</time></trkpt>
        <trkpt lat="29.192293" lon="104.636153"><ele>448</ele><time>2025-12-30T23:35:07.000Z</time></trkpt>
        <trkpt lat="29.192308" lon="104.636158"><ele>448</ele><time>2025-12-30T23:35:24.000Z</time></trkpt>
        <trkpt lat="29.192306" lon="104.63616"><ele>448</ele><time>2025-12-30T23:35:38.000Z</time></trkpt>
        <trkpt lat="29.1923" lon="104.636156"><ele>448</ele><time>2025-12-30T23:35:51.000Z</time></trkpt>
        <trkpt lat="29.192292" lon="104.636155"><ele>448</ele><time>2025-12-30T23:36:00.000Z</time></trkpt>
        <trkpt lat="29.192288" lon="104.636162"><ele>448</ele><time>2025-12-30T23:36:09.000Z</time></trkpt>
        <trkpt lat="29.1923" lon="104.63617"><ele>448</ele><time>2025-12-30T23:36:13.000Z</time></trkpt>
        <trkpt lat="29.192305" lon="104.636174"><ele>448</ele><time>2025-12-30T23:36:16.000Z</time></trkpt>
        <trkpt lat="29.192305" lon="104.636174"><ele>448</ele><time>2025-12-30T23:36:17.000Z</time></trkpt>
        <trkpt lat="29.192297" lon="104.63617"><ele>448</ele><time>2025-12-30T23:36:26.000Z</time></trkpt>
        <trkpt lat="29.192307" lon="104.636171"><ele>448</ele><time>2025-12-30T23:36:32.000Z</time></trkpt>
        <trkpt lat="29.192316" lon="104.636175"><ele>448</ele><time>2025-12-30T23:36:34.000Z</time></trkpt>
        <trkpt lat="29.192386" lon="104.636208"><ele>448</ele><time>2025-12-30T23:36:37.000Z</time></trkpt>
        <trkpt lat="29.192391" lon="104.636211"><ele>448</ele><time>2025-12-30T23:36:38.000Z</time></trkpt>
        <trkpt lat="29.192392" lon="104.63621"><ele>447</ele><time>2025-12-30T23:36:41.000Z</time></trkpt>
        <trkpt lat="29.192392" lon="104.63621"><ele>448</ele><time>2025-12-30T23:36:44.000Z</time></trkpt>
        <trkpt lat="29.192392" lon="104.63621"><ele>448</ele><time>2025-12-30T23:36:49.000Z</time></trkpt>
        <trkpt lat="29.192392" lon="104.63621"><ele>448</ele><time>2025-12-30T23:36:58.000Z</time></trkpt>
        <trkpt lat="29.192392" lon="104.63621"><ele>448</ele><time>2025-12-30T23:37:03.000Z</time></trkpt>
        <trkpt lat="29.192392" lon="104.63621"><ele>448</ele><time>2025-12-30T23:37:14.000Z</time></trkpt>
        <trkpt lat="29.192427" lon="104.636235"><ele>447</ele><time>2025-12-30T23:37:24.000Z</time></trkpt>
        <trkpt lat="29.192426" lon="104.636233"><ele>448</ele><time>2025-12-30T23:37:34.000Z</time></trkpt>
        <trkpt lat="29.192426" lon="104.636232"><ele>448</ele><time>2025-12-30T23:37:36.000Z</time></trkpt>
        <trkpt lat="29.192426" lon="104.636231"><ele>448</ele><time>2025-12-30T23:37:37.000Z</time></trkpt>
        <trkpt lat="29.192422" lon="104.636229"><ele>448</ele><time>2025-12-30T23:37:39.000Z</time></trkpt>
        <trkpt lat="29.192422" lon="104.636229"><ele>448</ele><time>2025-12-30T23:37:41.000Z</time></trkpt>
        <trkpt lat="29.192438" lon="104.63624"><ele>448</ele><time>2025-12-30T23:37:59.000Z</time></trkpt>
        <trkpt lat="29.192438" lon="104.63624"><ele>448</ele><time>2025-12-30T23:38:07.000Z</time></trkpt>
        <trkpt lat="29.192438" lon="104.63624"><ele>448</ele><time>2025-12-30T23:38:16.000Z</time></trkpt>
        <trkpt lat="29.192438" lon="104.63624"><ele>447</ele><time>2025-12-30T23:38:24.000Z</time></trkpt>
        <trkpt lat="29.192438" lon="104.63624"><ele>447</ele><time>2025-12-30T23:38:32.000Z</time></trkpt>
        <trkpt lat="29.192438" lon="104.63624"><ele>448</ele><time>2025-12-30T23:38:58.000Z</time></trkpt>
        <trkpt lat="29.192438" lon="104.63624"><ele>448</ele><time>2025-12-30T23:38:59.000Z</time></trkpt>
        <trkpt lat="29.192438" lon="104.63624"><ele>448</ele><time>2025-12-30T23:39:27.000Z</time></trkpt>
        <trkpt lat="29.192438" lon="104.63624"><ele>448</ele><time>2025-12-30T23:39:30.000Z</time></trkpt>
        <trkpt lat="29.192438" lon="104.63624"><ele>448</ele><time>2025-12-30T23:39:40.000Z</time></trkpt>
        <trkpt lat="29.192438" lon="104.63624"><ele>448</ele><time>2025-12-30T23:39:49.000Z</time></trkpt>
        <trkpt lat="29.192438" lon="104.63624"><ele>448</ele><time>2025-12-30T23:39:58.000Z</time></trkpt>
        <trkpt lat="29.192438" lon="104.63624"><ele>448</ele><time>2025-12-30T23:40:22.000Z</time></trkpt>
        <trkpt lat="29.192438" lon="104.63624"><ele>448</ele><time>2025-12-30T23:40:31.000Z</time></trkpt>
        <trkpt lat="29.192438" lon="104.63624"><ele>448</ele><time>2025-12-30T23:40:38.000Z</time></trkpt>
        <trkpt lat="29.192438" lon="104.63624"><ele>448</ele><time>2025-12-30T23:40:47.000Z</time></trkpt>
        <trkpt lat="29.192438" lon="104.63624"><ele>448</ele><time>2025-12-30T23:40:51.000Z</time></trkpt>
        <trkpt lat="29.192436" lon="104.636241"><ele>447</ele><time>2025-12-30T23:41:08.000Z</time></trkpt>
        <trkpt lat="29.19242" lon="104.636245"><ele>447</ele><time>2025-12-30T23:41:21.000Z</time></trkpt>
        <trkpt lat="29.192418" lon="104.636231"><ele>447</ele><time>2025-12-30T23:41:23.000Z</time></trkpt>
        <trkpt lat="29.192435" lon="104.636229"><ele>447</ele><time>2025-12-30T23:41:32.000Z</time></trkpt>
        <trkpt lat="29.192426" lon="104.636234"><ele>447</ele><time>2025-12-30T23:41:43.000Z</time></trkpt>
        <trkpt lat="29.192405" lon="104.636212"><ele>447</ele><time>2025-12-30T23:41:48.000Z</time></trkpt>
        <trkpt lat="29.192404" lon="104.636212"><ele>447</ele><time>2025-12-30T23:41:50.000Z</time></trkpt>
        <trkpt lat="29.192402" lon="104.63621"><ele>447</ele><time>2025-12-30T23:42:09.000Z</time></trkpt>
        <trkpt lat="29.192402" lon="104.63621"><ele>447</ele><time>2025-12-30T23:42:21.000Z</time></trkpt>
        <trkpt lat="29.192402" lon="104.63621"><ele>447</ele><time>2025-12-30T23:42:28.000Z</time></trkpt>
        <trkpt lat="29.192402" lon="104.63621"><ele>447</ele><time>2025-12-30T23:42:44.000Z</time></trkpt>
        <trkpt lat="29.192402" lon="104.63621"><ele>447</ele><time>2025-12-30T23:42:56.000Z</time></trkpt>
        <trkpt lat="29.19242" lon="104.636213"><ele>447</ele><time>2025-12-30T23:43:08.000Z</time></trkpt>
        <trkpt lat="29.192413" lon="104.636248"><ele>447</ele><time>2025-12-30T23:43:18.000Z</time></trkpt>
        <trkpt lat="29.192402" lon="104.63621"><ele>447</ele><time>2025-12-30T23:43:28.000Z</time></trkpt>
        <trkpt lat="29.192419" lon="104.636212"><ele>447</ele><time>2025-12-30T23:43:36.000Z</time></trkpt>
        <trkpt lat="29.19242" lon="104.636216"><ele>447</ele><time>2025-12-30T23:43:37.000Z</time></trkpt>
        <trkpt lat="29.192431" lon="104.636219"><ele>447</ele><time>2025-12-30T23:43:47.000Z</time></trkpt>
        <trkpt lat="29.192437" lon="104.636231"><ele>446</ele><time>2025-12-30T23:43:53.000Z</time></trkpt>
        <trkpt lat="29.192433" lon="104.636237"><ele>447</ele><time>2025-12-30T23:43:58.000Z</time></trkpt>
        <trkpt lat="29.192381" lon="104.636183"><ele>447</ele><time>2025-12-30T23:44:11.000Z</time></trkpt>
        <trkpt lat="29.192337" lon="104.636176"><ele>446</ele><time>2025-12-30T23:44:19.000Z</time></trkpt>
        <trkpt lat="29.192312" lon="104.636163"><ele>447</ele><time>2025-12-30T23:44:22.000Z</time></trkpt>
        <trkpt lat="29.192302" lon="104.636154"><ele>447</ele><time>2025-12-30T23:44:35.000Z</time></trkpt>
        <trkpt lat="29.192311" lon="104.636156"><ele>446</ele><time>2025-12-30T23:44:53.000Z</time></trkpt>
        <trkpt lat="29.192308" lon="104.63616"><ele>446</ele><time>2025-12-30T23:45:09.000Z</time></trkpt>
        <trkpt lat="29.192352" lon="104.636164"><ele>446</ele><time>2025-12-30T23:45:20.000Z</time></trkpt>
        <trkpt lat="29.192419" lon="104.636214"><ele>446</ele><time>2025-12-30T23:45:24.000Z</time></trkpt>
        <trkpt lat="29.192425" lon="104.636227"><ele>446</ele><time>2025-12-30T23:45:28.000Z</time></trkpt>
        <trkpt lat="29.192404" lon="104.636226"><ele>446</ele><time>2025-12-30T23:45:37.000Z</time></trkpt>
        <trkpt lat="29.192404" lon="104.636226"><ele>446</ele><time>2025-12-30T23:45:49.000Z</time></trkpt>
        <trkpt lat="29.192404" lon="104.636226"><ele>446</ele><time>2025-12-30T23:45:56.000Z</time></trkpt>
        <trkpt lat="29.192404" lon="104.636226"><ele>446</ele><time>2025-12-30T23:46:08.000Z</time></trkpt>
        <trkpt lat="29.192404" lon="104.636226"><ele>446</ele><time>2025-12-30T23:46:22.000Z</time></trkpt>
        <trkpt lat="29.192404" lon="104.636226"><ele>446</ele><time>2025-12-30T23:46:33.000Z</time></trkpt>
        <trkpt lat="29.192404" lon="104.636226"><ele>446</ele><time>2025-12-30T23:46:35.000Z</time></trkpt>
        <trkpt lat="29.192396" lon="104.636208"><ele>446</ele><time>2025-12-30T23:46:42.000Z</time></trkpt>
        <trkpt lat="29.192396" lon="104.636188"><ele>446</ele><time>2025-12-30T23:46:51.000Z</time></trkpt>
        <trkpt lat="29.192382" lon="104.636183"><ele>446</ele><time>2025-12-30T23:47:05.000Z</time></trkpt>
        <trkpt lat="29.192377" lon="104.636184"><ele>446</ele><time>2025-12-30T23:47:08.000Z</time></trkpt>
        <trkpt lat="29.19234" lon="104.636177"><ele>446</ele><time>2025-12-30T23:47:20.000Z</time></trkpt>
        <trkpt lat="29.192317" lon="104.636166"><ele>446</ele><time>2025-12-30T23:47:22.000Z</time></trkpt>
        <trkpt lat="29.192308" lon="104.636158"><ele>446</ele><time>2025-12-30T23:47:25.000Z</time></trkpt>
        <trkpt lat="29.192306" lon="104.636152"><ele>446</ele><time>2025-12-30T23:47:32.000Z</time></trkpt>
        <trkpt lat="29.192329" lon="104.636175"><ele>446</ele><time>2025-12-30T23:47:48.000Z</time></trkpt>
        <trkpt lat="29.192329" lon="104.636175"><ele>446</ele><time>2025-12-30T23:47:53.000Z</time></trkpt>
        <trkpt lat="29.192329" lon="104.636175"><ele>446</ele><time>2025-12-30T23:48:01.000Z</time></trkpt>
        <trkpt lat="29.192342" lon="104.636181"><ele>446</ele><time>2025-12-30T23:48:09.000Z</time></trkpt>
        <trkpt lat="29.192342" lon="104.636181"><ele>446</ele><time>2025-12-30T23:48:12.000Z</time></trkpt>
        <trkpt lat="29.192398" lon="104.636216"><ele>446</ele><time>2025-12-30T23:48:18.000Z</time></trkpt>
        <trkpt lat="29.192397" lon="104.636211"><ele>446</ele><time>2025-12-30T23:48:24.000Z</time></trkpt>
        <trkpt lat="29.192407" lon="104.636225"><ele>446</ele><time>2025-12-30T23:48:29.000Z</time></trkpt>
        <trkpt lat="29.192407" lon="104.636225"><ele>446</ele><time>2025-12-30T23:48:35.000Z</time></trkpt>
        <trkpt lat="29.192382" lon="104.636207"><ele>445</ele><time>2025-12-30T23:48:45.000Z</time></trkpt>
        <trkpt lat="29.192379" lon="104.636202"><ele>446</ele><time>2025-12-30T23:48:48.000Z</time></trkpt>
        <trkpt lat="29.192376" lon="104.636194"><ele>446</ele><time>2025-12-30T23:48:54.000Z</time></trkpt>
        <trkpt lat="29.192378" lon="104.636192"><ele>446</ele><time>2025-12-30T23:48:56.000Z</time></trkpt>
        <trkpt lat="29.19237" lon="104.636173"><ele>446</ele><time>2025-12-30T23:49:05.000Z</time></trkpt>
        <trkpt lat="29.192339" lon="104.636162"><ele>446</ele><time>2025-12-30T23:49:13.000Z</time></trkpt>
        <trkpt lat="29.192348" lon="104.636137"><ele>446</ele><time>2025-12-30T23:49:20.000Z</time></trkpt>
        <trkpt lat="29.192383" lon="104.636173"><ele>446</ele><time>2025-12-30T23:49:26.000Z</time></trkpt>
        <trkpt lat="29.192404" lon="104.636174"><ele>446</ele><time>2025-12-30T23:49:28.000Z</time></trkpt>
        <trkpt lat="29.192438" lon="104.636137"><ele>445</ele><time>2025-12-30T23:49:32.000Z</time></trkpt>
        <trkpt lat="29.192476" lon="104.636114"><ele>444</ele><time>2025-12-30T23:49:36.000Z</time></trkpt>
        <trkpt lat="29.19249" lon="104.636101"><ele>444</ele><time>2025-12-30T23:49:39.000Z</time></trkpt>
        <trkpt lat="29.192502" lon="104.636087"><ele>443</ele><time>2025-12-30T23:49:42.000Z</time></trkpt>
        <trkpt lat="29.192506" lon="104.636062"><ele>442</ele><time>2025-12-30T23:49:46.000Z</time></trkpt>
        <trkpt lat="29.192508" lon="104.63606"><ele>442</ele><time>2025-12-30T23:49:47.000Z</time></trkpt>
        <trkpt lat="29.192532" lon="104.636062"><ele>441</ele><time>2025-12-30T23:49:54.000Z</time></trkpt>
        <trkpt lat="29.192528" lon="104.636056"><ele>440</ele><time>2025-12-30T23:49:58.000Z</time></trkpt>
        <trkpt lat="29.192529" lon="104.636053"><ele>439</ele><time>2025-12-30T23:50:02.000Z</time></trkpt>
        <trkpt lat="29.192538" lon="104.636046"><ele>438</ele><time>2025-12-30T23:50:04.000Z</time></trkpt>
        <trkpt lat="29.192543" lon="104.636045"><ele>438</ele><time>2025-12-30T23:50:05.000Z</time></trkpt>
        <trkpt lat="29.192572" lon="104.63605"><ele>436</ele><time>2025-12-30T23:50:09.000Z</time></trkpt>
        <trkpt lat="29.192592" lon="104.636039"><ele>435</ele><time>2025-12-30T23:50:12.000Z</time></trkpt>
        <trkpt lat="29.192604" lon="104.636035"><ele>435</ele><time>2025-12-30T23:50:14.000Z</time></trkpt>
        <trkpt lat="29.192653" lon="104.636036"><ele>434</ele><time>2025-12-30T23:50:20.000Z</time></trkpt>
        <trkpt lat="29.192695" lon="104.635997"><ele>433</ele><time>2025-12-30T23:50:27.000Z</time></trkpt>
        <trkpt lat="29.192696" lon="104.635987"><ele>433</ele><time>2025-12-30T23:50:28.000Z</time></trkpt>
        <trkpt lat="29.192681" lon="104.635965"><ele>432</ele><time>2025-12-30T23:50:35.000Z</time></trkpt>
        <trkpt lat="29.192632" lon="104.635978"><ele>432</ele><time>2025-12-30T23:50:43.000Z</time></trkpt>
        <trkpt lat="29.192633" lon="104.635978"><ele>432</ele><time>2025-12-30T23:50:44.000Z</time></trkpt>
        <trkpt lat="29.192634" lon="104.635978"><ele>432</ele><time>2025-12-30T23:50:45.000Z</time></trkpt>
        <trkpt lat="29.192634" lon="104.635983"><ele>432</ele><time>2025-12-30T23:50:47.000Z</time></trkpt>
        <trkpt lat="29.192637" lon="104.635983"><ele>432</ele><time>2025-12-30T23:50:48.000Z</time></trkpt>
        <trkpt lat="29.192626" lon="104.635994"><ele>431</ele><time>2025-12-30T23:50:51.000Z</time></trkpt>
        <trkpt lat="29.192658" lon="104.635987"><ele>431</ele><time>2025-12-30T23:51:02.000Z</time></trkpt>
        <trkpt lat="29.19265" lon="104.635993"><ele>431</ele><time>2025-12-30T23:51:04.000Z</time></trkpt>
        <trkpt lat="29.192636" lon="104.635987"><ele>431</ele><time>2025-12-30T23:51:09.000Z</time></trkpt>
        <trkpt lat="29.192643" lon="104.635965"><ele>430</ele><time>2025-12-30T23:51:16.000Z</time></trkpt>
        <trkpt lat="29.192644" lon="104.635955"><ele>430</ele><time>2025-12-30T23:51:21.000Z</time></trkpt>
        <trkpt lat="29.192649" lon="104.635945"><ele>429</ele><time>2025-12-30T23:51:26.000Z</time></trkpt>
        <trkpt lat="29.192648" lon="104.635942"><ele>429</ele><time>2025-12-30T23:51:27.000Z</time></trkpt>
        <trkpt lat="29.192644" lon="104.635946"><ele>428</ele><time>2025-12-30T23:51:35.000Z</time></trkpt>
        <trkpt lat="29.192664" lon="104.635938"><ele>428</ele><time>2025-12-30T23:51:47.000Z</time></trkpt>
        <trkpt lat="29.192667" lon="104.635937"><ele>427</ele><time>2025-12-30T23:51:48.000Z</time></trkpt>
        <trkpt lat="29.192678" lon="104.635935"><ele>426</ele><time>2025-12-30T23:51:53.000Z</time></trkpt>
        <trkpt lat="29.192682" lon="104.635933"><ele>426</ele><time>2025-12-30T23:51:55.000Z</time></trkpt>
        <trkpt lat="29.19269" lon="104.635923"><ele>425</ele><time>2025-12-30T23:52:02.000Z</time></trkpt>
        <trkpt lat="29.192674" lon="104.635918"><ele>425</ele><time>2025-12-30T23:52:10.000Z</time></trkpt>
        <trkpt lat="29.192678" lon="104.63591"><ele>424</ele><time>2025-12-30T23:52:19.000Z</time></trkpt>
        <trkpt lat="29.192683" lon="104.635913"><ele>424</ele><time>2025-12-30T23:52:20.000Z</time></trkpt>
        <trkpt lat="29.192714" lon="104.635914"><ele>424</ele><time>2025-12-30T23:52:29.000Z</time></trkpt>
        <trkpt lat="29.192756" lon="104.635926"><ele>423</ele><time>2025-12-30T23:52:36.000Z</time></trkpt>
        <trkpt lat="29.192752" lon="104.635928"><ele>423</ele><time>2025-12-30T23:52:37.000Z</time></trkpt>
        <trkpt lat="29.192747" lon="104.635934"><ele>422</ele><time>2025-12-30T23:52:47.000Z</time></trkpt>
        <trkpt lat="29.192761" lon="104.63593"><ele>422</ele><time>2025-12-30T23:52:49.000Z</time></trkpt>
        <trkpt lat="29.192768" lon="104.635922"><ele>422</ele><time>2025-12-30T23:52:53.000Z</time></trkpt>
        <trkpt lat="29.192766" lon="104.635899"><ele>421</ele><time>2025-12-30T23:52:58.000Z</time></trkpt>
        <trkpt lat="29.192764" lon="104.635882"><ele>421</ele><time>2025-12-30T23:53:03.000Z</time></trkpt>
        <trkpt lat="29.192734" lon="104.635883"><ele>421</ele><time>2025-12-30T23:53:07.000Z</time></trkpt>
        <trkpt lat="29.192715" lon="104.635883"><ele>421</ele><time>2025-12-30T23:53:10.000Z</time></trkpt>
        <trkpt lat="29.192703" lon="104.635884"><ele>421</ele><time>2025-12-30T23:53:17.000Z</time></trkpt>
        <trkpt lat="29.192708" lon="104.635889"><ele>421</ele><time>2025-12-30T23:53:25.000Z</time></trkpt>
        <trkpt lat="29.192701" lon="104.635878"><ele>421</ele><time>2025-12-30T23:53:32.000Z</time></trkpt>
        <trkpt lat="29.192701" lon="104.635878"><ele>421</ele><time>2025-12-30T23:53:33.000Z</time></trkpt>
        <trkpt lat="29.192702" lon="104.635878"><ele>421</ele><time>2025-12-30T23:53:35.000Z</time></trkpt>
        <trkpt lat="29.192705" lon="104.635879"><ele>421</ele><time>2025-12-30T23:53:41.000Z</time></trkpt>
        <trkpt lat="29.192728" lon="104.63589"><ele>421</ele><time>2025-12-30T23:53:48.000Z</time></trkpt>
        <trkpt lat="29.192734" lon="104.635892"><ele>421</ele><time>2025-12-30T23:53:53.000Z</time></trkpt>
        <trkpt lat="29.192724" lon="104.635891"><ele>421</ele><time>2025-12-30T23:53:57.000Z</time></trkpt>
        <trkpt lat="29.192732" lon="104.635892"><ele>421</ele><time>2025-12-30T23:54:10.000Z</time></trkpt>
        <trkpt lat="29.192732" lon="104.635895"><ele>420</ele><time>2025-12-30T23:54:17.000Z</time></trkpt>
        <trkpt lat="29.192731" lon="104.635895"><ele>420</ele><time>2025-12-30T23:54:18.000Z</time></trkpt>
        <trkpt lat="29.192743" lon="104.63591"><ele>420</ele><time>2025-12-30T23:54:24.000Z</time></trkpt>
        <trkpt lat="29.192739" lon="104.635931"><ele>419</ele><time>2025-12-30T23:54:30.000Z</time></trkpt>
        <trkpt lat="29.192735" lon="104.635918"><ele>420</ele><time>2025-12-30T23:54:38.000Z</time></trkpt>
        <trkpt lat="29.192732" lon="104.635922"><ele>420</ele><time>2025-12-30T23:54:45.000Z</time></trkpt>
        <trkpt lat="29.192724" lon="104.635912"><ele>420</ele><time>2025-12-30T23:54:47.000Z</time></trkpt>
        <trkpt lat="29.192725" lon="104.635904"><ele>420</ele><time>2025-12-30T23:54:52.000Z</time></trkpt>
        <trkpt lat="29.192724" lon="104.635891"><ele>420</ele><time>2025-12-30T23:55:06.000Z</time></trkpt>
        <trkpt lat="29.192732" lon="104.635919"><ele>420</ele><time>2025-12-30T23:55:19.000Z</time></trkpt>
        <trkpt lat="29.192732" lon="104.635926"><ele>420</ele><time>2025-12-30T23:55:27.000Z</time></trkpt>
        <trkpt lat="29.192735" lon="104.63592"><ele>420</ele><time>2025-12-30T23:55:34.000Z</time></trkpt>
        <trkpt lat="29.192738" lon="104.635922"><ele>420</ele><time>2025-12-30T23:55:35.000Z</time></trkpt>
        <trkpt lat="29.192754" lon="104.635928"><ele>420</ele><time>2025-12-30T23:55:46.000Z</time></trkpt>
        <trkpt lat="29.192747" lon="104.635935"><ele>419</ele><time>2025-12-30T23:55:52.000Z</time></trkpt>
        <trkpt lat="29.192746" lon="104.635934"><ele>419</ele><time>2025-12-30T23:55:56.000Z</time></trkpt>
        <trkpt lat="29.19276" lon="104.635936"><ele>418</ele><time>2025-12-30T23:56:02.000Z</time></trkpt>
        <trkpt lat="29.192766" lon="104.635932"><ele>418</ele><time>2025-12-30T23:56:03.000Z</time></trkpt>
        <trkpt lat="29.192771" lon="104.635935"><ele>417</ele><time>2025-12-30T23:56:07.000Z</time></trkpt>
        <trkpt lat="29.192777" lon="104.635931"><ele>416</ele><time>2025-12-30T23:56:09.000Z</time></trkpt>
        <trkpt lat="29.19279" lon="104.635926"><ele>416</ele><time>2025-12-30T23:56:12.000Z</time></trkpt>
        <trkpt lat="29.192795" lon="104.635924"><ele>415</ele><time>2025-12-30T23:56:13.000Z</time></trkpt>
        <trkpt lat="29.192802" lon="104.635925"><ele>414</ele><time>2025-12-30T23:56:16.000Z</time></trkpt>
        <trkpt lat="29.19282" lon="104.635923"><ele>414</ele><time>2025-12-30T23:56:20.000Z</time></trkpt>
        <trkpt lat="29.192831" lon="104.635921"><ele>413</ele><time>2025-12-30T23:56:23.000Z</time></trkpt>
        <trkpt lat="29.192839" lon="104.635958"><ele>413</ele><time>2025-12-30T23:56:30.000Z</time></trkpt>
        <trkpt lat="29.192835" lon="104.635994"><ele>413</ele><time>2025-12-30T23:56:36.000Z</time></trkpt>
        <trkpt lat="29.192838" lon="104.636015"><ele>412</ele><time>2025-12-30T23:56:39.000Z</time></trkpt>
        <trkpt lat="29.19284" lon="104.636045"><ele>412</ele><time>2025-12-30T23:56:42.000Z</time></trkpt>
        <trkpt lat="29.192842" lon="104.636062"><ele>411</ele><time>2025-12-30T23:56:45.000Z</time></trkpt>
        <trkpt lat="29.192836" lon="104.63609"><ele>411</ele><time>2025-12-30T23:56:48.000Z</time></trkpt>
        <trkpt lat="29.192819" lon="104.636124"><ele>411</ele><time>2025-12-30T23:56:55.000Z</time></trkpt>
        <trkpt lat="29.192781" lon="104.636172"><ele>410</ele><time>2025-12-30T23:57:02.000Z</time></trkpt>
        <trkpt lat="29.192777" lon="104.636176"><ele>410</ele><time>2025-12-30T23:57:03.000Z</time></trkpt>
        <trkpt lat="29.192773" lon="104.636178"><ele>410</ele><time>2025-12-30T23:57:05.000Z</time></trkpt>
        <trkpt lat="29.192774" lon="104.636177"><ele>410</ele><time>2025-12-30T23:57:06.000Z</time></trkpt>
        <trkpt lat="29.192771" lon="104.636177"><ele>410</ele><time>2025-12-30T23:57:08.000Z</time></trkpt>
        <trkpt lat="29.192769" lon="104.636175"><ele>410</ele><time>2025-12-30T23:57:09.000Z</time></trkpt>
        <trkpt lat="29.192758" lon="104.636166"><ele>410</ele><time>2025-12-30T23:57:17.000Z</time></trkpt>
        <trkpt lat="29.192766" lon="104.636167"><ele>410</ele><time>2025-12-30T23:57:19.000Z</time></trkpt>
        <trkpt lat="29.192756" lon="104.636201"><ele>409</ele><time>2025-12-30T23:57:25.000Z</time></trkpt>
        <trkpt lat="29.192753" lon="104.636205"><ele>409</ele><time>2025-12-30T23:57:26.000Z</time></trkpt>
        <trkpt lat="29.192717" lon="104.636233"><ele>410</ele><time>2025-12-30T23:57:34.000Z</time></trkpt>
        <trkpt lat="29.192718" lon="104.636246"><ele>410</ele><time>2025-12-30T23:57:36.000Z</time></trkpt>
        <trkpt lat="29.19274" lon="104.63627"><ele>410</ele><time>2025-12-30T23:57:42.000Z</time></trkpt>
        <trkpt lat="29.192768" lon="104.636335"><ele>411</ele><time>2025-12-30T23:57:49.000Z</time></trkpt>
        <trkpt lat="29.192765" lon="104.636344"><ele>411</ele><time>2025-12-30T23:57:50.000Z</time></trkpt>
        <trkpt lat="29.192751" lon="104.636413"><ele>411</ele><time>2025-12-30T23:57:57.000Z</time></trkpt>
        <trkpt lat="29.192756" lon="104.636461"><ele>411</ele><time>2025-12-30T23:58:03.000Z</time></trkpt>
        <trkpt lat="29.192774" lon="104.636488"><ele>410</ele><time>2025-12-30T23:58:11.000Z</time></trkpt>
        <trkpt lat="29.192774" lon="104.636495"><ele>409</ele><time>2025-12-30T23:58:22.000Z</time></trkpt>
        <trkpt lat="29.19276" lon="104.636493"><ele>410</ele><time>2025-12-30T23:58:29.000Z</time></trkpt>
        <trkpt lat="29.192746" lon="104.636496"><ele>410</ele><time>2025-12-30T23:58:39.000Z</time></trkpt>
        <trkpt lat="29.192741" lon="104.636505"><ele>409</ele><time>2025-12-30T23:58:48.000Z</time></trkpt>
        <trkpt lat="29.192786" lon="104.636477"><ele>409</ele><time>2025-12-30T23:58:58.000Z</time></trkpt>
        <trkpt lat="29.192799" lon="104.636476"><ele>409</ele><time>2025-12-30T23:59:00.000Z</time></trkpt>
        <trkpt lat="29.192803" lon="104.63648"><ele>409</ele><time>2025-12-30T23:59:01.000Z</time></trkpt>
        <trkpt lat="29.192828" lon="104.636501"><ele>408</ele><time>2025-12-30T23:59:06.000Z</time></trkpt>
        <trkpt lat="29.19286" lon="104.636531"><ele>407</ele><time>2025-12-30T23:59:11.000Z</time></trkpt>
        <trkpt lat="29.19288" lon="104.636536"><ele>406</ele><time>2025-12-30T23:59:14.000Z</time></trkpt>
        <trkpt lat="29.192886" lon="104.636536"><ele>405</ele><time>2025-12-30T23:59:15.000Z</time></trkpt>
        <trkpt lat="29.192932" lon="104.636534"><ele>404</ele><time>2025-12-30T23:59:24.000Z</time></trkpt>
        <trkpt lat="29.192975" lon="104.636533"><ele>403</ele><time>2025-12-30T23:59:29.000Z</time></trkpt>
        <trkpt lat="29.193008" lon="104.636503"><ele>402</ele><time>2025-12-30T23:59:33.000Z</time></trkpt>
        <trkpt lat="29.193049" lon="104.636431"><ele>401</ele><time>2025-12-30T23:59:39.000Z</time></trkpt>
        <trkpt lat="29.193068" lon="104.636404"><ele>400</ele><time>2025-12-30T23:59:42.000Z</time></trkpt>
        <trkpt lat="29.193083" lon="104.636379"><ele>400</ele><time>2025-12-30T23:59:45.000Z</time></trkpt>
        <trkpt lat="29.193114" lon="104.636346"><ele>399</ele><time>2025-12-30T23:59:50.000Z</time></trkpt>
        <trkpt lat="29.193152" lon="104.636329"><ele>398</ele><time>2025-12-30T23:59:56.000Z</time></trkpt>
        <trkpt lat="29.193156" lon="104.636319"><ele>397</ele><time>2025-12-30T23:59:58.000Z</time></trkpt>
        <trkpt lat="29.193132" lon="104.636316"><ele>396</ele><time>2025-12-31T00:00:01.000Z</time></trkpt>
        <trkpt lat="29.193118" lon="104.636309"><ele>396</ele><time>2025-12-31T00:00:03.000Z</time></trkpt>
        <trkpt lat="29.193116" lon="104.636306"><ele>395</ele><time>2025-12-31T00:00:05.000Z</time></trkpt>
        <trkpt lat="29.193118" lon="104.636301"><ele>395</ele><time>2025-12-31T00:00:06.000Z</time></trkpt>
        <trkpt lat="29.193125" lon="104.636294"><ele>395</ele><time>2025-12-31T00:00:07.000Z</time></trkpt>
        <trkpt lat="29.19313" lon="104.636268"><ele>394</ele><time>2025-12-31T00:00:10.000Z</time></trkpt>
        <trkpt lat="29.193136" lon="104.636256"><ele>393</ele><time>2025-12-31T00:00:12.000Z</time></trkpt>
        <trkpt lat="29.193144" lon="104.636252"><ele>393</ele><time>2025-12-31T00:00:14.000Z</time></trkpt>
        <trkpt lat="29.193181" lon="104.636246"><ele>392</ele><time>2025-12-31T00:00:19.000Z</time></trkpt>
        <trkpt lat="29.193222" lon="104.636248"><ele>392</ele><time>2025-12-31T00:00:22.000Z</time></trkpt>
        <trkpt lat="29.193257" lon="104.636258"><ele>391</ele><time>2025-12-31T00:00:26.000Z</time></trkpt>
        <trkpt lat="29.193315" lon="104.636273"><ele>391</ele><time>2025-12-31T00:00:33.000Z</time></trkpt>
        <trkpt lat="29.193362" lon="104.636264"><ele>391</ele><time>2025-12-31T00:00:39.000Z</time></trkpt>
        <trkpt lat="29.193365" lon="104.636257"><ele>391</ele><time>2025-12-31T00:00:40.000Z</time></trkpt>
        <trkpt lat="29.193392" lon="104.636232"><ele>391</ele><time>2025-12-31T00:00:45.000Z</time></trkpt>
        <trkpt lat="29.19338" lon="104.636225"><ele>391</ele><time>2025-12-31T00:00:48.000Z</time></trkpt>
        <trkpt lat="29.193339" lon="104.636202"><ele>391</ele><time>2025-12-31T00:00:52.000Z</time></trkpt>
        <trkpt lat="29.193301" lon="104.636145"><ele>391</ele><time>2025-12-31T00:00:58.000Z</time></trkpt>
        <trkpt lat="29.193266" lon="104.636123"><ele>391</ele><time>2025-12-31T00:01:03.000Z</time></trkpt>
        <trkpt lat="29.193269" lon="104.636105"><ele>391</ele><time>2025-12-31T00:01:10.000Z</time></trkpt>
        <trkpt lat="29.193268" lon="104.636103"><ele>391</ele><time>2025-12-31T00:01:11.000Z</time></trkpt>
        <trkpt lat="29.193236" lon="104.636087"><ele>392</ele><time>2025-12-31T00:01:16.000Z</time></trkpt>
        <trkpt lat="29.193184" lon="104.636045"><ele>393</ele><time>2025-12-31T00:01:22.000Z</time></trkpt>
        <trkpt lat="29.193178" lon="104.636011"><ele>394</ele><time>2025-12-31T00:01:24.000Z</time></trkpt>
        <trkpt lat="29.193178" lon="104.635995"><ele>394</ele><time>2025-12-31T00:01:25.000Z</time></trkpt>
        <trkpt lat="29.19318" lon="104.635978"><ele>395</ele><time>2025-12-31T00:01:27.000Z</time></trkpt>
        <trkpt lat="29.193186" lon="104.635955"><ele>395</ele><time>2025-12-31T00:01:29.000Z</time></trkpt>
        <trkpt lat="29.193194" lon="104.635931"><ele>396</ele><time>2025-12-31T00:01:32.000Z</time></trkpt>
        <trkpt lat="29.193199" lon="104.635905"><ele>396</ele><time>2025-12-31T00:01:34.000Z</time></trkpt>
        <trkpt lat="29.193206" lon="104.635869"><ele>396</ele><time>2025-12-31T00:01:37.000Z</time></trkpt>
        <trkpt lat="29.193209" lon="104.635789"><ele>397</ele><time>2025-12-31T00:01:44.000Z</time></trkpt>
        <trkpt lat="29.193195" lon="104.635703"><ele>397</ele><time>2025-12-31T00:01:50.000Z</time></trkpt>
        <trkpt lat="29.193181" lon="104.635652"><ele>399</ele><time>2025-12-31T00:01:55.000Z</time></trkpt>
        <trkpt lat="29.193176" lon="104.635636"><ele>399</ele><time>2025-12-31T00:01:56.000Z</time></trkpt>
        <trkpt lat="29.193173" lon="104.635626"><ele>399</ele><time>2025-12-31T00:02:00.000Z</time></trkpt>
        <trkpt lat="29.193173" lon="104.635628"><ele>399</ele><time>2025-12-31T00:02:01.000Z</time></trkpt>
        <trkpt lat="29.193167" lon="104.635624"><ele>399</ele><time>2025-12-31T00:02:03.000Z</time></trkpt>
        <trkpt lat="29.193138" lon="104.635587"><ele>399</ele><time>2025-12-31T00:02:07.000Z</time></trkpt>
        <trkpt lat="29.193092" lon="104.635538"><ele>400</ele><time>2025-12-31T00:02:17.000Z</time></trkpt>
        <trkpt lat="29.193087" lon="104.635529"><ele>400</ele><time>2025-12-31T00:02:18.000Z</time></trkpt>
        <trkpt lat="29.193038" lon="104.635484"><ele>400</ele><time>2025-12-31T00:02:26.000Z</time></trkpt>
        <trkpt lat="29.192997" lon="104.635477"><ele>400</ele><time>2025-12-31T00:02:33.000Z</time></trkpt>
        <trkpt lat="29.19297" lon="104.635488"><ele>401</ele><time>2025-12-31T00:02:37.000Z</time></trkpt>
        <trkpt lat="29.192939" lon="104.63549"><ele>401</ele><time>2025-12-31T00:02:40.000Z</time></trkpt>
        <trkpt lat="29.192842" lon="104.635481"><ele>401</ele><time>2025-12-31T00:02:48.000Z</time></trkpt>
        <trkpt lat="29.192775" lon="104.635483"><ele>402</ele><time>2025-12-31T00:02:53.000Z</time></trkpt>
        <trkpt lat="29.192739" lon="104.635478"><ele>402</ele><time>2025-12-31T00:02:56.000Z</time></trkpt>
        <trkpt lat="29.192697" lon="104.635476"><ele>402</ele><time>2025-12-31T00:02:59.000Z</time></trkpt>
        <trkpt lat="29.192671" lon="104.63548"><ele>402</ele><time>2025-12-31T00:03:01.000Z</time></trkpt>
        <trkpt lat="29.192649" lon="104.635486"><ele>402</ele><time>2025-12-31T00:03:03.000Z</time></trkpt>
        <trkpt lat="29.192599" lon="104.635508"><ele>402</ele><time>2025-12-31T00:03:08.000Z</time></trkpt>
        <trkpt lat="29.192569" lon="104.635554"><ele>401</ele><time>2025-12-31T00:03:13.000Z</time></trkpt>
        <trkpt lat="29.192557" lon="104.635587"><ele>401</ele><time>2025-12-31T00:03:15.000Z</time></trkpt>
        <trkpt lat="29.192547" lon="104.635591"><ele>401</ele><time>2025-12-31T00:03:16.000Z</time></trkpt>
        <trkpt lat="29.192531" lon="104.635604"><ele>401</ele><time>2025-12-31T00:03:18.000Z</time></trkpt>
        <trkpt lat="29.192479" lon="104.635597"><ele>402</ele><time>2025-12-31T00:03:26.000Z</time></trkpt>
        <trkpt lat="29.192475" lon="104.635586"><ele>402</ele><time>2025-12-31T00:03:27.000Z</time></trkpt>
        <trkpt lat="29.192457" lon="104.635532"><ele>402</ele><time>2025-12-31T00:03:32.000Z</time></trkpt>
        <trkpt lat="29.192413" lon="104.63549"><ele>402</ele><time>2025-12-31T00:03:39.000Z</time></trkpt>
        <trkpt lat="29.192402" lon="104.635457"><ele>402</ele><time>2025-12-31T00:03:46.000Z</time></trkpt>
        <trkpt lat="29.192399" lon="104.635459"><ele>402</ele><time>2025-12-31T00:03:53.000Z</time></trkpt>
        <trkpt lat="29.192375" lon="104.635443"><ele>402</ele><time>2025-12-31T00:03:56.000Z</time></trkpt>
        <trkpt lat="29.192333" lon="104.635445"><ele>402</ele><time>2025-12-31T00:04:02.000Z</time></trkpt>
        <trkpt lat="29.192316" lon="104.635453"><ele>403</ele><time>2025-12-31T00:04:05.000Z</time></trkpt>
        <trkpt lat="29.192287" lon="104.63549"><ele>403</ele><time>2025-12-31T00:04:11.000Z</time></trkpt>
        <trkpt lat="29.192283" lon="104.635495"><ele>403</ele><time>2025-12-31T00:04:18.000Z</time></trkpt>
        <trkpt lat="29.192306" lon="104.635483"><ele>403</ele><time>2025-12-31T00:04:25.000Z</time></trkpt>
        <trkpt lat="29.192301" lon="104.635488"><ele>403</ele><time>2025-12-31T00:04:28.000Z</time></trkpt>
        <trkpt lat="29.192268" lon="104.63551"><ele>402</ele><time>2025-12-31T00:04:35.000Z</time></trkpt>
        <trkpt lat="29.192243" lon="104.635543"><ele>402</ele><time>2025-12-31T00:04:40.000Z</time></trkpt>
        <trkpt lat="29.192242" lon="104.635554"><ele>402</ele><time>2025-12-31T00:04:41.000Z</time></trkpt>
        <trkpt lat="29.192241" lon="104.635558"><ele>402</ele><time>2025-12-31T00:04:42.000Z</time></trkpt>
        <trkpt lat="29.192241" lon="104.635565"><ele>402</ele><time>2025-12-31T00:04:44.000Z</time></trkpt>
        <trkpt lat="29.192237" lon="104.635571"><ele>402</ele><time>2025-12-31T00:04:45.000Z</time></trkpt>
        <trkpt lat="29.192234" lon="104.635583"><ele>402</ele><time>2025-12-31T00:04:46.000Z</time></trkpt>
        <trkpt lat="29.192218" lon="104.635625"><ele>402</ele><time>2025-12-31T00:04:49.000Z</time></trkpt>
        <trkpt lat="29.192213" lon="104.635636"><ele>402</ele><time>2025-12-31T00:04:50.000Z</time></trkpt>
        <trkpt lat="29.192193" lon="104.635681"><ele>401</ele><time>2025-12-31T00:04:55.000Z</time></trkpt>
        <trkpt lat="29.192173" lon="104.635715"><ele>400</ele><time>2025-12-31T00:04:59.000Z</time></trkpt>
        <trkpt lat="29.192137" lon="104.635773"><ele>399</ele><time>2025-12-31T00:05:06.000Z</time></trkpt>
        <trkpt lat="29.19213" lon="104.635787"><ele>399</ele><time>2025-12-31T00:05:07.000Z</time></trkpt>
        <trkpt lat="29.192123" lon="104.635816"><ele>398</ele><time>2025-12-31T00:05:12.000Z</time></trkpt>
        <trkpt lat="29.19211" lon="104.635831"><ele>398</ele><time>2025-12-31T00:05:14.000Z</time></trkpt>
        <trkpt lat="29.192076" lon="104.635874"><ele>398</ele><time>2025-12-31T00:05:21.000Z</time></trkpt>
        <trkpt lat="29.192073" lon="104.635889"><ele>398</ele><time>2025-12-31T00:05:23.000Z</time></trkpt>
        <trkpt lat="29.192072" lon="104.635895"><ele>398</ele><time>2025-12-31T00:05:24.000Z</time></trkpt>
        <trkpt lat="29.19207" lon="104.635931"><ele>397</ele><time>2025-12-31T00:05:28.000Z</time></trkpt>
        <trkpt lat="29.192068" lon="104.635939"><ele>397</ele><time>2025-12-31T00:05:29.000Z</time></trkpt>
        <trkpt lat="29.192079" lon="104.635987"><ele>396</ele><time>2025-12-31T00:05:34.000Z</time></trkpt>
        <trkpt lat="29.192086" lon="104.635992"><ele>396</ele><time>2025-12-31T00:05:35.000Z</time></trkpt>
        <trkpt lat="29.192096" lon="104.636001"><ele>396</ele><time>2025-12-31T00:05:36.000Z</time></trkpt>
        <trkpt lat="29.192101" lon="104.635995"><ele>395</ele><time>2025-12-31T00:05:38.000Z</time></trkpt>
        <trkpt lat="29.192099" lon="104.635988"><ele>395</ele><time>2025-12-31T00:05:40.000Z</time></trkpt>
        <trkpt lat="29.192095" lon="104.635988"><ele>394</ele><time>2025-12-31T00:05:42.000Z</time></trkpt>
        <trkpt lat="29.192084" lon="104.635995"><ele>395</ele><time>2025-12-31T00:05:49.000Z</time></trkpt>
        <trkpt lat="29.192084" lon="104.636001"><ele>395</ele><time>2025-12-31T00:05:50.000Z</time></trkpt>
        <trkpt lat="29.192071" lon="104.636003"><ele>394</ele><time>2025-12-31T00:05:54.000Z</time></trkpt>
        <trkpt lat="29.192039" lon="104.635981"><ele>394</ele><time>2025-12-31T00:05:58.000Z</time></trkpt>
        <trkpt lat="29.192032" lon="104.635977"><ele>393</ele><time>2025-12-31T00:05:59.000Z</time></trkpt>
        <trkpt lat="29.192044" lon="104.635981"><ele>393</ele><time>2025-12-31T00:06:05.000Z</time></trkpt>
        <trkpt lat="29.192057" lon="104.635976"><ele>393</ele><time>2025-12-31T00:06:14.000Z</time></trkpt>
        <trkpt lat="29.19205" lon="104.63597"><ele>392</ele><time>2025-12-31T00:06:16.000Z</time></trkpt>
        <trkpt lat="29.192022" lon="104.635963"><ele>391</ele><time>2025-12-31T00:06:20.000Z</time></trkpt>
        <trkpt lat="29.192022" lon="104.635959"><ele>391</ele><time>2025-12-31T00:06:21.000Z</time></trkpt>
        <trkpt lat="29.192009" lon="104.635926"><ele>391</ele><time>2025-12-31T00:06:24.000Z</time></trkpt>
        <trkpt lat="29.192001" lon="104.635892"><ele>390</ele><time>2025-12-31T00:06:29.000Z</time></trkpt>
        <trkpt lat="29.192007" lon="104.635904"><ele>390</ele><time>2025-12-31T00:06:35.000Z</time></trkpt>
        <trkpt lat="29.192007" lon="104.635904"><ele>390</ele><time>2025-12-31T00:06:37.000Z</time></trkpt>
        <trkpt lat="29.192017" lon="104.635885"><ele>390</ele><time>2025-12-31T00:06:40.000Z</time></trkpt>
        <trkpt lat="29.192027" lon="104.635858"><ele>390</ele><time>2025-12-31T00:06:42.000Z</time></trkpt>
        <trkpt lat="29.192048" lon="104.635812"><ele>390</ele><time>2025-12-31T00:06:45.000Z</time></trkpt>
        <trkpt lat="29.192063" lon="104.635787"><ele>390</ele><time>2025-12-31T00:06:47.000Z</time></trkpt>
        <trkpt lat="29.192082" lon="104.635729"><ele>389</ele><time>2025-12-31T00:06:54.000Z</time></trkpt>
        <trkpt lat="29.192083" lon="104.635719"><ele>389</ele><time>2025-12-31T00:06:56.000Z</time></trkpt>
        <trkpt lat="29.192083" lon="104.635706"><ele>389</ele><time>2025-12-31T00:06:58.000Z</time></trkpt>
        <trkpt lat="29.192096" lon="104.635682"><ele>388</ele><time>2025-12-31T00:07:03.000Z</time></trkpt>
        <trkpt lat="29.192109" lon="104.635657"><ele>387</ele><time>2025-12-31T00:07:06.000Z</time></trkpt>
        <trkpt lat="29.192113" lon="104.635652"><ele>387</ele><time>2025-12-31T00:07:07.000Z</time></trkpt>
        <trkpt lat="29.192122" lon="104.635656"><ele>387</ele><time>2025-12-31T00:07:14.000Z</time></trkpt>
        <trkpt lat="29.192123" lon="104.635657"><ele>386</ele><time>2025-12-31T00:07:16.000Z</time></trkpt>
        <trkpt lat="29.192127" lon="104.635653"><ele>386</ele><time>2025-12-31T00:07:18.000Z</time></trkpt>
        <trkpt lat="29.192143" lon="104.635656"><ele>386</ele><time>2025-12-31T00:07:27.000Z</time></trkpt>
        <trkpt lat="29.192151" lon="104.63562"><ele>386</ele><time>2025-12-31T00:07:35.000Z</time></trkpt>
        <trkpt lat="29.192157" lon="104.635595"><ele>386</ele><time>2025-12-31T00:07:38.000Z</time></trkpt>
        <trkpt lat="29.192142" lon="104.635599"><ele>386</ele><time>2025-12-31T00:07:42.000Z</time></trkpt>
        <trkpt lat="29.192108" lon="104.635583"><ele>385</ele><time>2025-12-31T00:07:48.000Z</time></trkpt>
        <trkpt lat="29.192098" lon="104.635579"><ele>384</ele><time>2025-12-31T00:07:57.000Z</time></trkpt>
        <trkpt lat="29.192094" lon="104.635581"><ele>384</ele><time>2025-12-31T00:08:06.000Z</time></trkpt>
        <trkpt lat="29.192053" lon="104.635582"><ele>384</ele><time>2025-12-31T00:08:14.000Z</time></trkpt>
        <trkpt lat="29.192026" lon="104.635582"><ele>384</ele><time>2025-12-31T00:08:22.000Z</time></trkpt>
        <trkpt lat="29.192029" lon="104.635589"><ele>384</ele><time>2025-12-31T00:08:27.000Z</time></trkpt>
        <trkpt lat="29.192025" lon="104.635571"><ele>383</ele><time>2025-12-31T00:08:30.000Z</time></trkpt>
        <trkpt lat="29.192026" lon="104.635558"><ele>383</ele><time>2025-12-31T00:08:31.000Z</time></trkpt>
        <trkpt lat="29.192025" lon="104.635544"><ele>382</ele><time>2025-12-31T00:08:32.000Z</time></trkpt>
        <trkpt lat="29.192011" lon="104.635472"><ele>382</ele><time>2025-12-31T00:08:40.000Z</time></trkpt>
        <trkpt lat="29.191987" lon="104.635482"><ele>383</ele><time>2025-12-31T00:08:45.000Z</time></trkpt>
        <trkpt lat="29.191918" lon="104.635502"><ele>383</ele><time>2025-12-31T00:08:52.000Z</time></trkpt>
        <trkpt lat="29.191811" lon="104.6355"><ele>383</ele><time>2025-12-31T00:09:02.000Z</time></trkpt>
        <trkpt lat="29.191716" lon="104.635459"><ele>383</ele><time>2025-12-31T00:09:12.000Z</time></trkpt>
        <trkpt lat="29.191656" lon="104.635426"><ele>383</ele><time>2025-12-31T00:09:19.000Z</time></trkpt>
        <trkpt lat="29.191639" lon="104.635413"><ele>383</ele><time>2025-12-31T00:09:21.000Z</time></trkpt>
        <trkpt lat="29.19157" lon="104.635387"><ele>383</ele><time>2025-12-31T00:09:29.000Z</time></trkpt>
        <trkpt lat="29.191493" lon="104.635336"><ele>383</ele><time>2025-12-31T00:09:38.000Z</time></trkpt>
        <trkpt lat="29.191468" lon="104.635248"><ele>383</ele><time>2025-12-31T00:09:46.000Z</time></trkpt>
        <trkpt lat="29.191449" lon="104.635166"><ele>384</ele><time>2025-12-31T00:09:54.000Z</time></trkpt>
        <trkpt lat="29.191447" lon="104.635152"><ele>384</ele><time>2025-12-31T00:09:55.000Z</time></trkpt>
        <trkpt lat="29.191456" lon="104.635066"><ele>384</ele><time>2025-12-31T00:10:04.000Z</time></trkpt>
        <trkpt lat="29.191425" lon="104.635047"><ele>385</ele><time>2025-12-31T00:10:10.000Z</time></trkpt>
        <trkpt lat="29.191412" lon="104.635046"><ele>385</ele><time>2025-12-31T00:10:12.000Z</time></trkpt>
        <trkpt lat="29.191401" lon="104.63505"><ele>386</ele><time>2025-12-31T00:10:14.000Z</time></trkpt>
        <trkpt lat="29.191413" lon="104.635047"><ele>387</ele><time>2025-12-31T00:10:16.000Z</time></trkpt>
        <trkpt lat="29.19142" lon="104.635047"><ele>387</ele><time>2025-12-31T00:10:17.000Z</time></trkpt>
        <trkpt lat="29.191425" lon="104.635047"><ele>388</ele><time>2025-12-31T00:10:18.000Z</time></trkpt>
        <trkpt lat="29.191426" lon="104.63504"><ele>388</ele><time>2025-12-31T00:10:20.000Z</time></trkpt>
        <trkpt lat="29.191447" lon="104.635008"><ele>389</ele><time>2025-12-31T00:10:24.000Z</time></trkpt>
        <trkpt lat="29.191453" lon="104.634998"><ele>390</ele><time>2025-12-31T00:10:26.000Z</time></trkpt>
        <trkpt lat="29.191466" lon="104.634985"><ele>391</ele><time>2025-12-31T00:10:29.000Z</time></trkpt>
        <trkpt lat="29.191485" lon="104.634976"><ele>392</ele><time>2025-12-31T00:10:32.000Z</time></trkpt>
        <trkpt lat="29.191502" lon="104.634966"><ele>392</ele><time>2025-12-31T00:10:34.000Z</time></trkpt>
        <trkpt lat="29.191512" lon="104.634962"><ele>392</ele><time>2025-12-31T00:10:35.000Z</time></trkpt>
        <trkpt lat="29.191524" lon="104.634955"><ele>392</ele><time>2025-12-31T00:10:38.000Z</time></trkpt>
        <trkpt lat="29.191546" lon="104.634928"><ele>393</ele><time>2025-12-31T00:10:41.000Z</time></trkpt>
        <trkpt lat="29.191553" lon="104.634922"><ele>393</ele><time>2025-12-31T00:10:42.000Z</time></trkpt>
        <trkpt lat="29.191559" lon="104.634914"><ele>393</ele><time>2025-12-31T00:10:43.000Z</time></trkpt>
        <trkpt lat="29.191577" lon="104.634884"><ele>394</ele><time>2025-12-31T00:10:49.000Z</time></trkpt>
        <trkpt lat="29.191582" lon="104.634879"><ele>395</ele><time>2025-12-31T00:10:51.000Z</time></trkpt>
        <trkpt lat="29.191603" lon="104.634871"><ele>396</ele><time>2025-12-31T00:10:53.000Z</time></trkpt>
        <trkpt lat="29.191613" lon="104.634871"><ele>396</ele><time>2025-12-31T00:10:55.000Z</time></trkpt>
        <trkpt lat="29.191626" lon="104.634858"><ele>396</ele><time>2025-12-31T00:10:57.000Z</time></trkpt>
        <trkpt lat="29.191627" lon="104.634858"><ele>397</ele><time>2025-12-31T00:10:58.000Z</time></trkpt>
        <trkpt lat="29.191628" lon="104.634833"><ele>397</ele><time>2025-12-31T00:11:01.000Z</time></trkpt>
        <trkpt lat="29.191623" lon="104.634831"><ele>398</ele><time>2025-12-31T00:11:02.000Z</time></trkpt>
        <trkpt lat="29.191617" lon="104.634812"><ele>399</ele><time>2025-12-31T00:11:06.000Z</time></trkpt>
        <trkpt lat="29.191608" lon="104.634811"><ele>399</ele><time>2025-12-31T00:11:09.000Z</time></trkpt>
        <trkpt lat="29.191607" lon="104.634804"><ele>400</ele><time>2025-12-31T00:11:12.000Z</time></trkpt>
        <trkpt lat="29.191601" lon="104.634799"><ele>400</ele><time>2025-12-31T00:11:14.000Z</time></trkpt>
        <trkpt lat="29.191604" lon="104.634801"><ele>400</ele><time>2025-12-31T00:11:22.000Z</time></trkpt>
        <trkpt lat="29.191604" lon="104.634803"><ele>400</ele><time>2025-12-31T00:11:24.000Z</time></trkpt>
        <trkpt lat="29.191579" lon="104.634805"><ele>400</ele><time>2025-12-31T00:11:33.000Z</time></trkpt>
        <trkpt lat="29.191565" lon="104.634799"><ele>401</ele><time>2025-12-31T00:11:36.000Z</time></trkpt>
        <trkpt lat="29.19154" lon="104.634799"><ele>402</ele><time>2025-12-31T00:11:40.000Z</time></trkpt>
        <trkpt lat="29.191535" lon="104.634801"><ele>402</ele><time>2025-12-31T00:11:41.000Z</time></trkpt>
        <trkpt lat="29.191521" lon="104.634812"><ele>402</ele><time>2025-12-31T00:11:44.000Z</time></trkpt>
        <trkpt lat="29.191499" lon="104.634818"><ele>403</ele><time>2025-12-31T00:11:49.000Z</time></trkpt>
        <trkpt lat="29.191495" lon="104.63482"><ele>403</ele><time>2025-12-31T00:11:50.000Z</time></trkpt>
        <trkpt lat="29.191475" lon="104.634823"><ele>404</ele><time>2025-12-31T00:11:54.000Z</time></trkpt>
        <trkpt lat="29.19147" lon="104.634824"><ele>404</ele><time>2025-12-31T00:11:56.000Z</time></trkpt>
        <trkpt lat="29.191462" lon="104.63484"><ele>405</ele><time>2025-12-31T00:11:59.000Z</time></trkpt>
        <trkpt lat="29.19145" lon="104.63485"><ele>405</ele><time>2025-12-31T00:12:02.000Z</time></trkpt>
        <trkpt lat="29.191441" lon="104.634848"><ele>406</ele><time>2025-12-31T00:12:03.000Z</time></trkpt>
        <trkpt lat="29.191423" lon="104.634857"><ele>406</ele><time>2025-12-31T00:12:07.000Z</time></trkpt>
        <trkpt lat="29.191417" lon="104.634863"><ele>406</ele><time>2025-12-31T00:12:08.000Z</time></trkpt>
        <trkpt lat="29.191392" lon="104.634896"><ele>408</ele><time>2025-12-31T00:12:14.000Z</time></trkpt>
        <trkpt lat="29.191388" lon="104.6349"><ele>408</ele><time>2025-12-31T00:12:15.000Z</time></trkpt>
        <trkpt lat="29.19133" lon="104.634907"><ele>409</ele><time>2025-12-31T00:12:21.000Z</time></trkpt>
        <trkpt lat="29.191311" lon="104.634909"><ele>409</ele><time>2025-12-31T00:12:24.000Z</time></trkpt>
        <trkpt lat="29.191293" lon="104.634914"><ele>410</ele><time>2025-12-31T00:12:28.000Z</time></trkpt>
        <trkpt lat="29.191285" lon="104.634918"><ele>410</ele><time>2025-12-31T00:12:32.000Z</time></trkpt>
        <trkpt lat="29.19119" lon="104.634926"><ele>410</ele><time>2025-12-31T00:12:42.000Z</time></trkpt>
        <trkpt lat="29.191167" lon="104.634932"><ele>411</ele><time>2025-12-31T00:12:44.000Z</time></trkpt>
        <trkpt lat="29.191099" lon="104.634954"><ele>411</ele><time>2025-12-31T00:12:50.000Z</time></trkpt>
        <trkpt lat="29.191057" lon="104.634987"><ele>411</ele><time>2025-12-31T00:12:55.000Z</time></trkpt>
        <trkpt lat="29.191005" lon="104.635042"><ele>411</ele><time>2025-12-31T00:13:01.000Z</time></trkpt>
        <trkpt lat="29.19099" lon="104.635058"><ele>411</ele><time>2025-12-31T00:13:03.000Z</time></trkpt>
        <trkpt lat="29.190964" lon="104.63508"><ele>412</ele><time>2025-12-31T00:13:07.000Z</time></trkpt>
        <trkpt lat="29.190957" lon="104.63508"><ele>412</ele><time>2025-12-31T00:13:08.000Z</time></trkpt>
        <trkpt lat="29.190916" lon="104.635102"><ele>413</ele><time>2025-12-31T00:13:14.000Z</time></trkpt>
        <trkpt lat="29.190908" lon="104.635107"><ele>413</ele><time>2025-12-31T00:13:15.000Z</time></trkpt>
        <trkpt lat="29.190852" lon="104.635142"><ele>413</ele><time>2025-12-31T00:13:20.000Z</time></trkpt>
        <trkpt lat="29.190843" lon="104.635149"><ele>413</ele><time>2025-12-31T00:13:21.000Z</time></trkpt>
        <trkpt lat="29.190798" lon="104.635167"><ele>414</ele><time>2025-12-31T00:13:27.000Z</time></trkpt>
        <trkpt lat="29.190772" lon="104.63518"><ele>414</ele><time>2025-12-31T00:13:30.000Z</time></trkpt>
        <trkpt lat="29.190717" lon="104.635214"><ele>415</ele><time>2025-12-31T00:13:36.000Z</time></trkpt>
        <trkpt lat="29.190703" lon="104.635214"><ele>415</ele><time>2025-12-31T00:13:38.000Z</time></trkpt>
        <trkpt lat="29.190698" lon="104.635204"><ele>415</ele><time>2025-12-31T00:13:42.000Z</time></trkpt>
        <trkpt lat="29.190692" lon="104.635228"><ele>415</ele><time>2025-12-31T00:13:50.000Z</time></trkpt>
        <trkpt lat="29.190686" lon="104.635217"><ele>415</ele><time>2025-12-31T00:13:54.000Z</time></trkpt>
        <trkpt lat="29.19068" lon="104.635218"><ele>415</ele><time>2025-12-31T00:13:57.000Z</time></trkpt>
        <trkpt lat="29.190679" lon="104.635213"><ele>415</ele><time>2025-12-31T00:13:58.000Z</time></trkpt>
        <trkpt lat="29.190679" lon="104.635212"><ele>415</ele><time>2025-12-31T00:14:00.000Z</time></trkpt>
        <trkpt lat="29.190678" lon="104.635213"><ele>414</ele><time>2025-12-31T00:14:01.000Z</time></trkpt>
        <trkpt lat="29.190698" lon="104.635223"><ele>414</ele><time>2025-12-31T00:14:09.000Z</time></trkpt>
        <trkpt lat="29.190699" lon="104.635224"><ele>414</ele><time>2025-12-31T00:14:13.000Z</time></trkpt>
        <trkpt lat="29.190698" lon="104.635226"><ele>414</ele><time>2025-12-31T00:14:17.000Z</time></trkpt>
        <trkpt lat="29.190681" lon="104.635251"><ele>414</ele><time>2025-12-31T00:14:22.000Z</time></trkpt>
        <trkpt lat="29.190671" lon="104.635258"><ele>415</ele><time>2025-12-31T00:14:29.000Z</time></trkpt>
        <trkpt lat="29.190674" lon="104.635261"><ele>415</ele><time>2025-12-31T00:14:41.000Z</time></trkpt>
        <trkpt lat="29.190662" lon="104.635268"><ele>414</ele><time>2025-12-31T00:14:47.000Z</time></trkpt>
        <trkpt lat="29.190661" lon="104.635273"><ele>415</ele><time>2025-12-31T00:14:48.000Z</time></trkpt>
        <trkpt lat="29.190632" lon="104.635317"><ele>415</ele><time>2025-12-31T00:14:54.000Z</time></trkpt>
        <trkpt lat="29.190607" lon="104.635358"><ele>416</ele><time>2025-12-31T00:15:01.000Z</time></trkpt>
        <trkpt lat="29.190562" lon="104.635395"><ele>416</ele><time>2025-12-31T00:15:06.000Z</time></trkpt>
        <trkpt lat="29.190524" lon="104.635413"><ele>416</ele><time>2025-12-31T00:15:11.000Z</time></trkpt>
        <trkpt lat="29.19052" lon="104.635417"><ele>416</ele><time>2025-12-31T00:15:12.000Z</time></trkpt>
        <trkpt lat="29.190515" lon="104.635418"><ele>416</ele><time>2025-12-31T00:15:18.000Z</time></trkpt>
        <trkpt lat="29.190493" lon="104.635412"><ele>416</ele><time>2025-12-31T00:15:20.000Z</time></trkpt>
        <trkpt lat="29.190487" lon="104.635409"><ele>416</ele><time>2025-12-31T00:15:21.000Z</time></trkpt>
        <trkpt lat="29.190482" lon="104.635416"><ele>416</ele><time>2025-12-31T00:15:23.000Z</time></trkpt>
        <trkpt lat="29.190467" lon="104.635441"><ele>416</ele><time>2025-12-31T00:15:30.000Z</time></trkpt>
        <trkpt lat="29.190455" lon="104.635493"><ele>416</ele><time>2025-12-31T00:15:37.000Z</time></trkpt>
        <trkpt lat="29.19045" lon="104.635511"><ele>416</ele><time>2025-12-31T00:15:44.000Z</time></trkpt>
        <trkpt lat="29.190445" lon="104.635522"><ele>416</ele><time>2025-12-31T00:15:45.000Z</time></trkpt>
        <trkpt lat="29.190438" lon="104.635535"><ele>416</ele><time>2025-12-31T00:15:48.000Z</time></trkpt>
        <trkpt lat="29.190431" lon="104.635539"><ele>416</ele><time>2025-12-31T00:15:52.000Z</time></trkpt>
        <trkpt lat="29.190432" lon="104.635594"><ele>417</ele><time>2025-12-31T00:15:58.000Z</time></trkpt>
        <trkpt lat="29.190433" lon="104.635605"><ele>417</ele><time>2025-12-31T00:15:59.000Z</time></trkpt>
        <trkpt lat="29.190435" lon="104.635613"><ele>417</ele><time>2025-12-31T00:16:01.000Z</time></trkpt>
        <trkpt lat="29.190427" lon="104.635635"><ele>418</ele><time>2025-12-31T00:16:06.000Z</time></trkpt>
        <trkpt lat="29.190423" lon="104.635659"><ele>418</ele><time>2025-12-31T00:16:11.000Z</time></trkpt>
        <trkpt lat="29.190414" lon="104.635661"><ele>418</ele><time>2025-12-31T00:16:15.000Z</time></trkpt>
        <trkpt lat="29.190407" lon="104.635667"><ele>418</ele><time>2025-12-31T00:16:16.000Z</time></trkpt>
        <trkpt lat="29.19038" lon="104.635675"><ele>419</ele><time>2025-12-31T00:16:23.000Z</time></trkpt>
        <trkpt lat="29.190366" lon="104.6357"><ele>419</ele><time>2025-12-31T00:16:28.000Z</time></trkpt>
        <trkpt lat="29.19035" lon="104.635727"><ele>419</ele><time>2025-12-31T00:16:31.000Z</time></trkpt>
        <trkpt lat="29.190306" lon="104.635754"><ele>420</ele><time>2025-12-31T00:16:38.000Z</time></trkpt>
        <trkpt lat="29.190265" lon="104.635764"><ele>420</ele><time>2025-12-31T00:16:42.000Z</time></trkpt>
        <trkpt lat="29.190236" lon="104.635774"><ele>420</ele><time>2025-12-31T00:16:47.000Z</time></trkpt>
        <trkpt lat="29.190237" lon="104.635789"><ele>420</ele><time>2025-12-31T00:16:54.000Z</time></trkpt>
        <trkpt lat="29.190198" lon="104.635814"><ele>421</ele><time>2025-12-31T00:16:59.000Z</time></trkpt>
        <trkpt lat="29.190187" lon="104.635826"><ele>421</ele><time>2025-12-31T00:17:01.000Z</time></trkpt>
        <trkpt lat="29.190181" lon="104.63584"><ele>421</ele><time>2025-12-31T00:17:05.000Z</time></trkpt>
        <trkpt lat="29.190169" lon="104.63585"><ele>421</ele><time>2025-12-31T00:17:08.000Z</time></trkpt>
        <trkpt lat="29.190131" lon="104.635857"><ele>422</ele><time>2025-12-31T00:17:12.000Z</time></trkpt>
        <trkpt lat="29.190109" lon="104.635861"><ele>423</ele><time>2025-12-31T00:17:14.000Z</time></trkpt>
        <trkpt lat="29.190082" lon="104.635873"><ele>423</ele><time>2025-12-31T00:17:17.000Z</time></trkpt>
        <trkpt lat="29.190071" lon="104.635899"><ele>424</ele><time>2025-12-31T00:17:21.000Z</time></trkpt>
        <trkpt lat="29.190072" lon="104.635904"><ele>424</ele><time>2025-12-31T00:17:22.000Z</time></trkpt>
        <trkpt lat="29.190037" lon="104.635912"><ele>425</ele><time>2025-12-31T00:17:27.000Z</time></trkpt>
        <trkpt lat="29.190029" lon="104.635913"><ele>426</ele><time>2025-12-31T00:17:28.000Z</time></trkpt>
        <trkpt lat="29.189982" lon="104.635928"><ele>426</ele><time>2025-12-31T00:17:34.000Z</time></trkpt>
        <trkpt lat="29.189929" lon="104.635957"><ele>427</ele><time>2025-12-31T00:17:39.000Z</time></trkpt>
        <trkpt lat="29.189921" lon="104.635963"><ele>427</ele><time>2025-12-31T00:17:40.000Z</time></trkpt>
        <trkpt lat="29.189894" lon="104.635998"><ele>427</ele><time>2025-12-31T00:17:48.000Z</time></trkpt>
        <trkpt lat="29.18987" lon="104.636038"><ele>428</ele><time>2025-12-31T00:17:53.000Z</time></trkpt>
        <trkpt lat="29.189835" lon="104.63605"><ele>428</ele><time>2025-12-31T00:17:56.000Z</time></trkpt>
        <trkpt lat="29.189826" lon="104.636065"><ele>428</ele><time>2025-12-31T00:17:58.000Z</time></trkpt>
        <trkpt lat="29.18982" lon="104.636071"><ele>428</ele><time>2025-12-31T00:17:59.000Z</time></trkpt>
        <trkpt lat="29.1898" lon="104.636087"><ele>428</ele><time>2025-12-31T00:18:02.000Z</time></trkpt>
        <trkpt lat="29.189767" lon="104.636107"><ele>428</ele><time>2025-12-31T00:18:06.000Z</time></trkpt>
        <trkpt lat="29.189702" lon="104.63615"><ele>428</ele><time>2025-12-31T00:18:14.000Z</time></trkpt>
        <trkpt lat="29.189683" lon="104.63616"><ele>428</ele><time>2025-12-31T00:18:16.000Z</time></trkpt>
        <trkpt lat="29.189645" lon="104.63618"><ele>428</ele><time>2025-12-31T00:18:22.000Z</time></trkpt>
        <trkpt lat="29.189608" lon="104.636198"><ele>428</ele><time>2025-12-31T00:18:28.000Z</time></trkpt>
        <trkpt lat="29.189601" lon="104.636211"><ele>428</ele><time>2025-12-31T00:18:30.000Z</time></trkpt>
        <trkpt lat="29.189562" lon="104.636264"><ele>429</ele><time>2025-12-31T00:18:37.000Z</time></trkpt>
        <trkpt lat="29.189558" lon="104.636271"><ele>429</ele><time>2025-12-31T00:18:38.000Z</time></trkpt>
        <trkpt lat="29.189551" lon="104.636281"><ele>429</ele><time>2025-12-31T00:18:39.000Z</time></trkpt>
        <trkpt lat="29.189529" lon="104.636309"><ele>429</ele><time>2025-12-31T00:18:42.000Z</time></trkpt>
        <trkpt lat="29.189512" lon="104.636326"><ele>429</ele><time>2025-12-31T00:18:44.000Z</time></trkpt>
        <trkpt lat="29.189423" lon="104.636384"><ele>429</ele><time>2025-12-31T00:18:54.000Z</time></trkpt>
        <trkpt lat="29.189406" lon="104.636396"><ele>429</ele><time>2025-12-31T00:18:57.000Z</time></trkpt>
        <trkpt lat="29.189376" lon="104.636437"><ele>429</ele><time>2025-12-31T00:19:01.000Z</time></trkpt>
        <trkpt lat="29.189321" lon="104.636457"><ele>429</ele><time>2025-12-31T00:19:07.000Z</time></trkpt>
        <trkpt lat="29.189233" lon="104.63647"><ele>429</ele><time>2025-12-31T00:19:16.000Z</time></trkpt>
        <trkpt lat="29.189179" lon="104.636455"><ele>429</ele><time>2025-12-31T00:19:22.000Z</time></trkpt>
        <trkpt lat="29.189134" lon="104.63649"><ele>428</ele><time>2025-12-31T00:19:29.000Z</time></trkpt>
        <trkpt lat="29.189084" lon="104.636542"><ele>428</ele><time>2025-12-31T00:19:35.000Z</time></trkpt>
        <trkpt lat="29.189072" lon="104.636553"><ele>428</ele><time>2025-12-31T00:19:37.000Z</time></trkpt>
        <trkpt lat="29.189035" lon="104.636544"><ele>427</ele><time>2025-12-31T00:19:41.000Z</time></trkpt>
        <trkpt lat="29.189022" lon="104.636515"><ele>427</ele><time>2025-12-31T00:19:44.000Z</time></trkpt>
        <trkpt lat="29.188973" lon="104.636479"><ele>427</ele><time>2025-12-31T00:19:50.000Z</time></trkpt>
        <trkpt lat="29.188959" lon="104.636477"><ele>427</ele><time>2025-12-31T00:19:51.000Z</time></trkpt>
        <trkpt lat="29.188943" lon="104.636473"><ele>426</ele><time>2025-12-31T00:19:52.000Z</time></trkpt>
        <trkpt lat="29.188889" lon="104.636478"><ele>426</ele><time>2025-12-31T00:19:58.000Z</time></trkpt>
        <trkpt lat="29.188809" lon="104.636505"><ele>425</ele><time>2025-12-31T00:20:04.000Z</time></trkpt>
        <trkpt lat="29.188799" lon="104.636511"><ele>425</ele><time>2025-12-31T00:20:05.000Z</time></trkpt>
        <trkpt lat="29.188761" lon="104.636519"><ele>424</ele><time>2025-12-31T00:20:10.000Z</time></trkpt>
        <trkpt lat="29.188749" lon="104.636514"><ele>424</ele><time>2025-12-31T00:20:11.000Z</time></trkpt>
        <trkpt lat="29.188673" lon="104.636462"><ele>424</ele><time>2025-12-31T00:20:18.000Z</time></trkpt>
        <trkpt lat="29.188579" lon="104.63643"><ele>424</ele><time>2025-12-31T00:20:28.000Z</time></trkpt>
        <trkpt lat="29.188488" lon="104.636408"><ele>424</ele><time>2025-12-31T00:20:39.000Z</time></trkpt>
        <trkpt lat="29.188372" lon="104.636388"><ele>425</ele><time>2025-12-31T00:20:51.000Z</time></trkpt>
        <trkpt lat="29.188274" lon="104.636361"><ele>424</ele><time>2025-12-31T00:21:01.000Z</time></trkpt>
        <trkpt lat="29.188196" lon="104.636338"><ele>424</ele><time>2025-12-31T00:21:09.000Z</time></trkpt>
        <trkpt lat="29.188114" lon="104.636316"><ele>423</ele><time>2025-12-31T00:21:17.000Z</time></trkpt>
        <trkpt lat="29.188098" lon="104.636316"><ele>422</ele><time>2025-12-31T00:21:22.000Z</time></trkpt>
        <trkpt lat="29.188098" lon="104.636316"><ele>422</ele><time>2025-12-31T00:21:24.000Z</time></trkpt>
        <trkpt lat="29.188078" lon="104.636298"><ele>422</ele><time>2025-12-31T00:21:32.000Z</time></trkpt>
        <trkpt lat="29.188059" lon="104.636284"><ele>421</ele><time>2025-12-31T00:21:35.000Z</time></trkpt>
        <trkpt lat="29.188033" lon="104.636259"><ele>420</ele><time>2025-12-31T00:21:38.000Z</time></trkpt>
        <trkpt lat="29.187936" lon="104.636167"><ele>420</ele><time>2025-12-31T00:21:48.000Z</time></trkpt>
        <trkpt lat="29.187919" lon="104.63615"><ele>421</ele><time>2025-12-31T00:21:49.000Z</time></trkpt>
        <trkpt lat="29.187871" lon="104.636098"><ele>422</ele><time>2025-12-31T00:21:55.000Z</time></trkpt>
        <trkpt lat="29.187859" lon="104.636093"><ele>422</ele><time>2025-12-31T00:21:56.000Z</time></trkpt>
        <trkpt lat="29.187813" lon="104.636089"><ele>422</ele><time>2025-12-31T00:21:59.000Z</time></trkpt>
        <trkpt lat="29.187769" lon="104.636102"><ele>422</ele><time>2025-12-31T00:22:01.000Z</time></trkpt>
        <trkpt lat="29.187756" lon="104.636134"><ele>422</ele><time>2025-12-31T00:22:06.000Z</time></trkpt>
        <trkpt lat="29.187707" lon="104.636164"><ele>422</ele><time>2025-12-31T00:22:14.000Z</time></trkpt>
        <trkpt lat="29.187709" lon="104.636169"><ele>422</ele><time>2025-12-31T00:22:16.000Z</time></trkpt>
        <trkpt lat="29.18771" lon="104.636171"><ele>422</ele><time>2025-12-31T00:22:17.000Z</time></trkpt>
        <trkpt lat="29.187711" lon="104.636174"><ele>422</ele><time>2025-12-31T00:22:18.000Z</time></trkpt>
        <trkpt lat="29.187702" lon="104.636191"><ele>422</ele><time>2025-12-31T00:22:25.000Z</time></trkpt>
        <trkpt lat="29.187661" lon="104.636226"><ele>422</ele><time>2025-12-31T00:22:33.000Z</time></trkpt>
        <trkpt lat="29.187613" lon="104.636284"><ele>422</ele><time>2025-12-31T00:22:39.000Z</time></trkpt>
        <trkpt lat="29.187587" lon="104.636353"><ele>421</ele><time>2025-12-31T00:22:45.000Z</time></trkpt>
        <trkpt lat="29.187518" lon="104.63644"><ele>421</ele><time>2025-12-31T00:22:55.000Z</time></trkpt>
        <trkpt lat="29.187509" lon="104.636453"><ele>421</ele><time>2025-12-31T00:22:57.000Z</time></trkpt>
        <trkpt lat="29.187465" lon="104.636488"><ele>421</ele><time>2025-12-31T00:23:02.000Z</time></trkpt>
        <trkpt lat="29.187397" lon="104.636545"><ele>420</ele><time>2025-12-31T00:23:09.000Z</time></trkpt>
        <trkpt lat="29.187299" lon="104.636574"><ele>419</ele><time>2025-12-31T00:23:17.000Z</time></trkpt>
        <trkpt lat="29.187271" lon="104.636579"><ele>419</ele><time>2025-12-31T00:23:20.000Z</time></trkpt>
        <trkpt lat="29.18724" lon="104.636579"><ele>419</ele><time>2025-12-31T00:23:23.000Z</time></trkpt>
        <trkpt lat="29.187217" lon="104.636581"><ele>418</ele><time>2025-12-31T00:23:25.000Z</time></trkpt>
        <trkpt lat="29.187145" lon="104.636586"><ele>418</ele><time>2025-12-31T00:23:30.000Z</time></trkpt>
        <trkpt lat="29.18714" lon="104.636588"><ele>418</ele><time>2025-12-31T00:23:31.000Z</time></trkpt>
        <trkpt lat="29.187062" lon="104.636637"><ele>418</ele><time>2025-12-31T00:23:37.000Z</time></trkpt>
        <trkpt lat="29.187019" lon="104.636695"><ele>418</ele><time>2025-12-31T00:23:42.000Z</time></trkpt>
        <trkpt lat="29.187008" lon="104.636786"><ele>418</ele><time>2025-12-31T00:23:49.000Z</time></trkpt>
        <trkpt lat="29.187003" lon="104.636849"><ele>418</ele><time>2025-12-31T00:23:54.000Z</time></trkpt>
        <trkpt lat="29.187016" lon="104.636959"><ele>419</ele><time>2025-12-31T00:24:03.000Z</time></trkpt>
        <trkpt lat="29.187021" lon="104.636985"><ele>419</ele><time>2025-12-31T00:24:05.000Z</time></trkpt>
        <trkpt lat="29.187008" lon="104.637061"><ele>419</ele><time>2025-12-31T00:24:11.000Z</time></trkpt>
        <trkpt lat="29.187023" lon="104.637104"><ele>420</ele><time>2025-12-31T00:24:15.000Z</time></trkpt>
        <trkpt lat="29.187034" lon="104.637118"><ele>420</ele><time>2025-12-31T00:24:17.000Z</time></trkpt>
        <trkpt lat="29.187042" lon="104.63713"><ele>420</ele><time>2025-12-31T00:24:18.000Z</time></trkpt>
        <trkpt lat="29.18707" lon="104.637177"><ele>421</ele><time>2025-12-31T00:24:23.000Z</time></trkpt>
        <trkpt lat="29.187074" lon="104.637202"><ele>421</ele><time>2025-12-31T00:24:25.000Z</time></trkpt>
        <trkpt lat="29.187083" lon="104.637262"><ele>422</ele><time>2025-12-31T00:24:31.000Z</time></trkpt>
        <trkpt lat="29.187093" lon="104.637288"><ele>422</ele><time>2025-12-31T00:24:35.000Z</time></trkpt>
        <trkpt lat="29.187092" lon="104.637303"><ele>422</ele><time>2025-12-31T00:24:37.000Z</time></trkpt>
        <trkpt lat="29.187085" lon="104.637383"><ele>423</ele><time>2025-12-31T00:24:45.000Z</time></trkpt>
        <trkpt lat="29.187086" lon="104.637471"><ele>424</ele><time>2025-12-31T00:24:53.000Z</time></trkpt>
        <trkpt lat="29.187088" lon="104.63752"><ele>425</ele><time>2025-12-31T00:24:57.000Z</time></trkpt>
        <trkpt lat="29.187092" lon="104.637568"><ele>425</ele><time>2025-12-31T00:25:01.000Z</time></trkpt>
        <trkpt lat="29.187067" lon="104.637625"><ele>426</ele><time>2025-12-31T00:25:08.000Z</time></trkpt>
        <trkpt lat="29.187051" lon="104.637702"><ele>426</ele><time>2025-12-31T00:25:18.000Z</time></trkpt>
        <trkpt lat="29.187069" lon="104.637764"><ele>427</ele><time>2025-12-31T00:25:26.000Z</time></trkpt>
        <trkpt lat="29.187069" lon="104.637802"><ele>428</ele><time>2025-12-31T00:25:30.000Z</time></trkpt>
        <trkpt lat="29.187061" lon="104.63784"><ele>428</ele><time>2025-12-31T00:25:35.000Z</time></trkpt>
        <trkpt lat="29.187063" lon="104.637868"><ele>429</ele><time>2025-12-31T00:25:38.000Z</time></trkpt>
        <trkpt lat="29.187062" lon="104.637909"><ele>429</ele><time>2025-12-31T00:25:44.000Z</time></trkpt>
        <trkpt lat="29.187044" lon="104.637932"><ele>430</ele><time>2025-12-31T00:25:47.000Z</time></trkpt>
        <trkpt lat="29.187006" lon="104.637989"><ele>431</ele><time>2025-12-31T00:25:53.000Z</time></trkpt>
        <trkpt lat="29.186989" lon="104.638012"><ele>431</ele><time>2025-12-31T00:25:56.000Z</time></trkpt>
        <trkpt lat="29.18695" lon="104.638083"><ele>431</ele><time>2025-12-31T00:26:03.000Z</time></trkpt>
        <trkpt lat="29.186876" lon="104.638152"><ele>432</ele><time>2025-12-31T00:26:13.000Z</time></trkpt>
        <trkpt lat="29.186796" lon="104.638198"><ele>432</ele><time>2025-12-31T00:26:21.000Z</time></trkpt>
        <trkpt lat="29.186709" lon="104.638239"><ele>432</ele><time>2025-12-31T00:26:29.000Z</time></trkpt>
        <trkpt lat="29.186647" lon="104.638275"><ele>433</ele><time>2025-12-31T00:26:37.000Z</time></trkpt>
        <trkpt lat="29.186625" lon="104.638297"><ele>432</ele><time>2025-12-31T00:26:41.000Z</time></trkpt>
        <trkpt lat="29.186621" lon="104.638306"><ele>432</ele><time>2025-12-31T00:26:44.000Z</time></trkpt>
        <trkpt lat="29.186617" lon="104.638411"><ele>433</ele><time>2025-12-31T00:26:54.000Z</time></trkpt>
        <trkpt lat="29.18663" lon="104.638476"><ele>432</ele><time>2025-12-31T00:27:00.000Z</time></trkpt>
        <trkpt lat="29.186636" lon="104.638514"><ele>433</ele><time>2025-12-31T00:27:03.000Z</time></trkpt>
        <trkpt lat="29.186655" lon="104.63859"><ele>433</ele><time>2025-12-31T00:27:09.000Z</time></trkpt>
        <trkpt lat="29.18666" lon="104.638644"><ele>433</ele><time>2025-12-31T00:27:12.000Z</time></trkpt>
        <trkpt lat="29.186656" lon="104.638694"><ele>434</ele><time>2025-12-31T00:27:17.000Z</time></trkpt>
        <trkpt lat="29.186654" lon="104.638703"><ele>434</ele><time>2025-12-31T00:27:18.000Z</time></trkpt>
        <trkpt lat="29.18663" lon="104.638719"><ele>435</ele><time>2025-12-31T00:27:22.000Z</time></trkpt>
        <trkpt lat="29.186628" lon="104.638721"><ele>435</ele><time>2025-12-31T00:27:24.000Z</time></trkpt>
        <trkpt lat="29.186618" lon="104.638721"><ele>434</ele><time>2025-12-31T00:27:38.000Z</time></trkpt>
        <trkpt lat="29.186635" lon="104.63872"><ele>434</ele><time>2025-12-31T00:27:56.000Z</time></trkpt>
        <trkpt lat="29.18664" lon="104.638672"><ele>434</ele><time>2025-12-31T00:28:02.000Z</time></trkpt>
        <trkpt lat="29.186646" lon="104.638668"><ele>433</ele><time>2025-12-31T00:28:11.000Z</time></trkpt>
        <trkpt lat="29.186645" lon="104.638671"><ele>433</ele><time>2025-12-31T00:28:13.000Z</time></trkpt>
        <trkpt lat="29.186643" lon="104.638672"><ele>433</ele><time>2025-12-31T00:28:15.000Z</time></trkpt>
        <trkpt lat="29.186635" lon="104.638654"><ele>433</ele><time>2025-12-31T00:28:23.000Z</time></trkpt>
        <trkpt lat="29.186636" lon="104.638646"><ele>433</ele><time>2025-12-31T00:28:24.000Z</time></trkpt>
        <trkpt lat="29.186635" lon="104.638638"><ele>433</ele><time>2025-12-31T00:28:25.000Z</time></trkpt>
        <trkpt lat="29.186634" lon="104.638529"><ele>432</ele><time>2025-12-31T00:28:35.000Z</time></trkpt>
        <trkpt lat="29.18662" lon="104.638476"><ele>432</ele><time>2025-12-31T00:28:41.000Z</time></trkpt>
        <trkpt lat="29.186618" lon="104.638434"><ele>432</ele><time>2025-12-31T00:28:45.000Z</time></trkpt>
        <trkpt lat="29.18662" lon="104.638429"><ele>432</ele><time>2025-12-31T00:28:49.000Z</time></trkpt>
        <trkpt lat="29.186621" lon="104.63843"><ele>432</ele><time>2025-12-31T00:28:52.000Z</time></trkpt>
        <trkpt lat="29.186618" lon="104.638408"><ele>432</ele><time>2025-12-31T00:29:09.000Z</time></trkpt>
        <trkpt lat="29.186617" lon="104.638426"><ele>432</ele><time>2025-12-31T00:29:13.000Z</time></trkpt>
        <trkpt lat="29.186617" lon="104.638426"><ele>432</ele><time>2025-12-31T00:29:29.000Z</time></trkpt>
        <trkpt lat="29.186615" lon="104.638418"><ele>432</ele><time>2025-12-31T00:29:40.000Z</time></trkpt>
        <trkpt lat="29.186614" lon="104.638421"><ele>432</ele><time>2025-12-31T00:29:41.000Z</time></trkpt>
        <trkpt lat="29.186606" lon="104.638386"><ele>433</ele><time>2025-12-31T00:29:47.000Z</time></trkpt>
        <trkpt lat="29.186604" lon="104.638373"><ele>433</ele><time>2025-12-31T00:29:48.000Z</time></trkpt>
        <trkpt lat="29.186596" lon="104.638321"><ele>432</ele><time>2025-12-31T00:29:54.000Z</time></trkpt>
        <trkpt lat="29.186574" lon="104.638279"><ele>433</ele><time>2025-12-31T00:29:59.000Z</time></trkpt>
        <trkpt lat="29.186571" lon="104.638273"><ele>433</ele><time>2025-12-31T00:30:00.000Z</time></trkpt>
        <trkpt lat="29.186567" lon="104.638271"><ele>433</ele><time>2025-12-31T00:30:02.000Z</time></trkpt>
        <trkpt lat="29.186575" lon="104.638283"><ele>433</ele><time>2025-12-31T00:30:10.000Z</time></trkpt>
        <trkpt lat="29.186564" lon="104.638277"><ele>433</ele><time>2025-12-31T00:30:14.000Z</time></trkpt>
        <trkpt lat="29.186495" lon="104.638261"><ele>433</ele><time>2025-12-31T00:30:22.000Z</time></trkpt>
        <trkpt lat="29.186451" lon="104.63825"><ele>434</ele><time>2025-12-31T00:30:26.000Z</time></trkpt>
        <trkpt lat="29.1864" lon="104.638249"><ele>435</ele><time>2025-12-31T00:30:31.000Z</time></trkpt>
        <trkpt lat="29.186386" lon="104.638252"><ele>435</ele><time>2025-12-31T00:30:33.000Z</time></trkpt>
        <trkpt lat="29.186315" lon="104.638257"><ele>435</ele><time>2025-12-31T00:30:40.000Z</time></trkpt>
        <trkpt lat="29.186296" lon="104.638252"><ele>435</ele><time>2025-12-31T00:30:42.000Z</time></trkpt>
        <trkpt lat="29.186233" lon="104.638245"><ele>436</ele><time>2025-12-31T00:30:50.000Z</time></trkpt>
        <trkpt lat="29.186223" lon="104.638244"><ele>436</ele><time>2025-12-31T00:30:51.000Z</time></trkpt>
        <trkpt lat="29.186216" lon="104.638242"><ele>436</ele><time>2025-12-31T00:30:52.000Z</time></trkpt>
        <trkpt lat="29.186217" lon="104.638252"><ele>436</ele><time>2025-12-31T00:30:57.000Z</time></trkpt>
        <trkpt lat="29.186206" lon="104.63825"><ele>436</ele><time>2025-12-31T00:31:08.000Z</time></trkpt>
        <trkpt lat="29.186129" lon="104.638252"><ele>437</ele><time>2025-12-31T00:31:16.000Z</time></trkpt>
        <trkpt lat="29.186121" lon="104.63825"><ele>437</ele><time>2025-12-31T00:31:17.000Z</time></trkpt>
        <trkpt lat="29.186016" lon="104.63824"><ele>438</ele><time>2025-12-31T00:31:27.000Z</time></trkpt>
        <trkpt lat="29.185986" lon="104.638236"><ele>438</ele><time>2025-12-31T00:31:31.000Z</time></trkpt>
        <trkpt lat="29.185986" lon="104.638238"><ele>438</ele><time>2025-12-31T00:31:34.000Z</time></trkpt>
        <trkpt lat="29.185992" lon="104.638239"><ele>438</ele><time>2025-12-31T00:31:38.000Z</time></trkpt>
        <trkpt lat="29.185987" lon="104.638238"><ele>438</ele><time>2025-12-31T00:31:43.000Z</time></trkpt>
        <trkpt lat="29.185923" lon="104.638229"><ele>438</ele><time>2025-12-31T00:31:48.000Z</time></trkpt>
        <trkpt lat="29.185835" lon="104.638209"><ele>439</ele><time>2025-12-31T00:31:56.000Z</time></trkpt>
        <trkpt lat="29.185817" lon="104.638197"><ele>439</ele><time>2025-12-31T00:31:58.000Z</time></trkpt>
        <trkpt lat="29.18576" lon="104.63816"><ele>440</ele><time>2025-12-31T00:32:03.000Z</time></trkpt>
        <trkpt lat="29.185744" lon="104.638142"><ele>440</ele><time>2025-12-31T00:32:05.000Z</time></trkpt>
        <trkpt lat="29.185729" lon="104.638125"><ele>440</ele><time>2025-12-31T00:32:07.000Z</time></trkpt>
        <trkpt lat="29.185704" lon="104.638082"><ele>440</ele><time>2025-12-31T00:32:10.000Z</time></trkpt>
        <trkpt lat="29.185692" lon="104.638033"><ele>440</ele><time>2025-12-31T00:32:14.000Z</time></trkpt>
        <trkpt lat="29.18569" lon="104.638022"><ele>440</ele><time>2025-12-31T00:32:15.000Z</time></trkpt>
        <trkpt lat="29.185661" lon="104.637944"><ele>440</ele><time>2025-12-31T00:32:25.000Z</time></trkpt>
        <trkpt lat="29.185654" lon="104.637942"><ele>440</ele><time>2025-12-31T00:32:26.000Z</time></trkpt>
        <trkpt lat="29.185592" lon="104.637937"><ele>440</ele><time>2025-12-31T00:32:33.000Z</time></trkpt>
        <trkpt lat="29.185462" lon="104.637915"><ele>440</ele><time>2025-12-31T00:32:44.000Z</time></trkpt>
        <trkpt lat="29.185339" lon="104.637881"><ele>441</ele><time>2025-12-31T00:32:55.000Z</time></trkpt>
        <trkpt lat="29.185259" lon="104.637845"><ele>440</ele><time>2025-12-31T00:33:04.000Z</time></trkpt>
        <trkpt lat="29.185254" lon="104.637839"><ele>440</ele><time>2025-12-31T00:33:12.000Z</time></trkpt>
        <trkpt lat="29.185259" lon="104.637839"><ele>440</ele><time>2025-12-31T00:33:14.000Z</time></trkpt>
        <trkpt lat="29.18523" lon="104.637812"><ele>440</ele><time>2025-12-31T00:33:24.000Z</time></trkpt>
        <trkpt lat="29.185188" lon="104.637751"><ele>440</ele><time>2025-12-31T00:33:31.000Z</time></trkpt>
        <trkpt lat="29.18518" lon="104.637743"><ele>440</ele><time>2025-12-31T00:33:32.000Z</time></trkpt>
        <trkpt lat="29.185137" lon="104.637682"><ele>439</ele><time>2025-12-31T00:33:38.000Z</time></trkpt>
        <trkpt lat="29.185132" lon="104.637657"><ele>439</ele><time>2025-12-31T00:33:40.000Z</time></trkpt>
        <trkpt lat="29.185152" lon="104.637594"><ele>439</ele><time>2025-12-31T00:33:46.000Z</time></trkpt>
        <trkpt lat="29.185154" lon="104.637568"><ele>438</ele><time>2025-12-31T00:33:48.000Z</time></trkpt>
        <trkpt lat="29.185155" lon="104.637543"><ele>438</ele><time>2025-12-31T00:33:50.000Z</time></trkpt>
        <trkpt lat="29.185143" lon="104.637479"><ele>437</ele><time>2025-12-31T00:33:55.000Z</time></trkpt>
        <trkpt lat="29.18514" lon="104.637466"><ele>437</ele><time>2025-12-31T00:33:56.000Z</time></trkpt>
        <trkpt lat="29.185118" lon="104.637383"><ele>436</ele><time>2025-12-31T00:34:03.000Z</time></trkpt>
        <trkpt lat="29.185114" lon="104.637355"><ele>436</ele><time>2025-12-31T00:34:05.000Z</time></trkpt>
        <trkpt lat="29.185093" lon="104.637287"><ele>435</ele><time>2025-12-31T00:34:10.000Z</time></trkpt>
        <trkpt lat="29.185081" lon="104.637215"><ele>434</ele><time>2025-12-31T00:34:15.000Z</time></trkpt>
        <trkpt lat="29.185083" lon="104.637206"><ele>434</ele><time>2025-12-31T00:34:16.000Z</time></trkpt>
        <trkpt lat="29.185085" lon="104.637138"><ele>433</ele><time>2025-12-31T00:34:22.000Z</time></trkpt>
        <trkpt lat="29.185084" lon="104.637121"><ele>432</ele><time>2025-12-31T00:34:24.000Z</time></trkpt>
        <trkpt lat="29.185082" lon="104.637094"><ele>432</ele><time>2025-12-31T00:34:27.000Z</time></trkpt>
        <trkpt lat="29.185071" lon="104.637031"><ele>431</ele><time>2025-12-31T00:34:34.000Z</time></trkpt>
        <trkpt lat="29.18507" lon="104.637018"><ele>431</ele><time>2025-12-31T00:34:36.000Z</time></trkpt>
        <trkpt lat="29.185068" lon="104.636971"><ele>430</ele><time>2025-12-31T00:34:43.000Z</time></trkpt>
        <trkpt lat="29.185076" lon="104.636964"><ele>429</ele><time>2025-12-31T00:34:45.000Z</time></trkpt>
        <trkpt lat="29.18507" lon="104.636928"><ele>428</ele><time>2025-12-31T00:34:49.000Z</time></trkpt>
        <trkpt lat="29.185047" lon="104.636899"><ele>428</ele><time>2025-12-31T00:34:53.000Z</time></trkpt>
        <trkpt lat="29.185028" lon="104.636872"><ele>427</ele><time>2025-12-31T00:34:56.000Z</time></trkpt>
        <trkpt lat="29.184983" lon="104.636841"><ele>427</ele><time>2025-12-31T00:35:01.000Z</time></trkpt>
        <trkpt lat="29.184931" lon="104.636831"><ele>427</ele><time>2025-12-31T00:35:09.000Z</time></trkpt>
        <trkpt lat="29.184857" lon="104.636846"><ele>426</ele><time>2025-12-31T00:35:16.000Z</time></trkpt>
        <trkpt lat="29.184865" lon="104.63686"><ele>426</ele><time>2025-12-31T00:35:22.000Z</time></trkpt>
        <trkpt lat="29.184867" lon="104.636859"><ele>427</ele><time>2025-12-31T00:35:27.000Z</time></trkpt>
        <trkpt lat="29.184846" lon="104.636857"><ele>427</ele><time>2025-12-31T00:35:29.000Z</time></trkpt>
        <trkpt lat="29.184761" lon="104.63682"><ele>426</ele><time>2025-12-31T00:35:38.000Z</time></trkpt>
        <trkpt lat="29.184756" lon="104.636817"><ele>425</ele><time>2025-12-31T00:35:40.000Z</time></trkpt>
        <trkpt lat="29.184756" lon="104.636828"><ele>425</ele><time>2025-12-31T00:35:46.000Z</time></trkpt>
        <trkpt lat="29.184758" lon="104.63683"><ele>425</ele><time>2025-12-31T00:35:47.000Z</time></trkpt>
        <trkpt lat="29.184759" lon="104.636838"><ele>425</ele><time>2025-12-31T00:35:59.000Z</time></trkpt>
        <trkpt lat="29.184749" lon="104.636811"><ele>424</ele><time>2025-12-31T00:36:11.000Z</time></trkpt>
        <trkpt lat="29.184747" lon="104.636809"><ele>424</ele><time>2025-12-31T00:36:12.000Z</time></trkpt>
        <trkpt lat="29.184729" lon="104.636792"><ele>423</ele><time>2025-12-31T00:36:17.000Z</time></trkpt>
        <trkpt lat="29.184712" lon="104.636777"><ele>423</ele><time>2025-12-31T00:36:19.000Z</time></trkpt>
        <trkpt lat="29.184687" lon="104.636767"><ele>422</ele><time>2025-12-31T00:36:22.000Z</time></trkpt>
        <trkpt lat="29.184648" lon="104.636755"><ele>421</ele><time>2025-12-31T00:36:26.000Z</time></trkpt>
        <trkpt lat="29.18464" lon="104.636747"><ele>421</ele><time>2025-12-31T00:36:27.000Z</time></trkpt>
        <trkpt lat="29.184629" lon="104.63673"><ele>420</ele><time>2025-12-31T00:36:34.000Z</time></trkpt>
        <trkpt lat="29.184627" lon="104.636728"><ele>420</ele><time>2025-12-31T00:36:36.000Z</time></trkpt>
        <trkpt lat="29.184621" lon="104.636725"><ele>420</ele><time>2025-12-31T00:36:40.000Z</time></trkpt>
        <trkpt lat="29.184622" lon="104.636733"><ele>420</ele><time>2025-12-31T00:36:46.000Z</time></trkpt>
        <trkpt lat="29.184638" lon="104.636749"><ele>420</ele><time>2025-12-31T00:36:55.000Z</time></trkpt>
        <trkpt lat="29.184641" lon="104.636751"><ele>420</ele><time>2025-12-31T00:36:58.000Z</time></trkpt>
        <trkpt lat="29.184638" lon="104.636746"><ele>420</ele><time>2025-12-31T00:37:01.000Z</time></trkpt>
        <trkpt lat="29.184615" lon="104.636737"><ele>420</ele><time>2025-12-31T00:37:06.000Z</time></trkpt>
        <trkpt lat="29.184598" lon="104.636743"><ele>419</ele><time>2025-12-31T00:37:08.000Z</time></trkpt>
        <trkpt lat="29.184583" lon="104.636771"><ele>419</ele><time>2025-12-31T00:37:12.000Z</time></trkpt>
        <trkpt lat="29.184569" lon="104.636785"><ele>419</ele><time>2025-12-31T00:37:18.000Z</time></trkpt>
        <trkpt lat="29.184556" lon="104.63678"><ele>418</ele><time>2025-12-31T00:37:20.000Z</time></trkpt>
        <trkpt lat="29.184534" lon="104.636757"><ele>418</ele><time>2025-12-31T00:37:23.000Z</time></trkpt>
        <trkpt lat="29.184523" lon="104.636747"><ele>417</ele><time>2025-12-31T00:37:28.000Z</time></trkpt>
        <trkpt lat="29.184517" lon="104.636751"><ele>418</ele><time>2025-12-31T00:37:34.000Z</time></trkpt>
        <trkpt lat="29.184515" lon="104.636742"><ele>418</ele><time>2025-12-31T00:37:36.000Z</time></trkpt>
        <trkpt lat="29.184504" lon="104.636703"><ele>417</ele><time>2025-12-31T00:37:42.000Z</time></trkpt>
        <trkpt lat="29.184503" lon="104.636693"><ele>416</ele><time>2025-12-31T00:37:44.000Z</time></trkpt>
        <trkpt lat="29.184492" lon="104.636675"><ele>415</ele><time>2025-12-31T00:37:48.000Z</time></trkpt>
        <trkpt lat="29.184466" lon="104.636665"><ele>414</ele><time>2025-12-31T00:37:52.000Z</time></trkpt>
        <trkpt lat="29.184457" lon="104.636663"><ele>413</ele><time>2025-12-31T00:37:56.000Z</time></trkpt>
        <trkpt lat="29.184451" lon="104.636664"><ele>413</ele><time>2025-12-31T00:37:59.000Z</time></trkpt>
        <trkpt lat="29.184434" lon="104.636665"><ele>414</ele><time>2025-12-31T00:38:08.000Z</time></trkpt>
        <trkpt lat="29.184436" lon="104.636664"><ele>414</ele><time>2025-12-31T00:38:09.000Z</time></trkpt>
        <trkpt lat="29.184436" lon="104.63666"><ele>413</ele><time>2025-12-31T00:38:14.000Z</time></trkpt>
        <trkpt lat="29.184435" lon="104.636659"><ele>413</ele><time>2025-12-31T00:38:16.000Z</time></trkpt>
        <trkpt lat="29.184439" lon="104.636669"><ele>413</ele><time>2025-12-31T00:38:20.000Z</time></trkpt>
        <trkpt lat="29.184445" lon="104.636673"><ele>413</ele><time>2025-12-31T00:38:30.000Z</time></trkpt>
        <trkpt lat="29.184449" lon="104.636674"><ele>413</ele><time>2025-12-31T00:38:33.000Z</time></trkpt>
        <trkpt lat="29.184449" lon="104.636671"><ele>413</ele><time>2025-12-31T00:38:35.000Z</time></trkpt>
        <trkpt lat="29.18445" lon="104.636674"><ele>413</ele><time>2025-12-31T00:38:41.000Z</time></trkpt>
        <trkpt lat="29.184426" lon="104.636684"><ele>414</ele><time>2025-12-31T00:38:49.000Z</time></trkpt>
        <trkpt lat="29.184408" lon="104.636669"><ele>414</ele><time>2025-12-31T00:39:00.000Z</time></trkpt>
        <trkpt lat="29.184403" lon="104.636677"><ele>414</ele><time>2025-12-31T00:39:11.000Z</time></trkpt>
        <trkpt lat="29.184418" lon="104.636684"><ele>413</ele><time>2025-12-31T00:39:18.000Z</time></trkpt>
        <trkpt lat="29.184415" lon="104.636679"><ele>413</ele><time>2025-12-31T00:39:22.000Z</time></trkpt>
        <trkpt lat="29.184403" lon="104.636669"><ele>413</ele><time>2025-12-31T00:39:24.000Z</time></trkpt>
        <trkpt lat="29.184401" lon="104.636668"><ele>414</ele><time>2025-12-31T00:39:25.000Z</time></trkpt>
        <trkpt lat="29.184417" lon="104.636693"><ele>413</ele><time>2025-12-31T00:39:30.000Z</time></trkpt>
        <trkpt lat="29.18445" lon="104.636744"><ele>414</ele><time>2025-12-31T00:39:36.000Z</time></trkpt>
        <trkpt lat="29.184459" lon="104.636764"><ele>414</ele><time>2025-12-31T00:39:39.000Z</time></trkpt>
        <trkpt lat="29.184465" lon="104.636847"><ele>414</ele><time>2025-12-31T00:39:47.000Z</time></trkpt>
        <trkpt lat="29.184449" lon="104.63695"><ele>414</ele><time>2025-12-31T00:39:56.000Z</time></trkpt>
        <trkpt lat="29.184442" lon="104.637042"><ele>414</ele><time>2025-12-31T00:40:03.000Z</time></trkpt>
        <trkpt lat="29.184429" lon="104.637126"><ele>415</ele><time>2025-12-31T00:40:11.000Z</time></trkpt>
        <trkpt lat="29.184414" lon="104.637188"><ele>414</ele><time>2025-12-31T00:40:19.000Z</time></trkpt>
        <trkpt lat="29.184367" lon="104.637247"><ele>414</ele><time>2025-12-31T00:40:25.000Z</time></trkpt>
        <trkpt lat="29.184331" lon="104.637286"><ele>414</ele><time>2025-12-31T00:40:30.000Z</time></trkpt>
        <trkpt lat="29.184324" lon="104.637294"><ele>414</ele><time>2025-12-31T00:40:32.000Z</time></trkpt>
        <trkpt lat="29.18432" lon="104.637302"><ele>414</ele><time>2025-12-31T00:40:42.000Z</time></trkpt>
        <trkpt lat="29.184325" lon="104.637291"><ele>414</ele><time>2025-12-31T00:40:51.000Z</time></trkpt>
        <trkpt lat="29.184329" lon="104.637296"><ele>414</ele><time>2025-12-31T00:40:53.000Z</time></trkpt>
        <trkpt lat="29.184326" lon="104.637316"><ele>414</ele><time>2025-12-31T00:41:03.000Z</time></trkpt>
        <trkpt lat="29.184327" lon="104.637318"><ele>414</ele><time>2025-12-31T00:41:04.000Z</time></trkpt>
        <trkpt lat="29.184349" lon="104.637298"><ele>414</ele><time>2025-12-31T00:41:15.000Z</time></trkpt>
        <trkpt lat="29.184349" lon="104.637298"><ele>414</ele><time>2025-12-31T00:41:26.000Z</time></trkpt>
        <trkpt lat="29.184354" lon="104.6373"><ele>414</ele><time>2025-12-31T00:41:29.000Z</time></trkpt>
        <trkpt lat="29.184356" lon="104.637306"><ele>414</ele><time>2025-12-31T00:41:33.000Z</time></trkpt>
        <trkpt lat="29.184349" lon="104.637298"><ele>414</ele><time>2025-12-31T00:41:41.000Z</time></trkpt>
        <trkpt lat="29.184349" lon="104.637298"><ele>414</ele><time>2025-12-31T00:41:44.000Z</time></trkpt>
        <trkpt lat="29.184358" lon="104.637308"><ele>414</ele><time>2025-12-31T00:41:49.000Z</time></trkpt>
        <trkpt lat="29.184355" lon="104.63731"><ele>414</ele><time>2025-12-31T00:41:52.000Z</time></trkpt>
        <trkpt lat="29.18435" lon="104.637313"><ele>414</ele><time>2025-12-31T00:41:55.000Z</time></trkpt>
        <trkpt lat="29.184339" lon="104.637325"><ele>414</ele><time>2025-12-31T00:41:57.000Z</time></trkpt>
        <trkpt lat="29.184327" lon="104.63731"><ele>414</ele><time>2025-12-31T00:42:06.000Z</time></trkpt>
        <trkpt lat="29.184305" lon="104.637359"><ele>414</ele><time>2025-12-31T00:42:11.000Z</time></trkpt>
        <trkpt lat="29.184297" lon="104.637372"><ele>414</ele><time>2025-12-31T00:42:12.000Z</time></trkpt>
        <trkpt lat="29.18429" lon="104.637403"><ele>414</ele><time>2025-12-31T00:42:16.000Z</time></trkpt>
        <trkpt lat="29.184289" lon="104.637389"><ele>413</ele><time>2025-12-31T00:42:18.000Z</time></trkpt>
        <trkpt lat="29.184286" lon="104.637388"><ele>413</ele><time>2025-12-31T00:42:19.000Z</time></trkpt>
        <trkpt lat="29.184231" lon="104.637388"><ele>412</ele><time>2025-12-31T00:42:25.000Z</time></trkpt>
        <trkpt lat="29.184171" lon="104.637367"><ele>412</ele><time>2025-12-31T00:42:31.000Z</time></trkpt>
        <trkpt lat="29.184119" lon="104.637293"><ele>412</ele><time>2025-12-31T00:42:38.000Z</time></trkpt>
        <trkpt lat="29.184132" lon="104.637185"><ele>413</ele><time>2025-12-31T00:42:47.000Z</time></trkpt>
        <trkpt lat="29.184143" lon="104.637163"><ele>413</ele><time>2025-12-31T00:42:50.000Z</time></trkpt>
        <trkpt lat="29.184153" lon="104.63715"><ele>413</ele><time>2025-12-31T00:42:53.000Z</time></trkpt>
        <trkpt lat="29.18417" lon="104.637102"><ele>413</ele><time>2025-12-31T00:42:58.000Z</time></trkpt>
        <trkpt lat="29.184173" lon="104.637091"><ele>413</ele><time>2025-12-31T00:42:59.000Z</time></trkpt>
        <trkpt lat="29.184164" lon="104.637058"><ele>414</ele><time>2025-12-31T00:43:03.000Z</time></trkpt>
        <trkpt lat="29.184158" lon="104.637053"><ele>414</ele><time>2025-12-31T00:43:04.000Z</time></trkpt>
        <trkpt lat="29.184145" lon="104.637037"><ele>415</ele><time>2025-12-31T00:43:06.000Z</time></trkpt>
        <trkpt lat="29.184141" lon="104.63703"><ele>415</ele><time>2025-12-31T00:43:07.000Z</time></trkpt>
        <trkpt lat="29.184137" lon="104.637029"><ele>415</ele><time>2025-12-31T00:43:08.000Z</time></trkpt>
        <trkpt lat="29.184136" lon="104.637027"><ele>416</ele><time>2025-12-31T00:43:09.000Z</time></trkpt>
        <trkpt lat="29.184119" lon="104.637005"><ele>416</ele><time>2025-12-31T00:43:12.000Z</time></trkpt>
        <trkpt lat="29.18411" lon="104.636998"><ele>416</ele><time>2025-12-31T00:43:13.000Z</time></trkpt>
        <trkpt lat="29.18406" lon="104.636953"><ele>417</ele><time>2025-12-31T00:43:17.000Z</time></trkpt>
        <trkpt lat="29.184046" lon="104.636942"><ele>418</ele><time>2025-12-31T00:43:19.000Z</time></trkpt>
        <trkpt lat="29.18403" lon="104.63693"><ele>418</ele><time>2025-12-31T00:43:21.000Z</time></trkpt>
        <trkpt lat="29.18401" lon="104.636925"><ele>418</ele><time>2025-12-31T00:43:24.000Z</time></trkpt>
        <trkpt lat="29.184002" lon="104.636923"><ele>419</ele><time>2025-12-31T00:43:27.000Z</time></trkpt>
        <trkpt lat="29.184024" lon="104.636937"><ele>419</ele><time>2025-12-31T00:43:37.000Z</time></trkpt>
        <trkpt lat="29.184029" lon="104.636939"><ele>419</ele><time>2025-12-31T00:43:39.000Z</time></trkpt>
        <trkpt lat="29.184018" lon="104.636981"><ele>419</ele><time>2025-12-31T00:43:43.000Z</time></trkpt>
        <trkpt lat="29.183983" lon="104.637016"><ele>420</ele><time>2025-12-31T00:43:48.000Z</time></trkpt>
        <trkpt lat="29.183973" lon="104.637031"><ele>420</ele><time>2025-12-31T00:43:51.000Z</time></trkpt>
        <trkpt lat="29.183958" lon="104.637068"><ele>421</ele><time>2025-12-31T00:43:58.000Z</time></trkpt>
        <trkpt lat="29.183951" lon="104.637081"><ele>421</ele><time>2025-12-31T00:44:00.000Z</time></trkpt>
        <trkpt lat="29.18396" lon="104.637119"><ele>422</ele><time>2025-12-31T00:44:06.000Z</time></trkpt>
        <trkpt lat="29.18396" lon="104.637125"><ele>422</ele><time>2025-12-31T00:44:08.000Z</time></trkpt>
        <trkpt lat="29.183955" lon="104.637158"><ele>422</ele><time>2025-12-31T00:44:16.000Z</time></trkpt>
        <trkpt lat="29.183948" lon="104.637164"><ele>422</ele><time>2025-12-31T00:44:17.000Z</time></trkpt>
        <trkpt lat="29.183937" lon="104.637183"><ele>423</ele><time>2025-12-31T00:44:23.000Z</time></trkpt>
        <trkpt lat="29.18394" lon="104.63719"><ele>422</ele><time>2025-12-31T00:44:34.000Z</time></trkpt>
        <trkpt lat="29.183913" lon="104.637182"><ele>423</ele><time>2025-12-31T00:44:40.000Z</time></trkpt>
        <trkpt lat="29.183906" lon="104.637183"><ele>424</ele><time>2025-12-31T00:44:41.000Z</time></trkpt>
        <trkpt lat="29.183899" lon="104.637185"><ele>424</ele><time>2025-12-31T00:44:42.000Z</time></trkpt>
        <trkpt lat="29.183867" lon="104.637183"><ele>424</ele><time>2025-12-31T00:44:46.000Z</time></trkpt>
        <trkpt lat="29.183842" lon="104.637174"><ele>424</ele><time>2025-12-31T00:44:49.000Z</time></trkpt>
        <trkpt lat="29.183822" lon="104.637177"><ele>425</ele><time>2025-12-31T00:44:52.000Z</time></trkpt>
        <trkpt lat="29.183809" lon="104.637193"><ele>425</ele><time>2025-12-31T00:44:56.000Z</time></trkpt>
        <trkpt lat="29.183789" lon="104.63719"><ele>426</ele><time>2025-12-31T00:44:59.000Z</time></trkpt>
        <trkpt lat="29.183738" lon="104.637178"><ele>427</ele><time>2025-12-31T00:45:04.000Z</time></trkpt>
        <trkpt lat="29.183724" lon="104.637176"><ele>427</ele><time>2025-12-31T00:45:06.000Z</time></trkpt>
        <trkpt lat="29.183671" lon="104.63718"><ele>427</ele><time>2025-12-31T00:45:12.000Z</time></trkpt>
        <trkpt lat="29.183667" lon="104.637183"><ele>427</ele><time>2025-12-31T00:45:13.000Z</time></trkpt>
        <trkpt lat="29.183668" lon="104.63723"><ele>427</ele><time>2025-12-31T00:45:20.000Z</time></trkpt>
        <trkpt lat="29.183682" lon="104.637319"><ele>427</ele><time>2025-12-31T00:45:30.000Z</time></trkpt>
        <trkpt lat="29.183696" lon="104.637348"><ele>427</ele><time>2025-12-31T00:45:38.000Z</time></trkpt>
        <trkpt lat="29.183735" lon="104.637464"><ele>428</ele><time>2025-12-31T00:45:48.000Z</time></trkpt>
        <trkpt lat="29.183741" lon="104.637488"><ele>428</ele><time>2025-12-31T00:45:50.000Z</time></trkpt>
        <trkpt lat="29.183739" lon="104.637499"><ele>428</ele><time>2025-12-31T00:45:51.000Z</time></trkpt>
        <trkpt lat="29.183699" lon="104.637571"><ele>428</ele><time>2025-12-31T00:45:59.000Z</time></trkpt>
        <trkpt lat="29.183681" lon="104.637597"><ele>429</ele><time>2025-12-31T00:46:02.000Z</time></trkpt>
        <trkpt lat="29.183665" lon="104.637647"><ele>430</ele><time>2025-12-31T00:46:06.000Z</time></trkpt>
        <trkpt lat="29.183647" lon="104.637683"><ele>431</ele><time>2025-12-31T00:46:10.000Z</time></trkpt>
        <trkpt lat="29.183621" lon="104.637742"><ele>432</ele><time>2025-12-31T00:46:16.000Z</time></trkpt>
        <trkpt lat="29.183618" lon="104.637738"><ele>432</ele><time>2025-12-31T00:46:19.000Z</time></trkpt>
        <trkpt lat="29.183617" lon="104.637737"><ele>432</ele><time>2025-12-31T00:46:21.000Z</time></trkpt>
        <trkpt lat="29.183603" lon="104.637794"><ele>432</ele><time>2025-12-31T00:46:29.000Z</time></trkpt>
        <trkpt lat="29.183605" lon="104.637807"><ele>432</ele><time>2025-12-31T00:46:30.000Z</time></trkpt>
        <trkpt lat="29.183604" lon="104.637858"><ele>433</ele><time>2025-12-31T00:46:35.000Z</time></trkpt>
        <trkpt lat="29.183597" lon="104.637934"><ele>433</ele><time>2025-12-31T00:46:41.000Z</time></trkpt>
        <trkpt lat="29.183591" lon="104.637945"><ele>433</ele><time>2025-12-31T00:46:43.000Z</time></trkpt>
        <trkpt lat="29.183592" lon="104.637948"><ele>433</ele><time>2025-12-31T00:46:44.000Z</time></trkpt>
        <trkpt lat="29.183596" lon="104.637945"><ele>433</ele><time>2025-12-31T00:46:47.000Z</time></trkpt>
        <trkpt lat="29.183595" lon="104.637943"><ele>433</ele><time>2025-12-31T00:46:49.000Z</time></trkpt>
        <trkpt lat="29.183593" lon="104.637941"><ele>433</ele><time>2025-12-31T00:46:54.000Z</time></trkpt>
        <trkpt lat="29.183586" lon="104.637937"><ele>433</ele><time>2025-12-31T00:47:03.000Z</time></trkpt>
        <trkpt lat="29.183586" lon="104.637969"><ele>434</ele><time>2025-12-31T00:47:09.000Z</time></trkpt>
        <trkpt lat="29.183583" lon="104.638025"><ele>433</ele><time>2025-12-31T00:47:17.000Z</time></trkpt>
        <trkpt lat="29.183578" lon="104.63808"><ele>434</ele><time>2025-12-31T00:47:22.000Z</time></trkpt>
        <trkpt lat="29.18357" lon="104.638134"><ele>434</ele><time>2025-12-31T00:47:26.000Z</time></trkpt>
        <trkpt lat="29.183568" lon="104.638145"><ele>435</ele><time>2025-12-31T00:47:27.000Z</time></trkpt>
        <trkpt lat="29.18356" lon="104.638213"><ele>436</ele><time>2025-12-31T00:47:32.000Z</time></trkpt>
        <trkpt lat="29.183561" lon="104.638223"><ele>436</ele><time>2025-12-31T00:47:33.000Z</time></trkpt>
        <trkpt lat="29.183561" lon="104.638283"><ele>436</ele><time>2025-12-31T00:47:38.000Z</time></trkpt>
        <trkpt lat="29.18356" lon="104.638318"><ele>437</ele><time>2025-12-31T00:47:41.000Z</time></trkpt>
        <trkpt lat="29.183557" lon="104.638356"><ele>437</ele><time>2025-12-31T00:47:44.000Z</time></trkpt>
        <trkpt lat="29.183558" lon="104.638369"><ele>437</ele><time>2025-12-31T00:47:45.000Z</time></trkpt>
        <trkpt lat="29.183559" lon="104.638402"><ele>438</ele><time>2025-12-31T00:47:48.000Z</time></trkpt>
        <trkpt lat="29.183548" lon="104.638456"><ele>438</ele><time>2025-12-31T00:47:53.000Z</time></trkpt>
        <trkpt lat="29.183536" lon="104.638519"><ele>439</ele><time>2025-12-31T00:47:58.000Z</time></trkpt>
        <trkpt lat="29.183538" lon="104.638534"><ele>439</ele><time>2025-12-31T00:48:00.000Z</time></trkpt>
        <trkpt lat="29.18353" lon="104.638575"><ele>440</ele><time>2025-12-31T00:48:04.000Z</time></trkpt>
        <trkpt lat="29.183525" lon="104.638599"><ele>440</ele><time>2025-12-31T00:48:06.000Z</time></trkpt>
        <trkpt lat="29.183518" lon="104.638617"><ele>441</ele><time>2025-12-31T00:48:08.000Z</time></trkpt>
        <trkpt lat="29.18351" lon="104.638633"><ele>441</ele><time>2025-12-31T00:48:10.000Z</time></trkpt>
        <trkpt lat="29.183483" lon="104.638668"><ele>442</ele><time>2025-12-31T00:48:14.000Z</time></trkpt>
        <trkpt lat="29.18346" lon="104.638699"><ele>442</ele><time>2025-12-31T00:48:17.000Z</time></trkpt>
        <trkpt lat="29.183461" lon="104.638718"><ele>443</ele><time>2025-12-31T00:48:20.000Z</time></trkpt>
        <trkpt lat="29.183453" lon="104.638777"><ele>443</ele><time>2025-12-31T00:48:26.000Z</time></trkpt>
        <trkpt lat="29.183444" lon="104.6388"><ele>444</ele><time>2025-12-31T00:48:28.000Z</time></trkpt>
        <trkpt lat="29.183433" lon="104.638824"><ele>444</ele><time>2025-12-31T00:48:31.000Z</time></trkpt>
        <trkpt lat="29.183412" lon="104.63886"><ele>445</ele><time>2025-12-31T00:48:35.000Z</time></trkpt>
        <trkpt lat="29.183405" lon="104.638928"><ele>445</ele><time>2025-12-31T00:48:42.000Z</time></trkpt>
        <trkpt lat="29.18339" lon="104.638975"><ele>446</ele><time>2025-12-31T00:48:47.000Z</time></trkpt>
        <trkpt lat="29.183395" lon="104.639018"><ele>446</ele><time>2025-12-31T00:48:51.000Z</time></trkpt>
        <trkpt lat="29.183399" lon="104.639069"><ele>446</ele><time>2025-12-31T00:48:55.000Z</time></trkpt>
        <trkpt lat="29.1834" lon="104.639105"><ele>447</ele><time>2025-12-31T00:48:58.000Z</time></trkpt>
        <trkpt lat="29.183405" lon="104.639176"><ele>447</ele><time>2025-12-31T00:49:04.000Z</time></trkpt>
        <trkpt lat="29.183406" lon="104.639193"><ele>447</ele><time>2025-12-31T00:49:06.000Z</time></trkpt>
        <trkpt lat="29.18341" lon="104.639208"><ele>447</ele><time>2025-12-31T00:49:07.000Z</time></trkpt>
        <trkpt lat="29.183432" lon="104.639249"><ele>448</ele><time>2025-12-31T00:49:11.000Z</time></trkpt>
        <trkpt lat="29.183459" lon="104.639306"><ele>449</ele><time>2025-12-31T00:49:16.000Z</time></trkpt>
        <trkpt lat="29.183462" lon="104.639317"><ele>449</ele><time>2025-12-31T00:49:17.000Z</time></trkpt>
        <trkpt lat="29.183466" lon="104.639402"><ele>450</ele><time>2025-12-31T00:49:24.000Z</time></trkpt>
        <trkpt lat="29.183469" lon="104.639414"><ele>450</ele><time>2025-12-31T00:49:25.000Z</time></trkpt>
        <trkpt lat="29.183477" lon="104.639488"><ele>451</ele><time>2025-12-31T00:49:32.000Z</time></trkpt>
        <trkpt lat="29.183476" lon="104.63951"><ele>452</ele><time>2025-12-31T00:49:34.000Z</time></trkpt>
        <trkpt lat="29.183475" lon="104.639541"><ele>452</ele><time>2025-12-31T00:49:36.000Z</time></trkpt>
        <trkpt lat="29.183468" lon="104.639579"><ele>452</ele><time>2025-12-31T00:49:41.000Z</time></trkpt>
        <trkpt lat="29.183456" lon="104.639587"><ele>453</ele><time>2025-12-31T00:49:48.000Z</time></trkpt>
        <trkpt lat="29.183448" lon="104.639608"><ele>453</ele><time>2025-12-31T00:49:52.000Z</time></trkpt>
        <trkpt lat="29.183439" lon="104.63964"><ele>454</ele><time>2025-12-31T00:49:55.000Z</time></trkpt>
        <trkpt lat="29.183427" lon="104.639672"><ele>454</ele><time>2025-12-31T00:49:58.000Z</time></trkpt>
        <trkpt lat="29.183406" lon="104.639697"><ele>455</ele><time>2025-12-31T00:50:02.000Z</time></trkpt>
        <trkpt lat="29.183392" lon="104.639718"><ele>455</ele><time>2025-12-31T00:50:07.000Z</time></trkpt>
        <trkpt lat="29.183382" lon="104.639727"><ele>455</ele><time>2025-12-31T00:50:10.000Z</time></trkpt>
        <trkpt lat="29.183343" lon="104.639763"><ele>456</ele><time>2025-12-31T00:50:16.000Z</time></trkpt>
        <trkpt lat="29.183322" lon="104.639781"><ele>457</ele><time>2025-12-31T00:50:19.000Z</time></trkpt>
        <trkpt lat="29.183308" lon="104.639782"><ele>457</ele><time>2025-12-31T00:50:21.000Z</time></trkpt>
        <trkpt lat="29.183287" lon="104.639783"><ele>458</ele><time>2025-12-31T00:50:25.000Z</time></trkpt>
        <trkpt lat="29.18326" lon="104.639783"><ele>458</ele><time>2025-12-31T00:50:29.000Z</time></trkpt>
        <trkpt lat="29.183202" lon="104.639795"><ele>459</ele><time>2025-12-31T00:50:35.000Z</time></trkpt>
        <trkpt lat="29.183196" lon="104.639797"><ele>460</ele><time>2025-12-31T00:50:36.000Z</time></trkpt>
        <trkpt lat="29.183172" lon="104.639807"><ele>461</ele><time>2025-12-31T00:50:40.000Z</time></trkpt>
        <trkpt lat="29.183151" lon="104.639824"><ele>461</ele><time>2025-12-31T00:50:45.000Z</time></trkpt>
        <trkpt lat="29.183124" lon="104.639839"><ele>462</ele><time>2025-12-31T00:50:48.000Z</time></trkpt>
        <trkpt lat="29.183105" lon="104.639851"><ele>462</ele><time>2025-12-31T00:50:52.000Z</time></trkpt>
        <trkpt lat="29.183077" lon="104.639865"><ele>463</ele><time>2025-12-31T00:50:57.000Z</time></trkpt>
        <trkpt lat="29.18304" lon="104.639902"><ele>464</ele><time>2025-12-31T00:51:03.000Z</time></trkpt>
        <trkpt lat="29.18303" lon="104.639909"><ele>464</ele><time>2025-12-31T00:51:04.000Z</time></trkpt>
        <trkpt lat="29.183003" lon="104.639933"><ele>464</ele><time>2025-12-31T00:51:10.000Z</time></trkpt>
        <trkpt lat="29.182982" lon="104.639947"><ele>465</ele><time>2025-12-31T00:51:13.000Z</time></trkpt>
        <trkpt lat="29.182952" lon="104.639964"><ele>465</ele><time>2025-12-31T00:51:16.000Z</time></trkpt>
        <trkpt lat="29.182923" lon="104.639972"><ele>466</ele><time>2025-12-31T00:51:19.000Z</time></trkpt>
        <trkpt lat="29.182865" lon="104.639978"><ele>467</ele><time>2025-12-31T00:51:24.000Z</time></trkpt>
        <trkpt lat="29.182824" lon="104.63999"><ele>468</ele><time>2025-12-31T00:51:29.000Z</time></trkpt>
        <trkpt lat="29.182754" lon="104.639974"><ele>467</ele><time>2025-12-31T00:51:36.000Z</time></trkpt>
        <trkpt lat="29.182681" lon="104.639952"><ele>467</ele><time>2025-12-31T00:51:42.000Z</time></trkpt>
        <trkpt lat="29.182631" lon="104.63994"><ele>467</ele><time>2025-12-31T00:51:47.000Z</time></trkpt>
        <trkpt lat="29.182586" lon="104.639918"><ele>467</ele><time>2025-12-31T00:51:51.000Z</time></trkpt>
        <trkpt lat="29.182534" lon="104.639882"><ele>467</ele><time>2025-12-31T00:51:56.000Z</time></trkpt>
        <trkpt lat="29.182489" lon="104.639852"><ele>467</ele><time>2025-12-31T00:52:01.000Z</time></trkpt>
        <trkpt lat="29.182446" lon="104.639835"><ele>466</ele><time>2025-12-31T00:52:06.000Z</time></trkpt>
        <trkpt lat="29.182419" lon="104.639837"><ele>466</ele><time>2025-12-31T00:52:09.000Z</time></trkpt>
        <trkpt lat="29.182395" lon="104.639837"><ele>465</ele><time>2025-12-31T00:52:11.000Z</time></trkpt>
        <trkpt lat="29.182357" lon="104.639833"><ele>465</ele><time>2025-12-31T00:52:14.000Z</time></trkpt>
        <trkpt lat="29.182344" lon="104.639831"><ele>465</ele><time>2025-12-31T00:52:15.000Z</time></trkpt>
        <trkpt lat="29.182312" lon="104.639827"><ele>465</ele><time>2025-12-31T00:52:17.000Z</time></trkpt>
        <trkpt lat="29.182263" lon="104.639839"><ele>465</ele><time>2025-12-31T00:52:21.000Z</time></trkpt>
        <trkpt lat="29.182175" lon="104.639878"><ele>464</ele><time>2025-12-31T00:52:31.000Z</time></trkpt>
        <trkpt lat="29.182118" lon="104.639929"><ele>464</ele><time>2025-12-31T00:52:37.000Z</time></trkpt>
        <trkpt lat="29.182101" lon="104.639953"><ele>464</ele><time>2025-12-31T00:52:39.000Z</time></trkpt>
        <trkpt lat="29.182057" lon="104.639979"><ele>464</ele><time>2025-12-31T00:52:44.000Z</time></trkpt>
        <trkpt lat="29.182018" lon="104.639979"><ele>464</ele><time>2025-12-31T00:52:47.000Z</time></trkpt>
        <trkpt lat="29.181926" lon="104.639957"><ele>464</ele><time>2025-12-31T00:52:55.000Z</time></trkpt>
        <trkpt lat="29.181912" lon="104.639952"><ele>464</ele><time>2025-12-31T00:52:56.000Z</time></trkpt>
        <trkpt lat="29.181838" lon="104.639919"><ele>463</ele><time>2025-12-31T00:53:05.000Z</time></trkpt>
        <trkpt lat="29.181742" lon="104.639899"><ele>463</ele><time>2025-12-31T00:53:13.000Z</time></trkpt>
        <trkpt lat="29.181636" lon="104.63985"><ele>463</ele><time>2025-12-31T00:53:23.000Z</time></trkpt>
        <trkpt lat="29.181541" lon="104.639801"><ele>463</ele><time>2025-12-31T00:53:32.000Z</time></trkpt>
        <trkpt lat="29.181522" lon="104.639789"><ele>463</ele><time>2025-12-31T00:53:34.000Z</time></trkpt>
        <trkpt lat="29.181473" lon="104.639775"><ele>462</ele><time>2025-12-31T00:53:40.000Z</time></trkpt>
        <trkpt lat="29.181435" lon="104.639768"><ele>462</ele><time>2025-12-31T00:53:45.000Z</time></trkpt>
        <trkpt lat="29.181413" lon="104.63977"><ele>462</ele><time>2025-12-31T00:53:47.000Z</time></trkpt>
        <trkpt lat="29.181354" lon="104.639773"><ele>462</ele><time>2025-12-31T00:53:53.000Z</time></trkpt>
        <trkpt lat="29.18126" lon="104.639797"><ele>461</ele><time>2025-12-31T00:54:01.000Z</time></trkpt>
        <trkpt lat="29.181238" lon="104.639803"><ele>462</ele><time>2025-12-31T00:54:03.000Z</time></trkpt>
        <trkpt lat="29.181149" lon="104.639838"><ele>462</ele><time>2025-12-31T00:54:13.000Z</time></trkpt>
        <trkpt lat="29.181054" lon="104.639883"><ele>462</ele><time>2025-12-31T00:54:23.000Z</time></trkpt>
        <trkpt lat="29.180984" lon="104.639916"><ele>462</ele><time>2025-12-31T00:54:32.000Z</time></trkpt>
        <trkpt lat="29.180918" lon="104.639909"><ele>461</ele><time>2025-12-31T00:54:37.000Z</time></trkpt>
        <trkpt lat="29.180878" lon="104.6399"><ele>460</ele><time>2025-12-31T00:54:40.000Z</time></trkpt>
        <trkpt lat="29.180843" lon="104.639903"><ele>460</ele><time>2025-12-31T00:54:43.000Z</time></trkpt>
        <trkpt lat="29.180794" lon="104.639935"><ele>459</ele><time>2025-12-31T00:54:49.000Z</time></trkpt>
        <trkpt lat="29.180737" lon="104.639983"><ele>459</ele><time>2025-12-31T00:54:55.000Z</time></trkpt>
        <trkpt lat="29.180702" lon="104.640013"><ele>458</ele><time>2025-12-31T00:54:58.000Z</time></trkpt>
        <trkpt lat="29.180615" lon="104.640055"><ele>458</ele><time>2025-12-31T00:55:08.000Z</time></trkpt>
        <trkpt lat="29.180595" lon="104.640055"><ele>458</ele><time>2025-12-31T00:55:17.000Z</time></trkpt>
        <trkpt lat="29.180559" lon="104.640016"><ele>458</ele><time>2025-12-31T00:55:25.000Z</time></trkpt>
        <trkpt lat="29.180491" lon="104.639954"><ele>458</ele><time>2025-12-31T00:55:33.000Z</time></trkpt>
        <trkpt lat="29.180467" lon="104.639887"><ele>458</ele><time>2025-12-31T00:55:39.000Z</time></trkpt>
        <trkpt lat="29.180458" lon="104.639837"><ele>458</ele><time>2025-12-31T00:55:43.000Z</time></trkpt>
        <trkpt lat="29.180444" lon="104.639785"><ele>458</ele><time>2025-12-31T00:55:52.000Z</time></trkpt>
        <trkpt lat="29.180443" lon="104.639788"><ele>458</ele><time>2025-12-31T00:55:55.000Z</time></trkpt>
        <trkpt lat="29.180436" lon="104.639743"><ele>458</ele><time>2025-12-31T00:56:03.000Z</time></trkpt>
        <trkpt lat="29.180443" lon="104.639689"><ele>458</ele><time>2025-12-31T00:56:08.000Z</time></trkpt>
        <trkpt lat="29.180459" lon="104.63964"><ele>458</ele><time>2025-12-31T00:56:11.000Z</time></trkpt>
        <trkpt lat="29.18047" lon="104.639606"><ele>458</ele><time>2025-12-31T00:56:14.000Z</time></trkpt>
        <trkpt lat="29.18047" lon="104.639604"><ele>458</ele><time>2025-12-31T00:56:15.000Z</time></trkpt>
        <trkpt lat="29.180469" lon="104.639603"><ele>458</ele><time>2025-12-31T00:56:16.000Z</time></trkpt>
        <trkpt lat="29.180469" lon="104.639601"><ele>458</ele><time>2025-12-31T00:56:18.000Z</time></trkpt>
        <trkpt lat="29.180479" lon="104.63955"><ele>458</ele><time>2025-12-31T00:56:36.000Z</time></trkpt>
        <trkpt lat="29.180519" lon="104.639448"><ele>458</ele><time>2025-12-31T00:56:46.000Z</time></trkpt>
        <trkpt lat="29.180573" lon="104.63934"><ele>459</ele><time>2025-12-31T00:56:56.000Z</time></trkpt>
        <trkpt lat="29.180599" lon="104.639265"><ele>459</ele><time>2025-12-31T00:57:02.000Z</time></trkpt>
        <trkpt lat="29.180613" lon="104.639184"><ele>459</ele><time>2025-12-31T00:57:09.000Z</time></trkpt>
        <trkpt lat="29.180638" lon="104.639124"><ele>460</ele><time>2025-12-31T00:57:13.000Z</time></trkpt>
        <trkpt lat="29.180649" lon="104.639108"><ele>460</ele><time>2025-12-31T00:57:16.000Z</time></trkpt>
        <trkpt lat="29.180685" lon="104.63903"><ele>460</ele><time>2025-12-31T00:57:22.000Z</time></trkpt>
        <trkpt lat="29.180713" lon="104.638934"><ele>460</ele><time>2025-12-31T00:57:29.000Z</time></trkpt>
        <trkpt lat="29.180738" lon="104.638855"><ele>460</ele><time>2025-12-31T00:57:35.000Z</time></trkpt>
        <trkpt lat="29.180787" lon="104.638755"><ele>460</ele><time>2025-12-31T00:57:44.000Z</time></trkpt>
        <trkpt lat="29.180838" lon="104.638668"><ele>459</ele><time>2025-12-31T00:57:53.000Z</time></trkpt>
        <trkpt lat="29.180882" lon="104.638601"><ele>459</ele><time>2025-12-31T00:57:58.000Z</time></trkpt>
        <trkpt lat="29.180881" lon="104.638567"><ele>459</ele><time>2025-12-31T00:58:04.000Z</time></trkpt>
        <trkpt lat="29.180873" lon="104.638575"><ele>459</ele><time>2025-12-31T00:58:05.000Z</time></trkpt>
        <trkpt lat="29.180834" lon="104.638613"><ele>460</ele><time>2025-12-31T00:58:11.000Z</time></trkpt>
        <trkpt lat="29.18083" lon="104.638616"><ele>461</ele><time>2025-12-31T00:58:12.000Z</time></trkpt>
        <trkpt lat="29.180827" lon="104.638623"><ele>461</ele><time>2025-12-31T00:58:13.000Z</time></trkpt>
        <trkpt lat="29.180775" lon="104.638657"><ele>462</ele><time>2025-12-31T00:58:19.000Z</time></trkpt>
        <trkpt lat="29.180765" lon="104.638664"><ele>462</ele><time>2025-12-31T00:58:20.000Z</time></trkpt>
        <trkpt lat="29.180741" lon="104.638685"><ele>462</ele><time>2025-12-31T00:58:23.000Z</time></trkpt>
        <trkpt lat="29.180725" lon="104.638699"><ele>463</ele><time>2025-12-31T00:58:25.000Z</time></trkpt>
        <trkpt lat="29.180709" lon="104.638719"><ele>463</ele><time>2025-12-31T00:58:27.000Z</time></trkpt>
        <trkpt lat="29.180697" lon="104.638733"><ele>463</ele><time>2025-12-31T00:58:29.000Z</time></trkpt>
        <trkpt lat="29.18065" lon="104.638765"><ele>464</ele><time>2025-12-31T00:58:34.000Z</time></trkpt>
        <trkpt lat="29.180641" lon="104.638779"><ele>464</ele><time>2025-12-31T00:58:36.000Z</time></trkpt>
        <trkpt lat="29.180638" lon="104.638786"><ele>464</ele><time>2025-12-31T00:58:37.000Z</time></trkpt>
        <trkpt lat="29.18061" lon="104.638815"><ele>465</ele><time>2025-12-31T00:58:41.000Z</time></trkpt>
        <trkpt lat="29.18058" lon="104.638833"><ele>466</ele><time>2025-12-31T00:58:44.000Z</time></trkpt>
        <trkpt lat="29.180558" lon="104.638842"><ele>466</ele><time>2025-12-31T00:58:46.000Z</time></trkpt>
        <trkpt lat="29.180536" lon="104.638856"><ele>466</ele><time>2025-12-31T00:58:49.000Z</time></trkpt>
        <trkpt lat="29.180491" lon="104.638902"><ele>467</ele><time>2025-12-31T00:58:54.000Z</time></trkpt>
        <trkpt lat="29.180479" lon="104.638915"><ele>467</ele><time>2025-12-31T00:58:56.000Z</time></trkpt>
        <trkpt lat="29.180439" lon="104.638926"><ele>468</ele><time>2025-12-31T00:59:00.000Z</time></trkpt>
        <trkpt lat="29.180369" lon="104.638926"><ele>468</ele><time>2025-12-31T00:59:06.000Z</time></trkpt>
        <trkpt lat="29.18031" lon="104.638928"><ele>469</ele><time>2025-12-31T00:59:12.000Z</time></trkpt>
        <trkpt lat="29.180272" lon="104.638929"><ele>469</ele><time>2025-12-31T00:59:16.000Z</time></trkpt>
        <trkpt lat="29.180225" lon="104.638928"><ele>470</ele><time>2025-12-31T00:59:20.000Z</time></trkpt>
        <trkpt lat="29.180167" lon="104.638932"><ele>470</ele><time>2025-12-31T00:59:26.000Z</time></trkpt>
        <trkpt lat="29.180137" lon="104.638936"><ele>471</ele><time>2025-12-31T00:59:29.000Z</time></trkpt>
        <trkpt lat="29.180037" lon="104.638936"><ele>471</ele><time>2025-12-31T00:59:38.000Z</time></trkpt>
        <trkpt lat="29.179964" lon="104.638937"><ele>470</ele><time>2025-12-31T00:59:45.000Z</time></trkpt>
        <trkpt lat="29.179909" lon="104.638889"><ele>469</ele><time>2025-12-31T00:59:51.000Z</time></trkpt>
        <trkpt lat="29.179875" lon="104.638824"><ele>468</ele><time>2025-12-31T00:59:57.000Z</time></trkpt>
        <trkpt lat="29.17987" lon="104.638809"><ele>468</ele><time>2025-12-31T00:59:58.000Z</time></trkpt>
        <trkpt lat="29.179863" lon="104.638777"><ele>468</ele><time>2025-12-31T01:00:00.000Z</time></trkpt>
        <trkpt lat="29.179862" lon="104.638724"><ele>467</ele><time>2025-12-31T01:00:04.000Z</time></trkpt>
        <trkpt lat="29.179865" lon="104.638712"><ele>467</ele><time>2025-12-31T01:00:05.000Z</time></trkpt>
        <trkpt lat="29.179885" lon="104.638619"><ele>466</ele><time>2025-12-31T01:00:11.000Z</time></trkpt>
        <trkpt lat="29.179907" lon="104.638514"><ele>466</ele><time>2025-12-31T01:00:17.000Z</time></trkpt>
        <trkpt lat="29.179898" lon="104.638433"><ele>465</ele><time>2025-12-31T01:00:24.000Z</time></trkpt>
        <trkpt lat="29.179865" lon="104.638338"><ele>465</ele><time>2025-12-31T01:00:33.000Z</time></trkpt>
        <trkpt lat="29.179809" lon="104.638255"><ele>466</ele><time>2025-12-31T01:00:41.000Z</time></trkpt>
        <trkpt lat="29.179759" lon="104.638215"><ele>467</ele><time>2025-12-31T01:00:46.000Z</time></trkpt>
        <trkpt lat="29.179735" lon="104.638198"><ele>467</ele><time>2025-12-31T01:00:48.000Z</time></trkpt>
        <trkpt lat="29.179717" lon="104.638176"><ele>468</ele><time>2025-12-31T01:00:52.000Z</time></trkpt>
        <trkpt lat="29.179703" lon="104.638164"><ele>468</ele><time>2025-12-31T01:00:54.000Z</time></trkpt>
        <trkpt lat="29.179686" lon="104.638155"><ele>469</ele><time>2025-12-31T01:00:56.000Z</time></trkpt>
        <trkpt lat="29.179656" lon="104.63814"><ele>469</ele><time>2025-12-31T01:01:00.000Z</time></trkpt>
        <trkpt lat="29.179597" lon="104.638119"><ele>469</ele><time>2025-12-31T01:01:06.000Z</time></trkpt>
        <trkpt lat="29.179565" lon="104.638113"><ele>470</ele><time>2025-12-31T01:01:09.000Z</time></trkpt>
        <trkpt lat="29.179503" lon="104.638113"><ele>470</ele><time>2025-12-31T01:01:15.000Z</time></trkpt>
        <trkpt lat="29.179469" lon="104.638115"><ele>470</ele><time>2025-12-31T01:01:18.000Z</time></trkpt>
        <trkpt lat="29.179353" lon="104.638128"><ele>471</ele><time>2025-12-31T01:01:28.000Z</time></trkpt>
        <trkpt lat="29.179293" lon="104.638128"><ele>472</ele><time>2025-12-31T01:01:34.000Z</time></trkpt>
        <trkpt lat="29.17925" lon="104.638116"><ele>472</ele><time>2025-12-31T01:01:38.000Z</time></trkpt>
        <trkpt lat="29.179222" lon="104.63811"><ele>473</ele><time>2025-12-31T01:01:41.000Z</time></trkpt>
        <trkpt lat="29.179149" lon="104.63808"><ele>473</ele><time>2025-12-31T01:01:47.000Z</time></trkpt>
        <trkpt lat="29.17914" lon="104.638075"><ele>473</ele><time>2025-12-31T01:01:48.000Z</time></trkpt>
        <trkpt lat="29.179069" lon="104.638038"><ele>474</ele><time>2025-12-31T01:01:56.000Z</time></trkpt>
        <trkpt lat="29.179022" lon="104.637998"><ele>474</ele><time>2025-12-31T01:02:04.000Z</time></trkpt>
        <trkpt lat="29.178953" lon="104.637944"><ele>474</ele><time>2025-12-31T01:02:11.000Z</time></trkpt>
        <trkpt lat="29.178936" lon="104.637934"><ele>474</ele><time>2025-12-31T01:02:13.000Z</time></trkpt>
        <trkpt lat="29.178912" lon="104.63792"><ele>474</ele><time>2025-12-31T01:02:15.000Z</time></trkpt>
        <trkpt lat="29.178849" lon="104.637859"><ele>473</ele><time>2025-12-31T01:02:22.000Z</time></trkpt>
        <trkpt lat="29.178777" lon="104.637807"><ele>473</ele><time>2025-12-31T01:02:29.000Z</time></trkpt>
        <trkpt lat="29.17874" lon="104.637784"><ele>473</ele><time>2025-12-31T01:02:32.000Z</time></trkpt>
        <trkpt lat="29.178697" lon="104.637755"><ele>472</ele><time>2025-12-31T01:02:38.000Z</time></trkpt>
        <trkpt lat="29.178645" lon="104.637717"><ele>472</ele><time>2025-12-31T01:02:43.000Z</time></trkpt>
        <trkpt lat="29.178615" lon="104.637696"><ele>472</ele><time>2025-12-31T01:02:46.000Z</time></trkpt>
        <trkpt lat="29.178501" lon="104.637649"><ele>472</ele><time>2025-12-31T01:02:57.000Z</time></trkpt>
        <trkpt lat="29.178459" lon="104.637643"><ele>472</ele><time>2025-12-31T01:03:01.000Z</time></trkpt>
        <trkpt lat="29.178439" lon="104.637643"><ele>472</ele><time>2025-12-31T01:03:03.000Z</time></trkpt>
        <trkpt lat="29.178381" lon="104.63765"><ele>472</ele><time>2025-12-31T01:03:08.000Z</time></trkpt>
        <trkpt lat="29.178337" lon="104.637681"><ele>471</ele><time>2025-12-31T01:03:13.000Z</time></trkpt>
        <trkpt lat="29.178304" lon="104.63772"><ele>471</ele><time>2025-12-31T01:03:18.000Z</time></trkpt>
        <trkpt lat="29.178248" lon="104.637767"><ele>471</ele><time>2025-12-31T01:03:25.000Z</time></trkpt>
        <trkpt lat="29.17821" lon="104.637806"><ele>471</ele><time>2025-12-31T01:03:30.000Z</time></trkpt>
        <trkpt lat="29.178154" lon="104.637883"><ele>470</ele><time>2025-12-31T01:03:37.000Z</time></trkpt>
        <trkpt lat="29.178147" lon="104.637892"><ele>470</ele><time>2025-12-31T01:03:38.000Z</time></trkpt>
        <trkpt lat="29.178101" lon="104.637945"><ele>469</ele><time>2025-12-31T01:03:45.000Z</time></trkpt>
        <trkpt lat="29.178041" lon="104.638001"><ele>468</ele><time>2025-12-31T01:03:54.000Z</time></trkpt>
        <trkpt lat="29.178029" lon="104.638037"><ele>468</ele><time>2025-12-31T01:03:57.000Z</time></trkpt>
        <trkpt lat="29.177975" lon="104.638092"><ele>467</ele><time>2025-12-31T01:04:03.000Z</time></trkpt>
        <trkpt lat="29.177935" lon="104.638138"><ele>467</ele><time>2025-12-31T01:04:08.000Z</time></trkpt>
        <trkpt lat="29.177872" lon="104.638181"><ele>466</ele><time>2025-12-31T01:04:14.000Z</time></trkpt>
        <trkpt lat="29.177806" lon="104.638219"><ele>466</ele><time>2025-12-31T01:04:21.000Z</time></trkpt>
        <trkpt lat="29.177753" lon="104.638228"><ele>465</ele><time>2025-12-31T01:04:27.000Z</time></trkpt>
        <trkpt lat="29.177733" lon="104.638229"><ele>465</ele><time>2025-12-31T01:04:31.000Z</time></trkpt>
        <trkpt lat="29.177688" lon="104.638229"><ele>464</ele><time>2025-12-31T01:04:36.000Z</time></trkpt>
        <trkpt lat="29.177681" lon="104.638228"><ele>464</ele><time>2025-12-31T01:04:37.000Z</time></trkpt>
        <trkpt lat="29.177626" lon="104.638212"><ele>463</ele><time>2025-12-31T01:04:43.000Z</time></trkpt>
        <trkpt lat="29.177594" lon="104.638207"><ele>462</ele><time>2025-12-31T01:04:46.000Z</time></trkpt>
        <trkpt lat="29.177582" lon="104.638201"><ele>462</ele><time>2025-12-31T01:04:47.000Z</time></trkpt>
        <trkpt lat="29.177559" lon="104.638186"><ele>461</ele><time>2025-12-31T01:04:49.000Z</time></trkpt>
        <trkpt lat="29.177539" lon="104.638185"><ele>461</ele><time>2025-12-31T01:04:53.000Z</time></trkpt>
        <trkpt lat="29.177534" lon="104.638191"><ele>461</ele><time>2025-12-31T01:05:03.000Z</time></trkpt>
        <trkpt lat="29.177518" lon="104.63818"><ele>461</ele><time>2025-12-31T01:05:05.000Z</time></trkpt>
        <trkpt lat="29.177502" lon="104.638166"><ele>460</ele><time>2025-12-31T01:05:07.000Z</time></trkpt>
        <trkpt lat="29.17749" lon="104.638154"><ele>460</ele><time>2025-12-31T01:05:10.000Z</time></trkpt>
        <trkpt lat="29.177483" lon="104.638156"><ele>460</ele><time>2025-12-31T01:05:19.000Z</time></trkpt>
        <trkpt lat="29.177485" lon="104.638156"><ele>460</ele><time>2025-12-31T01:05:20.000Z</time></trkpt>
        <trkpt lat="29.17749" lon="104.638158"><ele>460</ele><time>2025-12-31T01:05:21.000Z</time></trkpt>
        <trkpt lat="29.177502" lon="104.638165"><ele>460</ele><time>2025-12-31T01:05:23.000Z</time></trkpt>
        <trkpt lat="29.177506" lon="104.638166"><ele>460</ele><time>2025-12-31T01:05:24.000Z</time></trkpt>
        <trkpt lat="29.177505" lon="104.638167"><ele>460</ele><time>2025-12-31T01:05:25.000Z</time></trkpt>
        <trkpt lat="29.177534" lon="104.638183"><ele>460</ele><time>2025-12-31T01:05:33.000Z</time></trkpt>
        <trkpt lat="29.177585" lon="104.638217"><ele>461</ele><time>2025-12-31T01:05:39.000Z</time></trkpt>
        <trkpt lat="29.177605" lon="104.638231"><ele>462</ele><time>2025-12-31T01:05:42.000Z</time></trkpt>
        <trkpt lat="29.17762" lon="104.638244"><ele>463</ele><time>2025-12-31T01:05:45.000Z</time></trkpt>
        <trkpt lat="29.177678" lon="104.638271"><ele>464</ele><time>2025-12-31T01:05:50.000Z</time></trkpt>
        <trkpt lat="29.177691" lon="104.638276"><ele>464</ele><time>2025-12-31T01:05:51.000Z</time></trkpt>
        <trkpt lat="29.1777" lon="104.638322"><ele>465</ele><time>2025-12-31T01:05:56.000Z</time></trkpt>
        <trkpt lat="29.177695" lon="104.638329"><ele>465</ele><time>2025-12-31T01:05:57.000Z</time></trkpt>
        <trkpt lat="29.177677" lon="104.638351"><ele>465</ele><time>2025-12-31T01:06:00.000Z</time></trkpt>
        <trkpt lat="29.177671" lon="104.638359"><ele>466</ele><time>2025-12-31T01:06:01.000Z</time></trkpt>
        <trkpt lat="29.177664" lon="104.63837"><ele>466</ele><time>2025-12-31T01:06:02.000Z</time></trkpt>
        <trkpt lat="29.177659" lon="104.638377"><ele>466</ele><time>2025-12-31T01:06:03.000Z</time></trkpt>
        <trkpt lat="29.177642" lon="104.638403"><ele>466</ele><time>2025-12-31T01:06:06.000Z</time></trkpt>
        <trkpt lat="29.177592" lon="104.638477"><ele>467</ele><time>2025-12-31T01:06:15.000Z</time></trkpt>
        <trkpt lat="29.177578" lon="104.638497"><ele>467</ele><time>2025-12-31T01:06:17.000Z</time></trkpt>
        <trkpt lat="29.177518" lon="104.638583"><ele>466</ele><time>2025-12-31T01:06:27.000Z</time></trkpt>
        <trkpt lat="29.177492" lon="104.638628"><ele>465</ele><time>2025-12-31T01:06:32.000Z</time></trkpt>
        <trkpt lat="29.177483" lon="104.63866"><ele>465</ele><time>2025-12-31T01:06:36.000Z</time></trkpt>
        <trkpt lat="29.177492" lon="104.638733"><ele>465</ele><time>2025-12-31T01:06:41.000Z</time></trkpt>
        <trkpt lat="29.177504" lon="104.638787"><ele>465</ele><time>2025-12-31T01:06:44.000Z</time></trkpt>
        <trkpt lat="29.177524" lon="104.638883"><ele>464</ele><time>2025-12-31T01:06:52.000Z</time></trkpt>
        <trkpt lat="29.177533" lon="104.638922"><ele>464</ele><time>2025-12-31T01:06:55.000Z</time></trkpt>
        <trkpt lat="29.177536" lon="104.638934"><ele>464</ele><time>2025-12-31T01:06:56.000Z</time></trkpt>
        <trkpt lat="29.177538" lon="104.638963"><ele>463</ele><time>2025-12-31T01:06:58.000Z</time></trkpt>
        <trkpt lat="29.177535" lon="104.639014"><ele>463</ele><time>2025-12-31T01:07:01.000Z</time></trkpt>
        <trkpt lat="29.177532" lon="104.639025"><ele>463</ele><time>2025-12-31T01:07:02.000Z</time></trkpt>
        <trkpt lat="29.177513" lon="104.639051"><ele>461</ele><time>2025-12-31T01:07:06.000Z</time></trkpt>
        <trkpt lat="29.177498" lon="104.639063"><ele>461</ele><time>2025-12-31T01:07:08.000Z</time></trkpt>
        <trkpt lat="29.177475" lon="104.639074"><ele>460</ele><time>2025-12-31T01:07:11.000Z</time></trkpt>
        <trkpt lat="29.177435" lon="104.639083"><ele>459</ele><time>2025-12-31T01:07:16.000Z</time></trkpt>
        <trkpt lat="29.177424" lon="104.639086"><ele>459</ele><time>2025-12-31T01:07:17.000Z</time></trkpt>
        <trkpt lat="29.17739" lon="104.639103"><ele>458</ele><time>2025-12-31T01:07:20.000Z</time></trkpt>
        <trkpt lat="29.177357" lon="104.639132"><ele>457</ele><time>2025-12-31T01:07:24.000Z</time></trkpt>
        <trkpt lat="29.177305" lon="104.639191"><ele>456</ele><time>2025-12-31T01:07:29.000Z</time></trkpt>
        <trkpt lat="29.177277" lon="104.639219"><ele>455</ele><time>2025-12-31T01:07:32.000Z</time></trkpt>
        <trkpt lat="29.177271" lon="104.639226"><ele>454</ele><time>2025-12-31T01:07:33.000Z</time></trkpt>
        <trkpt lat="29.177246" lon="104.639256"><ele>453</ele><time>2025-12-31T01:07:37.000Z</time></trkpt>
        <trkpt lat="29.177231" lon="104.639287"><ele>453</ele><time>2025-12-31T01:07:41.000Z</time></trkpt>
        <trkpt lat="29.177223" lon="104.639294"><ele>452</ele><time>2025-12-31T01:07:42.000Z</time></trkpt>
        <trkpt lat="29.177187" lon="104.63932"><ele>451</ele><time>2025-12-31T01:07:47.000Z</time></trkpt>
        <trkpt lat="29.17716" lon="104.639349"><ele>451</ele><time>2025-12-31T01:07:50.000Z</time></trkpt>
        <trkpt lat="29.177143" lon="104.639366"><ele>450</ele><time>2025-12-31T01:07:52.000Z</time></trkpt>
        <trkpt lat="29.177101" lon="104.639413"><ele>449</ele><time>2025-12-31T01:07:58.000Z</time></trkpt>
        <trkpt lat="29.177091" lon="104.639427"><ele>449</ele><time>2025-12-31T01:08:00.000Z</time></trkpt>
        <trkpt lat="29.177048" lon="104.639452"><ele>448</ele><time>2025-12-31T01:08:04.000Z</time></trkpt>
        <trkpt lat="29.177003" lon="104.639471"><ele>447</ele><time>2025-12-31T01:08:08.000Z</time></trkpt>
        <trkpt lat="29.176992" lon="104.639476"><ele>447</ele><time>2025-12-31T01:08:09.000Z</time></trkpt>
        <trkpt lat="29.176963" lon="104.639495"><ele>446</ele><time>2025-12-31T01:08:14.000Z</time></trkpt>
        <trkpt lat="29.17694" lon="104.639521"><ele>445</ele><time>2025-12-31T01:08:18.000Z</time></trkpt>
        <trkpt lat="29.176891" lon="104.639556"><ele>444</ele><time>2025-12-31T01:08:24.000Z</time></trkpt>
        <trkpt lat="29.176887" lon="104.639555"><ele>443</ele><time>2025-12-31T01:08:26.000Z</time></trkpt>
        <trkpt lat="29.176819" lon="104.639601"><ele>443</ele><time>2025-12-31T01:08:34.000Z</time></trkpt>
        <trkpt lat="29.176811" lon="104.639608"><ele>442</ele><time>2025-12-31T01:08:35.000Z</time></trkpt>
        <trkpt lat="29.176747" lon="104.639642"><ele>441</ele><time>2025-12-31T01:08:42.000Z</time></trkpt>
        <trkpt lat="29.176707" lon="104.639665"><ele>440</ele><time>2025-12-31T01:08:47.000Z</time></trkpt>
        <trkpt lat="29.176663" lon="104.63968"><ele>440</ele><time>2025-12-31T01:08:50.000Z</time></trkpt>
        <trkpt lat="29.176554" lon="104.639659"><ele>439</ele><time>2025-12-31T01:08:59.000Z</time></trkpt>
        <trkpt lat="29.176542" lon="104.639658"><ele>439</ele><time>2025-12-31T01:09:00.000Z</time></trkpt>
        <trkpt lat="29.176449" lon="104.63965"><ele>438</ele><time>2025-12-31T01:09:10.000Z</time></trkpt>
        <trkpt lat="29.176445" lon="104.639656"><ele>438</ele><time>2025-12-31T01:09:12.000Z</time></trkpt>
        <trkpt lat="29.17641" lon="104.63968"><ele>437</ele><time>2025-12-31T01:09:17.000Z</time></trkpt>
        <trkpt lat="29.176382" lon="104.639724"><ele>436</ele><time>2025-12-31T01:09:21.000Z</time></trkpt>
        <trkpt lat="29.176366" lon="104.639753"><ele>436</ele><time>2025-12-31T01:09:23.000Z</time></trkpt>
        <trkpt lat="29.176328" lon="104.63978"><ele>435</ele><time>2025-12-31T01:09:28.000Z</time></trkpt>
        <trkpt lat="29.176318" lon="104.639775"><ele>435</ele><time>2025-12-31T01:09:29.000Z</time></trkpt>
        <trkpt lat="29.17631" lon="104.639771"><ele>434</ele><time>2025-12-31T01:09:30.000Z</time></trkpt>
        <trkpt lat="29.176254" lon="104.639726"><ele>434</ele><time>2025-12-31T01:09:37.000Z</time></trkpt>
        <trkpt lat="29.176249" lon="104.639725"><ele>434</ele><time>2025-12-31T01:09:38.000Z</time></trkpt>
        <trkpt lat="29.176241" lon="104.639732"><ele>433</ele><time>2025-12-31T01:09:46.000Z</time></trkpt>
        <trkpt lat="29.176211" lon="104.639714"><ele>432</ele><time>2025-12-31T01:09:52.000Z</time></trkpt>
        <trkpt lat="29.1762" lon="104.639692"><ele>431</ele><time>2025-12-31T01:09:54.000Z</time></trkpt>
        <trkpt lat="29.176201" lon="104.6396"><ele>431</ele><time>2025-12-31T01:10:01.000Z</time></trkpt>
        <trkpt lat="29.176215" lon="104.639543"><ele>431</ele><time>2025-12-31T01:10:06.000Z</time></trkpt>
        <trkpt lat="29.176187" lon="104.639514"><ele>431</ele><time>2025-12-31T01:10:10.000Z</time></trkpt>
        <trkpt lat="29.176185" lon="104.639508"><ele>431</ele><time>2025-12-31T01:10:11.000Z</time></trkpt>
        <trkpt lat="29.176162" lon="104.639471"><ele>429</ele><time>2025-12-31T01:10:14.000Z</time></trkpt>
        <trkpt lat="29.176153" lon="104.639447"><ele>429</ele><time>2025-12-31T01:10:16.000Z</time></trkpt>
        <trkpt lat="29.176138" lon="104.639404"><ele>428</ele><time>2025-12-31T01:10:20.000Z</time></trkpt>
        <trkpt lat="29.176136" lon="104.639378"><ele>428</ele><time>2025-12-31T01:10:23.000Z</time></trkpt>
        <trkpt lat="29.176146" lon="104.639332"><ele>427</ele><time>2025-12-31T01:10:27.000Z</time></trkpt>
        <trkpt lat="29.176161" lon="104.639298"><ele>427</ele><time>2025-12-31T01:10:31.000Z</time></trkpt>
        <trkpt lat="29.176159" lon="104.639288"><ele>427</ele><time>2025-12-31T01:10:32.000Z</time></trkpt>
        <trkpt lat="29.176156" lon="104.639264"><ele>426</ele><time>2025-12-31T01:10:34.000Z</time></trkpt>
        <trkpt lat="29.176154" lon="104.639228"><ele>426</ele><time>2025-12-31T01:10:37.000Z</time></trkpt>
        <trkpt lat="29.176159" lon="104.639199"><ele>425</ele><time>2025-12-31T01:10:39.000Z</time></trkpt>
        <trkpt lat="29.176152" lon="104.639112"><ele>424</ele><time>2025-12-31T01:10:46.000Z</time></trkpt>
        <trkpt lat="29.176125" lon="104.638985"><ele>424</ele><time>2025-12-31T01:10:56.000Z</time></trkpt>
        <trkpt lat="29.176108" lon="104.638896"><ele>424</ele><time>2025-12-31T01:11:06.000Z</time></trkpt>
        <trkpt lat="29.176101" lon="104.63889"><ele>424</ele><time>2025-12-31T01:11:12.000Z</time></trkpt>
        <trkpt lat="29.176087" lon="104.638832"><ele>424</ele><time>2025-12-31T01:11:19.000Z</time></trkpt>
        <trkpt lat="29.17609" lon="104.638813"><ele>425</ele><time>2025-12-31T01:11:22.000Z</time></trkpt>
        <trkpt lat="29.176083" lon="104.638797"><ele>426</ele><time>2025-12-31T01:11:25.000Z</time></trkpt>
        <trkpt lat="29.176083" lon="104.638793"><ele>426</ele><time>2025-12-31T01:11:26.000Z</time></trkpt>
        <trkpt lat="29.17608" lon="104.638791"><ele>426</ele><time>2025-12-31T01:11:27.000Z</time></trkpt>
        <trkpt lat="29.176065" lon="104.638776"><ele>427</ele><time>2025-12-31T01:11:33.000Z</time></trkpt>
        <trkpt lat="29.176067" lon="104.638776"><ele>427</ele><time>2025-12-31T01:11:34.000Z</time></trkpt>
        <trkpt lat="29.17604" lon="104.638752"><ele>427</ele><time>2025-12-31T01:11:39.000Z</time></trkpt>
        <trkpt lat="29.175975" lon="104.638698"><ele>428</ele><time>2025-12-31T01:11:47.000Z</time></trkpt>
        <trkpt lat="29.175912" lon="104.638663"><ele>428</ele><time>2025-12-31T01:11:53.000Z</time></trkpt>
        <trkpt lat="29.175888" lon="104.638653"><ele>428</ele><time>2025-12-31T01:11:55.000Z</time></trkpt>
        <trkpt lat="29.175849" lon="104.638628"><ele>428</ele><time>2025-12-31T01:11:59.000Z</time></trkpt>
        <trkpt lat="29.175824" lon="104.638605"><ele>428</ele><time>2025-12-31T01:12:02.000Z</time></trkpt>
        <trkpt lat="29.175774" lon="104.638534"><ele>428</ele><time>2025-12-31T01:12:08.000Z</time></trkpt>
        <trkpt lat="29.175743" lon="104.638507"><ele>428</ele><time>2025-12-31T01:12:11.000Z</time></trkpt>
        <trkpt lat="29.175705" lon="104.638465"><ele>427</ele><time>2025-12-31T01:12:15.000Z</time></trkpt>
        <trkpt lat="29.175688" lon="104.638446"><ele>426</ele><time>2025-12-31T01:12:17.000Z</time></trkpt>
        <trkpt lat="29.175648" lon="104.638395"><ele>426</ele><time>2025-12-31T01:12:22.000Z</time></trkpt>
        <trkpt lat="29.175574" lon="104.638307"><ele>426</ele><time>2025-12-31T01:12:29.000Z</time></trkpt>
        <trkpt lat="29.175509" lon="104.638315"><ele>426</ele><time>2025-12-31T01:12:36.000Z</time></trkpt>
        <trkpt lat="29.175429" lon="104.63837"><ele>426</ele><time>2025-12-31T01:12:44.000Z</time></trkpt>
        <trkpt lat="29.175347" lon="104.638427"><ele>427</ele><time>2025-12-31T01:12:53.000Z</time></trkpt>
        <trkpt lat="29.175314" lon="104.63843"><ele>427</ele><time>2025-12-31T01:12:56.000Z</time></trkpt>
        <trkpt lat="29.175263" lon="104.63843"><ele>428</ele><time>2025-12-31T01:13:00.000Z</time></trkpt>
        <trkpt lat="29.175187" lon="104.638478"><ele>428</ele><time>2025-12-31T01:13:06.000Z</time></trkpt>
        <trkpt lat="29.175181" lon="104.638483"><ele>428</ele><time>2025-12-31T01:13:07.000Z</time></trkpt>
        <trkpt lat="29.175156" lon="104.638496"><ele>428</ele><time>2025-12-31T01:13:10.000Z</time></trkpt>
        <trkpt lat="29.175079" lon="104.638514"><ele>428</ele><time>2025-12-31T01:13:16.000Z</time></trkpt>
        <trkpt lat="29.174997" lon="104.638494"><ele>429</ele><time>2025-12-31T01:13:23.000Z</time></trkpt>
        <trkpt lat="29.174894" lon="104.638526"><ele>428</ele><time>2025-12-31T01:13:31.000Z</time></trkpt>
        <trkpt lat="29.174821" lon="104.638584"><ele>428</ele><time>2025-12-31T01:13:38.000Z</time></trkpt>
        <trkpt lat="29.174794" lon="104.638605"><ele>428</ele><time>2025-12-31T01:13:40.000Z</time></trkpt>
        <trkpt lat="29.174732" lon="104.638662"><ele>428</ele><time>2025-12-31T01:13:47.000Z</time></trkpt>
        <trkpt lat="29.174663" lon="104.638702"><ele>429</ele><time>2025-12-31T01:13:54.000Z</time></trkpt>
        <trkpt lat="29.174591" lon="104.638771"><ele>429</ele><time>2025-12-31T01:14:03.000Z</time></trkpt>
        <trkpt lat="29.174515" lon="104.638849"><ele>428</ele><time>2025-12-31T01:14:10.000Z</time></trkpt>
        <trkpt lat="29.174484" lon="104.638854"><ele>428</ele><time>2025-12-31T01:14:15.000Z</time></trkpt>
        <trkpt lat="29.174383" lon="104.638868"><ele>429</ele><time>2025-12-31T01:14:24.000Z</time></trkpt>
        <trkpt lat="29.174347" lon="104.638881"><ele>429</ele><time>2025-12-31T01:14:27.000Z</time></trkpt>
        <trkpt lat="29.174285" lon="104.638881"><ele>430</ele><time>2025-12-31T01:14:33.000Z</time></trkpt>
        <trkpt lat="29.174275" lon="104.638881"><ele>430</ele><time>2025-12-31T01:14:34.000Z</time></trkpt>
        <trkpt lat="29.1742" lon="104.638887"><ele>431</ele><time>2025-12-31T01:14:41.000Z</time></trkpt>
        <trkpt lat="29.174172" lon="104.638892"><ele>431</ele><time>2025-12-31T01:14:43.000Z</time></trkpt>
        <trkpt lat="29.174076" lon="104.638916"><ele>430</ele><time>2025-12-31T01:14:52.000Z</time></trkpt>
        <trkpt lat="29.174004" lon="104.638899"><ele>430</ele><time>2025-12-31T01:14:59.000Z</time></trkpt>
        <trkpt lat="29.173894" lon="104.638872"><ele>431</ele><time>2025-12-31T01:15:08.000Z</time></trkpt>
        <trkpt lat="29.173803" lon="104.638857"><ele>431</ele><time>2025-12-31T01:15:16.000Z</time></trkpt>
        <trkpt lat="29.17372" lon="104.638837"><ele>431</ele><time>2025-12-31T01:15:23.000Z</time></trkpt>
        <trkpt lat="29.17366" lon="104.63881"><ele>431</ele><time>2025-12-31T01:15:29.000Z</time></trkpt>
        <trkpt lat="29.173587" lon="104.638778"><ele>431</ele><time>2025-12-31T01:15:36.000Z</time></trkpt>
        <trkpt lat="29.173497" lon="104.638732"><ele>431</ele><time>2025-12-31T01:15:44.000Z</time></trkpt>
        <trkpt lat="29.173434" lon="104.638677"><ele>431</ele><time>2025-12-31T01:15:51.000Z</time></trkpt>
        <trkpt lat="29.173369" lon="104.638603"><ele>431</ele><time>2025-12-31T01:15:59.000Z</time></trkpt>
        <trkpt lat="29.173304" lon="104.638531"><ele>430</ele><time>2025-12-31T01:16:07.000Z</time></trkpt>
        <trkpt lat="29.173267" lon="104.638487"><ele>429</ele><time>2025-12-31T01:16:12.000Z</time></trkpt>
        <trkpt lat="29.17323" lon="104.638444"><ele>429</ele><time>2025-12-31T01:16:15.000Z</time></trkpt>
        <trkpt lat="29.173163" lon="104.63842"><ele>428</ele><time>2025-12-31T01:16:21.000Z</time></trkpt>
        <trkpt lat="29.173089" lon="104.638442"><ele>428</ele><time>2025-12-31T01:16:28.000Z</time></trkpt>
        <trkpt lat="29.17303" lon="104.638481"><ele>428</ele><time>2025-12-31T01:16:34.000Z</time></trkpt>
        <trkpt lat="29.172933" lon="104.638497"><ele>428</ele><time>2025-12-31T01:16:42.000Z</time></trkpt>
        <trkpt lat="29.172807" lon="104.638521"><ele>428</ele><time>2025-12-31T01:16:54.000Z</time></trkpt>
        <trkpt lat="29.172675" lon="104.638565"><ele>428</ele><time>2025-12-31T01:17:04.000Z</time></trkpt>
        <trkpt lat="29.172588" lon="104.638603"><ele>428</ele><time>2025-12-31T01:17:10.000Z</time></trkpt>
        <trkpt lat="29.172547" lon="104.63865"><ele>427</ele><time>2025-12-31T01:17:18.000Z</time></trkpt>
        <trkpt lat="29.17255" lon="104.638668"><ele>427</ele><time>2025-12-31T01:17:19.000Z</time></trkpt>
        <trkpt lat="29.172556" lon="104.638678"><ele>427</ele><time>2025-12-31T01:17:20.000Z</time></trkpt>
        <trkpt lat="29.172554" lon="104.638732"><ele>427</ele><time>2025-12-31T01:17:24.000Z</time></trkpt>
        <trkpt lat="29.172557" lon="104.638844"><ele>427</ele><time>2025-12-31T01:17:32.000Z</time></trkpt>
        <trkpt lat="29.172563" lon="104.638937"><ele>426</ele><time>2025-12-31T01:17:39.000Z</time></trkpt>
        <trkpt lat="29.172566" lon="104.639036"><ele>427</ele><time>2025-12-31T01:17:47.000Z</time></trkpt>
        <trkpt lat="29.172552" lon="104.639111"><ele>427</ele><time>2025-12-31T01:17:54.000Z</time></trkpt>
        <trkpt lat="29.172571" lon="104.639192"><ele>427</ele><time>2025-12-31T01:18:00.000Z</time></trkpt>
        <trkpt lat="29.172574" lon="104.639206"><ele>427</ele><time>2025-12-31T01:18:01.000Z</time></trkpt>
        <trkpt lat="29.172578" lon="104.639221"><ele>427</ele><time>2025-12-31T01:18:02.000Z</time></trkpt>
        <trkpt lat="29.172582" lon="104.639286"><ele>427</ele><time>2025-12-31T01:18:07.000Z</time></trkpt>
        <trkpt lat="29.172594" lon="104.63934"><ele>426</ele><time>2025-12-31T01:18:12.000Z</time></trkpt>
        <trkpt lat="29.172606" lon="104.639364"><ele>426</ele><time>2025-12-31T01:18:14.000Z</time></trkpt>
        <trkpt lat="29.17261" lon="104.639408"><ele>426</ele><time>2025-12-31T01:18:18.000Z</time></trkpt>
        <trkpt lat="29.172589" lon="104.639457"><ele>425</ele><time>2025-12-31T01:18:23.000Z</time></trkpt>
        <trkpt lat="29.172569" lon="104.639491"><ele>425</ele><time>2025-12-31T01:18:25.000Z</time></trkpt>
        <trkpt lat="29.172535" lon="104.639551"><ele>425</ele><time>2025-12-31T01:18:30.000Z</time></trkpt>
        <trkpt lat="29.172518" lon="104.639623"><ele>425</ele><time>2025-12-31T01:18:36.000Z</time></trkpt>
        <trkpt lat="29.172495" lon="104.639699"><ele>425</ele><time>2025-12-31T01:18:42.000Z</time></trkpt>
        <trkpt lat="29.172455" lon="104.639788"><ele>426</ele><time>2025-12-31T01:18:49.000Z</time></trkpt>
        <trkpt lat="29.172405" lon="104.639868"><ele>426</ele><time>2025-12-31T01:18:57.000Z</time></trkpt>
        <trkpt lat="29.172395" lon="104.63993"><ele>426</ele><time>2025-12-31T01:19:03.000Z</time></trkpt>
        <trkpt lat="29.172358" lon="104.639972"><ele>426</ele><time>2025-12-31T01:19:07.000Z</time></trkpt>
        <trkpt lat="29.172337" lon="104.639991"><ele>427</ele><time>2025-12-31T01:19:10.000Z</time></trkpt>
        <trkpt lat="29.172314" lon="104.640014"><ele>427</ele><time>2025-12-31T01:19:14.000Z</time></trkpt>
        <trkpt lat="29.172273" lon="104.640047"><ele>428</ele><time>2025-12-31T01:19:18.000Z</time></trkpt>
        <trkpt lat="29.172246" lon="104.640087"><ele>428</ele><time>2025-12-31T01:19:23.000Z</time></trkpt>
        <trkpt lat="29.172235" lon="104.640104"><ele>428</ele><time>2025-12-31T01:19:25.000Z</time></trkpt>
        <trkpt lat="29.172188" lon="104.640162"><ele>428</ele><time>2025-12-31T01:19:31.000Z</time></trkpt>
        <trkpt lat="29.172115" lon="104.640209"><ele>427</ele><time>2025-12-31T01:19:37.000Z</time></trkpt>
        <trkpt lat="29.172067" lon="104.640249"><ele>427</ele><time>2025-12-31T01:19:43.000Z</time></trkpt>
        <trkpt lat="29.171989" lon="104.64028"><ele>427</ele><time>2025-12-31T01:19:50.000Z</time></trkpt>
        <trkpt lat="29.171886" lon="104.640285"><ele>427</ele><time>2025-12-31T01:19:58.000Z</time></trkpt>
        <trkpt lat="29.171792" lon="104.640268"><ele>427</ele><time>2025-12-31T01:20:06.000Z</time></trkpt>
        <trkpt lat="29.171719" lon="104.640218"><ele>427</ele><time>2025-12-31T01:20:13.000Z</time></trkpt>
        <trkpt lat="29.171687" lon="104.640164"><ele>427</ele><time>2025-12-31T01:20:19.000Z</time></trkpt>
        <trkpt lat="29.171661" lon="104.640131"><ele>427</ele><time>2025-12-31T01:20:23.000Z</time></trkpt>
        <trkpt lat="29.171587" lon="104.640053"><ele>427</ele><time>2025-12-31T01:20:34.000Z</time></trkpt>
        <trkpt lat="29.171496" lon="104.640078"><ele>427</ele><time>2025-12-31T01:20:40.000Z</time></trkpt>
        <trkpt lat="29.171421" lon="104.640144"><ele>427</ele><time>2025-12-31T01:20:46.000Z</time></trkpt>
        <trkpt lat="29.171357" lon="104.640235"><ele>427</ele><time>2025-12-31T01:20:55.000Z</time></trkpt>
        <trkpt lat="29.171291" lon="104.640339"><ele>426</ele><time>2025-12-31T01:21:05.000Z</time></trkpt>
        <trkpt lat="29.171265" lon="104.640416"><ele>427</ele><time>2025-12-31T01:21:13.000Z</time></trkpt>
        <trkpt lat="29.171207" lon="104.640471"><ele>428</ele><time>2025-12-31T01:21:21.000Z</time></trkpt>
        <trkpt lat="29.1712" lon="104.640474"><ele>429</ele><time>2025-12-31T01:21:22.000Z</time></trkpt>
        <trkpt lat="29.17112" lon="104.640485"><ele>429</ele><time>2025-12-31T01:21:28.000Z</time></trkpt>
        <trkpt lat="29.171109" lon="104.640486"><ele>429</ele><time>2025-12-31T01:21:29.000Z</time></trkpt>
        <trkpt lat="29.171078" lon="104.640495"><ele>428</ele><time>2025-12-31T01:21:33.000Z</time></trkpt>
        <trkpt lat="29.171051" lon="104.640501"><ele>428</ele><time>2025-12-31T01:21:36.000Z</time></trkpt>
        <trkpt lat="29.171022" lon="104.640518"><ele>427</ele><time>2025-12-31T01:21:41.000Z</time></trkpt>
        <trkpt lat="29.170979" lon="104.640526"><ele>427</ele><time>2025-12-31T01:21:45.000Z</time></trkpt>
        <trkpt lat="29.170946" lon="104.64053"><ele>426</ele><time>2025-12-31T01:21:48.000Z</time></trkpt>
        <trkpt lat="29.170896" lon="104.640512"><ele>425</ele><time>2025-12-31T01:21:55.000Z</time></trkpt>
        <trkpt lat="29.170891" lon="104.64051"><ele>425</ele><time>2025-12-31T01:21:56.000Z</time></trkpt>
        <trkpt lat="29.170829" lon="104.640528"><ele>424</ele><time>2025-12-31T01:22:04.000Z</time></trkpt>
        <trkpt lat="29.170769" lon="104.640518"><ele>423</ele><time>2025-12-31T01:22:12.000Z</time></trkpt>
        <trkpt lat="29.170752" lon="104.640518"><ele>422</ele><time>2025-12-31T01:22:14.000Z</time></trkpt>
        <trkpt lat="29.17074" lon="104.640518"><ele>422</ele><time>2025-12-31T01:22:15.000Z</time></trkpt>
        <trkpt lat="29.170723" lon="104.640518"><ele>422</ele><time>2025-12-31T01:22:17.000Z</time></trkpt>
        <trkpt lat="29.17071" lon="104.640513"><ele>422</ele><time>2025-12-31T01:22:18.000Z</time></trkpt>
        <trkpt lat="29.170678" lon="104.640502"><ele>421</ele><time>2025-12-31T01:22:21.000Z</time></trkpt>
        <trkpt lat="29.170664" lon="104.640501"><ele>420</ele><time>2025-12-31T01:22:23.000Z</time></trkpt>
        <trkpt lat="29.170624" lon="104.640498"><ele>419</ele><time>2025-12-31T01:22:27.000Z</time></trkpt>
        <trkpt lat="29.17059" lon="104.640504"><ele>419</ele><time>2025-12-31T01:22:30.000Z</time></trkpt>
        <trkpt lat="29.170577" lon="104.640507"><ele>418</ele><time>2025-12-31T01:22:31.000Z</time></trkpt>
        <trkpt lat="29.170534" lon="104.640519"><ele>417</ele><time>2025-12-31T01:22:35.000Z</time></trkpt>
        <trkpt lat="29.170508" lon="104.640518"><ele>417</ele><time>2025-12-31T01:22:37.000Z</time></trkpt>
        <trkpt lat="29.170479" lon="104.640515"><ele>416</ele><time>2025-12-31T01:22:40.000Z</time></trkpt>
        <trkpt lat="29.17045" lon="104.640491"><ele>415</ele><time>2025-12-31T01:22:44.000Z</time></trkpt>
        <trkpt lat="29.170426" lon="104.640476"><ele>414</ele><time>2025-12-31T01:22:48.000Z</time></trkpt>
        <trkpt lat="29.170418" lon="104.640475"><ele>414</ele><time>2025-12-31T01:22:49.000Z</time></trkpt>
        <trkpt lat="29.170344" lon="104.640495"><ele>413</ele><time>2025-12-31T01:22:54.000Z</time></trkpt>
        <trkpt lat="29.170312" lon="104.640514"><ele>413</ele><time>2025-12-31T01:22:57.000Z</time></trkpt>
        <trkpt lat="29.170295" lon="104.640514"><ele>412</ele><time>2025-12-31T01:23:00.000Z</time></trkpt>
        <trkpt lat="29.170286" lon="104.640514"><ele>412</ele><time>2025-12-31T01:23:01.000Z</time></trkpt>
        <trkpt lat="29.170248" lon="104.640512"><ele>411</ele><time>2025-12-31T01:23:07.000Z</time></trkpt>
        <trkpt lat="29.17025" lon="104.640516"><ele>411</ele><time>2025-12-31T01:23:13.000Z</time></trkpt>
        <trkpt lat="29.170249" lon="104.640518"><ele>411</ele><time>2025-12-31T01:23:14.000Z</time></trkpt>
        <trkpt lat="29.170199" lon="104.640536"><ele>410</ele><time>2025-12-31T01:23:20.000Z</time></trkpt>
        <trkpt lat="29.170198" lon="104.640537"><ele>409</ele><time>2025-12-31T01:23:21.000Z</time></trkpt>
        <trkpt lat="29.17017" lon="104.640543"><ele>409</ele><time>2025-12-31T01:23:26.000Z</time></trkpt>
        <trkpt lat="29.170143" lon="104.640569"><ele>408</ele><time>2025-12-31T01:23:30.000Z</time></trkpt>
        <trkpt lat="29.170115" lon="104.640585"><ele>408</ele><time>2025-12-31T01:23:34.000Z</time></trkpt>
        <trkpt lat="29.170096" lon="104.640592"><ele>407</ele><time>2025-12-31T01:23:37.000Z</time></trkpt>
        <trkpt lat="29.170053" lon="104.64061"><ele>406</ele><time>2025-12-31T01:23:42.000Z</time></trkpt>
        <trkpt lat="29.170048" lon="104.64061"><ele>406</ele><time>2025-12-31T01:23:43.000Z</time></trkpt>
        <trkpt lat="29.170017" lon="104.640604"><ele>405</ele><time>2025-12-31T01:23:48.000Z</time></trkpt>
        <trkpt lat="29.169995" lon="104.6406"><ele>405</ele><time>2025-12-31T01:23:50.000Z</time></trkpt>
        <trkpt lat="29.16996" lon="104.640594"><ele>404</ele><time>2025-12-31T01:23:54.000Z</time></trkpt>
        <trkpt lat="29.169896" lon="104.640594"><ele>403</ele><time>2025-12-31T01:23:58.000Z</time></trkpt>
        <trkpt lat="29.16985" lon="104.640591"><ele>403</ele><time>2025-12-31T01:24:03.000Z</time></trkpt>
        <trkpt lat="29.169836" lon="104.64058"><ele>403</ele><time>2025-12-31T01:24:05.000Z</time></trkpt>
        <trkpt lat="29.169769" lon="104.640508"><ele>402</ele><time>2025-12-31T01:24:12.000Z</time></trkpt>
        <trkpt lat="29.169739" lon="104.640445"><ele>401</ele><time>2025-12-31T01:24:19.000Z</time></trkpt>
        <trkpt lat="29.169711" lon="104.64039"><ele>400</ele><time>2025-12-31T01:24:25.000Z</time></trkpt>
        <trkpt lat="29.169702" lon="104.640377"><ele>400</ele><time>2025-12-31T01:24:26.000Z</time></trkpt>
        <trkpt lat="29.169667" lon="104.640326"><ele>399</ele><time>2025-12-31T01:24:32.000Z</time></trkpt>
        <trkpt lat="29.169665" lon="104.640321"><ele>398</ele><time>2025-12-31T01:24:33.000Z</time></trkpt>
        <trkpt lat="29.169654" lon="104.640269"><ele>398</ele><time>2025-12-31T01:24:38.000Z</time></trkpt>
        <trkpt lat="29.169644" lon="104.640235"><ele>397</ele><time>2025-12-31T01:24:40.000Z</time></trkpt>
        <trkpt lat="29.169619" lon="104.640142"><ele>397</ele><time>2025-12-31T01:24:47.000Z</time></trkpt>
        <trkpt lat="29.169581" lon="104.640014"><ele>397</ele><time>2025-12-31T01:24:54.000Z</time></trkpt>
        <trkpt lat="29.169525" lon="104.639935"><ele>397</ele><time>2025-12-31T01:25:03.000Z</time></trkpt>
        <trkpt lat="29.169454" lon="104.639869"><ele>397</ele><time>2025-12-31T01:25:11.000Z</time></trkpt>
        <trkpt lat="29.169446" lon="104.639865"><ele>397</ele><time>2025-12-31T01:25:12.000Z</time></trkpt>
        <trkpt lat="29.169439" lon="104.639863"><ele>397</ele><time>2025-12-31T01:25:13.000Z</time></trkpt>
        <trkpt lat="29.169384" lon="104.639868"><ele>397</ele><time>2025-12-31T01:25:20.000Z</time></trkpt>
        <trkpt lat="29.169383" lon="104.639882"><ele>397</ele><time>2025-12-31T01:25:23.000Z</time></trkpt>
        <trkpt lat="29.169378" lon="104.639882"><ele>397</ele><time>2025-12-31T01:25:26.000Z</time></trkpt>
        <trkpt lat="29.169376" lon="104.639878"><ele>397</ele><time>2025-12-31T01:25:27.000Z</time></trkpt>
        <trkpt lat="29.169378" lon="104.639871"><ele>397</ele><time>2025-12-31T01:25:33.000Z</time></trkpt>
        <trkpt lat="29.169393" lon="104.639884"><ele>397</ele><time>2025-12-31T01:25:38.000Z</time></trkpt>
        <trkpt lat="29.169398" lon="104.639889"><ele>397</ele><time>2025-12-31T01:25:40.000Z</time></trkpt>
        <trkpt lat="29.1694" lon="104.639891"><ele>397</ele><time>2025-12-31T01:25:41.000Z</time></trkpt>
        <trkpt lat="29.169404" lon="104.639893"><ele>397</ele><time>2025-12-31T01:25:43.000Z</time></trkpt>
        <trkpt lat="29.169404" lon="104.639872"><ele>397</ele><time>2025-12-31T01:25:49.000Z</time></trkpt>
        <trkpt lat="29.169398" lon="104.639867"><ele>397</ele><time>2025-12-31T01:25:53.000Z</time></trkpt>
        <trkpt lat="29.169373" lon="104.639877"><ele>397</ele><time>2025-12-31T01:25:59.000Z</time></trkpt>
        <trkpt lat="29.169384" lon="104.639876"><ele>397</ele><time>2025-12-31T01:26:00.000Z</time></trkpt>
        <trkpt lat="29.169384" lon="104.639878"><ele>397</ele><time>2025-12-31T01:26:02.000Z</time></trkpt>
        <trkpt lat="29.169357" lon="104.639883"><ele>396</ele><time>2025-12-31T01:26:04.000Z</time></trkpt>
      </trkseg>
  </trk>
</gpx>